<<back to data home page
READY FOR FALL? STAY IN TOUCH AND HELP THE STATION - DONATE ANY AMOUNT BY CLICKING THIS LINK!!!

    Month/Day/Year       Maximum   Minimum    Rel    Dew       Rainfall  Seasonal  Soil     Soil      Baro       Wind    Wind        Peak    Peak Gust  Evap     Leaf     Net
    and                  Air Temp  Air Temp   Hum    Point     Inches    Rainfall  Temp     Moisture  Pressure   Speed   Direction   Gust    Direction  Pan      Wetness  Radiation
    Local Time           Deg F     Deg F      %      Deg F               Inches    Deg F    dS/m      mbar       knots   comp deg    knots   comp deg   Inches   mV       W_m2
----------------------------------------------------------------------------------------------------------------------------------------------------------------------------------
   09/30/2016 02:50      65.8      65.7       62     52.6      0.00      0.00      81.5     0.39      1017.0     1       148         2       140        8.66     271      -53.0
   09/30/2016 02:40      66.2      65.8       62     52.5      0.00      0.00      81.8     0.39      1017.0     2       174         3       143        8.66     271      -53.2
   09/30/2016 02:30      66.6      66.3       63     53.5      0.00      0.00      81.9     0.39      1017.0     1       171         2       108        8.66     271      -53.1
   09/30/2016 02:20      66.7      66.3       64     53.9      0.00      0.00      81.9     0.39      1017.0     1       173         1       139        8.66     271      -53.1
   09/30/2016 02:10      66.9      66.7       64     54.2      0.00      0.00      81.8     0.39      1017.0     1       155         2       125        8.66     271      -54.0
   09/30/2016 02:00      67.2      66.9       64     54.5      0.00      0.00      81.8     0.39      1017.0     1       165         2       137        8.66     271      -54.0
   09/30/2016 01:50      67.3      66.9       65     54.8      0.00      0.00      82.1     0.39      1017.0     1       164         2       129        8.66     271      -54.1
   09/30/2016 01:40      67.7      67.3       64     54.9      0.00      0.00      81.8     0.39      1017.0     1       175         2       140        8.67     271      -53.8
   09/30/2016 01:30      68.2      67.7       62     54.7      0.00      0.00      81.9     0.39      1017.0     1       151         1       142        8.67     271      -54.3
   09/30/2016 01:20      68.4      68.2       62     54.6      0.00      0.00      81.7     0.39      1017.0     1       195         1       201        8.67     271      -54.4
   09/30/2016 01:10      68.4      68.3       60     54.1      0.00      0.00      81.9     0.39      1017.0     1       206         1       161        8.67     271      -54.2
   09/30/2016 01:00      69.0      68.5       59     54.1      0.00      0.00      82.2     0.39      1017.0     1       149         2       144        8.67     271      -54.4
   09/30/2016 00:50      69.8      69.1       57     53.6      0.00      0.00      81.9     0.39      1017.0     1       153         2       138        8.67     271      -54.8
   09/30/2016 00:40      69.8      69.6       56     53.5      0.00      0.00      81.9     0.39      1017.0     1       147         1       148        8.67     270      -54.3
   09/30/2016 00:30      70.3      69.9       54     52.8      0.00      0.00      82.0     0.39      1017.0     1       137         1       138        8.67     270      -54.9
   09/30/2016 00:20      70.6      70.0       52     51.9      0.00      0.00      82.1     0.39      1017.0     1       138         2       140        8.67     270      -55.1
   09/30/2016 00:10      71.1      70.7       50     51.1      0.00      0.00      82.0     0.39      1017.0     1       146         1       133        8.67     270      -55.3
   09/30/2016 00:00      70.8      70.4       48     50.1      0.00      0.00      82.0     0.39      1017.0     1       179         2       150        8.67     270      -55.0
   09/29/2016 23:50      71.5      70.7       46     49.4      0.00      0.00      82.3     0.39      1017.0     2       142         2       163        8.67     270      -56.1
   09/29/2016 23:40      71.8      71.7       45     49.0      0.00      0.00      82.2     0.39      1017.0     1       195         2       126        8.68     270      -55.4
   09/29/2016 23:30      71.8      71.3       44     48.7      0.00      0.00      82.3     0.39      1017.0     1       149         2       148        8.68     270      -55.9
   09/29/2016 23:20      72.4      71.4       44     48.5      0.00      0.00      82.1     0.39      1017.0     1       116         2       142        8.68     269      -56.0
   09/29/2016 23:10      73.2      72.6       43     49.1      0.00      0.00      82.0     0.39      1017.0     1        62         1        77        8.68     269      -56.8
   09/29/2016 23:00      73.2      73.0       43     49.1      0.00      0.00      82.1     0.39      1017.0     1        62         1        21        8.68     269      -56.7
   09/29/2016 22:50      73.8      73.2       42     48.9      0.00      0.00      82.1     0.39      1017.0     1        58         2        35        8.68     269      -57.4
   09/29/2016 22:40      75.0      74.1       40     48.8      0.00      0.00      82.1     0.39      1017.0     1        51         2        34        8.68     269      -57.7
   09/29/2016 22:30      75.8      75.3       39     49.0      0.00      0.00      82.0     0.39      1017.0     1        87         2       139        8.68     269      -58.1
   09/29/2016 22:20      76.3      75.9       38     48.5      0.00      0.00      82.1     0.39      1016.0     3       200         4       187        8.68     269      -58.0
   09/29/2016 22:10      75.9      74.5       39     48.6      0.00      0.00      82.1     0.39      1016.0     2       205         3       201        8.69     269      -58.6
   09/29/2016 22:00      76.2      75.2       39     49.0      0.00      0.00      82.0     0.39      1016.0     1        86         1       211        8.69     269      -59.6
   09/29/2016 21:50      77.3      76.3       38     49.1      0.00      0.00      82.1     0.39      1016.0     1       137         1       126        8.69     269      -60.3
   09/29/2016 21:40      77.9      77.3       36     48.8      0.00      0.00      82.0     0.39      1016.0     2       184         2       178        8.69     269      -61.0
   09/29/2016 21:30      78.0      77.7       36     49.0      0.00      0.00      82.2     0.39      1016.0     3       211         4       227        8.69     269      -61.5
   09/29/2016 21:20      78.4      77.8       36     49.0      0.00      0.00      82.1     0.39      1016.0     2       206         3       221        8.69     269      -62.6
   09/29/2016 21:10      78.8      78.4       36     49.2      0.00      0.00      81.9     0.39      1016.0     2       232         3       203        8.69     269      -63.6
   09/29/2016 21:00      79.0      78.8       35     49.2      0.00      0.00      82.0     0.39      1016.0     2       247         3       233        8.70     269      -64.8
   09/29/2016 20:50      79.3      78.9       35     49.4      0.00      0.00      82.0     0.39      1016.0     2       202         3       211        8.70     269      -65.6
   09/29/2016 20:40      79.4      79.3       35     49.7      0.00      0.00      82.0     0.39      1016.0     3       200         4       195        8.70     268      -66.4
   09/29/2016 20:30      79.7      79.4       35     49.6      0.00      0.00      81.9     0.39      1016.0     2       213         4       196        8.70     268      -67.1
   09/29/2016 20:20      79.9      79.5       35     49.5      0.00      0.00      82.0     0.39      1016.0     3       202         5       202        8.70     268      -67.4
   09/29/2016 20:10      80.2      79.9       34     49.3      0.00      0.00      81.8     0.39      1016.0     2       212         4       238        8.70     268      -68.4
   09/29/2016 20:00      80.6      80.3       34     49.2      0.00      0.00      82.0     0.39      1016.0     3       214         4       234        8.71     268      -69.5
   09/29/2016 19:50      81.2      80.8       33     49.1      0.00      0.00      81.8     0.39      1016.0     3       219         4       214        8.71     268      -70.3
   09/29/2016 19:40      81.4      81.1       32     48.9      0.00      0.00      81.9     0.39      1016.0     4       233         4       260        8.71     268      -71.2
   09/29/2016 19:30      81.9      81.3       32     48.6      0.00      0.00      81.8     0.39      1016.0     3       217         5       239        8.71     268      -72.3
   09/29/2016 19:20      82.4      81.9       31     48.5      0.00      0.00      81.8     0.39      1015.0     3       213         4       229        8.72     268      -73.2
   09/29/2016 19:10      83.6      82.5       30     48.4      0.00      0.00      81.7     0.39      1015.0     3       208         4       236        8.72     268      -74.5
   09/29/2016 19:00      84.3      83.8       29     48.5      0.00      0.00      81.6     0.39      1015.0     3       244         5       249        8.72     268      -75.2
   09/29/2016 18:50      84.6      84.1       29     48.6      0.00      0.00      81.6     0.39      1015.0     3       268         6       269        8.72     268      -75.1
   09/29/2016 18:40      85.3      84.6       29     48.8      0.00      0.00      81.6     0.39      1015.0     3       291         5       307        8.73     268      -73.4
   09/29/2016 18:30      85.7      85.2       29     49.2      0.00      0.00      81.5     0.39      1015.0     3       284         6       299        8.73     267      -70.7
   09/29/2016 18:20      86.6      85.7       28     49.0      0.00      0.00      81.5     0.39      1015.0     4       300         6       309        8.73     267      -67.2
   09/29/2016 18:10      87.3      86.7       26     48.4      0.00      0.00      81.6     0.39      1015.0     5       287         7       293        8.73     267      -45.8
   09/29/2016 18:00      87.8      87.5       26     48.2      0.00      0.00      81.3     0.39      1015.0     4       277         8       290        8.73     267      -31.2
   09/29/2016 17:50      88.7      87.8       26     48.7      0.00      0.00      81.3     0.39      1015.0     5       312         9       304        8.74     267      -12.7
   09/29/2016 17:40      89.3      88.9       25     48.8      0.00      0.00      81.3     0.39      1015.0     5       299         8       259        8.74     267        9.6
   09/29/2016 17:30      90.1      89.3       25     49.1      0.00      0.00      81.3     0.39      1015.0     7       298        12       283        8.74     266       34.1
   09/29/2016 17:20      90.5      90.1       25     49.8      0.00      0.00      81.2     0.39      1015.0     5       281         9       302        8.75     267       59.0
   09/29/2016 17:10      91.3      90.8       25     50.2      0.00      0.00      81.1     0.39      1015.0     6       282        11       322        8.75     267       81.9
   09/29/2016 17:00      92.1      91.3       25     50.4      0.00      0.00      81.1     0.39      1015.0     6       301        10       316        8.75     267      107.7
   09/29/2016 16:50      92.4      91.9       22     47.8      0.00      0.00      81.0     0.39      1015.0     5       266         8       242        8.76     267      132.0
   09/29/2016 16:40      92.2      91.9       22     47.8      0.00      0.00      80.8     0.39      1015.0     6       264         8       275        8.76     266      154.2
   09/29/2016 16:30      92.4      91.7       22     48.1      0.00      0.00      80.9     0.39      1015.0     5       250        10       216        8.77     267      177.7
   09/29/2016 16:20      92.3      91.9       22     48.2      0.00      0.00      80.8     0.39      1015.0     8       253        11       187        8.77     266      199.2
   09/29/2016 16:10      92.4      91.8       23     48.7      0.00      0.00      80.8     0.39      1015.0     8       263        15       233        8.78     267      212.1
   09/29/2016 16:00      93.3      92.0       23     49.0      0.00      0.00      80.8     0.39      1015.0     7       232        11       256        8.78     266      224.5
   09/29/2016 15:50      93.1      92.5       22     48.8      0.00      0.00      80.5     0.39      1015.0     6       232         9       243        8.79     268      243.8
   09/29/2016 15:40      93.6      92.2       22     48.2      0.00      0.00      80.5     0.39      1015.0     6       217         9       217        8.79     267      264.3
   09/29/2016 15:30      93.0      92.5       22     48.3      0.00      0.00      80.5     0.39      1015.0     8       214        13       233        8.80     268      283.9
   09/29/2016 15:20      93.7      92.3       22     48.1      0.00      0.00      80.5     0.39      1015.0     7       214         9       176        8.81     267      308.6
   09/29/2016 15:10      93.7      92.5       22     48.4      0.00      0.00      80.4     0.39      1015.0     8       214        11       243        8.82     267      331.1
   09/29/2016 15:00      93.8      93.0       22     48.3      0.00      0.00      80.3     0.39      1015.0     7       231        10       237        8.82     267      344.5
   09/29/2016 14:50      94.3      93.8       21     48.1      0.00      0.00      80.3     0.39      1015.0     4       206         6       197        8.82     268      361.0
   09/29/2016 14:40      95.0      94.2       21     48.1      0.00      0.00      80.3     0.39      1015.0     4       176         7       215        8.82     268      374.0
   09/29/2016 14:30      94.8      93.8       21     48.3      0.00      0.00      80.1     0.39      1015.0     5       170        12       165        8.82     269      386.4
   09/29/2016 14:20      95.4      93.7       21     47.9      0.00      0.00      80.2     0.39      1015.0     5       206         8       219        8.82     269      399.5
   09/29/2016 14:10      95.1      94.2       20     47.7      0.00      0.00      80.0     0.39      1015.0     3       261         5       266        8.83     270      408.4
   09/29/2016 14:00      94.8      93.5       21     47.7      0.00      0.00      79.9     0.39      1015.0     4       255         9       267        8.83     270      420.7
   09/29/2016 13:50      94.1      93.0       21     47.8      0.00      0.00      79.9     0.39      1015.0     4       236         6       265        8.83     269      430.6
   09/29/2016 13:40      94.4      93.0       21     48.2      0.00      0.00      80.0     0.39      1015.0     5       208        10       195        8.84     269      436.7
   09/29/2016 13:30      94.8      94.1       21     48.8      0.00      0.00      80.0     0.39      1015.0     6       189        12       186        8.84     269      440.9
   09/29/2016 13:20      95.1      93.8       22     50.2      0.00      0.00      79.8     0.39      1015.0     3       103         5       161        8.84     270      432.8
   09/29/2016 13:10      93.8      92.6       24     50.7      0.00      0.00      79.8     0.39      1016.0     2        61         3        78        8.84     270      438.9
   09/29/2016 13:00      93.1      92.2       24     50.8      0.00      0.00      79.9     0.39      1016.0     4       155         6       226        8.84     270      441.6
   09/29/2016 12:50      93.4      92.6       24     50.8      0.00      0.00      79.8     0.39      1016.0     5       136         7       139        8.84     270      443.1
   09/29/2016 12:40      93.7      92.5       24     50.8      0.00      0.00      79.8     0.39      1016.0     4       121         6       125        8.85     270      437.8
   09/29/2016 12:30      93.1      92.3       24     50.4      0.00      0.00      79.9     0.39      1016.0     3        24         5        11        8.85     271      434.2
   09/29/2016 12:20      92.7      91.9       24     50.0      0.00      0.00      79.8     0.39      1016.0     2        63         4        60        8.85     271      439.6
   09/29/2016 12:10      92.0      91.7       24     50.0      0.00      0.00      79.8     0.39      1016.0     3        17         5        16        8.85     271      436.0
   09/29/2016 12:00      92.3      91.6       24     49.5      0.00      0.00      79.8     0.39      1017.0     3       270         5       257        8.85     271      437.0
   09/29/2016 11:50      92.8      90.8       24     49.5      0.00      0.00      79.8     0.39      1017.0     2       259         4       236        8.85     271      432.9
   09/29/2016 11:40      90.9      90.2       25     49.5      0.00      0.00      79.8     0.39      1017.0     2       231         4       270        8.85     271      429.4
   09/29/2016 11:30      90.5      89.9       25     49.9      0.00      0.00      80.0     0.39      1017.0     3       357         4       351        8.85     272      424.3
   09/29/2016 11:20      90.2      89.6       26     50.2      0.00      0.00      79.9     0.39      1017.0     3       344         4       353        8.85     272      418.0
   09/29/2016 11:10      89.7      88.4       26     50.4      0.00      0.00      80.0     0.39      1017.0     3       259         4       351        8.85     272      411.8
   09/29/2016 11:00      88.7      88.2       27     50.5      0.00      0.00      80.0     0.39      1017.0     3       351         5       343        8.85     272      400.0
   09/29/2016 10:50      88.8      88.2       28     51.3      0.00      0.00      80.1     0.39      1017.0     3       354         4       349        8.85     272      391.1
   09/29/2016 10:40      88.2      87.0       28     51.1      0.00      0.00      80.0     0.39      1017.0     2        26         3        64        8.85     272      381.0
   09/29/2016 10:30      86.9      86.4       29     50.7      0.00      0.00      80.1     0.39      1017.0     1         6         3       348        8.85     274      368.2
   09/29/2016 10:20      86.7      85.5       29     50.5      0.00      0.00      80.2     0.39      1017.0     1         3         3        12        8.85     274      356.3
   09/29/2016 10:10      85.7      85.3       30     50.8      0.00      0.00      80.1     0.39      1017.0     2       325         3       316        8.85     274      342.2
   09/29/2016 10:00      85.2      84.1       32     51.5      0.00      0.00      80.1     0.39      1017.0     1         1         2       355        8.85     274      328.3
   09/29/2016 09:50      84.0      82.9       33     51.6      0.00      0.00      80.0     0.39      1017.0     2       340         3       334        8.85     276      312.9
   09/29/2016 09:40      83.2      82.9       34     51.6      0.00      0.00      80.4     0.39      1017.0     2       360         3       342        8.85     279      296.3
   09/29/2016 09:30      82.8      81.1       35     51.7      0.00      0.00      80.2     0.39      1017.0     1       350         2        61        8.85     282      279.1
   09/29/2016 09:20      82.2      81.4       36     52.1      0.00      0.00      80.2     0.39      1017.0     2       302         2       307        8.85     285      262.6
   09/29/2016 09:10      82.4      82.0       36     52.4      0.00      0.00      80.2     0.39      1017.0     1       334         2         0        8.85     291      245.8
   09/29/2016 09:00      82.0      80.5       37     52.2      0.00      0.00      80.5     0.39      1017.0     1        69         1       114        8.85     298      226.7
   09/29/2016 08:50      80.5      78.3       40     52.8      0.00      0.00      80.3     0.39      1017.0     1        96         1       139        8.85     305      206.3
   09/29/2016 08:40      78.6      77.3       41     52.8      0.00      0.00      80.4     0.39      1017.0     1       137         1       136        8.85     310      184.9
   09/29/2016 08:30      77.1      75.4       44     53.0      0.00      0.00      80.5     0.39      1017.0     0       335         1       295        8.85     310      160.0
   09/29/2016 08:20      75.8      74.8       46     53.0      0.00      0.00      80.7     0.39      1017.0     1       333         1       337        8.85     310      132.7
   09/29/2016 08:10      75.0      74.1       47     53.0      0.00      0.00      80.6     0.39      1017.0     1        70         2        89        8.85     310      104.8
   09/29/2016 08:00      73.7      71.2       50     52.6      0.00      0.00      80.2     0.39      1017.0     1        67         2        85        8.85     309       76.8
   09/29/2016 07:50      71.1      68.2       54     52.5      0.00      0.00      80.4     0.39      1017.0     0        63         1        85        8.85     307        9.9
   09/29/2016 07:40      67.9      65.6       60     52.2      0.00      0.00      80.5     0.39      1017.0     1       125         1       143        8.85     306      -24.9
   09/29/2016 07:30      65.5      64.8       61     51.5      0.00      0.00      80.5     0.40      1016.0     2       143         2       128        8.85     305      -16.2
   09/29/2016 07:20      64.8      64.3       61     50.8      0.00      0.00      80.7     0.39      1016.0     1       196         1       203        8.85     304      -30.4
   09/29/2016 07:10      64.4      63.9       62     50.7      0.00      0.00      80.5     0.40      1016.0     0       217         0       215        8.85     302      -34.9
   09/29/2016 07:00      64.0      63.6       63     50.9      0.00      0.00      80.6     0.40      1016.0     0       143         1       186        8.85     300      -40.4
   09/29/2016 06:50      63.9      63.7       63     51.1      0.00      0.00      80.9     0.40      1016.0     1        75         1       128        8.85     299      -43.7
   09/29/2016 06:40      64.4      63.7       61     50.3      0.00      0.00      80.9     0.40      1016.0     2       133         2       134        8.85     298      -45.5
   09/29/2016 06:30      64.8      64.3       61     50.6      0.00      0.00      80.9     0.40      1016.0     2       138         2       141        8.85     296      -46.0
   09/29/2016 06:20      65.0      64.7       60     50.5      0.00      0.00      80.8     0.40      1016.0     0       124         1       133        8.85     294      -45.8
   09/29/2016 06:10      65.8      65.3       59     50.7      0.00      0.00      80.9     0.40      1016.0     1        23         1       359        8.86     293      -46.0
   09/29/2016 06:00      66.0      65.8       58     50.5      0.00      0.00      80.9     0.40      1016.0     0       352         1        25        8.86     292      -45.2
   09/29/2016 05:50      65.9      65.5       58     50.7      0.00      0.00      80.8     0.40      1016.0     0       257         1       316        8.86     291      -45.6
   09/29/2016 05:40      65.6      65.1       59     50.7      0.00      0.00      81.1     0.40      1016.0     1       221         2       157        8.86     290      -46.2
   09/29/2016 05:30      65.6      65.4       59     50.7      0.00      0.00      80.9     0.40      1016.0     2       155         3       145        8.86     289      -46.6
   09/29/2016 05:20      65.8      65.4       58     50.5      0.00      0.00      80.8     0.40      1016.0     1       179         1       156        8.86     288      -46.3
   09/29/2016 05:10      65.7      65.3       58     50.3      0.00      0.00      81.1     0.40      1015.0     1       172         2       190        8.86     287      -47.8
   09/29/2016 05:00      65.6      65.4       59     50.7      0.00      0.00      81.1     0.40      1015.0     2       157         3       164        8.86     287      -48.4
   09/29/2016 04:50      65.8      65.4       59     50.7      0.00      0.00      80.9     0.40      1015.0     2       151         3       134        8.86     286      -48.8
   09/29/2016 04:40      65.4      65.3       58     50.0      0.00      0.00      81.0     0.40      1015.0     1       208         2       215        8.86     285      -48.6
   09/29/2016 04:30      65.7      65.4       58     50.4      0.00      0.00      81.1     0.40      1015.0     1       142         2       136        8.86     284      -49.1
   09/29/2016 04:20      65.8      65.6       56     49.7      0.00      0.00      81.0     0.40      1015.0     1       156         1       134        8.86     283      -48.7
   09/29/2016 04:10      65.8      65.6       55     49.2      0.00      0.00      81.3     0.40      1015.0     1       194         2       150        8.86     282      -48.7
   09/29/2016 04:00      66.0      65.7       55     49.4      0.00      0.00      81.3     0.40      1015.0     1       162         2       165        8.86     281      -48.7
   09/29/2016 03:50      66.1      65.8       55     49.4      0.00      0.00      81.0     0.40      1015.0     1       165         1       141        8.87     280      -49.2
   09/29/2016 03:40      66.3      66.1       55     49.8      0.00      0.00      81.4     0.40      1015.0     1       210         2       142        8.87     279      -49.7
   09/29/2016 03:30      67.0      66.5       55     49.9      0.00      0.00      81.3     0.40      1015.0     1       123         2       127        8.87     278      -50.3
   09/29/2016 03:20      67.1      66.9       54     49.7      0.00      0.00      81.3     0.40      1015.0     1       157         1       127        8.87     277      -49.5
   09/29/2016 03:10      67.3      66.9       54     50.1      0.00      0.00      81.4     0.40      1015.0     1       139         1       126        8.87     277      -50.1
   09/29/2016 03:00      67.4      67.1       53     49.4      0.00      0.00      81.5     0.40      1015.0     1       204         1       232        8.87     276      -50.4
   09/29/2016 02:50      67.8      67.4       54     50.4      0.00      0.00      81.2     0.40      1015.0     2       141         2       139        8.87     276      -51.5
   09/29/2016 02:40      68.1      67.6       53     50.0      0.00      0.00      81.6     0.40      1015.0     2       138         2       138        8.87     275      -51.2
   09/29/2016 02:30      67.8      67.5       52     49.6      0.00      0.00      81.6     0.40      1015.0     1       162         2       142        8.87     274      -50.4
   09/29/2016 02:20      68.8      67.9       50     49.1      0.00      0.00      81.7     0.40      1015.0     2       128         2       127        8.87     273      -51.1
   09/29/2016 02:10      69.2      68.6       49     48.8      0.00      0.00      81.4     0.40      1015.0     1       172         1       122        8.87     273      -50.2
   09/29/2016 02:00      68.7      68.3       49     48.8      0.00      0.00      81.7     0.40      1015.0     1       139         2       124        8.88     272      -50.7
   09/29/2016 01:50      69.3      68.9       48     48.8      0.00      0.00      81.8     0.40      1015.0     1       129         2       113        8.88     271      -51.0
   09/29/2016 01:40      69.5      69.2       48     48.9      0.00      0.00      81.6     0.40      1015.0     0        16         1        48        8.88     271      -51.2
   09/29/2016 01:30      70.0      69.5       47     48.6      0.00      0.00      81.7     0.40      1015.0     0        36         1        34        8.88     270      -51.9
   09/29/2016 01:20      70.3      70.1       47     48.8      0.00      0.00      81.6     0.40      1014.0     1       106         1       144        8.88     270      -51.6
   09/29/2016 01:10      70.4      69.8       46     48.7      0.00      0.00      81.9     0.40      1014.0     1       142         2       136        8.88     269      -51.8
   09/29/2016 01:00      70.7      70.5       46     49.1      0.00      0.00      81.7     0.40      1014.0     0        93         1       116        8.88     269      -52.4
   09/29/2016 00:50      71.7      70.7       45     48.7      0.00      0.00      81.6     0.40      1014.0     1        86         1        77        8.88     269      -53.5
   09/29/2016 00:40      72.0      71.8       44     49.1      0.00      0.00      81.7     0.40      1014.0     1        64         2       153        8.89     270      -53.5
   09/29/2016 00:30      72.5      71.9       44     49.0      0.00      0.00      81.6     0.40      1014.0     1       200         2       327        8.89     270      -53.3
   09/29/2016 00:20      73.4      72.6       42     48.9      0.00      0.00      81.7     0.40      1014.0     1       159         1       154        8.89     270      -53.6
   09/29/2016 00:10      73.6      73.2       41     48.5      0.00      0.00      81.9     0.40      1014.0     2       235         3       246        8.89     270      -53.9
   09/29/2016 00:00      73.2      72.1       42     48.7      0.00      0.00      81.7     0.40      1014.0     2       248         5       237        8.89     270      -53.4
   09/28/2016 23:50      72.0      71.7       44     48.8      0.00      0.00      81.7     0.40      1014.0     1       328         3       289        8.89     269      -53.5
   09/28/2016 23:40      72.2      71.8       44     48.8      0.00      0.00      81.7     0.40      1014.0     1       139         2       132        8.89     268      -53.6
   09/28/2016 23:30      73.2      72.3       43     48.9      0.00      0.00      81.8     0.40      1014.0     1        55         2        69        8.90     268      -54.4
   09/28/2016 23:20      74.0      73.4       41     48.9      0.00      0.00      81.7     0.40      1014.0     1        55         1        42        8.90     269      -55.0
   09/28/2016 23:10      74.3      73.5       41     48.8      0.00      0.00      81.7     0.40      1014.0     1       181         4       204        8.90     270      -55.2
   09/28/2016 23:00      73.6      73.2       43     49.4      0.00      0.00      82.0     0.40      1014.0     1       138         2       139        8.90     269      -55.2
   09/28/2016 22:50      74.0      73.2       40     48.0      0.00      0.00      81.8     0.40      1014.0     1       216         2       224        8.90     269      -55.0
   09/28/2016 22:40      73.5      73.2       42     49.0      0.00      0.00      81.6     0.40      1014.0     1       168         2       155        8.90     269      -55.4
   09/28/2016 22:30      74.1      73.7       42     49.5      0.00      0.00      81.5     0.40      1014.0     1       145         2       135        8.90     269      -55.6
   09/28/2016 22:20      75.2      74.3       40     48.6      0.00      0.00      81.9     0.40      1014.0     1       120         1       122        8.90     270      -56.0
   09/28/2016 22:10      75.3      74.7       40     49.0      0.00      0.00      81.7     0.40      1014.0     1       232         1       213        8.90     270      -55.9
   09/28/2016 22:00      75.8      75.0       39     48.7      0.00      0.00      81.9     0.40      1014.0     1       112         1       127        8.91     270      -57.2
   09/28/2016 21:50      76.4      75.7       38     48.7      0.00      0.00      81.7     0.40      1014.0     1       146         1       134        8.91     270      -58.2
   09/28/2016 21:40      78.0      76.5       36     48.6      0.00      0.00      81.9     0.40      1014.0     1        81         1        66        8.91     271      -59.7
   09/28/2016 21:30      78.7      78.4       35     48.5      0.00      0.00      81.6     0.40      1014.0     1       188         2       228        8.91     271      -61.0
   09/28/2016 21:20      79.5      78.8       34     48.6      0.00      0.00      81.9     0.40      1014.0     1       227         2       183        8.91     271      -61.8
   09/28/2016 21:10      79.8      79.3       34     48.6      0.00      0.00      81.8     0.40      1014.0     3       209         5       202        8.91     271      -62.8
   09/28/2016 21:00      79.9      79.5       34     48.7      0.00      0.00      81.8     0.40      1014.0     2       208         4       177        8.92     271      -63.3
   09/28/2016 20:50      80.2      79.8       34     49.0      0.00      0.00      81.8     0.40      1014.0     3       206         5       208        8.92     270      -63.8
   09/28/2016 20:40      80.4      80.2       34     49.3      0.00      0.00      81.8     0.40      1014.0     3       206         4       215        8.92     270      -64.1
   09/28/2016 20:30      80.8      80.3       34     49.3      0.00      0.00      81.5     0.40      1014.0     3       195         5       199        8.93     270      -64.6
   09/28/2016 20:20      81.4      81.0       33     49.3      0.00      0.00      81.5     0.40      1014.0     2       192         3       200        8.93     270      -65.5
   09/28/2016 20:10      81.8      81.3       33     49.4      0.00      0.00      81.6     0.40      1014.0     3       204         4       212        8.93     270      -65.1
   09/28/2016 20:00      82.2      81.9       33     49.8      0.00      0.00      81.6     0.40      1014.0     3       224         5       244        8.93     270      -66.2
   09/28/2016 19:50      83.0      82.4       32     49.8      0.00      0.00      81.6     0.40      1014.0     3       232         4       211        8.94     270      -66.2
   09/28/2016 19:40      83.4      82.9       31     49.8      0.00      0.00      81.8     0.40      1014.0     4       249         7       251        8.94     270      -61.5
   09/28/2016 19:30      83.7      83.4       31     49.6      0.00      0.00      81.7     0.40      1013.0     3       254         5       259        8.94     270      -53.1
   09/28/2016 19:20      84.0      83.6       30     49.2      0.00      0.00      81.2     0.40      1013.0     5       256         7       263        8.95     270      -56.5
   09/28/2016 19:10      84.6      83.9       29     48.9      0.00      0.00      81.6     0.40      1013.0     5       274         8       255        8.95     270      -61.7
   09/28/2016 19:00      85.3      84.6       28     48.6      0.00      0.00      81.3     0.40      1013.0     5       289         6       260        8.96     270      -59.1
   09/28/2016 18:50      86.2      85.5       28     48.5      0.00      0.00      81.5     0.40      1013.0     4       306         7       299        8.96     270      -65.9
   09/28/2016 18:40      86.8      86.3       27     48.6      0.00      0.00      81.5     0.40      1013.0     3       299         5       320        8.97     270      -56.5
   09/28/2016 18:30      87.7      87.0       26     48.8      0.00      0.00      81.3     0.40      1013.0     4       268         7       249        8.97     269      -41.7
   09/28/2016 18:20      88.6      87.8       26     48.8      0.00      0.00      81.1     0.40      1012.0     4       263         6       253        8.97     269      -23.4
   09/28/2016 18:10      88.8      88.5       26     48.9      0.00      0.00      81.5     0.40      1012.0     3       249         5       237        8.98     269       10.8
   09/28/2016 18:00      89.5      88.7       25     48.9      0.00      0.00      81.3     0.40      1012.0     4       230         7       233        8.99     269       42.5
   09/28/2016 17:50      89.8      89.0       25     49.2      0.00      0.00      81.3     0.40      1012.0     2       224         4       235        8.99     269       46.8
   09/28/2016 17:40      89.1      88.8       25     49.1      0.00      0.00      81.2     0.40      1012.0     3       218         4       214        8.99     269       47.7
   09/28/2016 17:30      89.1      88.6       26     49.1      0.00      0.00      80.8     0.40      1012.0     4       230         5       245        8.99     269       67.3
   09/28/2016 17:20      89.1      88.5       26     49.0      0.00      0.00      80.9     0.40      1012.0     5       227         6       221        8.99     269       71.6
   09/28/2016 17:10      90.5      89.2       25     48.9      0.00      0.00      81.1     0.40      1012.0     5       235         7       240        9.00     269       88.2
   09/28/2016 17:00      90.6      90.1       23     47.7      0.00      0.00      81.0     0.40      1012.0     3       183         5       157        9.00     269      112.8
   09/28/2016 16:50      90.2      89.1       24     47.8      0.00      0.00      80.7     0.40      1012.0     5       162        10       134        9.01     269      139.2
   09/28/2016 16:40      89.5      89.2       24     47.6      0.00      0.00      80.6     0.40      1012.0     6       135        10       124        9.01     269      162.7
   09/28/2016 16:30      90.1      89.4       24     47.8      0.00      0.00      80.7     0.40      1012.0     7       156        10       160        9.01     269      183.3
   09/28/2016 16:20      90.8      90.1       23     47.8      0.00      0.00      80.6     0.40      1012.0     6       171         8       144        9.02     269      203.8
   09/28/2016 16:10      90.7      90.3       23     47.4      0.00      0.00      80.4     0.40      1012.0     5       187         9       212        9.02     269      212.1
   09/28/2016 16:00      91.2      90.6       22     46.9      0.00      0.00      80.5     0.40      1012.0     7       189        10       219        9.02     269      230.1
   09/28/2016 15:50      92.5      91.2       22     47.1      0.00      0.00      80.5     0.40      1012.0     6       183         9       215        9.02     270      248.4
   09/28/2016 15:40      92.0      90.9       22     47.4      0.00      0.00      80.3     0.40      1012.0     6       157         8       190        9.02     270      267.9
   09/28/2016 15:30      91.0      90.6       22     47.1      0.00      0.00      80.3     0.40      1012.0     5       159         8       128        9.02     270      288.1
   09/28/2016 15:20      91.3      90.7       22     47.4      0.00      0.00      80.3     0.40      1012.0     7       171         9       182        9.02     270      313.5
   09/28/2016 15:10      91.8      90.9       23     48.0      0.00      0.00      80.2     0.40      1012.0     6       163         8       131        9.02     270      338.6
   09/28/2016 15:00      91.9      91.0       22     47.9      0.00      0.00      80.3     0.40      1012.0     7       162        11       129        9.02     270      354.2
   09/28/2016 14:50      94.1      91.9       22     48.2      0.00      0.00      80.2     0.39      1012.0     6       162        13       147        9.02     270      363.6
   09/28/2016 14:40      94.0      91.9       22     48.2      0.00      0.00      80.2     0.39      1012.0     3        44         5        99        9.02     271      373.4
   09/28/2016 14:30      92.9      92.1       22     48.2      0.00      0.00      79.9     0.39      1012.0     4       129         7        95        9.02     271      387.1
   09/28/2016 14:20      92.5      91.8       23     48.8      0.00      0.00      80.1     0.39      1012.0     3        57         6       339        9.02     272      400.9
   09/28/2016 14:10      92.3      91.7       23     48.8      0.00      0.00      80.0     0.39      1012.0     6       106         9       144        9.02     272      415.2
   09/28/2016 14:00      93.3      92.0       22     48.6      0.00      0.00      79.9     0.39      1012.0     4       170         6       216        9.02     272      422.2
   09/28/2016 13:50      92.7      90.8       23     49.0      0.00      0.00      79.9     0.39      1012.0     4       137         8       138        9.02     272      432.9
   09/28/2016 13:40      92.9      91.2       23     49.3      0.00      0.00      79.9     0.39      1012.0     5       221         6       192        9.02     272      441.7
   09/28/2016 13:30      91.6      90.3       25     50.2      0.00      0.00      79.7     0.39      1012.0     3        74         6        77        9.02     272      449.9
   09/28/2016 13:20      92.2      90.2       25     50.4      0.00      0.00      79.8     0.39      1012.0     4       173         6       174        9.02     273      451.8
   09/28/2016 13:10      92.8      91.3       25     51.2      0.00      0.00      80.0     0.39      1012.0     3       117         5       158        9.02     274      454.7
   09/28/2016 13:00      91.7      90.4       26     51.4      0.00      0.00      79.8     0.39      1013.0     2       140         4        63        9.02     276      454.3
   09/28/2016 12:50      90.6      89.5       27     51.5      0.00      0.00      79.9     0.39      1013.0     3        87         7       124        9.02     279      454.3
   09/28/2016 12:40      90.6      90.0       27     51.5      0.00      0.00      79.8     0.39      1013.0     4       106         5       136        9.02     283      457.3
   09/28/2016 12:30      91.1      90.1       26     51.3      0.00      0.00      79.5     0.39      1013.0     2       310         5        71        9.02     289      451.6
   09/28/2016 12:20      90.6      89.6       27     51.4      0.00      0.00      79.6     0.39      1013.0     4        20         6         0        9.02     297      451.7
   09/28/2016 12:10      89.7      89.1       27     51.0      0.00      0.00      79.9     0.39      1013.0     2       251         5       224        9.02     306      456.1
   09/28/2016 12:00      90.0      87.2       28     51.4      0.00      0.00      80.0     0.39      1013.0     2       285         4       135        9.02     315      453.3
   09/28/2016 11:50      87.9      87.4       29     51.5      0.00      0.00      79.8     0.39      1013.0     3        79         4       107        9.02     322      447.2
   09/28/2016 11:40      87.5      86.1       30     51.7      0.00      0.00      79.8     0.39      1013.0     3        15         4       346        9.02     333      443.2
   09/28/2016 11:30      86.1      84.8       31     51.6      0.00      0.00      80.2     0.39      1013.0     3       321         5       349        9.02     343      439.1
   09/28/2016 11:20      85.7      84.7       31     51.6      0.00      0.00      80.0     0.39      1014.0     2       275         3       247        9.02     348      431.8
   09/28/2016 11:10      85.3      84.1       32     51.8      0.00      0.00      79.8     0.39      1014.0     2       250         3       214        9.02     354      424.7
   09/28/2016 11:00      85.7      84.8       32     52.2      0.00      0.00      80.1     0.39      1014.0     3        33         3         0        9.02     361      415.9
   09/28/2016 10:50      85.0      83.6       33     52.2      0.00      0.00      80.2     0.39      1014.0     1       207         3        84        9.02     364      406.8
   09/28/2016 10:40      83.6      82.5       34     52.0      0.00      0.00      80.3     0.39      1014.0     3       340         5       358        9.02     365      396.4
   09/28/2016 10:30      82.9      81.9       36     52.4      0.00      0.00      79.8     0.39      1014.0     2        42         2       358        9.01     363      384.8
   09/28/2016 10:20      81.9      81.3       36     52.4      0.00      0.00      80.5     0.39      1014.0     3       350         4       334        9.01     366      373.2
   09/28/2016 10:10      81.7      80.9       37     52.3      0.00      0.00      80.5     0.39      1014.0     3        58         4        77        9.01     365      360.5
   09/28/2016 10:00      81.4      79.8       38     52.7      0.00      0.00      80.1     0.39      1014.0     2        11         4       349        9.01     370      347.0
   09/28/2016 09:50      80.2      79.4       39     52.7      0.00      0.00      80.0     0.39      1014.0     2        26         3       344        9.01     382      331.8
   09/28/2016 09:40      80.2      78.6       40     53.2      0.00      0.00      79.8     0.39      1014.0     2        14         3        86        9.01     396      317.0
   09/28/2016 09:30      78.6      77.7       42     53.6      0.00      0.00      80.5     0.39      1014.0     2       343         3       330        8.98     401      297.5
   09/28/2016 09:20      77.5      76.5       44     53.6      0.00      0.00      80.4     0.39      1014.0     2       354         2       357        8.88     407      283.3
   09/28/2016 09:10      76.5      75.8       46     53.5      0.00      0.00      80.5     0.39      1014.0     1        17         3       356        8.65     410      268.5
   09/28/2016 09:00      76.4      75.7       47     54.2      0.00      0.00      80.4     0.39      1014.0     2       351         3         6        8.16     415      235.9
   09/28/2016 08:50      76.5      75.5       47     54.1      0.00      0.00      80.1     0.39      1014.0     2         3         3         1        7.79     268      203.6
   09/28/2016 08:40      77.3      75.9       45     54.0      0.00      0.00      80.6     0.39      1014.0     1        19         2       357        7.79     268      182.4
   09/28/2016 08:30      76.2      75.3       47     53.8      0.00      0.00      80.5     0.39      1014.0     1        33         2        92        7.79     268      157.8
   09/28/2016 08:20      75.6      75.1       46     53.0      0.00      0.00      80.7     0.39      1014.0     1        67         2        94        7.79     268      130.7
   09/28/2016 08:10      75.4      72.5       46     52.0      0.00      0.00      80.5     0.39      1014.0     0       233         1       167        7.79     268      102.3
   09/28/2016 08:00      72.3      69.6       50     51.4      0.00      0.00      80.6     0.39      1014.0     1       193         1       186        7.79     268       74.8
   09/28/2016 07:50      69.4      67.3       55     51.4      0.00      0.00      80.6     0.39      1014.0     2       141         2       126        7.79     268        8.1
   09/28/2016 07:40      67.2      65.5       58     51.1      0.00      0.00      80.5     0.39      1014.0     1       159         1       139        7.79     268      -22.8
   09/28/2016 07:30      65.4      64.8       61     51.3      0.00      0.00      80.5     0.39      1014.0     1       146         2       144        7.79     268      -18.1
   09/28/2016 07:20      64.8      64.3       61     50.8      0.00      0.00      80.7     0.39      1014.0     1       179         2       142        7.79     268      -33.6
   09/28/2016 07:10      64.5      64.2       62     51.1      0.00      0.00      80.6     0.39      1013.0     1       146         2       133        7.79     267      -39.0
   09/28/2016 07:00      64.5      64.2       62     51.2      0.00      0.00      80.8     0.39      1013.0     1       178         1       182        7.80     268      -43.6
   09/28/2016 06:50      64.5      64.3       62     51.1      0.00      0.00      80.6     0.39      1013.0     1       150         2       135        7.80     268      -48.5
   09/28/2016 06:40      64.6      64.3       59     50.0      0.00      0.00      80.6     0.39      1013.0     1       191         1       177        7.80     267      -49.5
   09/28/2016 06:30      64.9      64.6       60     50.4      0.00      0.00      80.9     0.39      1013.0     1       128         1       155        7.80     267      -50.9
   09/28/2016 06:20      65.2      64.8       60     50.6      0.00      0.00      80.9     0.39      1013.0     1       163         1       189        7.80     267      -50.5
   09/28/2016 06:10      65.2      65.1       59     50.7      0.00      0.00      80.8     0.39      1013.0     1       115         2       133        7.80     267      -51.6
   09/28/2016 06:00      65.5      65.2       56     49.4      0.00      0.00      80.9     0.39      1013.0     1       192         2       140        7.80     267      -50.6
   09/28/2016 05:50      65.9      65.5       58     50.4      0.00      0.00      80.8     0.39      1013.0     1       133         1       141        7.80     267      -50.6
   09/28/2016 05:40      66.6      66.1       56     50.0      0.00      0.00      80.7     0.39      1013.0     1       127         2       126        7.80     267      -50.4
   09/28/2016 05:30      66.8      66.5       55     50.0      0.00      0.00      80.8     0.39      1013.0     0       190         1       179        7.80     267      -49.4
   09/28/2016 05:20      67.0      66.5       56     50.4      0.00      0.00      80.9     0.39      1012.0     1       155         2       138        7.80     267      -49.0
   09/28/2016 05:10      67.1      66.9       55     50.2      0.00      0.00      80.9     0.39      1012.0     1       133         2       130        7.80     267      -48.0
   09/28/2016 05:00      67.5      67.2       53     49.5      0.00      0.00      80.8     0.39      1012.0     1       184         2       133        7.80     267      -47.0
   09/28/2016 04:50      67.8      67.5       53     50.0      0.00      0.00      80.8     0.39      1012.0     2       135         2       143        7.80     267      -45.1
   09/28/2016 04:40      68.1      67.5       52     49.7      0.00      0.00      80.9     0.39      1012.0     2       156         2       125        7.80     267      -42.8
   09/28/2016 04:30      68.5      68.2       51     49.3      0.00      0.00      81.1     0.39      1012.0     2       184         3       163        7.81     267      -45.8
   09/28/2016 04:20      68.8      68.2       50     48.9      0.00      0.00      81.2     0.39      1012.0     2       177         3       136        7.81     267      -48.9
   09/28/2016 04:10      69.2      68.6       49     49.0      0.00      0.00      80.9     0.39      1012.0     1       186         1       188        7.81     267      -48.1
   09/28/2016 04:00      69.4      68.9       50     49.6      0.00      0.00      81.0     0.39      1012.0     1       143         2       111        7.81     267      -46.6
   09/28/2016 03:50      70.2      69.6       48     49.4      0.00      0.00      81.0     0.39      1012.0     1        20         2       117        7.81     267      -41.3
   09/28/2016 03:40      70.3      69.8       47     48.7      0.00      0.00      81.1     0.39      1012.0     1       300         2       239        7.81     267      -34.2
   09/28/2016 03:30      70.6      69.9       47     49.0      0.00      0.00      81.1     0.39      1012.0     1       180         2       228        7.81     267      -33.0
   09/28/2016 03:20      70.7      70.3       47     49.3      0.00      0.00      81.3     0.39      1012.0     2       225         3       217        7.81     267      -39.1
   09/28/2016 03:10      70.5      70.2       49     50.3      0.00      0.00      81.1     0.39      1013.0     1       212         2       225        7.81     267      -43.5
   09/28/2016 03:00      70.7      70.3       47     49.3      0.00      0.00      81.0     0.39      1013.0     1        55         1        25        7.81     267      -33.4
   09/28/2016 02:50      70.9      70.6       46     49.2      0.00      0.00      81.2     0.39      1012.0     1        34         1       359        7.81     267      -28.1
   09/28/2016 02:40      70.9      70.6       47     49.4      0.00      0.00      81.0     0.39      1012.0     1       155         1       144        7.82     267      -26.3
   09/28/2016 02:30      70.8      70.3       47     49.5      0.00      0.00      81.2     0.39      1012.0     2       135         2       136        7.82     267      -26.4
   09/28/2016 02:20      70.5      70.0       48     49.6      0.00      0.00      81.1     0.39      1012.0     2       131         2       129        7.82     267      -24.9
   09/28/2016 02:10      69.9      69.6       48     49.2      0.00      0.00      81.3     0.39      1012.0     2       141         2       141        7.82     267      -23.5
   09/28/2016 02:00      69.8      69.2       47     48.3      0.00      0.00      81.2     0.40      1012.0     1       184         2       162        7.82     267      -28.9
   09/28/2016 01:50      70.2      69.6       47     48.6      0.00      0.00      81.4     0.40      1012.0     2       130         2       126        7.82     267      -46.1
   09/28/2016 01:40      70.6      70.2       45     48.1      0.00      0.00      81.3     0.40      1012.0     1       155         1       117        7.82     267      -53.4
   09/28/2016 01:30      71.1      70.8       45     48.4      0.00      0.00      81.4     0.40      1012.0     1       284         1       115        7.83     267      -53.5
   09/28/2016 01:20      71.3      71.0       45     48.9      0.00      0.00      81.4     0.39      1012.0     1       202         1       178        7.83     267      -46.7
   09/28/2016 01:10      71.4      71.1       45     48.9      0.00      0.00      81.4     0.40      1012.0     2       158         2       162        7.83     267      -36.3
   09/28/2016 01:00      71.7      71.2       44     48.6      0.00      0.00      81.4     0.40      1013.0     1       291         2       340        7.83     267      -31.2
   09/28/2016 00:50      71.4      70.8       46     49.1      0.00      0.00      81.3     0.40      1012.0     1       251         2       340        7.83     267      -29.1
   09/28/2016 00:40      70.9      70.7       45     48.3      0.00      0.00      81.4     0.40      1012.0     1        85         1       315        7.83     267      -28.1
   09/28/2016 00:30      70.8      70.4       45     48.2      0.00      0.00      81.3     0.40      1012.0     0       257         1       273        7.83     266      -28.5
   09/28/2016 00:20      70.6      70.4       45     48.3      0.00      0.00      81.3     0.40      1012.0     1       264         1       212        7.83     267      -37.3
   09/28/2016 00:10      71.2      70.6       46     48.9      0.00      0.00      81.4     0.40      1012.0     1       134         1       130        7.84     266      -46.8
   09/28/2016 00:00      71.6      71.3       44     48.6      0.00      0.00      81.3     0.40      1012.0     1       161         1       154        7.84     266      -53.0
   09/27/2016 23:50      72.3      71.8       43     48.4      0.00      0.00      81.5     0.40      1013.0     1       202         2       249        7.84     266      -56.0
   09/27/2016 23:40      72.6      72.3       43     48.5      0.00      0.00      81.5     0.40      1013.0     1       201         1       226        7.84     266      -56.9
   09/27/2016 23:30      72.9      72.6       43     48.8      0.00      0.00      81.3     0.40      1013.0     1       120         2       130        7.84     266      -53.9
   09/27/2016 23:20      73.1      72.9       41     48.0      0.00      0.00      81.5     0.40      1013.0     1       196         1       157        7.84     266      -47.2
   09/27/2016 23:10      73.4      73.1       41     48.5      0.00      0.00      81.5     0.40      1013.0     1       127         1       120        7.84     266      -38.5
   09/27/2016 23:00      73.7      73.5       40     48.1      0.00      0.00      81.6     0.40      1013.0     1       156         1       126        7.84     266      -36.3
   09/27/2016 22:50      74.3      73.8       41     48.6      0.00      0.00      81.5     0.40      1013.0     1       247         1       269        7.84     266      -43.0
   09/27/2016 22:40      74.5      74.2       41     48.9      0.00      0.00      81.4     0.40      1013.0     1       131         2       185        7.84     266      -47.2
   09/27/2016 22:30      74.5      74.2       41     49.4      0.00      0.00      81.4     0.40      1012.0     2       147         3       144        7.85     266      -48.5
   09/27/2016 22:20      74.8      74.5       41     49.7      0.00      0.00      81.4     0.40      1012.0     1       195         3       151        7.85     266      -42.7
   09/27/2016 22:10      74.5      74.2       43     50.4      0.00      0.00      81.3     0.40      1012.0     2       150         3       142        7.85     266      -39.8
   09/27/2016 22:00      75.0      74.4       42     50.4      0.00      0.00      81.3     0.40      1013.0     1       164         2       155        7.85     266      -35.9
   09/27/2016 21:50      75.1      74.5       40     49.0      0.00      0.00      81.3     0.40      1013.0     2       198         2       214        7.85     266      -36.5
   09/27/2016 21:40      74.5      74.1       41     49.3      0.00      0.00      81.5     0.40      1013.0     2       161         3       137        7.85     266      -40.7
   09/27/2016 21:30      74.4      74.2       42     49.8      0.00      0.00      81.3     0.40      1013.0     1       143         2       146        7.85     266      -37.3
   09/27/2016 21:20      74.5      73.8       43     50.1      0.00      0.00      81.4     0.40      1012.0     1        72         2       136        7.85     266      -36.8
   09/27/2016 21:10      73.9      73.7       42     49.5      0.00      0.00      81.4     0.40      1012.0     2       131         2       129        7.85     265      -45.0
   09/27/2016 21:00      74.0      73.6       42     49.5      0.00      0.00      81.5     0.40      1012.0     1       181         1       159        7.86     265      -54.1
   09/27/2016 20:50      74.3      73.6       41     48.9      0.00      0.00      81.4     0.40      1012.0     2       154         3       146        7.86     265      -60.0
   09/27/2016 20:40      74.7      74.2       41     49.2      0.00      0.00      81.3     0.40      1012.0     1       160         2       130        7.86     265      -63.5
   09/27/2016 20:30      75.9      74.8       39     48.7      0.00      0.00      81.4     0.40      1012.0     2       140         2       128        7.86     265      -65.4
   09/27/2016 20:20      76.4      75.7       38     48.3      0.00      0.00      81.2     0.40      1012.0     1       191         2       190        7.86     265      -65.5
   09/27/2016 20:10      77.4      76.2       36     48.1      0.00      0.00      81.3     0.40      1012.0     1       144         2       131        7.86     265      -67.2
   09/27/2016 20:00      78.2      77.6       34     47.0      0.00      0.00      81.2     0.40      1012.0     2       238         2       267        7.86     265      -66.9
   09/27/2016 19:50      78.3      77.6       35     47.7      0.00      0.00      81.1     0.40      1012.0     2       205         2       232        7.86     265      -68.1
   09/27/2016 19:40      78.7      78.4       34     47.6      0.00      0.00      81.1     0.39      1012.0     1       218         2       197        7.86     265      -67.9
   09/27/2016 19:30      80.1      79.0       33     47.9      0.00      0.00      80.9     0.39      1012.0     1       201         2       220        7.86     265      -70.0
   09/27/2016 19:20      81.4      80.5       32     48.6      0.00      0.00      81.0     0.39      1011.0     2       255         3       310        7.87     265      -72.7
   09/27/2016 19:10      82.0      81.4       32     48.8      0.00      0.00      81.0     0.39      1011.0     2       307         3       306        7.87     264      -74.7
   09/27/2016 19:00      82.5      81.9       31     48.9      0.00      0.00      81.0     0.39      1011.0     3       294         4       306        7.87     264      -75.6
   09/27/2016 18:50      83.2      82.8       30     48.8      0.00      0.00      81.0     0.39      1011.0     2       301         4       294        7.87     264      -74.6
   09/27/2016 18:40      83.6      83.3       30     48.9      0.00      0.00      80.9     0.39      1011.0     3       295         6       288        7.88     264      -71.2
   09/27/2016 18:30      84.3      83.8       30     49.2      0.00      0.00      80.8     0.39      1011.0     4       273         5       266        7.88     264      -68.6
   09/27/2016 18:20      84.7      84.3       30     49.3      0.00      0.00      80.9     0.39      1011.0     4       256         5       248        7.90     264      -70.4
   09/27/2016 18:10      85.4      84.7       29     49.1      0.00      0.00      80.8     0.39      1011.0     5       235         8       201        7.91     264      -70.1
   09/27/2016 18:00      86.3      85.5       28     48.7      0.00      0.00      80.6     0.39      1011.0     5       226         6       234        7.92     264      -57.8
   09/27/2016 17:50      86.7      86.4       26     48.0      0.00      0.00      80.8     0.39      1010.0     5       220         7       236        7.93     264       -9.8
   09/27/2016 17:40      88.0      86.9       25     47.7      0.00      0.00      80.5     0.39      1010.0     6       240        11       223        7.93     264       22.3
   09/27/2016 17:30      88.0      87.5       26     48.9      0.00      0.00      80.5     0.39      1010.0     8       298        10       302        7.93     264       51.4
   09/27/2016 17:20      89.5      88.3       25     48.7      0.00      0.00      80.5     0.39      1010.0     7       313         9       326        7.94     264       76.9
   09/27/2016 17:10      91.1      89.8       21     45.0      0.00      0.00      80.5     0.39      1010.0     4       236         6       274        7.94     264       98.1
   09/27/2016 17:00      91.0      90.2       19     42.9      0.00      0.00      80.4     0.39      1010.0     5       202         7       249        7.94     264      130.0
   09/27/2016 16:50      91.9      90.5       19     43.3      0.00      0.00      80.3     0.39      1010.0     6       225         9       235        7.95     264      124.8
   09/27/2016 16:40      92.1      91.3       18     41.6      0.00      0.00      80.4     0.39      1010.0     4       175         7       186        7.95     264      122.9
   09/27/2016 16:30      91.5      90.7       19     42.6      0.00      0.00      80.1     0.39      1010.0     5       162         6       156        7.95     264      119.5
   09/27/2016 16:20      91.6      90.6       19     42.8      0.00      0.00      80.1     0.39      1010.0     7       150        11       145        7.95     264       89.3
   09/27/2016 16:10      91.8      90.1       20     43.6      0.00      0.00      80.0     0.39      1010.0     6       158         8       126        7.96     265      204.0
   09/27/2016 16:00      91.7      89.9       20     44.4      0.00      0.00      80.0     0.39      1010.0     7       203        10       221        7.96     264      132.1
   09/27/2016 15:50      93.0      92.1       19     44.1      0.00      0.00      79.9     0.39      1010.0     6       172         8       152        7.96     264      140.4
   09/27/2016 15:40      92.5      91.9       19     44.1      0.00      0.00      79.8     0.39      1010.0     4       165         8       168        7.99     265      183.0
   09/27/2016 15:30      92.9      92.4       18     43.4      0.00      0.00      79.9     0.39      1010.0     5       171         7       171        7.99     264      112.8
   09/27/2016 15:20      93.9      92.6       18     42.8      0.00      0.00      79.7     0.39      1010.0     7       156        11       170        7.99     264      106.2
   09/27/2016 15:10      94.3      93.6       17     42.5      0.00      0.00      79.7     0.39      1010.0     6       158         8       139        8.00     264      341.3
   09/27/2016 15:00      93.5      92.8       18     43.3      0.00      0.00      79.7     0.39      1010.0     6       164        11       175        8.00     265      465.4
   09/27/2016 14:50      93.1      92.3       18     43.7      0.00      0.00      79.6     0.39      1010.0     7       174        12       169        8.00     264      184.5
   09/27/2016 14:40      93.7      92.7       18     43.9      0.00      0.00      79.5     0.39      1010.0     8       164        12       155        8.01     264      340.1
   09/27/2016 14:30      93.7      92.4       19     44.2      0.00      0.00      79.5     0.39      1010.0     8       168        11       172        8.01     265      457.2
   09/27/2016 14:20      93.4      92.9       19     44.6      0.00      0.00      79.5     0.39      1010.0     7       155        10       141        8.01     265      456.8
   09/27/2016 14:10      92.8      91.7       18     43.3      0.00      0.00      79.5     0.39      1010.0     6       150         8       139        8.02     265      320.8
   09/27/2016 14:00      93.6      92.3       18     43.2      0.00      0.00      79.4     0.39      1010.0     7       137         9       125        8.02     264      152.7
   09/27/2016 13:50      93.7      93.0       17     42.1      0.00      0.00      79.3     0.39      1010.0     7       159        11       159        8.02     265      313.5
   09/27/2016 13:40      95.2      93.5       16     41.5      0.00      0.00      79.3     0.39      1010.0     7       170        12       174        8.03     264      207.7
   09/27/2016 13:30      95.4      94.3       16     41.0      0.00      0.00      79.2     0.39      1010.0     5       125         6        60        8.03     265      318.9
   09/27/2016 13:20      95.9      94.8       15     41.2      0.00      0.00      79.4     0.39      1010.0     5       139         8        90        8.04     265      405.9
   09/27/2016 13:10      95.1      94.7       15     40.8      0.00      0.00      79.1     0.39      1010.0     7       148        10       118        8.04     266      487.8
   09/27/2016 13:00      96.1      94.7       15     40.2      0.00      0.00      79.2     0.39      1010.0     5       167         7       201        8.04     265      468.3
   09/27/2016 12:50      96.9      94.1       15     41.2      0.00      0.00      79.2     0.39      1011.0     5       147         7       177        8.04     265      457.3
   09/27/2016 12:40      95.2      94.1       16     41.2      0.00      0.00      79.2     0.39      1011.0     7       159        11       140        8.04     265      459.1
   09/27/2016 12:30      96.8      95.5       14     39.7      0.00      0.00      79.2     0.39      1011.0     6       109         8       143        8.05     266      440.9
   09/27/2016 12:20      96.8      95.2       13     37.9      0.00      0.00      79.2     0.39      1011.0     5        71         7        58        8.05     266      446.1
   09/27/2016 12:10      96.2      95.2       13     36.6      0.00      0.00      79.2     0.39      1011.0     6        95        11        65        8.05     265      443.0
   09/27/2016 12:00      96.1      95.6       12     36.1      0.00      0.00      79.2     0.39      1011.0     4       105         7        64        8.05     266      436.9
   09/27/2016 11:50      97.4      96.0       13     37.5      0.00      0.00      79.3     0.39      1011.0     4        83         6       139        8.05     266      427.1
   09/27/2016 11:40      97.7      96.2       13     38.5      0.00      0.00      79.2     0.39      1011.0     3        14         4         1        8.05     266      425.6
   09/27/2016 11:30      96.1      94.9       14     37.9      0.00      0.00      79.3     0.39      1011.0     3       353         4        21        8.05     266      420.5
   09/27/2016 11:20      94.8      94.3       13     35.8      0.00      0.00      79.3     0.39      1011.0     4        96         5       135        8.05     267      414.9
   09/27/2016 11:10      95.2      94.2       13     35.8      0.00      0.00      79.2     0.39      1011.0     3       113         6       133        8.05     267      406.2
   09/27/2016 11:00      95.4      94.3       13     36.7      0.00      0.00      79.3     0.39      1012.0     2        91         5       130        8.05     267      395.9
   09/27/2016 10:50      94.1      93.4       14     37.8      0.00      0.00      79.5     0.39      1012.0     3        60         5        84        8.06     267      386.2
   09/27/2016 10:40      93.6      92.9       14     36.7      0.00      0.00      79.4     0.39      1012.0     3        63         7        75        8.06     267      374.4
   09/27/2016 10:30      93.2      92.1       13     35.5      0.00      0.00      79.4     0.39      1012.0     3        65         7        75        8.06     267      361.4
   09/27/2016 10:20      92.3      91.3       14     35.1      0.00      0.00      79.5     0.39      1012.0     3        65         3        98        8.06     267      350.2
   09/27/2016 10:10      91.8      91.1       14     36.3      0.00      0.00      79.4     0.39      1012.0     3        86         5        93        8.06     267      340.4
   09/27/2016 10:00      91.6      90.4       16     37.7      0.00      0.00      79.5     0.39      1012.0     2       101         4        88        8.06     268      334.1
   09/27/2016 09:50      90.9      90.5       16     37.9      0.00      0.00      79.5     0.39      1012.0     3        99         5        89        8.06     267      327.9
   09/27/2016 09:40      90.6      89.7       15     37.0      0.00      0.00      79.7     0.40      1012.0     2       137         3       139        8.06     267      311.7
   09/27/2016 09:30      89.8      89.0       16     37.9      0.00      0.00      79.6     0.40      1012.0     1        56         2        86        8.06     267      282.9
   09/27/2016 09:20      89.5      88.0       16     37.2      0.00      0.00      79.6     0.40      1012.0     2       320         3       301        8.06     268      266.2
   09/27/2016 09:10      88.0      85.6       17     36.6      0.00      0.00      79.6     0.40      1012.0     1        11         2       347        8.07     268      252.5
   09/27/2016 09:00      85.3      83.4       19     38.0      0.00      0.00      79.7     0.40      1012.0     3       143         3       133        8.07     268      238.4
   09/27/2016 08:50      83.1      80.7       26     42.9      0.00      0.00      79.8     0.40      1012.0     2       134         4       162        8.07     268      221.4
   09/27/2016 08:40      80.5      79.5       29     44.8      0.00      0.00      79.6     0.40      1012.0     1       357         2         5        8.07     268      204.4
   09/27/2016 08:30      79.3      76.2       30     44.4      0.00      0.00      79.9     0.40      1012.0     1        80         2        36        8.07     268      190.9
   09/27/2016 08:20      75.8      74.2       32     43.1      0.00      0.00      79.8     0.40      1012.0     1       133         1       115        8.08     268      163.9
   09/27/2016 08:10      74.5      72.5       34     43.6      0.00      0.00      79.9     0.40      1012.0     1        39         1       322        8.08     268      124.8
   09/27/2016 08:00      72.4      69.7       37     43.5      0.00      0.00      79.8     0.40      1012.0     0        53         1       334        8.08     267       87.9
   09/27/2016 07:50      69.4      66.3       41     43.1      0.00      0.00      79.8     0.40      1012.0     1       102         1        73        8.08     267       13.9
   09/27/2016 07:40      65.9      64.0       44     42.5      0.00      0.00      79.9     0.40      1012.0     0       121         1       157        8.08     267      -18.7
   09/27/2016 07:30      63.9      63.1       45     41.5      0.00      0.00      79.8     0.40      1012.0     1       253         1       302        8.08     267      -28.6
   09/27/2016 07:20      63.1      62.7       45     41.4      0.00      0.00      79.8     0.40      1012.0     1       148         2       126        8.08     267      -38.5
   09/27/2016 07:10      62.7      62.1       44     40.3      0.00      0.00      80.1     0.40      1012.0     1       181         2       183        8.08     267      -43.4
   09/27/2016 07:00      62.6      62.2       45     40.9      0.00      0.00      80.0     0.40      1012.0     1       127         2       124        8.08     267      -48.3
   09/27/2016 06:50      63.5      62.7       44     40.8      0.00      0.00      80.1     0.40      1012.0     1        98         2       143        8.08     267      -51.6
   09/27/2016 06:40      63.6      63.1       43     40.3      0.00      0.00      80.1     0.40      1012.0     1       162         2        16        8.08     267      -52.3
   09/27/2016 06:30      63.9      63.3       43     40.7      0.00      0.00      80.0     0.40      1012.0     1       139         2       154        8.08     267      -53.1
   09/27/2016 06:20      63.9      63.5       43     40.5      0.00      0.00      79.9     0.40      1012.0     1       140         1       184        8.08     267      -53.3
   09/27/2016 06:10      63.6      62.7       44     41.2      0.00      0.00      80.1     0.40      1012.0     1       278         2       160        8.08     267      -53.8
   09/27/2016 06:00      63.2      62.8       45     41.6      0.00      0.00      80.3     0.40      1012.0     2       149         3       144        8.08     267      -53.7
   09/27/2016 05:50      63.2      62.7       44     40.4      0.00      0.00      80.0     0.40      1012.0     0       172         1       157        8.08     267      -53.7
   09/27/2016 05:40      63.4      63.1       44     41.2      0.00      0.00      80.1     0.40      1012.0     1       164         1       206        8.08     267      -55.2
   09/27/2016 05:30      63.1      62.7       45     41.1      0.00      0.00      80.2     0.40      1012.0     2       147         3       151        8.08     267      -55.2
   09/27/2016 05:20      63.7      62.5       43     40.3      0.00      0.00      80.2     0.40      1012.0     1       179         3       192        8.08     267      -55.5
   09/27/2016 05:10      63.5      62.8       45     41.2      0.00      0.00      80.3     0.40      1012.0     1       222         2       191        8.08     267      -56.1
   09/27/2016 05:00      64.3      63.1       44     41.0      0.00      0.00      80.4     0.40      1012.0     1        48         2       103        8.08     267      -57.4
   09/27/2016 04:50      64.4      63.1       42     40.3      0.00      0.00      80.4     0.40      1012.0     2       200         3       215        8.08     267      -55.0
   09/27/2016 04:40      63.2      63.0       44     41.0      0.00      0.00      80.5     0.40      1012.0     1       323         2        22        8.08     267      -56.7
   09/27/2016 04:30      63.3      63.1       43     40.4      0.00      0.00      80.3     0.40      1011.0     1       258         1       339        8.08     267      -55.7
   09/27/2016 04:20      63.7      62.9       43     40.4      0.00      0.00      80.4     0.40      1011.0     1        66         1        64        8.09     267      -56.3
   09/27/2016 04:10      64.0      63.8       40     39.2      0.00      0.00      80.5     0.40      1011.0     1       109         1       103        8.09     267      -55.0
   09/27/2016 04:00      64.4      63.7       39     38.8      0.00      0.00      80.5     0.40      1011.0     1       151         2       140        8.09     267      -54.9
   09/27/2016 03:50      64.4      63.9       39     38.7      0.00      0.00      80.5     0.40      1011.0     1       138         1       148        8.09     267      -55.1
   09/27/2016 03:40      64.7      64.3       39     38.7      0.00      0.00      80.6     0.40      1011.0     1       144         2       158        8.09     267      -54.6
   09/27/2016 03:30      65.3      64.7       38     38.7      0.00      0.00      80.5     0.40      1011.0     1        97         2       123        8.09     267      -55.7
   09/27/2016 03:20      65.3      65.0       38     38.8      0.00      0.00      80.6     0.40      1011.0     1       198         1       144        8.09     267      -55.7
   09/27/2016 03:10      65.5      65.1       38     38.9      0.00      0.00      80.7     0.40      1011.0     0       280         1       339        8.09     267      -55.7
   09/27/2016 03:00      65.5      65.3       38     39.0      0.00      0.00      80.6     0.40      1011.0     0        92         1        60        8.09     267      -55.9
   09/27/2016 02:50      65.4      65.2       39     40.0      0.00      0.00      80.6     0.40      1011.0     1       145         1       142        8.09     267      -56.8
   09/27/2016 02:40      65.8      65.5       40     40.6      0.00      0.00      80.7     0.40      1012.0     2       137         2       128        8.09     267      -57.8
   09/27/2016 02:30      65.7      65.3       41     41.0      0.00      0.00      80.7     0.40      1012.0     1       149         2       122        8.09     267      -58.9
   09/27/2016 02:20      65.7      65.4       40     40.4      0.00      0.00      80.8     0.40      1012.0     1       152         2       156        8.09     266      -59.0
   09/27/2016 02:10      66.3      65.6       38     39.8      0.00      0.00      80.9     0.40      1012.0     1       168         2       138        8.09     266      -59.3
   09/27/2016 02:00      66.8      66.1       39     40.5      0.00      0.00      80.8     0.40      1012.0     1       187         2        69        8.09     266      -60.3
   09/27/2016 01:50      66.9      66.4       38     40.3      0.00      0.00      80.7     0.40      1012.0     1       273         2       258        8.09     266      -60.4
   09/27/2016 01:40      67.2      66.7       38     40.6      0.00      0.00      80.7     0.40      1012.0     1       187         2        72        8.09     266      -60.2
   09/27/2016 01:30      67.3      67.2       37     40.0      0.00      0.00      80.9     0.40      1012.0     1       160         2        62        8.10     266      -60.1
   09/27/2016 01:20      67.5      67.3       37     40.5      0.00      0.00      80.9     0.40      1012.0     1        56         1        76        8.10     267      -61.4
   09/27/2016 01:10      67.9      67.3       37     40.5      0.00      0.00      81.0     0.40      1012.0     2       125         3       143        8.10     266      -61.5
   09/27/2016 01:00      68.7      68.2       36     40.3      0.00      0.00      81.0     0.40      1012.0     1       206         2       126        8.10     266      -60.8
   09/27/2016 00:50      68.9      68.7       36     40.9      0.00      0.00      80.9     0.40      1012.0     1       314         1       341        8.10     266      -61.2
   09/27/2016 00:40      69.2      69.0       37     41.4      0.00      0.00      80.8     0.40      1012.0     1       114         2       129        8.10     266      -62.0
   09/27/2016 00:30      69.2      68.6       37     41.5      0.00      0.00      80.8     0.40      1012.0     2       155         2       128        8.10     266      -61.4
   09/27/2016 00:20      69.3      69.1       37     41.5      0.00      0.00      80.9     0.40      1013.0     2       143         2       131        8.10     266      -62.9
   09/27/2016 00:10      69.7      69.0       36     41.1      0.00      0.00      81.1     0.40      1013.0     1       158         2       156        8.11     266      -62.9
   09/27/2016 00:00      70.2      69.3       35     40.6      0.00      0.00      80.9     0.40      1013.0     1       116         1       111        8.11     266      -63.8
   09/26/2016 23:50      70.9      70.4       34     40.7      0.00      0.00      80.8     0.40      1013.0     1        92         1       119        8.11     266      -64.2
   09/26/2016 23:40      71.2      70.6       34     41.5      0.00      0.00      80.9     0.40      1013.0     1       116         2       138        8.12     266      -64.1
   09/26/2016 23:30      71.7      71.2       32     39.9      0.00      0.00      81.0     0.40      1013.0     1       176         2       196        8.12     266      -63.7
   09/26/2016 23:20      72.4      71.7       32     40.8      0.00      0.00      81.0     0.40      1013.0     1       128         2       145        8.12     266      -65.0
   09/26/2016 23:10      72.8      72.4       32     41.3      0.00      0.00      80.8     0.40      1013.0     1       167         1       128        8.12     266      -65.6
   09/26/2016 23:00      73.5      72.5       31     40.9      0.00      0.00      80.9     0.40      1013.0     1       138         1       122        8.12     266      -66.3
   09/26/2016 22:50      73.9      73.4       33     42.5      0.00      0.00      80.8     0.40      1013.0     2       138         2       164        8.13     266      -67.8
   09/26/2016 22:40      73.9      73.6       33     42.5      0.00      0.00      80.9     0.40      1013.0     2       144         3       145        8.13     266      -67.7
   09/26/2016 22:30      74.3      73.7       32     42.5      0.00      0.00      80.9     0.40      1013.0     2       148         3       145        8.13     266      -68.4
   09/26/2016 22:20      74.4      74.2       31     41.9      0.00      0.00      80.8     0.40      1013.0     2       150         2       130        8.13     266      -68.8
   09/26/2016 22:10      75.2      74.5       31     42.2      0.00      0.00      80.7     0.40      1013.0     2       141         3       133        8.14     266      -69.7
   09/26/2016 22:00      75.9      75.2       31     42.6      0.00      0.00      80.7     0.40      1013.0     2       160         2       148        8.14     265      -70.0
   09/26/2016 21:50      76.4      76.1       30     42.7      0.00      0.00      80.8     0.40      1013.0     2       144         2       144        8.14     265      -71.0
   09/26/2016 21:40      76.8      76.4       30     42.6      0.00      0.00      80.8     0.40      1013.0     2       151         2       134        8.14     265      -71.5
   09/26/2016 21:30      78.5      77.1       28     41.9      0.00      0.00      80.8     0.40      1013.0     2       150         3       143        8.14     265      -71.5
   09/26/2016 21:20      80.1      79.2       24     39.5      0.00      0.00      80.8     0.40      1013.0     1       183         2       152        8.15     265      -71.6
   09/26/2016 21:10      80.0      79.2       25     40.5      0.00      0.00      80.6     0.40      1013.0     1       176         2       128        8.15     265      -71.8
   09/26/2016 21:00      81.9      80.2       23     40.3      0.00      0.00      80.5     0.40      1012.0     1       168         2       150        8.15     265      -73.8
   09/26/2016 20:50      82.4      82.1       22     40.1      0.00      0.00      80.5     0.40      1012.0     1       324         2       327        8.15     265      -73.9
   09/26/2016 20:40      82.7      82.2       22     40.0      0.00      0.00      80.5     0.40      1012.0     1       139         2       125        8.15     265      -75.6
   09/26/2016 20:30      83.6      83.1       21     39.7      0.00      0.00      80.5     0.40      1012.0     1         8         2        17        8.16     265      -75.7
   09/26/2016 20:20      84.6      83.8       20     39.0      0.00      0.00      80.5     0.40      1012.0     2         3         3         5        8.16     265      -77.0
   09/26/2016 20:10      84.9      84.3       19     38.2      0.00      0.00      80.5     0.40      1012.0     1       237         2       229        8.16     265      -76.7
   09/26/2016 20:00      88.1      84.4       18     37.7      0.00      0.00      80.4     0.40      1012.0     2       179         2       229        8.16     265      -79.6
   09/26/2016 19:50      89.3      88.3       17     38.2      0.00      0.00      80.4     0.40      1012.0     1        19         3       342        8.16     265      -82.9
   09/26/2016 19:40      90.5      89.5       16     37.1      0.00      0.00      80.4     0.40      1012.0     2        29         4        27        8.16     265      -84.2
   09/26/2016 19:30      91.5      90.8       14     36.0      0.00      0.00      80.2     0.40      1011.0     3        28         6         5        8.17     265      -85.8
   09/26/2016 19:20      92.7      92.0       14     35.6      0.00      0.00      80.2     0.40      1011.0     3        12         4       341        8.17     265      -86.9
   09/26/2016 19:10      93.9      92.9       13     35.0      0.00      0.00      80.3     0.40      1011.0     3         8         5        15        8.17     265      -88.1
   09/26/2016 19:00      94.9      94.1       11     32.9      0.00      0.00      80.2     0.40      1011.0     3        18         5        18        8.17     264      -89.8
   09/26/2016 18:50      95.3      95.0       11     32.4      0.00      0.00      80.1     0.40      1011.0     5       337         6       319        8.17     264      -89.7
   09/26/2016 18:40      96.2      95.5       11     32.5      0.00      0.00      80.2     0.40      1011.0     4       332         6       318        8.18     264      -87.4
   09/26/2016 18:30      96.9      96.4       10     31.7      0.00      0.00      80.2     0.40      1011.0     5       335         9         0        8.18     264      -83.8
   09/26/2016 18:20      97.7      97.0       10     31.8      0.00      0.00      80.0     0.40      1011.0     6       348         9         4        8.18     264      -66.5
   09/26/2016 18:10      98.5      98.0       10     32.9      0.00      0.00      80.1     0.40      1011.0     5       345         8       339        8.19     264      -50.4
   09/26/2016 18:00      98.7      98.3       10     32.4      0.00      0.00      79.8     0.40      1011.0     5       344         8       343        8.20     264      -30.8
   09/26/2016 17:50      98.9      98.8       10     32.8      0.00      0.00      79.8     0.40      1011.0     6       345         9       316        8.20     264       -9.0
   09/26/2016 17:40      99.3      99.2       10     32.9      0.00      0.00      79.7     0.40      1011.0     6       344         9       316        8.20     264       14.2
   09/26/2016 17:30      99.6      99.3       10     32.6      0.00      0.00      79.7     0.40      1011.0     7       336        13       328        8.21     264       38.8
   09/26/2016 17:20      99.6      99.4       10     32.4      0.00      0.00      79.6     0.40      1011.0     6       345         8        14        8.21     264       65.9
   09/26/2016 17:10     100.2      99.7        9     32.3      0.00      0.00      79.6     0.40      1011.0     6       354         8       341        8.22     265       87.6
   09/26/2016 17:00     100.6     100.3        9     32.6      0.00      0.00      79.4     0.40      1011.0     6       334         9       305        8.22     265      104.4
   09/26/2016 16:50     100.8     100.4        9     32.4      0.00      0.00      79.4     0.40      1011.0     5       315         6       307        8.25     265      131.2
   09/26/2016 16:40     100.4      99.9        9     32.2      0.00      0.00      79.2     0.40      1011.0     5       315         9       333        8.26     265      136.6
   09/26/2016 16:30     101.1     100.6        9     32.6      0.00      0.00      79.3     0.40      1011.0     9       325        15       313        8.27     265      145.4
   09/26/2016 16:20     101.1     100.5        9     33.0      0.00      0.00      79.3     0.40      1011.0     5       309         8       314        8.27     265      199.8
   09/26/2016 16:10     101.3     100.4       10     33.7      0.00      0.00      79.3     0.40      1011.0     7       350        10       318        8.28     265      208.2
   09/26/2016 16:00     100.7     100.2       10     32.9      0.00      0.00      79.0     0.40      1011.0     8       349        10       330        8.28     265      223.6
   09/26/2016 15:50     101.1     100.5        9     32.8      0.00      0.00      78.9     0.40      1011.0     7       344        10         8        8.28     266      238.8
   09/26/2016 15:40     101.7     100.6        9     32.9      0.00      0.00      78.9     0.40      1011.0     8       357        14       346        8.28     266      256.3
   09/26/2016 15:30     101.9     101.5       10     33.7      0.00      0.00      78.9     0.40      1012.0     4         1        10       349        8.28     266      271.8
   09/26/2016 15:20     101.7     101.1        9     33.3      0.00      0.00      78.7     0.40      1012.0     4        17         7       316        8.29     265      299.1
   09/26/2016 15:10     102.2     100.4       10     33.4      0.00      0.00      78.8     0.40      1012.0     4        26        10       339        8.29     265      318.4
   09/26/2016 15:00     101.9     100.8       10     33.6      0.00      0.00      78.6     0.40      1012.0     5       337        12       359        8.29     265      335.6
   09/26/2016 14:50     101.1     100.5       10     33.7      0.00      0.00      78.5     0.40      1012.0     8       358        11         6        8.29     265      350.8
   09/26/2016 14:40     102.5     101.3       10     33.9      0.00      0.00      78.4     0.40      1012.0     6       332         8         4        8.29     265      363.1
   09/26/2016 14:30     101.4     100.5       10     33.1      0.00      0.00      78.5     0.40      1012.0     4       267         7       240        8.29     265      379.0
   09/26/2016 14:20     101.5     100.8       10     33.6      0.00      0.00      78.4     0.40      1012.0     5       325        11       358        8.30     266      389.4
   09/26/2016 14:10     100.8     100.1       10     33.5      0.00      0.00      78.2     0.40      1012.0     8       352        11       324        8.30     266      401.9
   09/26/2016 14:00     101.1     100.6       10     33.6      0.00      0.00      78.4     0.40      1012.0     5        11         8       356        8.30     267      409.2
   09/26/2016 13:50     101.2     100.4       10     33.6      0.00      0.00      78.3     0.39      1012.0     7         9        11       359        8.30     266      419.8
   09/26/2016 13:40     100.8     100.0       10     33.6      0.00      0.00      78.2     0.39      1013.0     7       345        11       328        8.30     266      427.3
   09/26/2016 13:30     100.5     100.2       10     33.9      0.00      0.00      78.2     0.39      1013.0     8       348        12       349        8.30     266      435.8
   09/26/2016 13:20     100.8     100.0       10     33.7      0.00      0.00      78.2     0.39      1013.0     8       336        13       352        8.30     267      438.5
   09/26/2016 13:10     100.7      99.6       10     33.8      0.00      0.00      78.1     0.39      1013.0     7       359        10         0        8.31     267      442.3
   09/26/2016 13:00     100.8      99.7       10     33.6      0.00      0.00      78.2     0.39      1013.0     6        16        11       348        8.31     266      444.0
   09/26/2016 12:50     100.9     100.0       10     34.0      0.00      0.00      78.1     0.39      1013.0     5        11         8       358        8.31     266      447.0
   09/26/2016 12:40     101.6      99.9       10     33.7      0.00      0.00      78.2     0.39      1013.0     6       306        10       272        8.31     266      447.3
   09/26/2016 12:30     101.5     100.6       10     34.1      0.00      0.00      78.1     0.39      1014.0     2       320         7       339        8.32     266      446.3
   09/26/2016 12:20     100.9     100.0       10     34.6      0.00      0.00      77.9     0.39      1014.0     3       322         4       341        8.32     266      445.0
   09/26/2016 12:10     100.4      98.9       10     33.9      0.00      0.00      78.0     0.39      1014.0     5        74         8        73        8.32     266      447.1
   09/26/2016 12:00     100.6     100.0       10     34.2      0.00      0.00      78.1     0.39      1014.0     4       110         5       139        8.33     266      441.6
   09/26/2016 11:50     101.1      99.8       10     34.4      0.00      0.00      78.1     0.39      1014.0     3        42         4       314        8.33     266      436.0
   09/26/2016 11:40     100.3      98.6       10     34.1      0.00      0.00      78.1     0.39      1014.0     2       282         3       322        8.33     266      430.7
   09/26/2016 11:30      98.7      98.3       10     33.8      0.00      0.00      78.1     0.39      1014.0     2       314         4       344        8.33     266      426.3
   09/26/2016 11:20      98.5      97.8       11     34.5      0.00      0.00      78.1     0.39      1014.0     3       319         4       315        8.33     267      420.9
   09/26/2016 11:10      97.9      95.6       11     34.7      0.00      0.00      78.1     0.39      1015.0     3       318         4       253        8.33     267      413.9
   09/26/2016 11:00      96.1      95.6       12     34.1      0.00      0.00      78.1     0.39      1015.0     3       239         5       250        8.33     268      405.2
   09/26/2016 10:50      96.1      95.4       11     33.9      0.00      0.00      78.2     0.39      1015.0     3       273         4       241        8.33     267      396.2
   09/26/2016 10:40      95.2      94.1       12     33.4      0.00      0.00      78.1     0.39      1015.0     2       351         3       306        8.33     267      385.8
   09/26/2016 10:30      94.0      93.5       12     32.7      0.00      0.00      78.3     0.40      1015.0     2       248         4       293        8.34     267      376.3
   09/26/2016 10:20      93.9      91.8       12     32.9      0.00      0.00      78.3     0.40      1015.0     2       225         3       208        8.34     267      361.6
   09/26/2016 10:10      92.1      90.9       13     33.3      0.00      0.00      78.5     0.40      1015.0     2       246         3       169        8.34     267      349.7
   09/26/2016 10:00      91.7      91.1       13     33.1      0.00      0.00      78.3     0.40      1015.0     3       207         5       222        8.34     267      336.1
   09/26/2016 09:50      91.2      90.6       12     32.1      0.00      0.00      78.4     0.40      1015.0     2       279         3       267        8.34     267      321.4
   09/26/2016 09:40      90.6      89.7       12     31.0      0.00      0.00      78.3     0.40      1015.0     2       244         3       209        8.35     268      307.5
   09/26/2016 09:30      89.9      87.4       14     33.8      0.00      0.00      78.5     0.40      1015.0     1       307         2       258        8.35     267      291.7
   09/26/2016 09:20      87.3      85.1       19     38.9      0.00      0.00      78.4     0.40      1015.0     1         7         2       356        8.36     268      274.9
   09/26/2016 09:10      85.2      83.9       21     40.3      0.00      0.00      78.4     0.40      1015.0     1        48         2       353        8.36     268      259.9
   09/26/2016 09:00      83.8      81.4       23     40.7      0.00      0.00      78.6     0.40      1015.0     1        66         2        70        8.37     268      242.8
   09/26/2016 08:50      81.5      79.1       24     39.7      0.00      0.00      78.6     0.40      1015.0     1        46         1        71        8.37     268      223.6
   09/26/2016 08:40      79.1      77.8       25     39.3      0.00      0.00      78.7     0.40      1015.0     1        37         2         2        8.38     268      201.8
   09/26/2016 08:30      77.8      75.2       25     38.5      0.00      0.00      78.6     0.40      1015.0     1        78         1       122        8.38     268      178.5
   09/26/2016 08:20      74.9      73.7       27     38.2      0.00      0.00      78.7     0.40      1015.0     0       111         1        75        8.38     268      150.1
   09/26/2016 08:10      73.4      70.7       28     36.9      0.00      0.00      78.7     0.40      1015.0     1       358         2         6        8.38     268      119.6
   09/26/2016 08:00      70.5      67.7       29     36.0      0.00      0.00      78.8     0.40      1016.0     1       317         1       346        8.39     267       90.6
   09/26/2016 07:50      67.5      64.1       33     36.3      0.00      0.00      78.7     0.40      1016.0     1       193         1       162        8.39     267       18.4
   09/26/2016 07:40      64.1      63.2       35     35.3      0.00      0.00      78.7     0.40      1015.0     1       152         1       320        8.39     267      -22.8
   09/26/2016 07:30      63.5      61.6       35     34.4      0.00      0.00      78.7     0.40      1015.0     1       184         1       109        8.39     267      -29.1
   09/26/2016 07:20      61.8      60.1       34     32.4      0.00      0.00      78.7     0.40      1015.0     1       350         1        67        8.39     267      -37.9
   09/26/2016 07:10      60.1      59.9       36     32.9      0.00      0.00      78.8     0.40      1015.0     1       160         1       131        8.39     267      -41.2
   09/26/2016 07:00      60.2      60.0       35     32.6      0.00      0.00      78.8     0.40      1015.0     1       258         1       229        8.39     267      -45.5
   09/26/2016 06:50      60.4      59.9       36     33.1      0.00      0.00      79.0     0.40      1015.0     1       120         2       135        8.39     267      -48.7
   09/26/2016 06:40      60.4      59.8       35     32.7      0.00      0.00      79.0     0.40      1015.0     1       105         1       104        8.39     267      -51.6
   09/26/2016 06:30      60.5      59.9       33     31.0      0.00      0.00      79.0     0.40      1015.0     1       163         2       130        8.39     267      -51.7
   09/26/2016 06:20      60.4      60.2       33     31.5      0.00      0.00      79.0     0.40      1015.0     1       216         1       268        8.39     267      -52.4
   09/26/2016 06:10      60.9      60.3       35     32.9      0.00      0.00      79.0     0.40      1015.0     1       190         1       209        8.39     267      -52.7
   09/26/2016 06:00      61.0      60.7       33     31.9      0.00      0.00      79.2     0.40      1015.0     1       152         1       187        8.39     267      -52.3
   09/26/2016 05:50      60.9      60.5       34     32.3      0.00      0.00      79.2     0.40      1015.0     1       125         1       142        8.39     267      -53.0
   09/26/2016 05:40      60.9      60.6       35     32.9      0.00      0.00      79.1     0.40      1015.0     1       149         2       132        8.40     267      -54.0
   09/26/2016 05:30      61.1      60.8       34     32.5      0.00      0.00      79.0     0.40      1014.0     2       140         4       165        8.39     267      -55.6
   09/26/2016 05:20      61.4      60.8       34     32.3      0.00      0.00      79.2     0.40      1014.0     2       185         3       142        8.39     267      -55.7
   09/26/2016 05:10      61.3      60.9       33     32.0      0.00      0.00      79.0     0.40      1014.0     1       111         2       108        8.39     267      -56.9
   09/26/2016 05:00      61.6      61.4       32     31.0      0.00      0.00      79.3     0.40      1014.0     1       337         2        10        8.40     267      -56.2
   09/26/2016 04:50      62.1      61.4       32     31.4      0.00      0.00      79.2     0.40      1014.0     1       221         2       138        8.40     267      -56.1
   09/26/2016 04:40      62.9      62.4       29     30.0      0.00      0.00      79.2     0.40      1014.0     1        65         2       129        8.40     267      -55.9
   09/26/2016 04:30      63.1      62.8       30     30.6      0.00      0.00      79.4     0.40      1014.0     1       221         1       264        8.40     267      -55.9
   09/26/2016 04:20      63.4      62.7       32     32.4      0.00      0.00      79.4     0.40      1014.0     1       342         1        13        8.40     267      -57.5
   09/26/2016 04:10      63.6      63.3       31     32.3      0.00      0.00      79.4     0.40      1014.0     1       143         2       159        8.40     267      -56.7
   09/26/2016 04:00      64.0      63.6       30     31.5      0.00      0.00      79.4     0.40      1014.0     1       146         1       127        8.40     267      -58.1
   09/26/2016 03:50      64.0      63.8       31     32.5      0.00      0.00      79.3     0.40      1014.0     1       134         1       154        8.40     267      -59.4
   09/26/2016 03:40      64.3      63.8       30     32.5      0.00      0.00      79.5     0.40      1014.0     2       149         3       131        8.40     267      -61.5
   09/26/2016 03:30      63.9      63.3       31     32.7      0.00      0.00      79.4     0.40      1014.0     3       154         6       162        8.40     267      -61.6
   09/26/2016 03:20      64.7      63.5       30     31.8      0.00      0.00      79.5     0.40      1014.0     2       181         3       183        8.40     267      -61.5
   09/26/2016 03:10      64.5      63.4       29     31.0      0.00      0.00      79.4     0.40      1015.0     1       108         2       179        8.40     267      -63.1
   09/26/2016 03:00      64.8      64.0       28     30.9      0.00      0.00      79.4     0.40      1015.0     1       193         2       227        8.40     267      -61.8
   09/26/2016 02:50      65.3      64.8       27     30.2      0.00      0.00      79.6     0.40      1015.0     1       255         1       229        8.40     267      -60.9
   09/26/2016 02:40      65.7      65.4       27     30.8      0.00      0.00      79.5     0.40      1015.0     1       151         1       162        8.40     267      -61.2
   09/26/2016 02:30      66.5      66.0       26     30.8      0.00      0.00      79.6     0.40      1015.0     1       100         2       154        8.40     267      -62.5
   09/26/2016 02:20      67.1      66.4       27     32.0      0.00      0.00      79.7     0.40      1015.0     2       215         3       183        8.40     266      -62.7
   09/26/2016 02:10      67.4      66.5       25     29.9      0.00      0.00      79.6     0.40      1015.0     2       156         3       223        8.40     267      -61.3
   09/26/2016 02:00      67.4      66.7       26     31.3      0.00      0.00      79.5     0.40      1015.0     2       143         4       139        8.40     266      -62.9
   09/26/2016 01:50      67.5      67.3       27     32.0      0.00      0.00      79.6     0.40      1015.0     2       118         5       129        8.40     266      -64.5
   09/26/2016 01:40      68.0      67.7       25     30.4      0.00      0.00      79.5     0.40      1015.0     2       245         3       153        8.41     266      -62.5
   09/26/2016 01:30      68.3      67.2       25     30.5      0.00      0.00      79.5     0.40      1015.0     3       159         4       148        8.41     266      -63.6
   09/26/2016 01:20      69.7      68.6       24     30.7      0.00      0.00      79.7     0.40      1015.0     1        10         2       346        8.41     266      -64.6
   09/26/2016 01:10      70.0      69.6       23     30.9      0.00      0.00      79.7     0.40      1015.0     1        18         3       129        8.41     266      -65.5
   09/26/2016 01:00      69.4      67.8       25     31.0      0.00      0.00      79.6     0.40      1015.0     4       145         6       154        8.41     266      -64.1
   09/26/2016 00:50      68.9      68.5       24     30.3      0.00      0.00      79.8     0.40      1015.0     1       145         2       136        8.41     266      -64.4
   09/26/2016 00:40      69.8      69.1       23     30.2      0.00      0.00      79.7     0.40      1015.0     1       246         1       211        8.41     266      -66.0
   09/26/2016 00:30      70.1      69.6       24     31.5      0.00      0.00      79.7     0.40      1015.0     2       313         2       266        8.41     266      -65.4
   09/26/2016 00:20      71.3      70.2       21     29.3      0.00      0.00      79.6     0.40      1015.0     2        38         3        59        8.41     266      -64.5
   09/26/2016 00:10      71.3      70.6       21     28.6      0.00      0.00      79.7     0.40      1015.0     2       223         3       274        8.41     266      -61.7
   09/26/2016 00:00      71.8      70.8       21     29.6      0.00      0.00      79.7     0.40      1015.0     1       123         3       117        8.41     266      -66.1
   09/25/2016 23:50      72.2      71.4       21     29.2      0.00      0.00      79.6     0.40      1015.0     2       141         3       143        8.41     266      -65.8
   09/25/2016 23:40      72.1      71.7       21     29.8      0.00      0.00      79.6     0.40      1015.0     2       130         2       131        8.41     266      -65.6
   09/25/2016 23:30      72.7      72.3       19     28.2      0.00      0.00      79.6     0.40      1015.0     1       128         2       136        8.41     266      -65.8
   09/25/2016 23:20      73.5      72.9       20     29.8      0.00      0.00      79.7     0.40      1014.0     1       134         2       148        8.41     266      -66.5
   09/25/2016 23:10      73.4      73.1       20     29.2      0.00      0.00      79.6     0.40      1014.0     2       165         3       132        8.42     266      -66.5
   09/25/2016 23:00      74.4      73.5       19     29.6      0.00      0.00      79.7     0.40      1014.0     1       142         2       138        8.42     266      -68.1
   09/25/2016 22:50      74.6      74.2       19     29.1      0.00      0.00      79.6     0.40      1014.0     2       145         3       135        8.42     266      -68.9
   09/25/2016 22:40      76.0      74.4       18     28.8      0.00      0.00      79.7     0.40      1014.0     2       146         3       165        8.42     266      -69.1
   09/25/2016 22:30      76.6      75.8       17     28.8      0.00      0.00      79.5     0.40      1014.0     2       171         4       162        8.42     266      -70.6
   09/25/2016 22:20      76.8      75.8       17     28.7      0.00      0.00      79.7     0.40      1014.0     4       151         5       164        8.42     265      -71.0
   09/25/2016 22:10      77.2      76.2       16     27.7      0.00      0.00      79.7     0.40      1014.0     2       154         4       167        8.42     265      -71.1
   09/25/2016 22:00      78.5      77.2       16     28.0      0.00      0.00      79.6     0.40      1014.0     3       150         4       141        8.42     266      -72.0
   09/25/2016 21:50      80.8      78.5       14     25.3      0.00      0.00      79.4     0.40      1014.0     2       190         3       136        8.42     265      -71.7
   09/25/2016 21:40      82.7      81.3       12     24.2      0.00      0.00      79.6     0.40      1014.0     2       129         3        25        8.42     265      -72.5
   09/25/2016 21:30      83.2      82.8       11     23.7      0.00      0.00      79.6     0.40      1014.0     1         3         2       354        8.42     265      -72.8
   09/25/2016 21:20      85.7      83.1       11     24.4      0.00      0.00      79.4     0.40      1014.0     1        11         2       334        8.42     265      -74.8
   09/25/2016 21:10      85.9      85.7       10     23.6      0.00      0.00      79.5     0.40      1014.0     3       358         4         5        8.42     265      -76.4
   09/25/2016 21:00      86.2      85.6       10     23.5      0.00      0.00      79.5     0.40      1014.0     2       355         4       331        8.42     265      -77.2
   09/25/2016 20:50      88.5      86.6       10     23.2      0.00      0.00      79.5     0.40      1014.0     2        25         3         8        8.42     265      -80.9
   09/25/2016 20:40      89.0      88.7        9     22.5      0.00      0.00      79.5     0.40      1014.0     4        15         8         3        8.42     265      -83.3
   09/25/2016 20:30      89.2      88.5        9     22.3      0.00      0.00      79.4     0.40      1014.0     5       358         9         5        8.43     265      -83.9
   09/25/2016 20:20      88.8      88.4        9     22.6      0.00      0.00      79.5     0.40      1014.0     5       343         8       330        8.43     265      -84.6
   09/25/2016 20:10      89.1      88.7        9     22.4      0.00      0.00      79.4     0.40      1013.0     7       337        11       324        8.43     265      -85.3
   09/25/2016 20:00      89.2      89.1        9     22.3      0.00      0.00      79.3     0.40      1013.0     6       331         9       332        8.43     265      -86.1
   09/25/2016 19:50      89.8      89.3        8     21.9      0.00      0.00      79.3     0.40      1013.0     5       345         7       351        8.43     265      -87.3
   09/25/2016 19:40      90.3      89.9        8     21.5      0.00      0.00      79.2     0.40      1013.0     4       352         6         6        8.43     265      -89.7
   09/25/2016 19:30      90.8      90.3        8     21.0      0.00      0.00      79.2     0.40      1013.0     6       344         7       355        8.43     265      -91.3
   09/25/2016 19:20      91.3      90.8        8     20.5      0.00      0.00      79.2     0.40      1013.0     6       348        12         3        8.43     265      -92.6
   09/25/2016 19:10      91.3      91.0        8     20.4      0.00      0.00      79.2     0.40      1013.0     6       351         9       359        8.43     265      -93.4
   09/25/2016 19:00      92.1      91.2        8     20.9      0.00      0.00      79.2     0.40      1013.0     4       341         6       355        8.43     265      -94.7
   09/25/2016 18:50      92.5      92.0        7     20.7      0.00      0.00      79.2     0.40      1013.0     6       347        11       351        8.43     265      -94.6
   09/25/2016 18:40      93.3      92.5        7     20.9      0.00      0.00      79.0     0.40      1013.0     5       346         7       353        8.45     265      -91.5
   09/25/2016 18:30      94.0      93.4        7     20.5      0.00      0.00      79.0     0.40      1013.0     7       347         9       333        8.45     264      -89.1
   09/25/2016 18:20      94.5      94.0        7     20.1      0.00      0.00      78.9     0.40      1013.0     8         6        11         5        8.45     264      -71.3
   09/25/2016 18:10      95.0      94.5        7     20.2      0.00      0.00      78.9     0.40      1013.0     8         5        11       338        8.45     265      -54.3
   09/25/2016 18:00      95.1      94.7        7     20.9      0.00      0.00      79.0     0.40      1013.0     8         5        12        13        8.46     264      -35.0
   09/25/2016 17:50      95.1      95.0        7     20.8      0.00      0.00      78.9     0.40      1013.0     9         7        16       357        8.46     264      -15.1
   09/25/2016 17:40      95.6      95.0        7     20.1      0.00      0.00      78.8     0.40      1013.0    11         5        16         4        8.46     264        7.9
   09/25/2016 17:30      95.9      95.7        7     20.2      0.00      0.00      78.8     0.40      1013.0     9        14        17         6        8.46     264       32.1
   09/25/2016 17:20      96.2      95.8        7     20.4      0.00      0.00      78.6     0.40      1013.0     7         8         9       354        8.47     264       56.9
   09/25/2016 17:10      96.3      96.0        7     21.0      0.00      0.00      78.7     0.40      1013.0    10         1        15         8        8.47     265       84.1
   09/25/2016 17:00      96.7      96.2        6     20.5      0.00      0.00      78.6     0.40      1013.0    12         0        17       359        8.49     265      109.6
   09/25/2016 16:50      97.6      97.0        6     20.8      0.00      0.00      78.5     0.40      1013.0    10         2        13       344        8.50     265      125.7
   09/25/2016 16:40      97.7      97.1        6     20.6      0.00      0.00      78.5     0.40      1013.0    10       358        18       344        8.51     265      148.7
   09/25/2016 16:30      98.0      96.9        6     20.2      0.00      0.00      78.5     0.40      1013.0    11       357        18         6        8.51     265      170.9
   09/25/2016 16:20      98.2      97.1        6     19.4      0.00      0.00      78.4     0.40      1013.0    12       360        15       351        8.52     265      192.7
   09/25/2016 16:10      98.0      97.7        6     18.3      0.00      0.00      78.2     0.40      1013.0    11         0        17       350        8.53     265      207.7
   09/25/2016 16:00      98.2      97.7        6     18.4      0.00      0.00      78.2     0.40      1013.0    11         3        17       351        8.53     265      222.2
   09/25/2016 15:50      98.2      96.9        6     17.7      0.00      0.00      78.2     0.40      1013.0    12       352        16        12        8.54     265      236.3
   09/25/2016 15:40      98.3      98.0        6     18.9      0.00      0.00      78.1     0.40      1013.0    11       350        14       354        8.54     265      253.3
   09/25/2016 15:30      98.2      97.8        6     19.4      0.00      0.00      78.0     0.40      1013.0    10         1        14        12        8.54     265      272.9
   09/25/2016 15:20      98.9      98.0        6     20.3      0.00      0.00      78.0     0.40      1013.0     9         1        13       342        8.55     265      299.1
   09/25/2016 15:10      98.3      97.7        6     20.0      0.00      0.00      78.0     0.40      1013.0    11         7        17       350        8.55     265      321.7
   09/25/2016 15:00      98.7      98.1        6     20.6      0.00      0.00      77.9     0.40      1013.0    11       355        16         3        8.56     265      328.2
   09/25/2016 14:50      98.1      97.0        6     20.3      0.00      0.00      77.9     0.40      1014.0    10         3        16       349        8.57     265      352.4
   09/25/2016 14:40      97.6      96.8        6     20.4      0.00      0.00      77.8     0.40      1014.0    11       351        14       349        8.58     265      364.5
   09/25/2016 14:30      98.3      96.8        6     20.4      0.00      0.00      77.8     0.40      1014.0    12         4        16       357        8.59     265      383.6
   09/25/2016 14:20      98.3      97.5        7     22.1      0.00      0.00      77.7     0.40      1014.0     8         6        13         4        8.60     266      382.0
   09/25/2016 14:10      97.6      96.6        7     21.5      0.00      0.00      77.7     0.40      1014.0    10       351        14       354        8.60     267      409.6
   09/25/2016 14:00      97.7      96.5        7     21.7      0.00      0.00      77.6     0.40      1014.0    11       349        19       337        8.61     267      392.2
   09/25/2016 13:50      97.7      96.0        7     21.4      0.00      0.00      77.6     0.40      1014.0    10         3        13       358        8.61     266      407.1
   09/25/2016 13:40      96.2      95.7        7     21.3      0.00      0.00      77.6     0.40      1014.0    12       356        16       353        8.61     266      415.6
   09/25/2016 13:30      96.0      95.3        7     21.2      0.00      0.00      77.6     0.40      1015.0    11       350        16        10        8.61     266      423.8
   09/25/2016 13:20      96.6      95.5        7     21.8      0.00      0.00      77.5     0.40      1015.0     8         7        12         2        8.61     266      422.3
   09/25/2016 13:10      96.0      95.3        7     21.6      0.00      0.00      77.6     0.40      1015.0    11       354        16         6        8.62     267      434.9
   09/25/2016 13:00      95.2      94.8        7     22.0      0.00      0.00      77.4     0.40      1015.0    11         3        16       352        8.62     266      430.6
   09/25/2016 12:50      95.7      95.0        7     22.5      0.00      0.00      77.5     0.40      1015.0    12         3        18         3        8.62     266      426.8
   09/25/2016 12:40      96.1      95.1        7     22.3      0.00      0.00      77.4     0.40      1015.0    11       350        16       335        8.62     267      420.9
   09/25/2016 12:30      96.0      95.1        7     21.7      0.00      0.00      77.4     0.40      1015.0    10         4        14       352        8.62     267      446.4
   09/25/2016 12:20      95.3      94.9        7     22.2      0.00      0.00      77.4     0.40      1016.0    12         5        14        10        8.62     266      435.4
   09/25/2016 12:10      95.0      94.5        7     21.2      0.00      0.00      77.4     0.40      1016.0    11         2        17         5        8.62     266      444.6
   09/25/2016 12:00      95.1      94.6        8     23.3      0.00      0.00      77.5     0.40      1016.0     9       353        13        10        8.62     266      410.2
   09/25/2016 11:50      95.0      94.3        7     22.6      0.00      0.00      77.4     0.40      1016.0     9         7        12         0        8.62     267      425.3
   09/25/2016 11:40      94.8      94.1        7     22.6      0.00      0.00      77.5     0.40      1016.0     9         3        15       344        8.62     267      415.9
   09/25/2016 11:30      94.5      93.9        8     22.5      0.00      0.00      77.4     0.40      1016.0     9         3        14         8        8.62     267      401.7
   09/25/2016 11:20      94.5      94.1        7     22.4      0.00      0.00      77.5     0.40      1016.0     9       353        14         3        8.63     268      384.4
   09/25/2016 11:10      94.5      93.2        8     24.4      0.00      0.00      77.5     0.40      1017.0     4        21         9       356        8.62     268      403.3
   09/25/2016 11:00      94.1      93.5        9     26.9      0.00      0.00      77.5     0.40      1017.0     5        28        10        12        8.63     268      405.3
   09/25/2016 10:50      93.9      93.4        9     25.7      0.00      0.00      77.6     0.40      1017.0     8        16        12       352        8.63     268      399.0
   09/25/2016 10:40      93.8      93.2        9     26.1      0.00      0.00      77.7     0.40      1017.0     7         2        10        16        8.63     268      369.5
   09/25/2016 10:30      92.9      92.2       10     27.1      0.00      0.00      77.8     0.40      1017.0     5       351         9       343        8.63     268      358.3
   09/25/2016 10:20      92.1      90.7       11     30.2      0.00      0.00      77.6     0.40      1017.0     6       343         8         3        8.63     268      359.4
   09/25/2016 10:10      90.7      89.6       13     32.1      0.00      0.00      77.8     0.40      1017.0     5       355         5         9        8.63     268      347.0
   09/25/2016 10:00      89.6      88.0       15     35.4      0.00      0.00      77.9     0.40      1017.0     4       344         6       311        8.63     269      330.8
   09/25/2016 09:50      88.0      86.8       18     38.9      0.00      0.00      77.8     0.40      1017.0     2       358         4       345        8.63     269      320.1
   09/25/2016 09:40      87.0      85.2       19     38.9      0.00      0.00      77.9     0.40      1017.0     2       333         3       309        8.63     269      306.6
   09/25/2016 09:30      85.0      82.3       18     36.0      0.00      0.00      77.9     0.40      1017.0     1       325         2       319        8.63     269      289.4
   09/25/2016 09:20      82.0      79.4       29     45.4      0.00      0.00      77.8     0.40      1017.0     1       207         2       337        8.63     269      271.9
   09/25/2016 09:10      79.4      79.0       32     46.6      0.00      0.00      77.8     0.40      1017.0     1       342         2       325        8.63     269      257.3
   09/25/2016 09:00      79.0      78.0       31     45.0      0.00      0.00      77.8     0.40      1017.0     1        47         2        77        8.63     269      241.6
   09/25/2016 08:50      78.0      75.2       31     44.0      0.00      0.00      77.9     0.40      1017.0     1        64         2       356        8.64     269      222.7
   09/25/2016 08:40      75.3      74.7       33     44.1      0.00      0.00      77.9     0.40      1017.0     2        34         2        26        8.64     269      199.9
   09/25/2016 08:30      74.8      73.7       35     44.4      0.00      0.00      77.9     0.41      1017.0     2       352         3        11        8.64     269      176.9
   09/25/2016 08:20      73.8      73.5       35     44.2      0.00      0.00      78.2     0.41      1017.0     1         3         2        17        8.64     269      148.7
   09/25/2016 08:10      73.8      72.5       33     42.7      0.00      0.00      78.2     0.41      1017.0     1       316         2       328        8.64     269      120.2
   09/25/2016 08:00      72.8      72.0       31     39.7      0.00      0.00      78.1     0.41      1017.0     2        41         3       349        8.64     269       91.9
   09/25/2016 07:50      71.5      68.2       30     37.2      0.00      0.00      78.1     0.41      1017.0     2       136         3       149        8.64     269       30.0
   09/25/2016 07:40      68.0      65.3       33     36.8      0.00      0.00      78.3     0.41      1016.0     2       175         2       192        8.64     269      -17.9
   09/25/2016 07:30      65.2      61.4       39     37.8      0.00      0.00      78.0     0.41      1016.0     3       132         3       128        8.64     269      -27.5
   09/25/2016 07:20      61.4      59.6       43     38.2      0.00      0.00      78.1     0.41      1016.0     3       287         5        16        8.64     269      -35.5
   09/25/2016 07:10      59.6      59.2       46     38.7      0.00      0.00      78.3     0.41      1016.0     2       126         3       174        8.64     269      -40.9
   09/25/2016 07:00      59.3      58.8       46     38.1      0.00      0.00      78.4     0.41      1016.0     1       211         3       120        8.64     269      -45.5
   09/25/2016 06:50      58.9      58.5       47     38.5      0.00      0.00      78.3     0.41      1016.0     1       237         2        89        8.64     269      -50.5
   09/25/2016 06:40      58.7      58.4       47     38.5      0.00      0.00      78.3     0.41      1016.0     2       207         3       107        8.64     269      -52.0
   09/25/2016 06:30      58.6      58.5       47     38.6      0.00      0.00      78.6     0.41      1016.0     1       203         2       214        8.64     269      -53.2
   09/25/2016 06:20      59.0      58.5       47     38.6      0.00      0.00      78.4     0.41      1016.0     1       156         2        57        8.64     269      -54.8
   09/25/2016 06:10      59.4      58.9       45     37.9      0.00      0.00      78.6     0.41      1016.0     1       305         2       191        8.64     269      -54.6
   09/25/2016 06:00      59.6      59.0       46     38.5      0.00      0.00      78.5     0.41      1016.0     2       246         3        27        8.64     269      -55.9
   09/25/2016 05:50      59.7      59.0       45     38.0      0.00      0.00      78.5     0.41      1016.0     2       198         3       244        8.64     269      -57.0
   09/25/2016 05:40      59.3      59.1       45     38.1      0.00      0.00      78.7     0.41      1016.0     1       177         2        80        8.64     268      -57.5
   09/25/2016 05:30      59.9      59.4       44     37.7      0.00      0.00      78.4     0.41      1016.0     2       162         4        39        8.64     268      -57.3
   09/25/2016 05:20      60.0      59.5       44     37.6      0.00      0.00      78.6     0.41      1016.0     2       245         3       195        8.64     268      -57.2
   09/25/2016 05:10      60.3      60.0       43     37.7      0.00      0.00      78.6     0.41      1016.0     2        26         3       262        8.64     268      -57.6
   09/25/2016 05:00      61.0      60.1       42     37.2      0.00      0.00      78.7     0.41      1016.0     1       334         2       113        8.64     268      -57.2
   09/25/2016 04:50      62.1      60.9       40     37.2      0.00      0.00      78.8     0.41      1016.0     1        96         3        60        8.65     268      -58.2
   09/25/2016 04:40      62.4      61.3       39     36.7      0.00      0.00      78.9     0.41      1015.0     2       153         2        62        8.65     268      -58.3
   09/25/2016 04:30      61.9      61.3       41     37.8      0.00      0.00      78.7     0.41      1015.0     3       169         5       214        8.65     268      -58.2
   09/25/2016 04:20      61.8      61.1       41     37.5      0.00      0.00      78.5     0.41      1015.0     2       148         4       131        8.65     268      -58.3
   09/25/2016 04:10      62.3      61.7       40     37.5      0.00      0.00      78.7     0.41      1015.0     1       174         3       207        8.65     268      -59.8
   09/25/2016 04:00      63.1      62.4       39     37.4      0.00      0.00      78.9     0.41      1015.0     2       304         4        89        8.65     268      -60.5
   09/25/2016 03:50      63.1      62.4       39     37.6      0.00      0.00      78.9     0.41      1015.0     3       111         6       205        8.65     268      -59.9
   09/25/2016 03:40      63.1      62.5       39     37.3      0.00      0.00      79.0     0.41      1015.0     2       154         3       197        8.65     268      -59.9
   09/25/2016 03:30      63.2      62.8       40     38.0      0.00      0.00      78.8     0.41      1015.0     2       187         2        83        8.65     268      -60.2
   09/25/2016 03:20      63.1      62.8       40     38.1      0.00      0.00      79.0     0.41      1016.0     1       169         2       109        8.65     268      -60.7
   09/25/2016 03:10      63.4      63.0       38     37.5      0.00      0.00      78.8     0.41      1016.0     2       180         2       208        8.65     268      -61.2
   09/25/2016 03:00      63.3      62.5       39     38.0      0.00      0.00      79.1     0.41      1016.0     3       147         4       130        8.65     268      -62.9
   09/25/2016 02:50      64.0      62.9       38     37.5      0.00      0.00      79.2     0.41      1016.0     2       168         3       140        8.65     268      -62.3
   09/25/2016 02:40      64.1      63.9       39     38.6      0.00      0.00      79.1     0.41      1016.0     1       246         2       356        8.65     268      -63.6
   09/25/2016 02:30      64.8      64.2       37     37.9      0.00      0.00      79.2     0.41      1015.0     2       295         3        74        8.65     268      -64.3
   09/25/2016 02:20      65.3      64.3       36     37.5      0.00      0.00      79.2     0.41      1015.0     2       287         4       257        8.65     268      -62.8
   09/25/2016 02:10      66.2      65.4       34     36.7      0.00      0.00      79.2     0.41      1015.0     2        45         3       136        8.65     268      -62.3
   09/25/2016 02:00      65.9      65.4       34     36.5      0.00      0.00      79.1     0.41      1015.0     2       153         3       151        8.65     268      -61.8
   09/25/2016 01:50      66.2      65.3       34     37.1      0.00      0.00      79.2     0.41      1015.0     2       102         3       161        8.65     267      -63.7
   09/25/2016 01:40      67.3      66.5       30     34.8      0.00      0.00      79.3     0.41      1015.0     2        61         4       359        8.65     267      -62.7
   09/25/2016 01:30      67.1      66.2       30     34.1      0.00      0.00      79.3     0.41      1015.0     2       160         3       349        8.65     267      -60.2
   09/25/2016 01:20      66.8      66.2       30     33.9      0.00      0.00      79.3     0.41      1015.0     2       133         4       163        8.65     267      -60.9
   09/25/2016 01:10      67.5      67.1       29     34.2      0.00      0.00      79.1     0.41      1015.0     1       158         3       137        8.65     267      -62.9
   09/25/2016 01:00      68.1      67.4       29     34.3      0.00      0.00      79.1     0.41      1015.0     2       136         3       144        8.66     267      -62.5
   09/25/2016 00:50      69.0      68.2       28     34.1      0.00      0.00      79.3     0.41      1015.0     2       144         2       127        8.66     267      -62.1
   09/25/2016 00:40      69.5      68.9       27     33.7      0.00      0.00      79.2     0.41      1015.0     1       137         3       138        8.66     267      -63.0
   09/25/2016 00:30      69.5      68.8       27     33.6      0.00      0.00      79.2     0.41      1015.0     2       141         4       146        8.66     267      -63.3
   09/25/2016 00:20      68.9      68.2       27     33.3      0.00      0.00      79.3     0.41      1015.0     2       157         3       240        8.66     267      -62.9
   09/25/2016 00:10      68.6      68.3       27     33.1      0.00      0.00      79.3     0.41      1015.0     1       139         2       142        8.66     267      -64.7
   09/25/2016 00:00      70.2      68.6       25     32.5      0.00      0.00      79.4     0.41      1015.0     2       129         4        91        8.66     267      -65.0
   09/24/2016 23:50      70.8      70.1       24     32.4      0.00      0.00      79.2     0.41      1015.0     2       148         3       133        8.66     267      -65.5
   09/24/2016 23:40      71.2      70.5       24     32.1      0.00      0.00      79.3     0.41      1015.0     2       157         3       143        8.66     267      -66.4
   09/24/2016 23:30      72.8      71.3       22     31.3      0.00      0.00      79.3     0.41      1015.0     3       220         5       261        8.66     267      -67.3
   09/24/2016 23:20      72.2      71.9       22     31.0      0.00      0.00      79.3     0.41      1015.0     3       285         5       234        8.66     267      -67.6
   09/24/2016 23:10      71.8      69.1       23     30.6      0.00      0.00      79.1     0.41      1015.0     2       260         4       266        8.66     267      -66.4
   09/24/2016 23:00      69.0      68.6       24     30.5      0.00      0.00      79.3     0.41      1015.0     1       290         2       311        8.66     267      -67.1
   09/24/2016 22:50      69.1      68.7       24     30.6      0.00      0.00      79.4     0.41      1015.0     2       323         3       317        8.66     267      -67.0
   09/24/2016 22:40      69.3      69.1       24     30.8      0.00      0.00      79.3     0.41      1015.0     1        33         1         6        8.67     266      -68.3
   09/24/2016 22:30      70.8      69.4       23     30.6      0.00      0.00      79.3     0.41      1016.0     1        46         2        44        8.67     267      -69.9
   09/24/2016 22:20      71.8      71.0       22     30.3      0.00      0.00      79.3     0.41      1015.0     1       338         2       306        8.67     266      -70.8
   09/24/2016 22:10      74.0      71.9       21     30.2      0.00      0.00      79.3     0.41      1015.0     1        25         2         4        8.67     266      -72.6
   09/24/2016 22:00      75.3      74.1       19     29.5      0.00      0.00      79.3     0.41      1015.0     1       184         3       205        8.67     266      -73.5
   09/24/2016 21:50      76.0      75.5       18     28.9      0.00      0.00      79.4     0.41      1015.0     2       209         3       238        8.67     266      -75.1
   09/24/2016 21:40      76.1      75.8       18     29.1      0.00      0.00      79.2     0.41      1015.0     2       233         3       221        8.67     266      -76.0
   09/24/2016 21:30      76.4      76.1       18     29.6      0.00      0.00      79.3     0.41      1015.0     2       214         4       205        8.67     266      -78.1
   09/24/2016 21:20      76.8      76.4       18     30.2      0.00      0.00      79.4     0.41      1015.0     4       211         6       240        8.68     266      -79.2
   09/24/2016 21:10      76.9      76.6       18     30.7      0.00      0.00      79.3     0.41      1015.0     3       213         6       208        8.68     265      -79.5
   09/24/2016 21:00      77.2      76.9       19     31.4      0.00      0.00      79.3     0.41      1015.0     4       226         5       199        8.68     266      -80.3
   09/24/2016 20:50      77.3      77.2       19     32.1      0.00      0.00      79.3     0.41      1015.0     4       215         6       212        8.68     265      -80.8
   09/24/2016 20:40      77.5      77.3       20     32.7      0.00      0.00      79.0     0.41      1015.0     4       204         8       196        8.69     265      -81.7
   09/24/2016 20:30      77.8      77.4       19     32.3      0.00      0.00      79.2     0.41      1015.0     4       209         7       213        8.69     265      -82.4
   09/24/2016 20:20      78.4      77.8       18     31.3      0.00      0.00      79.2     0.41      1015.0     4       221         7       218        8.69     265      -83.0
   09/24/2016 20:10      78.7      78.4       17     30.9      0.00      0.00      79.1     0.41      1015.0     5       233         7       237        8.70     265      -83.6
   09/24/2016 20:00      79.0      78.6       17     30.8      0.00      0.00      79.1     0.41      1015.0     4       223         6       219        8.70     265      -84.6
   09/24/2016 19:50      80.0      79.2       17     30.7      0.00      0.00      79.0     0.41      1014.0     4       228         7       223        8.71     265      -85.6
   09/24/2016 19:40      80.6      80.2       16     30.5      0.00      0.00      78.9     0.41      1014.0     6       223         8       214        8.71     265      -86.2
   09/24/2016 19:30      81.0      80.5       16     30.7      0.00      0.00      79.0     0.41      1014.0     5       239         9       247        8.72     265      -87.4
   09/24/2016 19:20      81.5      81.0       16     31.5      0.00      0.00      78.9     0.41      1014.0     4       230         8       247        8.72     265      -89.1
   09/24/2016 19:10      82.5      81.6       16     31.8      0.00      0.00      79.0     0.41      1014.0     4       215         8       204        8.72     265      -90.4
   09/24/2016 19:00      83.5      82.8       16     31.7      0.00      0.00      78.8     0.41      1014.0     5       227         7       228        8.73     265      -91.0
   09/24/2016 18:50      84.4      83.6       15     32.1      0.00      0.00      78.7     0.41      1014.0     5       216         6       226        8.73     265      -89.8
   09/24/2016 18:40      85.2      84.5       15     32.0      0.00      0.00      78.8     0.41      1014.0     7       230        10       225        8.74     265      -87.3
   09/24/2016 18:30      85.8      85.2       14     31.4      0.00      0.00      78.8     0.41      1014.0     6       250         8       233        8.74     265      -85.3
   09/24/2016 18:20      86.9      85.8       14     30.8      0.00      0.00      78.5     0.41      1014.0     5       256         9       255        8.75     265      -68.2
   09/24/2016 18:10      87.8      87.1       13     31.5      0.00      0.00      78.6     0.41      1014.0     4       247         6       277        8.75     265      -47.0
   09/24/2016 18:00      88.3      88.0       14     32.8      0.00      0.00      78.4     0.41      1014.0     5       258         8       249        8.76     265      -28.4
   09/24/2016 17:50      89.1      88.2       14     32.7      0.00      0.00      78.3     0.41      1014.0     6       275         8       253        8.76     265       -6.3
   09/24/2016 17:40      89.7      89.3       14     33.7      0.00      0.00      78.3     0.41      1014.0     4       296         8       296        8.77     266       16.7
   09/24/2016 17:30      89.8      89.6       14     33.9      0.00      0.00      78.4     0.41      1014.0     4       282         6       267        8.77     266       43.2
   09/24/2016 17:20      90.6      90.2       14     34.6      0.00      0.00      78.1     0.41      1014.0     6       273         8       307        8.78     265       68.2
   09/24/2016 17:10      90.5      90.1       14     34.6      0.00      0.00      78.2     0.41      1014.0     7       262        10       242        8.79     265       96.3
   09/24/2016 17:00      91.0      90.5       14     34.9      0.00      0.00      78.0     0.41      1014.0     8       264        10       251        8.79     266      120.7
   09/24/2016 16:50      92.3      91.1       14     35.7      0.00      0.00      77.9     0.41      1014.0     6       290        10       253        8.80     266      143.7
   09/24/2016 16:40      92.8      92.2       14     35.7      0.00      0.00      78.0     0.41      1013.0     6       266        10       241        8.80     266      170.5
   09/24/2016 16:30      92.9      92.2       12     33.0      0.00      0.00      77.7     0.41      1013.0     7       235        11       264        8.80     266      191.9
   09/24/2016 16:20      92.9      92.0       11     30.4      0.00      0.00      77.8     0.41      1014.0     6       215        12       204        8.81     266      211.3
   09/24/2016 16:10      92.6      92.0       11     30.5      0.00      0.00      77.7     0.41      1014.0     6       235        11       247        8.81     266      220.6
   09/24/2016 16:00      92.6      92.0       11     30.8      0.00      0.00      77.7     0.41      1014.0     7       228        12       248        8.82     266      237.9
   09/24/2016 15:50      93.8      92.9       11     30.6      0.00      0.00      77.6     0.41      1014.0     8       219        15       245        8.83     266      258.9
   09/24/2016 15:40      96.9      93.8       11     32.2      0.00      0.00      77.4     0.41      1013.0     6       242         8       222        8.83     267      273.4
   09/24/2016 15:30      96.3      95.6       10     31.9      0.00      0.00      77.3     0.41      1014.0     3       305         6       175        8.83     267      296.0
   09/24/2016 15:20      98.0      95.5       10     32.2      0.00      0.00      77.3     0.41      1014.0     5       207         7       194        8.83     267      325.3
   09/24/2016 15:10      97.7      96.5       11     32.8      0.00      0.00      77.3     0.41      1014.0     3       352         5         9        8.84     267      337.2
   09/24/2016 15:00      97.2      94.6       11     32.1      0.00      0.00      77.0     0.40      1013.0     5       103         8         8        8.84     267      358.4
   09/24/2016 14:50      95.4      94.9       10     30.9      0.00      0.00      77.2     0.40      1014.0     5       209         7       153        8.84     267      374.8
   09/24/2016 14:40      96.1      94.7       10     30.6      0.00      0.00      77.2     0.40      1014.0     4       188         7       203        8.84     267      384.4
   09/24/2016 14:30      96.1      95.3       10     31.0      0.00      0.00      76.9     0.40      1014.0     3       274         7       310        8.85     268      392.8
   09/24/2016 14:20      95.8      94.3       10     30.3      0.00      0.00      77.0     0.40      1014.0     4       110         5       199        8.85     269      408.3
   09/24/2016 14:10      96.6      95.5       10     30.3      0.00      0.00      77.0     0.40      1014.0     3       273         8       205        8.85     269      415.0
   09/24/2016 14:00      95.7      94.9       10     30.0      0.00      0.00      76.8     0.40      1014.0     2        78         3        16        8.85     270      425.8
   09/24/2016 13:50      95.3      94.6       10     30.3      0.00      0.00      76.7     0.40      1015.0     3       115         6       114        8.85     269      438.2
   09/24/2016 13:40      95.1      94.0       11     30.9      0.00      0.00      76.7     0.40      1015.0     3        93         4        44        8.85     269      441.7
   09/24/2016 13:30      94.7      93.5       11     31.1      0.00      0.00      76.8     0.40      1015.0     3        78         5        60        8.86     269      449.1
   09/24/2016 13:20      94.1      93.0       11     31.0      0.00      0.00      76.7     0.40      1015.0     2       274         4       263        8.86     270      456.4
   09/24/2016 13:10      94.5      93.4       11     31.8      0.00      0.00      76.6     0.40      1015.0     2        53         3        71        8.86     270      461.6
   09/24/2016 13:00      93.4      92.5       12     32.0      0.00      0.00      76.7     0.40      1015.0     3        17         5        95        8.86     270      462.7
   09/24/2016 12:50      92.7      91.3       12     32.0      0.00      0.00      76.8     0.40      1015.0     2       286         4       292        8.86     270      464.4
   09/24/2016 12:40      91.3      90.7       12     31.6      0.00      0.00      76.7     0.40      1015.0     3        88         4        98        8.86     270      468.9
   09/24/2016 12:30      92.3      90.7       12     32.6      0.00      0.00      76.6     0.40      1016.0     3       320         7       118        8.86     270      465.9
   09/24/2016 12:20      91.5      90.7       13     32.9      0.00      0.00      76.7     0.40      1016.0     2        17         3        96        8.86     270      464.9
   09/24/2016 12:10      90.7      89.6       13     32.6      0.00      0.00      76.6     0.40      1016.0     2       358         3        36        8.86     270      463.6
   09/24/2016 12:00      90.2      88.5       14     33.3      0.00      0.00      76.5     0.40      1016.0     2        10         4       350        8.86     270      460.3
   09/24/2016 11:50      89.3      87.8       14     33.5      0.00      0.00      76.6     0.40      1016.0     2        82         4       145        8.86     270      457.5
   09/24/2016 11:40      87.9      87.0       14     32.8      0.00      0.00      76.7     0.40      1016.0     2        43         4        14        8.86     270      452.0
   09/24/2016 11:30      87.9      85.9       15     34.1      0.00      0.00      76.5     0.40      1016.0     2        47         4         6        8.86     271      449.1
   09/24/2016 11:20      86.4      85.3       16     34.1      0.00      0.00      76.5     0.40      1016.0     3       140         7       149        8.86     272      444.0
   09/24/2016 11:10      86.5      85.9       16     34.2      0.00      0.00      76.8     0.40      1016.0     2       103         4       143        8.86     276      434.3
   09/24/2016 11:00      85.9      85.0       16     34.7      0.00      0.00      76.6     0.40      1016.0     3        49         6        72        8.86     280      424.1
   09/24/2016 10:50      85.0      83.5       17     34.8      0.00      0.00      76.9     0.40      1016.0     3        62         4        66        8.86     284      413.3
   09/24/2016 10:40      83.6      82.6       17     34.1      0.00      0.00      77.1     0.40      1016.0     3        81         6        79        8.86     285      403.3
   09/24/2016 10:30      83.0      82.0       17     34.0      0.00      0.00      76.8     0.40      1017.0     3        76         5        84        8.86     287      390.6
   09/24/2016 10:20      82.1      81.3       18     34.3      0.00      0.00      77.0     0.40      1017.0     2        46         3        34        8.86     289      375.4
   09/24/2016 10:10      82.0      80.8       19     35.7      0.00      0.00      77.0     0.40      1017.0     2        67         3        36        8.86     291      361.7
   09/24/2016 10:00      80.8      80.2       20     36.1      0.00      0.00      77.0     0.41      1017.0     2        51         3        42        8.86     293      346.6
   09/24/2016 09:50      80.3      79.0       23     38.2      0.00      0.00      77.1     0.41      1017.0     1        50         2        20        8.86     294      331.0
   09/24/2016 09:40      79.0      77.1       26     40.1      0.00      0.00      77.0     0.41      1017.0     1        25         2       329        8.86     297      315.7
   09/24/2016 09:30      77.0      76.1       27     40.2      0.00      0.00      77.1     0.41      1017.0     2       342         3       351        8.86     300      298.4
   09/24/2016 09:20      76.4      75.1       28     40.0      0.00      0.00      77.2     0.41      1017.0     1       334         2       353        8.86     303      279.9
   09/24/2016 09:10      74.9      73.2       29     39.6      0.00      0.00      77.4     0.41      1017.0     1       317         2       335        8.86     308      263.7
   09/24/2016 09:00      73.1      71.3       29     38.6      0.00      0.00      77.3     0.41      1017.0     1       332         2       341        8.86     317      245.4
   09/24/2016 08:50      71.4      70.1       31     38.5      0.00      0.00      77.1     0.41      1017.0     1       330         2       349        8.86     327      226.5
   09/24/2016 08:40      70.3      68.2       31     38.0      0.00      0.00      77.5     0.41      1017.0     1       351         2       332        8.86     336      204.3
   09/24/2016 08:30      67.8      66.2       34     37.8      0.00      0.00      77.2     0.41      1017.0     1       351         1        28        8.86     338      181.3
   09/24/2016 08:20      66.3      65.9       36     38.3      0.00      0.00      77.5     0.41      1017.0     1         0         2         3        8.87     340      154.1
   09/24/2016 08:10      66.0      64.2       37     38.2      0.00      0.00      78.0     0.41      1017.0     1       359         1       335        8.87     341      124.3
   09/24/2016 08:00      64.0      60.0       40     37.5      0.00      0.00      77.5     0.41      1017.0     0         2         1       341        8.87     342       93.5
   09/24/2016 07:50      59.7      57.8       45     37.0      0.00      0.00      77.6     0.41      1017.0     1       352         2       325        8.87     343       50.9
   09/24/2016 07:40      57.9      56.7       45     36.2      0.00      0.00      77.6     0.41      1016.0     1       166         1       109        8.87     344       -9.1
   09/24/2016 07:30      56.8      55.5       46     35.7      0.00      0.00      77.8     0.41      1017.0     1       119         1       118        8.87     344      -19.8
   09/24/2016 07:20      55.7      53.8       48     35.2      0.00      0.00      77.8     0.41      1016.0     1        18         2       182        8.87     345      -28.9
   09/24/2016 07:10      54.0      53.4       49     35.0      0.00      0.00      77.7     0.41      1016.0     1       151         3       155        8.87     346      -43.9
   09/24/2016 07:00      53.7      53.0       48     34.5      0.00      0.00      77.8     0.41      1016.0     2       153         3       353        8.87     345      -48.3
   09/24/2016 06:50      53.1      51.8       52     34.9      0.00      0.00      77.9     0.41      1016.0     2       162         3       191        8.87     346      -52.4
   09/24/2016 06:40      53.1      52.3       50     34.5      0.00      0.00      78.1     0.41      1016.0     1        83         2       119        8.87     344      -55.0
   09/24/2016 06:30      53.3      53.0       46     33.2      0.00      0.00      77.9     0.41      1016.0     1       189         1       180        8.87     343      -54.7
   09/24/2016 06:20      53.3      52.4       48     33.5      0.00      0.00      78.0     0.41      1016.0     1       233         2       228        8.87     343      -55.0
   09/24/2016 06:10      52.4      52.1       51     34.9      0.00      0.00      77.7     0.41      1016.0     1        50         1       355        8.87     342      -56.8
   09/24/2016 06:00      52.6      52.2       51     34.9      0.00      0.00      77.9     0.41      1016.0     2       131         3       148        8.87     341      -57.3
   09/24/2016 05:50      52.9      52.5       51     35.1      0.00      0.00      78.3     0.41      1016.0     1       139         2       142        8.87     340      -57.0
   09/24/2016 05:40      53.1      52.6       50     34.7      0.00      0.00      78.0     0.41      1016.0     1       134         2       143        8.87     339      -56.9
   09/24/2016 05:30      53.1      52.8       49     34.5      0.00      0.00      78.1     0.41      1016.0     1       132         2       143        8.87     337      -57.4
   09/24/2016 05:20      53.3      53.0       49     34.6      0.00      0.00      78.0     0.41      1015.0     1       142         2       142        8.87     338      -57.2
   09/24/2016 05:10      53.6      53.1       49     34.6      0.00      0.00      78.2     0.41      1015.0     1        34         2        26        8.87     338      -57.6
   09/24/2016 05:00      53.6      53.1       49     34.5      0.00      0.00      78.1     0.41      1015.0     1       137         2       133        8.87     336      -57.2
   09/24/2016 04:50      53.8      53.4       49     35.0      0.00      0.00      78.5     0.41      1015.0     1       166         3       132        8.88     335      -57.7
   09/24/2016 04:40      54.5      53.6       48     34.8      0.00      0.00      78.2     0.41      1015.0     1       151         1       124        8.88     335      -58.5
   09/24/2016 04:30      54.5      53.9       50     35.7      0.00      0.00      78.3     0.41      1015.0     1       133         1       172        8.88     334      -59.1
   09/24/2016 04:20      54.5      54.1       50     36.1      0.00      0.00      78.5     0.41      1015.0     1        93         1       117        8.88     332      -58.8
   09/24/2016 04:10      54.5      54.0       50     36.2      0.00      0.00      78.6     0.41      1015.0     1       188         2       208        8.88     330      -59.1
   09/24/2016 04:00      54.6      54.0       49     35.8      0.00      0.00      78.4     0.41      1015.0     1       169         2       147        8.88     329      -60.3
   09/24/2016 03:50      54.7      54.0       49     35.5      0.00      0.00      78.7     0.41      1015.0     2       142         2       130        8.88     326      -61.5
   09/24/2016 03:40      54.7      54.4       48     35.4      0.00      0.00      78.6     0.41      1015.0     1        14         2       357        8.88     325      -61.2
   09/24/2016 03:30      54.9      54.6       48     35.4      0.00      0.00      78.6     0.41      1015.0     1       131         2       161        8.88     323      -60.8
   09/24/2016 03:20      55.1      54.8       48     35.6      0.00      0.00      78.9     0.41      1015.0     1       127         2       136        8.88     320      -61.9
   09/24/2016 03:10      55.8      55.1       47     35.3      0.00      0.00      78.8     0.41      1015.0     1       138         2       143        8.88     318      -62.3
   09/24/2016 03:00      56.0      55.6       45     35.0      0.00      0.00      78.7     0.41      1015.0     1        24         2       351        8.88     316      -62.0
   09/24/2016 02:50      56.0      55.7       46     35.5      0.00      0.00      78.9     0.41      1015.0     1       116         2       170        8.88     314      -61.5
   09/24/2016 02:40      56.6      56.0       44     35.0      0.00      0.00      78.6     0.41      1016.0     1       122         2       113        8.89     312      -62.1
   09/24/2016 02:30      56.8      56.4       44     34.8      0.00      0.00      79.0     0.41      1016.0     1       164         1       144        8.89     311      -61.7
   09/24/2016 02:20      57.4      57.0       46     36.4      0.00      0.00      79.1     0.41      1015.0     1       115         2       124        8.89     308      -62.3
   09/24/2016 02:10      57.3      57.0       48     37.7      0.00      0.00      79.0     0.41      1015.0     1       184         1       230        8.89     305      -63.5
   09/24/2016 02:00      57.5      57.2       47     37.5      0.00      0.00      78.9     0.41      1015.0     1       158         2       157        8.89     303      -64.5
   09/24/2016 01:50      57.6      57.3       47     37.4      0.00      0.00      79.2     0.41      1015.0     1       167         2       144        8.89     301      -64.6
   09/24/2016 01:40      57.9      57.5       46     37.3      0.00      0.00      79.2     0.41      1015.0     1       167         1       199        8.89     299      -65.2
   09/24/2016 01:30      58.2      57.9       46     37.2      0.00      0.00      79.1     0.41      1015.0     1       108         2       138        8.89     298      -64.8
   09/24/2016 01:20      58.6      58.1       44     36.8      0.00      0.00      79.0     0.41      1015.0     1       132         2       128        8.89     296      -64.9
   09/24/2016 01:10      59.0      58.5       44     36.7      0.00      0.00      79.2     0.41      1015.0     1        64         1        17        8.89     294      -65.3
   09/24/2016 01:00      59.6      59.1       43     37.0      0.00      0.00      79.0     0.41      1015.0     1        89         1       126        8.89     292      -65.1
   09/24/2016 00:50      60.4      59.8       43     37.7      0.00      0.00      79.1     0.41      1015.0     1       117         2       117        8.90     291      -65.2
   09/24/2016 00:40      60.4      60.0       44     38.6      0.00      0.00      79.1     0.41      1015.0     1       333         2       316        8.90     289      -65.9
   09/24/2016 00:30      60.3      60.0       46     39.2      0.00      0.00      79.2     0.41      1015.0     1       186         2       151        8.90     287      -65.6
   09/24/2016 00:20      60.5      60.2       48     40.4      0.00      0.00      79.3     0.41      1015.0     2       130         2       133        8.90     286      -65.8
   09/24/2016 00:10      60.6      60.2       48     40.6      0.00      0.00      79.1     0.41      1015.0     1       147         2       125        8.90     284      -66.2
   09/24/2016 00:00      60.9      60.4       49     41.2      0.00      0.00      79.1     0.41      1015.0     1       180         2       136        8.90     283      -66.8
   09/23/2016 23:50      61.1      60.8       49     41.9      0.00      0.00      79.3     0.41      1015.0     1       139         2       142        8.90     282      -66.6
   09/23/2016 23:40      61.9      61.3       49     42.2      0.00      0.00      79.4     0.41      1015.0     1       132         2       141        8.90     281      -66.0
   09/23/2016 23:30      62.1      61.9       49     42.5      0.00      0.00      79.6     0.41      1015.0     1       219         1       220        8.90     280      -66.1
   09/23/2016 23:20      62.3      62.0       49     42.8      0.00      0.00      79.6     0.41      1015.0     1       101         2        87        8.90     278      -67.1
   09/23/2016 23:10      62.6      62.3       48     42.3      0.00      0.00      79.3     0.41      1015.0     1       101         1       156        8.90     278      -67.8
   09/23/2016 23:00      62.6      62.4       47     42.0      0.00      0.00      79.4     0.41      1015.0     1       218         2       204        8.91     277      -66.5
   09/23/2016 22:50      63.1      62.8       49     43.5      0.00      0.00      79.5     0.41      1015.0     1       147         2       138        8.91     276      -67.7
   09/23/2016 22:40      63.1      62.7       50     44.1      0.00      0.00      79.4     0.41      1015.0     1       173         2       158        8.91     275      -68.6
   09/23/2016 22:30      63.3      62.9       52     45.5      0.00      0.00      79.5     0.41      1015.0     2       145         3       122        8.91     274      -69.3
   09/23/2016 22:20      63.4      62.9       52     45.4      0.00      0.00      79.4     0.41      1015.0     2       182         2       144        8.91     273      -69.7
   09/23/2016 22:10      63.8      63.2       52     45.8      0.00      0.00      79.4     0.41      1015.0     1       148         2       136        8.91     273      -71.3
   09/23/2016 22:00      64.8      64.1       52     46.6      0.00      0.00      79.3     0.41      1015.0     2       136         3       165        8.91     272      -71.3
   09/23/2016 21:50      65.6      64.9       51     46.6      0.00      0.00      79.4     0.41      1015.0     1       189         2       195        8.92     272      -70.9
   09/23/2016 21:40      66.3      65.3       50     46.7      0.00      0.00      79.5     0.41      1015.0     2       172         3       131        8.92     271      -72.3
   09/23/2016 21:30      66.7      65.8       50     47.3      0.00      0.00      79.5     0.41      1015.0     1       194         2        89        8.92     271      -73.5
   09/23/2016 21:20      66.2      65.8       53     48.2      0.00      0.00      79.4     0.41      1015.0     2       150         3       300        8.92     271      -74.6
   09/23/2016 21:10      66.9      66.3       51     48.0      0.00      0.00      79.6     0.41      1015.0     2       168         3       169        8.92     271      -74.8
   09/23/2016 21:00      67.7      67.1       52     49.0      0.00      0.00      79.3     0.41      1015.0     2       153         3       137        8.92     271      -76.2
   09/23/2016 20:50      68.4      67.8       51     49.3      0.00      0.00      79.5     0.41      1015.0     3       167         3       161        8.93     271      -75.7
   09/23/2016 20:40      67.8      67.2       54     50.4      0.00      0.00      79.8     0.41      1014.0     3       138         4       165        8.93     271      -74.3
   09/23/2016 20:30      68.3      67.3       54     50.4      0.00      0.00      79.5     0.41      1014.0     2       176         3       150        8.93     271      -71.2
   09/23/2016 20:20      68.4      68.3       53     50.7      0.00      0.00      79.4     0.41      1014.0     1       231         2       217        8.94     271      -72.5
   09/23/2016 20:10      69.1      68.5       52     50.4      0.00      0.00      79.5     0.41      1014.0     2       156         3       143        8.94     271      -75.3
   09/23/2016 20:00      70.1      69.2       49     49.9      0.00      0.00      79.5     0.41      1014.0     2       142         3       134        8.94     271      -79.2
   09/23/2016 19:50      70.7      70.3       49     50.3      0.00      0.00      79.3     0.41      1014.0     1        61         2       114        8.94     271      -82.1
   09/23/2016 19:40      70.9      70.7       49     50.5      0.00      0.00      79.3     0.41      1014.0     2        85         3        77        8.95     270      -83.2
   09/23/2016 19:30      71.5      71.1       48     50.8      0.00      0.00      79.1     0.41      1014.0     2       101         3       150        8.95     270      -84.3
   09/23/2016 19:20      72.3      71.7       46     50.2      0.00      0.00      79.3     0.41      1014.0     2        89         5        80        8.95     270      -85.8
   09/23/2016 19:10      73.0      72.3       46     50.5      0.00      0.00      79.2     0.41      1014.0     2        67         3        64        8.95     270      -86.6
   09/23/2016 19:00      73.7      73.0       46     51.0      0.00      0.00      79.2     0.41      1014.0     2        69         3        67        8.96     270      -85.5
   09/23/2016 18:50      74.5      73.8       44     51.1      0.00      0.00      79.3     0.41      1014.0     2        80         3        93        8.96     270      -83.1
   09/23/2016 18:40      75.2      74.5       43     51.0      0.00      0.00      79.3     0.41      1014.0     2        46         3        72        8.96     269      -77.7
   09/23/2016 18:30      76.0      75.3       42     50.9      0.00      0.00      79.1     0.41      1014.0     2        53         4        71        8.96     269      -74.9
   09/23/2016 18:20      76.6      76.0       41     50.7      0.00      0.00      79.1     0.41      1014.0     2        50         4        68        8.96     269      -61.8
   09/23/2016 18:10      77.3      76.7       40     51.1      0.00      0.00      79.0     0.41      1014.0     2        36         4        24        8.97     269      -41.9
   09/23/2016 18:00      77.8      77.5       40     51.5      0.00      0.00      78.8     0.41      1013.0     3        43         4        67        8.97     269      -23.0
   09/23/2016 17:50      78.0      77.8       39     50.7      0.00      0.00      79.0     0.41      1013.0     3        52         6        80        8.97     269        1.3
   09/23/2016 17:40      78.6      78.1       38     50.8      0.00      0.00      79.0     0.41      1013.0     3        78         7        87        8.98     269       26.5
   09/23/2016 17:30      79.6      78.8       36     50.1      0.00      0.00      78.8     0.41      1013.0     3        45         4        21        8.98     269       49.1
   09/23/2016 17:20      79.7      79.2       36     50.4      0.00      0.00      78.9     0.41      1013.0     3        62         6        58        8.99     269       73.0
   09/23/2016 17:10      81.5      79.5       34     49.7      0.00      0.00      78.9     0.41      1013.0     4        68         7        80        8.99     268      100.2
   09/23/2016 17:00      81.9      81.5       32     48.6      0.00      0.00      78.9     0.41      1013.0     4        65         8        75        8.99     269      128.2
   09/23/2016 16:50      84.1      82.1       29     47.5      0.00      0.00      78.7     0.41      1013.0     5        63         7        71        9.00     269      202.2
   09/23/2016 16:40      84.5      83.8       23     42.8      0.00      0.00      78.7     0.41      1013.0     4        52         8        56        9.00     269      168.4
   09/23/2016 16:30      86.1      84.7       18     35.6      0.00      0.00      78.5     0.41      1013.0     5        20         9       351        9.00     268      161.2
   09/23/2016 16:20      86.2      85.7       10     22.2      0.00      0.00      78.6     0.41      1013.0     8         2        11       344        9.01     269      215.0
   09/23/2016 16:10      86.5      85.8       10     22.6      0.00      0.00      78.6     0.41      1013.0     9       356        12       347        9.01     269      221.9
   09/23/2016 16:00      86.6      86.0       10     23.1      0.00      0.00      78.6     0.41      1013.0     7        17         9       353        9.01     270      243.0
   09/23/2016 15:50      86.3      85.9       10     23.3      0.00      0.00      78.4     0.41      1013.0     8        11        14       350        9.01     270      264.4
   09/23/2016 15:40      86.6      85.9       13     29.8      0.00      0.00      78.4     0.41      1013.0     7       352        11       358        9.01     270      285.7
   09/23/2016 15:30      86.4      85.3       13     30.3      0.00      0.00      78.2     0.41      1013.0     6       328        11       327        9.02     270      312.6
   09/23/2016 15:20      85.6      84.5       14     29.9      0.00      0.00      78.4     0.41      1013.0    10       331        14       332        9.02     270      342.9
   09/23/2016 15:10      86.0      85.6       14     31.0      0.00      0.00      78.4     0.41      1013.0     7       331        12       335        9.02     270      356.4
   09/23/2016 15:00      86.0      85.4       14     31.7      0.00      0.00      78.4     0.41      1013.0     6       339         8       327        9.02     270      372.5
   09/23/2016 14:50      86.0      85.1       14     31.1      0.00      0.00      78.3     0.41      1013.0     6       345        10       341        9.02     270      389.3
   09/23/2016 14:40      85.6      83.8       15     31.8      0.00      0.00      78.4     0.41      1013.0     6       316         9       295        9.02     270      406.6
   09/23/2016 14:30      84.4      83.7       15     31.1      0.00      0.00      78.2     0.41      1013.0     9       342        15       323        9.02     271      419.9
   09/23/2016 14:20      84.7      83.8       15     31.0      0.00      0.00      78.1     0.41      1014.0     7         3        13         3        9.02     271      430.7
   09/23/2016 14:10      84.7      83.2       16     32.1      0.00      0.00      78.0     0.41      1014.0     6       338        10        11        9.02     272      444.1
   09/23/2016 14:00      83.8      82.9       15     31.6      0.00      0.00      78.1     0.41      1014.0     7       333        14        16        9.02     272      456.1
   09/23/2016 13:50      83.6      83.0       16     32.2      0.00      0.00      78.2     0.41      1014.0     8       331        11        10        9.02     271      464.1
   09/23/2016 13:40      83.0      82.5       16     32.0      0.00      0.00      78.3     0.41      1014.0     7       336        11       324        9.02     272      474.0
   09/23/2016 13:30      83.1      82.5       16     32.2      0.00      0.00      77.9     0.41      1014.0     8       339        12       351        9.02     272      480.8
   09/23/2016 13:20      82.7      81.8       16     32.4      0.00      0.00      78.2     0.41      1015.0     7       335        11         8        9.02     272      485.7
   09/23/2016 13:10      81.8      80.8       17     32.4      0.00      0.00      78.2     0.41      1015.0     6       348        10       352        9.02     273      490.2
   09/23/2016 13:00      81.3      80.3       18     33.3      0.00      0.00      78.2     0.41      1015.0     9       348        11       345        9.02     272      494.6
   09/23/2016 12:50      81.0      80.3       17     32.2      0.00      0.00      78.0     0.41      1015.0     8       343        12       342        9.02     273      496.8
   09/23/2016 12:40      80.7      80.3       18     32.5      0.00      0.00      78.2     0.41      1015.0    10       349        13       328        9.02     273      497.2
   09/23/2016 12:30      81.1      80.5       17     31.8      0.00      0.00      78.1     0.41      1015.0     8       349        12       344        9.02     274      495.7
   09/23/2016 12:20      80.6      80.1       16     29.8      0.00      0.00      78.1     0.41      1016.0     8         1        16       346        9.02     274      496.6
   09/23/2016 12:10      80.5      79.3       16     29.1      0.00      0.00      78.1     0.41      1016.0     7       344        12       357        9.02     277      494.4
   09/23/2016 12:00      79.8      79.4       16     29.1      0.00      0.00      78.0     0.41      1016.0     8         5        11         7        9.02     281      420.3
   09/23/2016 11:50      79.6      78.6       16     29.1      0.00      0.00      78.3     0.42      1016.0     6        15        10         0        9.02     284      444.7
   09/23/2016 11:40      79.9      79.0       17     31.4      0.00      0.00      78.2     0.42      1016.0     7       359        12         1        9.02     290      469.0
   09/23/2016 11:30      79.4      78.3       18     32.4      0.00      0.00      78.5     0.42      1016.0     7       337        10       316        9.02     293      478.6
   09/23/2016 11:20      78.0      77.7       18     31.6      0.00      0.00      78.1     0.42      1016.0     7       328        10       316        9.02     297      472.4
   09/23/2016 11:10      77.8      76.6       19     31.7      0.00      0.00      78.4     0.42      1016.0     8       341        11       353        9.02     311      468.2
   09/23/2016 11:00      77.1      76.6       19     31.4      0.00      0.00      79.0     0.42      1016.0    10       353        15        11        9.02     324      463.2
   09/23/2016 10:50      77.2      75.8       19     31.4      0.00      0.00      78.9     0.42      1016.0     9       357        13       331        9.02     335      456.2
   09/23/2016 10:40      76.8      75.6       19     31.4      0.00      0.00      78.2     0.42      1016.0    10       357        13       351        9.02     333      419.8
   09/23/2016 10:30      76.1      75.5       21     33.2      0.00      0.00      78.9     0.42      1016.0     5       346         9       359        9.00     346      433.5
   09/23/2016 10:20      75.6      74.2       21     32.3      0.00      0.00      78.4     0.41      1016.0     6       332        11       296        8.64     272      380.5
   09/23/2016 10:10      74.3      73.1       22     31.9      0.00      0.00      78.7     0.41      1016.0     7       342        10       320        8.64     273      361.6
   09/23/2016 10:00      73.3      72.2       23     32.4      0.00      0.00      79.0     0.41      1016.0     6       326        10       344        8.64     273      306.9
   09/23/2016 09:50      72.5      72.0       23     32.1      0.00      0.00      78.9     0.41      1016.0     6       332         9       317        8.65     273      275.0
   09/23/2016 09:40      72.0      71.3       23     32.2      0.00      0.00      78.9     0.41      1016.0     6       331         9       320        8.65     273      307.7
   09/23/2016 09:30      71.5      71.2       24     33.1      0.00      0.00      78.9     0.41      1016.0     4       334         6       325        8.65     274      291.7
   09/23/2016 09:20      71.2      70.9       25     33.2      0.00      0.00      79.0     0.41      1016.0     3       313         5       309        8.65     275      285.4
   09/23/2016 09:10      70.6      69.0       26     33.1      0.00      0.00      79.0     0.41      1016.0     3        17         5         0        8.65     280      258.4
   09/23/2016 09:00      69.2      68.2       26     32.9      0.00      0.00      79.0     0.41      1016.0     5        12         7       353        8.65     285      240.8
   09/23/2016 08:50      68.2      66.5       35     38.2      0.00      0.00      79.0     0.41      1016.0     5       359         9       352        8.65     290      214.7
   09/23/2016 08:40      66.7      64.4       44     43.0      0.00      0.00      79.1     0.41      1016.0     3       253         4       306        8.65     294      186.5
   09/23/2016 08:30      64.3      62.9       51     45.5      0.00      0.00      78.9     0.41      1016.0     3       142         5        82        8.65     296      170.7
   09/23/2016 08:20      63.1      62.2       60     48.5      0.00      0.00      79.0     0.41      1016.0     4       135         6       140        8.65     295      142.4
   09/23/2016 08:10      62.3      60.2       69     51.1      0.00      0.00      79.0     0.41      1016.0     2        86         3       148        8.65     295       95.3
   09/23/2016 08:00      60.3      59.3       75     51.8      0.00      0.00      79.2     0.41      1016.0     2       142         4       146        8.65     295       43.3
   09/23/2016 07:50      59.2      58.0       78     51.9      0.00      0.00      79.1     0.41      1016.0     2       139         5       131        8.65     295       38.0
   09/23/2016 07:40      57.9      56.5       81     51.5      0.00      0.00      79.1     0.41      1016.0     3       147         4       147        8.65     294       -1.0
   09/23/2016 07:30      56.4      55.1       85     51.2      0.00      0.00      79.1     0.41      1016.0     2       153         3       150        8.65     293       -7.8
   09/23/2016 07:20      55.0      54.1       85     50.0      0.00      0.00      79.4     0.41      1015.0     2       145         3       140        8.65     292      -13.9
   09/23/2016 07:10      54.5      54.1       87     50.4      0.00      0.00      79.3     0.41      1015.0     1       135         2       136        8.65     291      -33.0
   09/23/2016 07:00      54.5      54.3       87     50.6      0.00      0.00      79.5     0.41      1015.0     1       319         2       311        8.65     290      -40.2
   09/23/2016 06:50      54.6      54.1       86     50.2      0.00      0.00      79.6     0.41      1015.0     1       187         2       141        8.65     288      -47.0
   09/23/2016 06:40      55.2      54.9       86     51.0      0.00      0.00      79.5     0.41      1015.0     1       217         2       228        8.65     287      -48.6
   09/23/2016 06:30      55.5      54.9       85     50.7      0.00      0.00      79.3     0.41      1015.0     1       218         2       253        8.65     287      -52.2
   09/23/2016 06:20      56.2      55.5       85     51.5      0.00      0.00      79.7     0.41      1015.0     2       195         2       187        8.65     286      -50.5
   09/23/2016 06:10      56.5      56.3       84     51.7      0.00      0.00      79.4     0.41      1015.0     1       222         2       168        8.65     285      -52.6
   09/23/2016 06:00      56.6      56.5       84     51.7      0.00      0.00      79.5     0.41      1015.0     1       108         3        79        8.65     284      -53.5
   09/23/2016 05:50      57.0      56.8       84     51.9      0.00      0.00      79.5     0.41      1015.0     1       292         2        43        8.65     283      -56.0
   09/23/2016 05:40      57.1      57.0       83     52.0      0.00      0.00      79.8     0.41      1015.0     1        80         2        80        8.65     282      -60.5
   09/23/2016 05:30      57.3      57.0       82     51.7      0.00      0.00      79.6     0.41      1014.0     1       117         1        92        8.65     282      -63.6
   09/23/2016 05:20      57.9      57.3       80     51.5      0.00      0.00      80.0     0.41      1014.0     1       256         2       260        8.65     281      -64.7
   09/23/2016 05:10      58.2      57.9       80     51.9      0.00      0.00      79.8     0.41      1014.0     2        84         3        65        8.65     280      -66.9
   09/23/2016 05:00      58.5      58.1       80     52.0      0.00      0.00      79.8     0.41      1014.0     3        88         5       114        8.65     280      -67.7
   09/23/2016 04:50      58.2      58.0       80     51.9      0.00      0.00      80.0     0.41      1014.0     4        90         6        95        8.65     279      -68.1
   09/23/2016 04:40      58.5      58.2       79     52.0      0.00      0.00      79.8     0.41      1014.0     3        87         5       122        8.65     279      -67.5
   09/23/2016 04:30      58.5      58.1       78     51.4      0.00      0.00      80.1     0.41      1014.0     2        51         4        84        8.65     278      -67.0
   09/23/2016 04:20      58.8      58.3       73     49.8      0.00      0.00      80.0     0.41      1014.0     2        64         3       130        8.65     278      -68.5
   09/23/2016 04:10      59.5      58.9       71     49.7      0.00      0.00      79.9     0.41      1014.0     2        78         3       113        8.65     277      -69.6
   09/23/2016 04:00      60.0      59.4       66     48.5      0.00      0.00      79.9     0.41      1014.0     2        88         4        90        8.66     277      -69.2
   09/23/2016 03:50      60.9      60.3       58     45.9      0.00      0.00      80.0     0.41      1014.0     2        71         4        72        8.66     277      -69.3
   09/23/2016 03:40      62.0      61.1       53     44.5      0.00      0.00      80.5     0.42      1014.0     2        89         3       105        8.66     276      -70.1
   09/23/2016 03:30      64.4      62.2       42     39.3      0.00      0.00      80.3     0.42      1014.0     3        97         4        79        8.66     276      -70.1
   09/23/2016 03:20      65.0      64.5       31     33.8      0.00      0.00      80.5     0.42      1014.0     3        25         4         6        8.66     276      -70.0
   09/23/2016 03:10      65.3      64.9       31     34.0      0.00      0.00      80.4     0.42      1013.0     4        29         7        37        8.66     276      -71.0
   09/23/2016 03:00      65.3      64.8       32     34.1      0.00      0.00      80.6     0.42      1014.0     6        26         9       349        8.66     276      -70.9
   09/23/2016 02:50      64.9      63.1       32     33.3      0.00      0.00      80.3     0.42      1013.0     4        26         8         6        8.66     277      -69.8
   09/23/2016 02:40      63.0      60.0       34     32.3      0.00      0.00      80.6     0.42      1014.0     4        56         6       146        8.66     277      -69.5
   09/23/2016 02:30      60.4      59.1       35     31.9      0.00      0.00      80.5     0.42      1013.0     3       144         4       138        8.66     276      -69.8
   09/23/2016 02:20      59.4      58.6       36     32.0      0.00      0.00      80.7     0.42      1014.0     3       143         3       148        8.66     275      -70.1
   09/23/2016 02:10      59.1      58.5       36     32.0      0.00      0.00      80.6     0.42      1014.0     2       120         3       122        8.66     275      -70.3
   09/23/2016 02:00      60.2      59.4       34     31.6      0.00      0.00      80.6     0.42      1013.0     2       132         3       133        8.66     274      -71.0
   09/23/2016 01:50      60.4      59.2       33     30.8      0.00      0.00      80.6     0.42      1013.0     1       102         3        84        8.66     274      -71.5
   09/23/2016 01:40      60.9      59.8       33     31.2      0.00      0.00      80.4     0.42      1013.0     1       137         2       162        8.67     273      -68.9
   09/23/2016 01:30      61.1      59.8       32     30.6      0.00      0.00      80.7     0.42      1013.0     3       182         3       160        8.67     273      -66.2
   09/23/2016 01:20      61.5      60.4       32     30.7      0.00      0.00      80.9     0.42      1013.0     2       155         3       162        8.67     272      -67.5
   09/23/2016 01:10      61.8      61.4       30     30.3      0.00      0.00      80.7     0.42      1013.0     2       154         4       131        8.67     271      -70.7
   09/23/2016 01:00      65.1      62.3       27     29.1      0.00      0.00      80.8     0.42      1013.0     2       161         3       136        8.67     271      -72.8
   09/23/2016 00:50      66.5      65.4       26     29.5      0.00      0.00      81.0     0.42      1013.0     1        78         2       121        8.67     271      -77.0
   09/23/2016 00:40      67.0      66.6       24     29.1      0.00      0.00      80.9     0.42      1013.0     3       356         5       315        8.67     271      -79.1
   09/23/2016 00:30      67.3      67.0       24     28.9      0.00      0.00      80.9     0.42      1013.0     5       291         6       276        8.67     271      -79.2
   09/23/2016 00:20      67.5      67.3       24     29.0      0.00      0.00      81.2     0.42      1013.0     7       342        15       333        8.68     271      -80.4
   09/23/2016 00:10      67.9      67.5       23     29.1      0.00      0.00      81.0     0.42      1013.0     7       357        13       346        8.68     271      -80.9
   09/23/2016 00:00      67.9      67.6       23     29.1      0.00      0.00      80.9     0.42      1013.0     8       336        12       325        8.68     271      -81.7
   09/22/2016 23:50      67.8      67.2       24     29.5      0.00      0.00      81.0     0.42      1013.0     8       331        12       345        8.68     271      -80.1
   09/22/2016 23:40      67.0      65.5       26     30.6      0.00      0.00      81.0     0.42      1013.0     6       346        12         8        8.68     272      -79.3
   09/22/2016 23:30      65.5      65.2       28     31.6      0.00      0.00      81.1     0.42      1013.0     2         7         6        10        8.68     271      -77.9
   09/22/2016 23:20      65.8      65.4       28     31.3      0.00      0.00      81.3     0.42      1014.0     2        96         4        83        8.69     271      -77.2
   09/22/2016 23:10      66.1      65.6       28     31.5      0.00      0.00      81.3     0.42      1014.0     3       114         4       139        8.69     271      -77.8
   09/22/2016 23:00      66.6      66.2       27     31.2      0.00      0.00      81.5     0.42      1014.0     3       133         4       107        8.69     271      -78.8
   09/22/2016 22:50      67.6      66.7       26     30.7      0.00      0.00      81.4     0.42      1014.0     3       158         5       172        8.69     271      -79.6
   09/22/2016 22:40      68.1      67.9       25     30.5      0.00      0.00      81.1     0.42      1014.0     2       189         5       252        8.69     271      -80.3
   09/22/2016 22:30      68.2      67.6       24     30.0      0.00      0.00      81.0     0.42      1014.0     2       340         5       356        8.69     271      -81.1
   09/22/2016 22:20      68.0      66.5       24     29.4      0.00      0.00      81.0     0.42      1014.0     4       335         8       321        8.70     271      -79.8
   09/22/2016 22:10      66.6      65.7       25     29.6      0.00      0.00      81.3     0.42      1014.0     2       348         4        54        8.70     271      -80.0
   09/22/2016 22:00      65.8      64.9       26     29.4      0.00      0.00      81.2     0.42      1014.0     2       334         3       320        8.70     270      -80.0
   09/22/2016 21:50      66.0      65.7       25     29.5      0.00      0.00      81.4     0.42      1013.0     2       250         3       170        8.70     270      -80.4
   09/22/2016 21:40      66.7      66.0       25     29.3      0.00      0.00      81.2     0.42      1013.0     3       151         5       156        8.70     270      -82.5
   09/22/2016 21:30      68.4      66.9       23     29.1      0.00      0.00      81.4     0.42      1013.0     3       122         5       144        8.70     270      -84.2
   09/22/2016 21:20      68.5      68.2       23     29.0      0.00      0.00      81.4     0.42      1013.0     3       347         5       341        8.71     270      -85.7
   09/22/2016 21:10      68.4      67.5       22     28.0      0.00      0.00      81.4     0.42      1013.0     4       331         8       320        8.71     270      -86.4
   09/22/2016 21:00      68.2      67.2       22     27.3      0.00      0.00      81.4     0.42      1013.0     2       133         6       117        8.71     270      -86.8
   09/22/2016 20:50      69.0      68.3       21     27.6      0.00      0.00      81.5     0.42      1013.0     2       246         3       231        8.71     270      -89.3
   09/22/2016 20:40      69.3      69.1       21     27.8      0.00      0.00      81.4     0.42      1012.0     4       304         6        23        8.72     270      -89.4
   09/22/2016 20:30      69.6      69.3       21     27.6      0.00      0.00      81.2     0.42      1012.0     5       346        10       352        8.72     270      -89.0
   09/22/2016 20:20      70.1      69.6       20     26.7      0.00      0.00      81.4     0.42      1012.0     5       324         8       349        8.72     270      -89.1
   09/22/2016 20:10      70.4      70.1       18     25.2      0.00      0.00      81.4     0.42      1012.0     3       306         6       289        8.73     270      -89.3
   09/22/2016 20:00      71.0      70.6       17     23.9      0.00      0.00      81.4     0.42      1012.0     3       337         6       343        8.73     270      -90.4
   09/22/2016 19:50      71.4      71.1       16     23.0      0.00      0.00      81.3     0.42      1012.0     3       316         7       339        8.73     270      -91.5
   09/22/2016 19:40      71.7      71.3       16     22.9      0.00      0.00      81.1     0.42      1012.0     3       313         8        10        8.73     269      -93.2
   09/22/2016 19:30      72.0      71.6       16     23.6      0.00      0.00      81.2     0.42      1011.0     3         8         4        10        8.73     270      -94.6
   09/22/2016 19:20      72.6      72.2       17     24.7      0.00      0.00      81.3     0.42      1011.0     5       354        11       341        8.74     269      -95.2
   09/22/2016 19:10      73.3      72.7       17     26.1      0.00      0.00      81.2     0.42      1011.0     6       348        11       345        8.74     269      -94.9
   09/22/2016 19:00      74.1      73.4       17     26.6      0.00      0.00      81.5     0.42      1011.0     7       352        10       343        8.74     269      -93.7
   09/22/2016 18:50      74.8      74.2       17     26.4      0.00      0.00      81.1     0.42      1011.0     7       352        12         2        8.75     269      -91.1
   09/22/2016 18:40      76.3      74.9       16     26.5      0.00      0.00      81.2     0.42      1011.0     7       339        10       323        8.75     269      -86.5
   09/22/2016 18:30      77.5      76.3       15     25.0      0.00      0.00      81.1     0.42      1011.0     6       333        11       317        8.75     269      -81.6
   09/22/2016 18:20      79.5      77.9       14     24.8      0.00      0.00      81.1     0.42      1010.0     6       341        11       340        8.76     269      -67.5
   09/22/2016 18:10      80.0      79.5       16     29.9      0.00      0.00      81.3     0.42      1010.0     5       341         9       313        8.76     269      -43.2
   09/22/2016 18:00      80.2      79.9       16     29.8      0.00      0.00      81.2     0.42      1010.0     4       287         6       273        8.76     269      -22.4
   09/22/2016 17:50      80.4      80.1       17     31.3      0.00      0.00      81.1     0.42      1010.0     5       282        11       243        8.77     269       -3.4
   09/22/2016 17:40      80.6      80.2       17     32.3      0.00      0.00      81.1     0.42      1010.0     4       293         6       307        8.77     269       16.9
   09/22/2016 17:30      80.6      80.0       18     32.9      0.00      0.00      81.1     0.42      1010.0     3       285         5       301        8.77     269       40.0
   09/22/2016 17:20      80.5      80.2       18     33.2      0.00      0.00      81.2     0.42      1010.0     5       292         8       263        8.78     269       64.6
   09/22/2016 17:10      80.8      80.2       19     34.2      0.00      0.00      81.3     0.42      1010.0     5       328        11       321        8.78     269       95.0
   09/22/2016 17:00      80.5      80.2       20     35.6      0.00      0.00      81.0     0.42      1010.0     4       287         6       345        8.78     269      125.5
   09/22/2016 16:50      80.7      79.8       22     38.0      0.00      0.00      80.8     0.42      1010.0     4       274         6       271        8.79     269      156.1
   09/22/2016 16:40      79.8      79.2       23     38.3      0.00      0.00      80.8     0.42      1010.0     5       242        10       260        8.79     269      182.2
   09/22/2016 16:30      79.8      79.4       23     38.6      0.00      0.00      81.1     0.42      1010.0     6       230         9       220        8.79     269      207.3
   09/22/2016 16:20      80.2      79.2       24     40.1      0.00      0.00      80.8     0.42      1010.0     6       253         9       229        8.80     269      225.8
   09/22/2016 16:10      80.0      78.9       25     40.9      0.00      0.00      80.9     0.42      1010.0     5       238         8       279        8.80     268      233.8
   09/22/2016 16:00      78.8      78.4       25     39.9      0.00      0.00      80.6     0.42      1010.0     4       248         7       225        8.80     270      254.5
   09/22/2016 15:50      79.0      78.4       26     40.6      0.00      0.00      80.7     0.42      1010.0     5       237         7       197        8.80     270      279.3
   09/22/2016 15:40      79.3      78.5       26     41.4      0.00      0.00      80.6     0.42      1011.0     5       234         8       254        8.81     270      300.1
   09/22/2016 15:30      79.2      78.7       26     40.9      0.00      0.00      80.8     0.42      1011.0     6       263         8       272        8.81     270      326.5
   09/22/2016 15:20      79.3      78.5       26     41.6      0.00      0.00      80.5     0.42      1011.0     6       231         9       199        8.81     269      353.1
   09/22/2016 15:10      79.3      78.6       28     42.9      0.00      0.00      80.6     0.42      1011.0     5       238         7       230        8.82     269      371.7
   09/22/2016 15:00      79.8      78.7       31     45.7      0.00      0.00      80.3     0.42      1011.0     6       248         9       230        8.82     270      387.6
   09/22/2016 14:50      79.4      77.3       41     52.3      0.00      0.00      80.5     0.42      1011.0     3       216         8       186        8.83     270      402.5
   09/22/2016 14:40      77.9      75.8       44     53.2      0.00      0.00      80.5     0.42      1011.0     4       196         7       140        8.83     270      420.4
   09/22/2016 14:30      76.3      76.0       46     54.2      0.00      0.00      80.3     0.42      1011.0     6       129         9       110        8.83     271      441.1
   09/22/2016 14:20      76.2      75.6       47     54.5      0.00      0.00      80.1     0.42      1011.0     5       144         8       126        8.84     272      453.0
   09/22/2016 14:10      76.3      74.8       49     54.9      0.00      0.00      80.5     0.42      1011.0     7       139        12       126        8.84     272      444.9
   09/22/2016 14:00      75.7      74.4       50     55.0      0.00      0.00      80.5     0.42      1011.0     7       150        11       142        8.84     272      484.1
   09/22/2016 13:50      75.2      74.7       50     55.4      0.00      0.00      80.3     0.42      1012.0     8       157        10       155        8.84     272      495.8
   09/22/2016 13:40      74.6      73.4       52     55.2      0.00      0.00      80.3     0.42      1012.0     6       100        10        80        8.84     272      428.8
   09/22/2016 13:30      74.6      74.1       51     55.2      0.00      0.00      80.0     0.42      1012.0     6       142         8       150        8.85     272      376.2
   09/22/2016 13:20      75.3      74.5       50     55.0      0.00      0.00      80.2     0.42      1012.0     6       159         9       171        8.85     272      190.0
   09/22/2016 13:10      75.9      75.2       47     54.1      0.00      0.00      80.5     0.42      1012.0     6       164        10       138        8.85     272      384.6
   09/22/2016 13:00      77.3      75.1       47     54.6      0.00      0.00      80.3     0.41      1012.0     6       133        10       142        8.85     272      472.8
   09/22/2016 12:50      78.3      76.2       45     54.4      0.00      0.00      80.1     0.42      1012.0     5       135         9       131        8.85     273      554.4
   09/22/2016 12:40      77.3      75.5       46     53.6      0.00      0.00      80.0     0.41      1012.0     3        88         6        65        8.85     273      450.7
   09/22/2016 12:30      75.5      75.3       46     53.2      0.00      0.00      80.2     0.41      1012.0     3       134         7       140        8.86     273      458.2
   09/22/2016 12:20      76.0      74.7       47     53.4      0.00      0.00      80.1     0.41      1013.0     4       168         6       140        8.86     273      452.7
   09/22/2016 12:10      76.2      75.2       47     53.8      0.00      0.00      80.2     0.41      1013.0     4        89        10        73        8.86     273      359.1
   09/22/2016 12:00      76.4      75.5       46     53.9      0.00      0.00      80.1     0.41      1013.0     3        87         8       128        8.86     273      455.0
   09/22/2016 11:50      75.7      74.6       47     53.6      0.00      0.00      80.5     0.41      1013.0     5        78        10       130        8.86     273      510.3
   09/22/2016 11:40      75.5      74.6       48     54.2      0.00      0.00      80.4     0.41      1013.0     3        61         6       133        8.86     274      499.2
   09/22/2016 11:30      76.2      74.2       49     54.7      0.00      0.00      80.0     0.41      1013.0     4        76         6        82        8.86     275      494.2
   09/22/2016 11:20      75.4      73.5       49     53.8      0.00      0.00      80.2     0.41      1013.0     3        87         5       133        8.86     275      418.7
   09/22/2016 11:10      75.4      74.2       50     55.0      0.00      0.00      80.3     0.42      1013.0     3        22         6       322        8.86     276      484.4
   09/22/2016 11:00      74.9      74.1       49     54.3      0.00      0.00      80.5     0.42      1013.0     3        36         4        17        8.86     276      482.3
   09/22/2016 10:50      73.8      71.1       52     54.1      0.00      0.00      80.0     0.42      1013.0     3       358         5       344        8.86     279      502.9
   09/22/2016 10:40      71.0      70.0       58     54.8      0.00      0.00      80.5     0.42      1013.0     3       349         4       304        8.86     282      257.6
   09/22/2016 10:30      70.5      70.3       59     55.4      0.00      0.00      80.6     0.42      1013.0     3       354         3        24        8.86     281      120.5
   09/22/2016 10:20      70.5      70.1       61     56.3      0.00      0.00      80.9     0.42      1014.0     2         4         3        34        8.86     282      110.5
   09/22/2016 10:10      70.5      70.0       61     56.3      0.00      0.00      80.4     0.42      1014.0     3        85         6        31        8.86     285      259.7
   09/22/2016 10:00      70.4      68.7       62     55.7      0.00      0.00      80.4     0.42      1013.0     2       194         4       176        8.86     289      277.8
   09/22/2016 09:50      69.0      68.3       66     56.8      0.00      0.00      80.5     0.42      1013.0     2       282         4       266        8.86     292       82.5
   09/22/2016 09:40      68.4      67.9       68     57.0      0.00      0.00      80.7     0.42      1013.0     2       242         4       218        8.86     296      244.7
   09/22/2016 09:30      68.0      66.7       70     57.4      0.00      0.00      80.0     0.42      1013.0     2       285         4       301        8.86     302      184.8
   09/22/2016 09:20      66.9      66.4       72     57.5      0.00      0.00      80.8     0.42      1013.0     2       256         4       240        8.86     309       96.5
   09/22/2016 09:10      66.4      65.7       75     58.0      0.00      0.00      80.5     0.42      1013.0     3       280         6       272        8.86     316      126.3
   09/22/2016 09:00      65.8      65.2       77     58.2      0.00      0.00      80.7     0.42      1013.0     2       256         4       256        8.86     320      105.3
   09/22/2016 08:50      65.4      64.8       79     58.5      0.00      0.00      80.8     0.42      1013.0     3       280         5       262        8.86     325       74.2
   09/22/2016 08:40      65.2      64.7       80     58.7      0.00      0.00      80.5     0.42      1013.0     3       252         4       228        8.86     326       87.1
   09/22/2016 08:30      64.7      64.3       81     58.6      0.00      0.00      80.4     0.42      1013.0     3       269         6       245        8.86     329       70.5
   09/22/2016 08:20      64.4      64.0       82     58.7      0.00      0.00      80.7     0.42      1013.0     3       298         4       308        8.86     328       71.7
   09/22/2016 08:10      64.2      63.8       83     58.6      0.00      0.00      80.8     0.42      1013.0     3       290         4       278        8.86     330       82.7
   09/22/2016 08:00      64.6      63.7       83     58.8      0.00      0.00      80.8     0.42      1013.0     2       310         3       321        8.86     330       97.2
   09/22/2016 07:50      63.8      62.9       85     58.6      0.00      0.00      81.0     0.42      1013.0     1       332         2        26        8.86     330       96.0
   09/22/2016 07:40      62.8      61.8       88     58.5      0.00      0.00      80.6     0.42      1013.0     1       318         1        87        8.86     328       57.3
   09/22/2016 07:30      61.9      61.1       88     57.9      0.00      0.00      81.0     0.42      1013.0     1        67         1        81        8.86     328       24.5
   09/22/2016 07:20      61.4      60.9       88     57.5      0.00      0.00      81.1     0.42      1013.0     1       185         1       186        8.86     327        7.1
   09/22/2016 07:10      61.0      60.9       88     57.3      0.00      0.00      80.7     0.42      1013.0     3       231         5       258        8.86     325       -0.6
   09/22/2016 07:00      62.7      61.2       87     58.0      0.00      0.00      81.2     0.42      1013.0     5       235         5       233        8.86     321       -6.4
   09/22/2016 06:50      63.0      62.8       86     58.7      0.00      0.00      81.1     0.42      1012.0     2       226         5       233        8.86     317       -9.3
   09/22/2016 06:40      63.3      62.9       84     58.2      0.00      0.00      80.8     0.42      1012.0     2       253         3       274        8.86     316      -11.2
   09/22/2016 06:30      63.5      63.2       82     57.8      0.00      0.00      81.3     0.42      1012.0     2       256         3       253        8.86     319      -11.4
   09/22/2016 06:20      64.0      63.8       78     56.8      0.00      0.00      81.3     0.42      1012.0     1       218         2       227        8.86     324      -10.7
   09/22/2016 06:10      63.9      63.3       74     55.2      0.00      0.00      81.5     0.42      1012.0     1        16         2         5        8.86     325       -9.9
   09/22/2016 06:00      63.4      63.1       73     54.6      0.00      0.00      81.2     0.42      1012.0     0        58         1        62        8.87     326       -9.3
   09/22/2016 05:50      63.2      62.7       73     54.2      0.00      0.00      81.3     0.42      1012.0     0       140         1       184        8.87     326       -9.1
   09/22/2016 05:40      62.8      62.3       74     54.1      0.00      0.00      81.6     0.42      1012.0     1       136         2       110        8.86     328      -13.2
   09/22/2016 05:30      62.4      62.1       74     53.9      0.00      0.00      81.5     0.42      1012.0     1       121         2       100        8.87     328      -19.9
   09/22/2016 05:20      62.4      62.2       74     53.8      0.00      0.00      81.2     0.42      1012.0     1       123         2       146        8.87     328      -25.9
   09/22/2016 05:10      62.5      62.2       73     53.7      0.00      0.00      81.6     0.42      1012.0     1       121         2        79        8.87     328      -27.0
   09/22/2016 05:00      62.5      62.2       74     54.0      0.00      0.00      81.9     0.42      1012.0     2       122         3       114        8.87     327      -45.5
   09/22/2016 04:50      62.5      62.2       74     53.9      0.00      0.00      81.9     0.42      1012.0     2       113         3       126        8.87     326      -40.1
   09/22/2016 04:40      62.4      61.7       74     53.9      0.00      0.00      81.7     0.42      1012.0     1       112         2       122        8.87     326      -26.3
   09/22/2016 04:30      61.9      60.3       76     53.6      0.00      0.00      81.9     0.42      1012.0     2       292         3       287        8.87     327      -16.2
   09/22/2016 04:20      60.5      60.1       77     53.0      0.00      0.00      82.0     0.42      1012.0     1       177         1       171        8.87     326      -22.9
   09/22/2016 04:10      60.5      60.2       76     52.9      0.00      0.00      81.8     0.42      1012.0     1       142         2       125        8.87     323      -43.1
   09/22/2016 04:00      60.5      60.3       77     53.0      0.00      0.00      81.7     0.42      1012.0     1       137         2       130        8.87     320      -49.6
   09/22/2016 03:50      60.6      60.3       76     53.1      0.00      0.00      81.5     0.42      1012.0     1       152         2       136        8.87     317      -54.7
   09/22/2016 03:40      61.0      60.6       76     53.2      0.00      0.00      82.0     0.42      1012.0     1       152         2       143        8.87     314      -54.3
   09/22/2016 03:30      61.0      60.7       75     53.0      0.00      0.00      81.8     0.42      1012.0     1       157         2       149        8.87     312      -54.1
   09/22/2016 03:20      61.5      60.9       75     53.1      0.00      0.00      81.9     0.42      1012.0     2       168         3       142        8.87     309      -54.5
   09/22/2016 03:10      61.9      61.6       75     53.9      0.00      0.00      82.1     0.42      1012.0     1       183         2       136        8.87     307      -54.1
   09/22/2016 03:00      62.2      61.9       75     53.9      0.00      0.00      82.0     0.42      1012.0     1        54         2        56        8.88     304      -54.4
   09/22/2016 02:50      62.4      61.9       73     53.6      0.00      0.00      82.3     0.42      1012.0     3       198         4       216        8.88     305      -51.8
   09/22/2016 02:40      61.9      61.5       77     54.5      0.00      0.00      81.7     0.42      1012.0     1       192         2       219        8.88     314      -54.3
   09/22/2016 02:30      61.7      61.5       79     55.0      0.00      0.00      81.9     0.42      1012.0     1       191         2       137        8.88     313      -54.9
   09/22/2016 02:20      61.9      61.5       78     54.6      0.00      0.00      82.3     0.42      1012.0     2       141         3       158        8.88     310      -56.6
   09/22/2016 02:10      62.2      61.9       76     54.5      0.00      0.00      82.1     0.42      1012.0     2       162         3       160        8.88     307      -56.6
   09/22/2016 02:00      62.5      62.3       76     54.8      0.00      0.00      82.1     0.42      1012.0     1       200         2       218        8.88     305      -55.9
   09/22/2016 01:50      62.7      62.3       76     54.8      0.00      0.00      82.0     0.42      1012.0     1       134         1       141        8.88     302      -55.8
   09/22/2016 01:40      63.3      62.8       74     54.9      0.00      0.00      82.0     0.43      1012.0     1       211         1       215        8.88     299      -55.5
   09/22/2016 01:30      63.6      63.3       75     55.4      0.00      0.00      82.5     0.43      1012.0     1       107         2        23        8.88     296      -55.9
   09/22/2016 01:20      64.0      63.7       75     55.6      0.00      0.00      82.3     0.43      1011.0     1       124         1       120        8.88     293      -57.6
   09/22/2016 01:10      64.7      64.3       74     56.1      0.00      0.00      82.1     0.43      1011.0     1        77         1       124        8.89     290      -59.3
   09/22/2016 01:00      65.0      64.7       75     56.6      0.00      0.00      81.9     0.43      1011.0     1        45         1        33        8.89     288      -60.7
   09/22/2016 00:50      65.2      65.0       75     56.9      0.00      0.00      82.9     0.43      1011.0     1        58         2        51        8.89     286      -61.2
   09/22/2016 00:40      65.5      65.2       74     56.9      0.00      0.00      82.4     0.43      1011.0     1        49         2        66        8.89     284      -62.0
   09/22/2016 00:30      65.9      65.7       74     57.2      0.00      0.00      82.4     0.43      1011.0     1        38         2        56        8.89     282      -62.5
   09/22/2016 00:20      66.1      65.8       74     57.4      0.00      0.00      82.2     0.43      1011.0     2        46         3        59        8.89     279      -62.2
   09/22/2016 00:10      66.4      66.1       74     57.9      0.00      0.00      82.3     0.43      1012.0     2        53         2        63        8.89     278      -62.0
   09/22/2016 00:00      66.8      66.4       75     58.4      0.00      0.00      82.5     0.43      1012.0     2        49         3        55        8.89     277      -62.1
   09/21/2016 23:50      67.3      66.9       74     58.5      0.00      0.00      82.4     0.43      1011.0     2        40         3        76        8.89     275      -62.9
   09/21/2016 23:40      67.6      67.3       73     58.7      0.00      0.00      82.4     0.43      1011.0     2        36         3        50        8.89     274      -62.7
   09/21/2016 23:30      68.2      67.8       73     59.0      0.00      0.00      82.8     0.43      1011.0     2        49         3        57        8.90     273      -60.7
   09/21/2016 23:20      69.1      68.5       71     58.9      0.00      0.00      82.6     0.43      1011.0     3        49         5        73        8.90     273      -58.8
   09/21/2016 23:10      69.4      69.2       70     59.0      0.00      0.00      82.4     0.43      1011.0     1        55         3        45        8.90     273      -58.4
   09/21/2016 23:00      69.8      69.4       69     59.0      0.00      0.00      82.6     0.43      1011.0     2        51         2        44        8.90     272      -58.6
   09/21/2016 22:50      70.2      69.8       68     59.1      0.00      0.00      82.5     0.43      1011.0     2        31         2        32        8.90     272      -58.7
   09/21/2016 22:40      70.5      70.2       67     59.1      0.00      0.00      82.8     0.43      1011.0     2        37         3        40        8.90     271      -58.4
   09/21/2016 22:30      70.6      70.3       66     58.8      0.00      0.00      82.3     0.43      1011.0     1        52         3        75        8.90     271      -57.9
   09/21/2016 22:20      71.0      70.8       65     58.7      0.00      0.00      82.5     0.43      1011.0     1        65         2        69        8.90     271      -58.5
   09/21/2016 22:10      71.2      70.6       65     58.4      0.00      0.00      82.6     0.43      1011.0     1        48         2        71        8.90     270      -58.9
   09/21/2016 22:00      70.8      70.4       60     56.1      0.00      0.00      82.7     0.43      1010.0     1        61         2        73        8.90     269      -58.3
   09/21/2016 21:50      71.5      70.8       55     54.3      0.00      0.00      82.6     0.43      1010.0     1       103         1        60        8.90     269      -58.5
   09/21/2016 21:40      71.7      71.4       56     54.9      0.00      0.00      82.8     0.43      1011.0     1       103         2        75        8.90     268      -58.4
   09/21/2016 21:30      71.7      71.3       54     53.9      0.00      0.00      82.5     0.43      1011.0     1        96         2       115        8.91     268      -58.8
   09/21/2016 21:20      72.1      71.5       50     52.1      0.00      0.00      82.5     0.43      1010.0     1       111         2       118        8.91     267      -59.8
   09/21/2016 21:10      72.4      72.3       49     51.9      0.00      0.00      82.9     0.43      1010.0     1       122         2        97        8.91     267      -60.4
   09/21/2016 21:00      72.9      72.4       48     52.0      0.00      0.00      82.7     0.43      1010.0     1       130         1       140        8.91     267      -60.8
   09/21/2016 20:50      73.5      72.9       47     51.5      0.00      0.00      82.7     0.43      1010.0     1       104         1       133        8.91     267      -62.1
   09/21/2016 20:40      74.6      73.6       45     51.7      0.00      0.00      82.6     0.43      1010.0     1       126         1       132        8.92     267      -62.6
   09/21/2016 20:30      75.8      74.8       44     51.7      0.00      0.00      82.6     0.43      1010.0     1       114         1        49        8.92     268      -63.5
   09/21/2016 20:20      75.9      75.6       43     52.0      0.00      0.00      82.7     0.43      1010.0     1       317         3       311        8.92     269      -63.7
   09/21/2016 20:10      76.4      75.8       43     51.7      0.00      0.00      82.4     0.43      1010.0     2       263         3       276        8.92     269      -64.2
   09/21/2016 20:00      76.8      76.4       41     51.2      0.00      0.00      82.3     0.43      1010.0     3       266         4       286        8.92     270      -64.7
   09/21/2016 19:50      77.3      76.7       40     50.7      0.00      0.00      82.6     0.43      1010.0     3       276         5       255        8.93     271      -65.1
   09/21/2016 19:40      77.5      77.2       43     53.0      0.00      0.00      82.4     0.43      1010.0     3       307         5       331        8.93     271      -65.4
   09/21/2016 19:30      77.8      77.5       46     55.0      0.00      0.00      82.5     0.43      1010.0     3       305         5       296        8.93     270      -65.1
   09/21/2016 19:20      78.3      77.8       49     57.3      0.00      0.00      82.3     0.43      1010.0     3       308         7       321        8.93     271      -65.3
   09/21/2016 19:10      79.0      78.3       49     58.1      0.00      0.00      82.1     0.43      1010.0     3       301         7       311        8.94     271      -65.3
   09/21/2016 19:00      79.3      79.0       48     57.8      0.00      0.00      82.2     0.43      1010.0     4       324         7       327        8.94     271      -65.0
   09/21/2016 18:50      80.7      79.5       45     56.6      0.00      0.00      82.1     0.43      1010.0     4       306         7       255        8.94     270      -62.7
   09/21/2016 18:40      80.9      80.6       39     53.5      0.00      0.00      82.2     0.43      1010.0     4       270         7       260        8.95     270      -57.2
   09/21/2016 18:30      81.4      80.9       38     53.0      0.00      0.00      82.2     0.43      1010.0     4       248         7       238        8.95     270      -50.5
   09/21/2016 18:20      81.5      81.3       40     55.2      0.00      0.00      82.0     0.43      1010.0     5       264         8       256        8.95     270      -33.8
   09/21/2016 18:10      81.9      81.4       43     57.3      0.00      0.00      82.2     0.43      1010.0     6       249         9       237        8.96     270      -15.7
   09/21/2016 18:00      82.9      82.1       44     58.2      0.00      0.00      81.9     0.43      1010.0     6       266         8       253        8.96     270       -8.8
   09/21/2016 17:50      83.0      82.6       44     58.9      0.00      0.00      82.1     0.43      1010.0     6       246        10       218        8.97     270       26.4
   09/21/2016 17:40      83.6      83.1       44     59.5      0.00      0.00      82.0     0.43      1010.0     6       252         9       270        8.97     270       47.5
   09/21/2016 17:30      84.3      83.5       44     59.9      0.00      0.00      82.1     0.43      1010.0     6       242         8       243        8.98     270       70.2
   09/21/2016 17:20      84.5      83.7       44     60.0      0.00      0.00      81.8     0.43      1009.0     6       248        10       242        8.99     270       92.9
   09/21/2016 17:10      84.7      84.4       44     60.1      0.00      0.00      81.9     0.43      1009.0     5       227         9       188        8.99     270      117.0
   09/21/2016 17:00      85.5      84.5       43     59.8      0.00      0.00      81.8     0.43      1009.0     7       224         9       207        9.00     270      142.7
   09/21/2016 16:50      85.9      85.7       41     59.6      0.00      0.00      82.0     0.43      1009.0     6       232        10       245        9.00     270      165.6
   09/21/2016 16:40      87.0      86.1       39     59.0      0.00      0.00      81.5     0.43      1009.0     5       222         9       247        9.00     270      187.8
   09/21/2016 16:30      86.5      86.1       39     58.7      0.00      0.00      81.4     0.43      1009.0     5       226        10       231        9.01     270      208.1
   09/21/2016 16:20      87.3      86.4       39     59.0      0.00      0.00      81.6     0.43      1009.0     6       234         8       266        9.01     270      226.9
   09/21/2016 16:10      88.0      87.5       38     59.0      0.00      0.00      81.4     0.43      1009.0     4       266         7       228        9.02     270      233.9
   09/21/2016 16:00      87.7      86.6       39     59.1      0.00      0.00      81.5     0.43      1009.0     5       204         8       177        9.02     271      255.3
   09/21/2016 15:50      88.0      86.1       41     60.3      0.00      0.00      81.3     0.43      1009.0     4       174         7       144        9.02     271      277.1
   09/21/2016 15:40      86.6      86.0       42     60.4      0.00      0.00      81.2     0.43      1010.0     6       208        11       210        9.02     271      299.1
   09/21/2016 15:30      86.8      86.2       42     60.6      0.00      0.00      81.0     0.43      1010.0     5       218         8       211        9.02     271      325.6
   09/21/2016 15:20      88.4      87.0       41     60.9      0.00      0.00      81.0     0.42      1010.0     4       233         6       232        9.02     271      343.8
   09/21/2016 15:10      87.6      85.9       42     61.1      0.00      0.00      81.1     0.42      1010.0     5       220         7       264        9.02     271      363.6
   09/21/2016 15:00      86.6      86.0       43     61.2      0.00      0.00      80.9     0.42      1010.0     5       233         8       285        9.02     271      384.4
   09/21/2016 14:50      86.7      86.2       43     61.5      0.00      0.00      81.0     0.42      1010.0     7       231         9       234        9.02     271      397.6
   09/21/2016 14:40      88.7      86.6       43     62.0      0.00      0.00      81.0     0.42      1010.0     7       231         8       229        9.02     271      415.1
   09/21/2016 14:30      88.7      86.5       43     62.6      0.00      0.00      81.0     0.42      1010.0     5       186         7       176        9.02     272      449.5
   09/21/2016 14:20      88.0      86.5       44     62.7      0.00      0.00      80.9     0.42      1010.0     6       202        10       214        9.02     273      460.7
   09/21/2016 14:10      87.6      86.1       45     62.8      0.00      0.00      80.7     0.42      1010.0     7       194        10       167        9.02     273      473.3
   09/21/2016 14:00      88.2      86.5       44     62.7      0.00      0.00      80.8     0.42      1010.0     7       207        11       220        9.02     273      464.9
   09/21/2016 13:50      88.8      87.9       43     63.0      0.00      0.00      80.9     0.42      1010.0     4       238         6       277        9.02     273      437.0
   09/21/2016 13:40      88.9      87.1       44     63.1      0.00      0.00      80.6     0.42      1010.0     4       205         6       253        9.03     274      433.6
   09/21/2016 13:30      89.1      87.9       44     63.9      0.00      0.00      80.4     0.42      1011.0     3       348         5         6        9.03     274      489.9
   09/21/2016 13:20      88.9      87.6       43     63.4      0.00      0.00      80.6     0.42      1011.0     3        22         7       300        9.03     274      395.5
   09/21/2016 13:10      88.7      87.4       43     62.9      0.00      0.00      80.7     0.42      1011.0     4        79         6       131        9.03     274      534.2
   09/21/2016 13:00      88.2      86.5       43     62.3      0.00      0.00      80.7     0.42      1011.0     3       106         6       128        9.03     278      570.9
   09/21/2016 12:50      86.7      86.1       45     62.5      0.00      0.00      80.8     0.42      1011.0     5       147         9       127        9.03     282      533.5
   09/21/2016 12:40      87.0      85.4       46     62.8      0.00      0.00      80.8     0.42      1011.0     4       148         6       178        9.03     284      247.7
   09/21/2016 12:30      86.5      85.7       46     62.8      0.00      0.00      80.6     0.42      1011.0     3       165         5       140        9.03     288      519.6
   09/21/2016 12:20      86.7      85.9       45     62.7      0.00      0.00      80.4     0.42      1012.0     3       166         5       126        9.03     293      498.9
   09/21/2016 12:10      86.0      85.3       47     63.4      0.00      0.00      80.5     0.42      1012.0     4       104         7        64        9.02     299      519.5
   09/21/2016 12:00      86.0      84.2       49     64.0      0.00      0.00      80.6     0.42      1012.0     4       108         7        88        9.03     303      490.3
   09/21/2016 11:50      85.5      83.7       50     63.9      0.00      0.00      80.5     0.42      1012.0     3       185         5       237        9.03     310      448.0
   09/21/2016 11:40      85.4      83.9       50     64.0      0.00      0.00      81.0     0.43      1012.0     3        35         4        27        9.03     316      499.3
   09/21/2016 11:30      84.3      83.6       51     64.0      0.00      0.00      80.6     0.43      1012.0     3        28         5       356        9.02     320      506.0
   09/21/2016 11:20      83.8      82.6       52     63.8      0.00      0.00      80.6     0.43      1012.0     3        25         5        31        9.02     325      480.6
   09/21/2016 11:10      83.4      82.3       52     63.7      0.00      0.00      80.9     0.43      1012.0     2        64         3        36        9.02     328      213.2
   09/21/2016 11:00      83.5      82.9       52     63.7      0.00      0.00      80.7     0.43      1013.0     2        12         4       348        9.02     324      233.5
   09/21/2016 10:50      83.5      82.7       52     63.7      0.00      0.00      80.9     0.43      1013.0     3       322         5         5        9.02     335      424.9
   09/21/2016 10:40      83.0      81.9       53     63.6      0.00      0.00      81.1     0.43      1013.0     3       336         7       284        9.03     338      406.4
   09/21/2016 10:30      82.7      82.1       53     63.7      0.00      0.00      80.8     0.43      1013.0     3       352         5       335        9.02     339      392.2
   09/21/2016 10:20      83.0      81.4       54     63.8      0.00      0.00      80.6     0.43      1013.0     2        69         3       127        9.02     340      381.6
   09/21/2016 10:10      82.4      81.8       54     63.8      0.00      0.00      80.4     0.43      1013.0     2        39         5        64        9.02     340      366.2
   09/21/2016 10:00      81.7      80.3       56     63.7      0.00      0.00      80.6     0.43      1013.0     2        82         4        75        9.02     345      348.8
   09/21/2016 09:50      80.6      80.2       57     63.8      0.00      0.00      80.9     0.43      1013.0     2       111         4        94        9.02     352      329.7
   09/21/2016 09:40      80.3      79.6       58     63.8      0.00      0.00      81.5     0.44      1013.0     2        41         5        80        9.02     360      315.0
   09/21/2016 09:30      79.9      79.0       59     63.8      0.00      0.00      81.5     0.44      1013.0     2        31         3        10        9.02     367      296.2
   09/21/2016 09:20      79.1      78.4       60     63.9      0.00      0.00      81.1     0.44      1013.0     2        61         4        84        9.01     372      278.9
   09/21/2016 09:10      78.8      77.5       62     64.0      0.00      0.00      81.1     0.44      1013.0     2        72         5       107        9.01     379      260.1
   09/21/2016 09:00      77.9      76.1       64     63.9      0.00      0.00      81.5     0.44      1013.0     3        50         4        59        9.01     384      234.1
   09/21/2016 08:50      76.4      75.8       66     63.8      0.00      0.00      81.1     0.41      1013.0     2       358         3       321        9.01     271      210.2
   09/21/2016 08:40      76.0      75.4       66     63.7      0.00      0.00      81.3     0.41      1013.0     3         6         4       346        8.98     271      188.5
   09/21/2016 08:30      75.6      74.9       67     63.6      0.00      0.00      81.5     0.41      1013.0     2        37         3        32        8.64     272      164.1
   09/21/2016 08:20      75.4      75.0       67     63.5      0.00      0.00      81.5     0.41      1013.0     2        34         3        22        8.65     272      139.4
   09/21/2016 08:10      74.8      73.6       69     63.2      0.00      0.00      81.4     0.41      1012.0     2        50         3        76        8.65     272      114.0
   09/21/2016 08:00      73.8      73.1       70     63.2      0.00      0.00      81.7     0.41      1012.0     2        49         3        83        8.65     272       88.2
   09/21/2016 07:50      73.1      70.8       74     63.3      0.00      0.00      81.4     0.41      1012.0     1       142         1       111        8.65     272       63.0
   09/21/2016 07:40      70.8      69.0       78     62.8      0.00      0.00      81.3     0.41      1012.0     1       221         1       244        8.65     272       24.4
   09/21/2016 07:30      68.9      67.3       82     62.3      0.00      0.00      81.4     0.41      1012.0     0       199         1       199        8.65     272       17.3
   09/21/2016 07:20      67.3      66.2       83     61.5      0.00      0.00      81.2     0.41      1012.0     1        88         1       108        8.65     272        0.0
   09/21/2016 07:10      66.5      66.1       85     61.6      0.00      0.00      81.7     0.41      1012.0     1       121         1       123        8.65     271      -21.5
   09/21/2016 07:00      66.2      65.8       85     61.5      0.00      0.00      81.4     0.41      1012.0     0       167         1       147        8.65     272      -28.0
   09/21/2016 06:50      66.0      65.7       84     61.0      0.00      0.00      81.5     0.41      1012.0     0       327         1       322        8.65     271      -33.5
   09/21/2016 06:40      66.0      65.7       85     61.2      0.00      0.00      81.8     0.41      1012.0     1       229         1       269        8.65     271      -35.6
   09/21/2016 06:30      66.0      65.8       86     61.5      0.00      0.00      81.5     0.41      1012.0     1       132         1       143        8.65     271      -36.9
   09/21/2016 06:20      66.0      65.7       85     61.3      0.00      0.00      81.5     0.41      1012.0     1       139         2       134        8.65     271      -38.0
   09/21/2016 06:10      66.2      66.0       85     61.6      0.00      0.00      81.6     0.41      1012.0     1       142         1       143        8.65     271      -37.7
   09/21/2016 06:00      66.2      65.8       85     61.3      0.00      0.00      81.0     0.41      1012.0     1       142         1       127        8.65     271      -38.1
   09/21/2016 05:50      66.2      65.7       85     61.4      0.00      0.00      81.0     0.41      1012.0     1       144         1       138        8.65     271      -37.8
   09/21/2016 05:40      66.0      65.7       84     60.8      0.00      0.00      81.5     0.41      1012.0     1       137         1       130        8.65     271      -38.7
   09/21/2016 05:30      66.2      65.7       83     60.6      0.00      0.00      81.4     0.41      1012.0     1       130         1       135        8.65     271      -39.0
   09/21/2016 05:20      66.5      66.2       82     60.8      0.00      0.00      81.7     0.41      1012.0     1       145         2       136        8.65     271      -38.7
   09/21/2016 05:10      66.6      66.3       84     61.4      0.00      0.00      81.6     0.41      1012.0     1       236         1       234        8.65     271      -37.6
   09/21/2016 05:00      66.7      66.4       83     61.1      0.00      0.00      82.1     0.41      1012.0     0        34         1       183        8.65     271      -38.0
   09/21/2016 04:50      67.1      66.6       82     61.3      0.00      0.00      81.8     0.41      1012.0     0        95         1       115        8.65     271      -38.5
   09/21/2016 04:40      67.3      66.9       82     61.4      0.00      0.00      81.6     0.41      1012.0     0       103         0       341        8.65     271      -38.4
   09/21/2016 04:30      67.3      67.0       82     61.6      0.00      0.00      81.9     0.41      1012.0     0       338         1       359        8.65     271      -37.9
   09/21/2016 04:20      67.3      66.9       83     61.6      0.00      0.00      81.7     0.41      1012.0     1       125         1       150        8.65     271      -38.6
   09/21/2016 04:10      67.2      66.9       82     61.4      0.00      0.00      81.9     0.41      1012.0     0        64         1         6        8.65     271      -38.9
   09/21/2016 04:00      67.4      67.2       81     61.5      0.00      0.00      81.5     0.41      1012.0     1        82         1        62        8.65     271      -39.5
   09/21/2016 03:50      67.7      67.4       81     61.5      0.00      0.00      81.8     0.41      1012.0     1       151         1       142        8.65     271      -39.6
   09/21/2016 03:40      67.9      67.5       81     61.7      0.00      0.00      81.8     0.41      1012.0     1       200         2       199        8.65     271      -39.6
   09/21/2016 03:30      67.8      67.6       80     61.4      0.00      0.00      81.7     0.41      1012.0     1       239         2       210        8.65     271      -39.1
   09/21/2016 03:20      67.8      67.4       82     61.9      0.00      0.00      82.2     0.41      1013.0     1       267         1       318        8.65     271      -39.3
   09/21/2016 03:10      68.0      67.5       82     62.1      0.00      0.00      81.7     0.42      1013.0     1       143         1       149        8.65     271      -39.9
   09/21/2016 03:00      67.9      67.5       82     62.1      0.00      0.00      81.7     0.42      1013.0     1       141         2       140        8.65     271      -39.6
   09/21/2016 02:50      67.8      67.7       81     61.9      0.00      0.00      81.9     0.42      1013.0     1       131         2       140        8.66     271      -40.2
   09/21/2016 02:40      68.0      67.8       82     62.1      0.00      0.00      81.9     0.42      1013.0     0       154         1       152        8.65     271      -39.6
   09/21/2016 02:30      68.2      68.0       82     62.3      0.00      0.00      82.2     0.42      1013.0     1       143         2       135        8.66     271      -40.7
   09/21/2016 02:20      68.2      67.8       80     61.7      0.00      0.00      82.2     0.42      1013.0     2       157         2       147        8.66     271      -40.7
   09/21/2016 02:10      68.6      68.3       81     62.4      0.00      0.00      82.0     0.42      1013.0     1       178         2       180        8.66     270      -40.7
   09/21/2016 02:00      68.8      68.5       82     62.9      0.00      0.00      81.8     0.42      1013.0     1       154         1       161        8.66     271      -39.9
   09/21/2016 01:50      68.8      68.6       81     62.6      0.00      0.00      82.2     0.42      1013.0     1       124         1       125        8.66     271      -40.1
   09/21/2016 01:40      69.0      68.7       81     62.7      0.00      0.00      81.9     0.42      1013.0     1       130         1       108        8.66     270      -40.3
   09/21/2016 01:30      69.2      68.9       80     62.7      0.00      0.00      82.3     0.42      1013.0     1       149         2       142        8.66     270      -40.7
   09/21/2016 01:20      69.5      69.1       80     62.9      0.00      0.00      82.1     0.42      1014.0     1       157         1       188        8.66     271      -40.9
   09/21/2016 01:10      69.7      69.2       79     62.8      0.00      0.00      82.6     0.42      1014.0     1       179         2       165        8.66     270      -41.3
   09/21/2016 01:00      69.8      69.3       79     62.6      0.00      0.00      82.2     0.42      1014.0     1       205         2       205        8.66     270      -41.3
   09/21/2016 00:50      70.1      69.8       79     63.0      0.00      0.00      82.3     0.42      1013.0     1       189         1       193        8.66     270      -41.2
   09/21/2016 00:40      70.3      70.0       78     63.1      0.00      0.00      82.0     0.42      1014.0     1       193         1       208        8.66     270      -41.2
   09/21/2016 00:30      70.5      70.1       77     62.9      0.00      0.00      82.2     0.42      1013.0     1       194         1       174        8.66     270      -41.4
   09/21/2016 00:20      70.5      70.1       78     63.2      0.00      0.00      82.5     0.42      1013.0     1       323         1       322        8.66     270      -40.8
   09/21/2016 00:10      70.3      70.1       78     63.2      0.00      0.00      82.3     0.42      1013.0     0       273         1       317        8.66     270      -41.7
   09/21/2016 00:00      70.6      70.3       78     63.1      0.00      0.00      82.3     0.42      1013.0     1       137         1       127        8.66     270      -42.6
   09/20/2016 23:50      71.1      70.6       77     63.1      0.00      0.00      82.3     0.42      1013.0     1       134         1       138        8.67     270      -43.2
   09/20/2016 23:40      71.2      70.8       77     63.4      0.00      0.00      82.1     0.42      1014.0     2       154         2       138        8.67     270      -43.0
   09/20/2016 23:30      71.0      70.8       76     63.1      0.00      0.00      82.5     0.42      1014.0     1       189         1       197        8.67     270      -42.5
   09/20/2016 23:20      71.3      70.8       75     62.7      0.00      0.00      82.0     0.42      1014.0     1       136         2       171        8.67     270      -43.4
   09/20/2016 23:10      71.4      71.2       76     63.3      0.00      0.00      82.5     0.42      1014.0     1       181         2       168        8.67     270      -43.1
   09/20/2016 23:00      71.7      71.3       76     63.4      0.00      0.00      82.2     0.42      1014.0     1       143         2       148        8.67     270      -43.9
   09/20/2016 22:50      72.0      71.7       75     63.3      0.00      0.00      82.2     0.42      1014.0     1       144         1       144        8.67     270      -44.0
   09/20/2016 22:40      72.3      71.8       74     63.3      0.00      0.00      82.4     0.42      1014.0     1       205         1       217        8.67     269      -43.8
   09/20/2016 22:30      72.8      72.3       73     63.6      0.00      0.00      82.4     0.42      1014.0     1       158         1       156        8.67     269      -44.4
   09/20/2016 22:20      73.0      72.8       73     63.8      0.00      0.00      82.8     0.42      1014.0     1       193         2       199        8.67     269      -44.7
   09/20/2016 22:10      73.2      72.9       72     63.7      0.00      0.00      82.0     0.42      1014.0     1       217         2       249        8.68     269      -45.0
   09/20/2016 22:00      73.2      72.9       73     63.8      0.00      0.00      82.2     0.42      1014.0     1       220         2       241        8.68     269      -44.7
   09/20/2016 21:50      73.2      72.8       73     63.6      0.00      0.00      82.2     0.42      1014.0     1       199         2       202        8.68     269      -44.9
   09/20/2016 21:40      73.3      72.8       72     63.5      0.00      0.00      82.3     0.42      1014.0     1       193         1       191        8.68     269      -45.5
   09/20/2016 21:30      73.8      73.3       71     63.7      0.00      0.00      82.1     0.42      1014.0     1       169         1       201        8.68     269      -46.7
   09/20/2016 21:20      74.1      73.7       71     64.0      0.00      0.00      82.0     0.42      1014.0     1       186         2       193        8.68     269      -47.2
   09/20/2016 21:10      74.2      74.0       71     64.0      0.00      0.00      82.5     0.42      1014.0     1       195         3       213        8.68     269      -48.3
   09/20/2016 21:00      74.3      74.1       70     64.0      0.00      0.00      82.4     0.42      1014.0     2       214         2       219        8.68     269      -48.6
   09/20/2016 20:50      74.4      74.0       70     63.9      0.00      0.00      82.0     0.42      1013.0     3       198         3       197        8.68     269      -48.7
   09/20/2016 20:40      74.6      74.4       70     63.9      0.00      0.00      82.2     0.42      1013.0     2       192         2       172        8.68     269      -48.3
   09/20/2016 20:30      74.7      74.5       70     64.2      0.00      0.00      82.3     0.42      1013.0     2       230         3       217        8.69     269      -47.2
   09/20/2016 20:20      74.7      74.5       70     64.1      0.00      0.00      82.4     0.42      1013.0     2       213         3       236        8.69     269      -49.1
   09/20/2016 20:10      74.9      74.6       69     64.0      0.00      0.00      82.3     0.42      1013.0     3       170         3       191        8.69     269      -50.8
   09/20/2016 20:00      75.2      75.0       68     64.0      0.00      0.00      82.3     0.42      1013.0     2       194         2       197        8.69     269      -51.0
   09/20/2016 19:50      75.5      75.1       68     63.8      0.00      0.00      82.4     0.42      1013.0     2       197         4       218        8.69     269      -49.4
   09/20/2016 19:40      75.6      75.4       67     63.7      0.00      0.00      82.1     0.42      1013.0     2       185         4       180        8.70     269      -49.3
   09/20/2016 19:30      75.9      75.8       66     63.6      0.00      0.00      82.0     0.42      1013.0     2       201         3       201        8.70     269      -51.3
   09/20/2016 19:20      76.2      75.9       65     63.6      0.00      0.00      82.1     0.42      1013.0     2       185         5       168        8.70     269      -51.7
   09/20/2016 19:10      76.7      76.2       64     63.5      0.00      0.00      81.8     0.42      1013.0     4       165         5       158        8.70     268      -53.3
   09/20/2016 19:00      77.0      76.6       63     63.3      0.00      0.00      81.8     0.42      1013.0     3       204         5       200        8.70     268      -52.6
   09/20/2016 18:50      77.5      76.9       63     63.4      0.00      0.00      82.1     0.41      1013.0     3       162         4       149        8.70     268      -50.6
   09/20/2016 18:40      78.1      77.4       61     63.4      0.00      0.00      82.0     0.41      1013.0     4       142         6       138        8.70     268      -46.0
   09/20/2016 18:30      78.7      78.3       60     63.3      0.00      0.00      81.8     0.41      1013.0     4       166         8       163        8.71     268      -36.8
   09/20/2016 18:20      79.0      78.7       59     63.2      0.00      0.00      81.8     0.41      1013.0     5       168         8       162        8.71     268      -18.4
   09/20/2016 18:10      79.5      79.0       58     63.1      0.00      0.00      81.8     0.41      1013.0     3       187         5       195        8.71     268       -8.1
   09/20/2016 18:00      79.7      79.3       57     63.0      0.00      0.00      81.8     0.41      1012.0     3       204         4       220        8.71     268       -2.4
   09/20/2016 17:50      79.5      79.3       57     63.0      0.00      0.00      81.7     0.41      1012.0     3       186         5       161        8.71     268        5.6
   09/20/2016 17:40      80.4      79.9       56     62.8      0.00      0.00      81.6     0.41      1012.0     4       179         6       170        8.72     268        4.4
   09/20/2016 17:30      80.5      80.1       55     62.8      0.00      0.00      81.5     0.41      1012.0     4       170         6       174        8.72     268       11.3
   09/20/2016 17:20      80.6      80.1       55     62.6      0.00      0.00      81.7     0.41      1013.0     5       170         7       159        8.72     268       20.5
   09/20/2016 17:10      81.3      80.3       54     62.5      0.00      0.00      81.8     0.41      1013.0     4       161         6       160        8.72     267       15.1
   09/20/2016 17:00      81.4      81.2       52     62.1      0.00      0.00      81.4     0.41      1013.0     4       143         5       173        8.72     267        7.0
   09/20/2016 16:50      81.8      81.3       51     61.7      0.00      0.00      81.4     0.41      1012.0     5       141         7       123        8.73     267        8.1
   09/20/2016 16:40      82.1      81.6       50     61.4      0.00      0.00      81.4     0.41      1012.0     4       106         6       130        8.73     267       19.0
   09/20/2016 16:30      82.0      81.8       50     61.2      0.00      0.00      81.3     0.41      1012.0     5       138         8       131        8.73     267       25.6
   09/20/2016 16:20      83.0      82.4       48     60.9      0.00      0.00      81.4     0.41      1013.0     5       127         7       131        8.73     267       35.0
   09/20/2016 16:10      84.2      83.1       46     60.4      0.00      0.00      81.2     0.41      1013.0     5       101         8       111        8.74     267       55.3
   09/20/2016 16:00      84.6      84.0       44     60.3      0.00      0.00      81.1     0.41      1013.0     4        84         6       142        8.74     267       58.5
   09/20/2016 15:50      84.7      83.6       44     60.1      0.00      0.00      81.0     0.41      1013.0     4       119         5       125        8.74     267       92.6
   09/20/2016 15:40      85.0      83.5       45     60.5      0.00      0.00      81.2     0.41      1013.0     6       127        10       117        8.74     268      226.8
   09/20/2016 15:30      84.8      82.6       47     61.4      0.00      0.00      81.0     0.41      1013.0     4       120         7        67        8.75     268      438.7
   09/20/2016 15:20      82.6      82.1       50     61.7      0.00      0.00      81.1     0.41      1013.0     5       125         7       112        8.75     268      181.5
   09/20/2016 15:10      82.8      82.2       50     62.0      0.00      0.00      80.8     0.41      1013.0     5       148         8       150        8.75     267      131.4
   09/20/2016 15:00      84.1      82.2       49     61.8      0.00      0.00      80.9     0.41      1013.0     8       174        12       161        8.76     267      122.6
   09/20/2016 14:50      86.2      83.7       46     61.8      0.00      0.00      80.9     0.41      1013.0     9       149        15       157        8.76     267      133.3
   09/20/2016 14:40      86.2      85.7       44     61.4      0.00      0.00      80.8     0.41      1013.0     6       157         9       172        8.77     267      175.3
   09/20/2016 14:30      86.6      85.4       45     61.9      0.00      0.00      80.7     0.41      1013.0     5       167         7       158        8.77     267      215.0
   09/20/2016 14:20      87.1      86.0       44     62.0      0.00      0.00      80.8     0.41      1013.0     5       150        10       150        8.77     268      370.7
   09/20/2016 14:10      86.3      85.7       44     61.9      0.00      0.00      80.8     0.41      1013.0     7       182         9       150        8.78     268      488.8
   09/20/2016 14:00      86.5      86.2       44     62.1      0.00      0.00      80.6     0.41      1013.0     7       177         9       147        8.78     268      483.7
   09/20/2016 13:50      86.6      85.6       45     62.1      0.00      0.00      80.4     0.41      1014.0     7       157        10       194        8.79     268      497.7
   09/20/2016 13:40      86.0      84.8       45     62.0      0.00      0.00      80.4     0.41      1014.0     6       154        12       181        8.79     268      515.9
   09/20/2016 13:30      86.1      85.0       45     61.7      0.00      0.00      80.6     0.41      1014.0     7       164        13       181        8.79     268      497.8
   09/20/2016 13:20      86.3      84.6       45     61.8      0.00      0.00      80.4     0.41      1014.0     7       146        12       129        8.79     268      546.7
   09/20/2016 13:10      85.8      84.5       44     60.8      0.00      0.00      80.4     0.41      1014.0     8       147        10       165        8.80     268      385.9
   09/20/2016 13:00      85.9      85.4       42     59.6      0.00      0.00      80.3     0.41      1014.0     5       122        10       165        8.80     268      322.8
   09/20/2016 12:50      85.9      85.4       41     59.1      0.00      0.00      80.3     0.41      1014.0     8       125        13       148        8.80     268      425.9
   09/20/2016 12:40      86.6      85.6       40     59.3      0.00      0.00      80.2     0.41      1014.0     7       147        13       123        8.80     268      469.6
   09/20/2016 12:30      85.9      85.4       40     58.4      0.00      0.00      80.5     0.41      1014.0     7       141         9       126        8.81     268      223.9
   09/20/2016 12:20      87.7      86.4       38     57.8      0.00      0.00      80.1     0.41      1014.0     7       120        10       139        8.81     268      213.0
   09/20/2016 12:10      88.2      87.9       35     57.3      0.00      0.00      80.3     0.41      1014.0     6       115         7       116        8.81     267      386.2
   09/20/2016 12:00      88.6      87.0       35     56.9      0.00      0.00      80.3     0.41      1014.0     7       123         9        66        8.81     268      502.3
   09/20/2016 11:50      88.3      87.7       34     56.3      0.00      0.00      80.3     0.41      1014.0     7       120        10       148        8.81     268      492.0
   09/20/2016 11:40      87.9      87.0       34     55.8      0.00      0.00      80.3     0.41      1014.0     8       152        10       144        8.81     268      477.2
   09/20/2016 11:30      87.3      86.8       34     55.5      0.00      0.00      80.3     0.41      1014.0     8       139        12       135        8.81     268      466.6
   09/20/2016 11:20      88.2      87.6       34     56.0      0.00      0.00      80.2     0.41      1014.0     7       104        12       131        8.81     268      453.0
   09/20/2016 11:10      89.0      87.9       34     56.7      0.00      0.00      80.1     0.41      1014.0     7       125         9       124        8.82     269      440.8
   09/20/2016 11:00      89.1      88.6       34     56.9      0.00      0.00      80.4     0.41      1014.0     6        61         9        78        8.82     269      428.9
   09/20/2016 10:50      89.5      87.9       35     57.2      0.00      0.00      80.5     0.41      1014.0     6        80         8        62        8.82     269      419.5
   09/20/2016 10:40      89.3      88.4       35     57.8      0.00      0.00      80.3     0.41      1014.0     5        63         7        56        8.82     269      403.9
   09/20/2016 10:30      88.9      87.7       34     56.6      0.00      0.00      80.7     0.41      1014.0     4        66         6       130        8.82     269      389.1
   09/20/2016 10:20      87.7      86.8       32     53.8      0.00      0.00      80.4     0.41      1014.0     3        57         6       110        8.82     269      368.3
   09/20/2016 10:10      87.0      85.4       32     53.1      0.00      0.00      80.5     0.41      1015.0     2        36         4       359        8.82     269      359.6
   09/20/2016 10:00      85.5      84.1       33     52.5      0.00      0.00      80.4     0.41      1015.0     2        31         3        72        8.82     269      352.1
   09/20/2016 09:50      84.2      84.0       33     52.3      0.00      0.00      80.4     0.41      1015.0     2        13         4        17        8.82     269      353.8
   09/20/2016 09:40      83.7      82.0       35     52.1      0.00      0.00      80.4     0.41      1015.0     2        32         3        29        8.82     269      319.1
   09/20/2016 09:30      82.6      81.4       36     52.0      0.00      0.00      80.6     0.41      1015.0     2         2         3        39        8.82     269      210.3
   09/20/2016 09:20      81.6      81.0       36     51.6      0.00      0.00      80.6     0.41      1015.0     3         9         4         5        8.82     269      281.7
   09/20/2016 09:10      81.0      79.8       38     52.2      0.00      0.00      80.5     0.41      1015.0     1        21         2        20        8.82     270      205.8
   09/20/2016 09:00      81.5      79.8       37     52.0      0.00      0.00      80.4     0.42      1015.0     2       359         3         5        8.82     269      106.9
   09/20/2016 08:50      81.5      78.7       37     51.9      0.00      0.00      80.4     0.42      1015.0     1       218         2       312        8.82     269      219.7
   09/20/2016 08:40      78.4      76.4       41     52.0      0.00      0.00      80.5     0.42      1015.0     2       288         3       311        8.82     270      246.5
   09/20/2016 08:30      76.5      76.2       43     52.4      0.00      0.00      80.4     0.42      1015.0     3       312         4       294        8.82     270      147.9
   09/20/2016 08:20      76.4      75.9       44     52.9      0.00      0.00      80.6     0.42      1015.0     2       285         2       306        8.82     270      110.9
   09/20/2016 08:10      75.9      75.6       45     52.7      0.00      0.00      80.7     0.42      1014.0     2       308         4       311        8.82     270      182.5
   09/20/2016 08:00      75.9      72.9       47     53.1      0.00      0.00      80.6     0.42      1014.0     1        52         1       324        8.82     270      107.4
   09/20/2016 07:50      72.8      71.3       51     53.0      0.00      0.00      80.8     0.42      1014.0     1       289         2       315        8.82     270       66.2
   09/20/2016 07:40      71.3      70.1       53     52.8      0.00      0.00      80.9     0.42      1014.0     1       277         1       313        8.82     270       14.8
   09/20/2016 07:30      70.2      69.7       54     52.7      0.00      0.00      80.6     0.42      1014.0     1       121         2        86        8.82     270        1.3
   09/20/2016 07:20      69.8      69.5       54     52.4      0.00      0.00      80.7     0.42      1014.0     1       132         1       156        8.82     270       -6.1
   09/20/2016 07:10      69.7      69.1       54     51.9      0.00      0.00      81.0     0.42      1014.0     1        92         1        70        8.82     270      -11.5
   09/20/2016 07:00      69.2      69.0       54     51.7      0.00      0.00      80.8     0.42      1014.0     1       113         1       137        8.82     270      -12.7
   09/20/2016 06:50      69.3      69.1       54     51.8      0.00      0.00      80.9     0.42      1014.0     1       109         1       129        8.82     270      -18.0
   09/20/2016 06:40      69.3      69.1       53     51.5      0.00      0.00      80.5     0.42      1014.0     1       149         2       201        8.82     270      -19.0
   09/20/2016 06:30      69.2      69.0       53     51.4      0.00      0.00      80.9     0.42      1014.0     1       163         2       181        8.82     270      -19.7
   09/20/2016 06:20      69.2      68.8       52     50.7      0.00      0.00      81.0     0.42      1014.0     1       135         1       215        8.82     270      -20.5
   09/20/2016 06:10      69.1      68.7       52     50.6      0.00      0.00      80.7     0.42      1014.0     1       149         2       127        8.82     270      -19.6
   09/20/2016 06:00      69.4      69.1       52     50.7      0.00      0.00      80.8     0.42      1014.0     1       315         1       327        8.82     270      -19.6
   09/20/2016 05:50      69.4      69.1       52     51.0      0.00      0.00      81.2     0.42      1014.0     1       333         2       334        8.82     270      -19.6
   09/20/2016 05:40      69.4      69.1       53     51.2      0.00      0.00      80.7     0.42      1014.0     1       327         2       290        8.82     270      -18.8
   09/20/2016 05:30      69.4      69.0       53     51.4      0.00      0.00      80.9     0.42      1014.0     2        12         2         3        8.82     270      -18.2
   09/20/2016 05:20      69.1      68.8       51     50.1      0.00      0.00      80.8     0.42      1014.0     2       156         2       134        8.82     270      -18.0
   09/20/2016 05:10      68.8      68.6       51     49.9      0.00      0.00      80.9     0.42      1014.0     1       191         1       234        8.82     270      -19.5
   09/20/2016 05:00      68.9      68.6       51     49.9      0.00      0.00      80.9     0.42      1014.0     0        17         1        41        8.82     270      -19.7
   09/20/2016 04:50      68.8      68.2       51     49.8      0.00      0.00      81.0     0.42      1014.0     1       145         2       154        8.82     270      -19.8
   09/20/2016 04:40      68.3      68.2       52     49.9      0.00      0.00      80.9     0.42      1014.0     1       145         2       140        8.82     270      -19.5
   09/20/2016 04:30      68.4      67.5       52     49.5      0.00      0.00      81.1     0.42      1014.0     1       144         2       124        8.82     270      -18.8
   09/20/2016 04:20      67.5      67.2       54     50.0      0.00      0.00      81.0     0.42      1014.0     1       130         2        80        8.82     270      -18.5
   09/20/2016 04:10      67.3      67.0       54     49.7      0.00      0.00      81.1     0.42      1014.0     1       280         1       108        8.82     269      -19.4
   09/20/2016 04:00      67.3      66.9       53     49.2      0.00      0.00      81.1     0.42      1014.0     1       359         2        63        8.83     269      -25.5
   09/20/2016 03:50      67.1      66.8       53     49.4      0.00      0.00      81.1     0.42      1014.0     0        54         1        74        8.83     269      -27.9
   09/20/2016 03:40      66.8      66.2       54     49.4      0.00      0.00      80.9     0.42      1014.0     1       286         1       346        8.83     270      -24.6
   09/20/2016 03:30      66.3      66.2       54     49.2      0.00      0.00      81.1     0.42      1014.0     0        67         1        66        8.83     269      -29.6
   09/20/2016 03:20      66.3      66.0       54     49.3      0.00      0.00      81.1     0.42      1014.0     1        92         1       174        8.83     269      -33.8
   09/20/2016 03:10      66.3      66.0       55     49.3      0.00      0.00      81.2     0.42      1014.0     1        66         1       100        8.83     269      -37.4
   09/20/2016 03:00      66.4      66.2       53     48.8      0.00      0.00      81.3     0.42      1014.0     1        71         1       112        8.83     269      -39.1
   09/20/2016 02:50      66.7      66.4       52     48.5      0.00      0.00      81.3     0.42      1014.0     1       135         1       122        8.83     269      -41.3
   09/20/2016 02:40      66.9      66.6       52     48.4      0.00      0.00      81.4     0.42      1015.0     0       116         1       174        8.83     269      -43.3
   09/20/2016 02:30      67.1      66.7       52     48.7      0.00      0.00      81.5     0.42      1015.0     1       138         1        10        8.83     269      -44.2
   09/20/2016 02:20      67.2      66.9       52     48.7      0.00      0.00      81.4     0.42      1015.0     1       261         1       152        8.83     269      -44.2
   09/20/2016 02:10      67.3      67.0       52     48.9      0.00      0.00      81.4     0.42      1015.0     2       138         2       139        8.83     269      -43.5
   09/20/2016 02:00      67.9      67.2       52     49.1      0.00      0.00      81.3     0.42      1015.0     1       101         1       347        8.83     269      -42.5
   09/20/2016 01:50      67.9      67.5       52     49.4      0.00      0.00      81.2     0.42      1015.0     1       335         2       354        8.83     269      -43.8
   09/20/2016 01:40      68.0      67.7       52     49.8      0.00      0.00      81.4     0.42      1015.0     1       150         2       183        8.83     269      -45.9
   09/20/2016 01:30      68.4      68.0       52     50.2      0.00      0.00      81.6     0.42      1015.0     1       138         2       133        8.83     269      -46.1
   09/20/2016 01:20      68.8      68.4       50     49.4      0.00      0.00      81.2     0.42      1015.0     2       185         2       142        8.84     269      -41.9
   09/20/2016 01:10      68.7      67.8       53     50.4      0.00      0.00      81.5     0.42      1016.0     1       185         1       220        8.84     269      -40.0
   09/20/2016 01:00      68.8      68.2       52     50.2      0.00      0.00      81.4     0.42      1016.0     1        62         1        91        8.84     269      -38.9
   09/20/2016 00:50      68.8      68.5       52     50.1      0.00      0.00      81.6     0.42      1016.0     1         2         1       244        8.84     269      -38.9
   09/20/2016 00:40      68.8      68.4       52     50.4      0.00      0.00      81.6     0.42      1016.0     0       155         1       147        8.84     269      -38.7
   09/20/2016 00:30      68.5      68.3       53     50.6      0.00      0.00      81.5     0.42      1016.0     0        98         1        35        8.84     269      -35.4
   09/20/2016 00:20      68.6      68.5       53     50.6      0.00      0.00      81.7     0.42      1016.0     0       275         1       191        8.84     269      -42.0
   09/20/2016 00:10      68.4      68.2       54     50.9      0.00      0.00      81.7     0.42      1016.0     2       168         3       163        8.84     269      -46.9
   09/20/2016 00:00      68.6      68.4       54     51.3      0.00      0.00      81.4     0.42      1016.0     2       137         3       142        8.84     269      -48.0
   09/19/2016 23:50      69.6      68.8       53     51.2      0.00      0.00      81.6     0.42      1016.0     2       148         2       142        8.84     269      -48.8
   09/19/2016 23:40      69.8      69.7       51     50.7      0.00      0.00      81.8     0.42      1017.0     1       278         2       151        8.84     269      -49.6
   09/19/2016 23:30      69.8      69.6       52     51.4      0.00      0.00      81.6     0.42      1017.0     3       179         5       159        8.84     269      -51.1
   09/19/2016 23:20      69.9      69.6       52     51.5      0.00      0.00      81.6     0.42      1017.0     4       153         4       155        8.85     269      -51.7
   09/19/2016 23:10      69.8      69.5       51     50.8      0.00      0.00      81.8     0.42      1017.0     3       147         3       158        8.85     269      -51.0
   09/19/2016 23:00      70.2      69.9       49     49.8      0.00      0.00      81.6     0.42      1017.0     1       172         2       116        8.85     269      -49.0
   09/19/2016 22:50      70.9      70.2       49     50.3      0.00      0.00      81.6     0.42      1017.0     1       181         2       125        8.85     269      -47.9
   09/19/2016 22:40      71.1      70.9       49     50.8      0.00      0.00      81.6     0.42      1017.0     2       183         3       142        8.85     269      -47.2
   09/19/2016 22:30      71.0      70.5       50     51.4      0.00      0.00      81.7     0.42      1017.0     3       162         4       192        8.85     268      -47.1
   09/19/2016 22:20      70.9      70.4       50     51.0      0.00      0.00      81.5     0.42      1017.0     2       169         3       134        8.85     269      -47.5
   09/19/2016 22:10      71.3      70.8       48     50.4      0.00      0.00      81.6     0.42      1017.0     2       186         3       139        8.85     268      -45.7
   09/19/2016 22:00      71.5      71.1       48     50.4      0.00      0.00      81.6     0.42      1017.0     2       173         2       166        8.85     268      -47.6
   09/19/2016 21:50      72.0      71.7       48     51.0      0.00      0.00      81.6     0.42      1017.0     1       142         1       121        8.85     268      -51.0
   09/19/2016 21:40      72.9      72.2       48     51.9      0.00      0.00      81.5     0.42      1017.0     1       107         1        91        8.85     268      -51.8
   09/19/2016 21:30      73.1      72.9       47     51.7      0.00      0.00      81.5     0.42      1017.0     2        33         3        14        8.86     268      -53.3
   09/19/2016 21:20      73.2      73.0       48     52.1      0.00      0.00      81.6     0.42      1017.0     2        19         2        23        8.86     268      -53.6
   09/19/2016 21:10      73.2      72.9       48     52.5      0.00      0.00      81.5     0.42      1017.0     2       356         3       328        8.86     268      -53.6
   09/19/2016 21:00      73.3      73.0       49     52.9      0.00      0.00      81.7     0.42      1017.0     1        14         2         4        8.86     268      -55.0
   09/19/2016 20:50      73.6      73.3       49     52.9      0.00      0.00      81.4     0.42      1017.0     1        53         2        30        8.86     268      -57.1
   09/19/2016 20:40      73.8      73.5       48     53.0      0.00      0.00      81.6     0.42      1017.0     2        50         3        50        8.86     268      -57.2
   09/19/2016 20:30      74.2      73.8       48     53.1      0.00      0.00      81.4     0.42      1017.0     3        63         4        82        8.86     268      -54.9
   09/19/2016 20:20      74.7      74.2       49     53.7      0.00      0.00      81.3     0.42      1017.0     3        42         5        72        8.86     268      -53.2
   09/19/2016 20:10      75.2      74.5       49     54.3      0.00      0.00      81.6     0.42      1016.0     3        60         5        60        8.86     267      -48.1
   09/19/2016 20:00      77.1      75.5       47     54.8      0.00      0.00      81.4     0.42      1016.0     4        62         7        63        8.86     267      -52.2
   09/19/2016 19:50      78.3      77.5       41     52.5      0.00      0.00      81.4     0.42      1016.0     2        63         3        56        8.86     267      -58.9
   09/19/2016 19:40      79.4      78.5       39     51.9      0.00      0.00      81.3     0.42      1016.0     1        61         2        64        8.86     267      -59.0
   09/19/2016 19:30      80.0      79.3       34     48.7      0.00      0.00      81.4     0.42      1016.0     2       165         4       168        8.86     267      -55.6
   09/19/2016 19:20      80.5      80.0       34     49.5      0.00      0.00      81.4     0.42      1015.0     3       146         5       133        8.86     267      -55.6
   09/19/2016 19:10      81.4      80.7       35     50.7      0.00      0.00      81.3     0.42      1015.0     3       143         5       160        8.86     267      -57.0
   09/19/2016 19:00      82.2      81.6       32     49.1      0.00      0.00      81.3     0.42      1015.0     3       130         4       141        8.86     267      -58.5
   09/19/2016 18:50      82.7      82.5       26     44.7      0.00      0.00      81.4     0.42      1015.0     4       144         5       145        8.86     267      -54.7
   09/19/2016 18:40      82.8      82.6       26     44.5      0.00      0.00      81.2     0.42      1015.0     4       132         4       148        8.86     267      -45.5
   09/19/2016 18:30      83.3      82.9       26     44.9      0.00      0.00      81.2     0.42      1015.0     2       101         4       132        8.86     267      -34.7
   09/19/2016 18:20      83.6      83.3       26     45.3      0.00      0.00      81.2     0.42      1015.0     2        84         3       110        8.86     267      -24.4
   09/19/2016 18:10      84.0      83.7       25     44.8      0.00      0.00      81.1     0.42      1015.0     2        93         2       104        8.86     267      -18.5
   09/19/2016 18:00      84.2      84.0       25     44.1      0.00      0.00      81.1     0.42      1015.0     2        41         3         9        8.86     267       -9.7
   09/19/2016 17:50      84.3      84.1       25     44.3      0.00      0.00      81.0     0.42      1014.0     3         9         4       336        8.86     267      -10.1
   09/19/2016 17:40      84.5      84.1       24     44.0      0.00      0.00      80.9     0.42      1014.0     3       349         5       317        8.86     267       -6.6
   09/19/2016 17:30      84.3      84.0       25     44.5      0.00      0.00      81.0     0.42      1014.0     3       334         5       335        8.86     267        4.8
   09/19/2016 17:20      84.1      84.0       28     47.5      0.00      0.00      80.9     0.42      1014.0     4       315         6       337        8.86     267       39.0
   09/19/2016 17:10      84.4      84.2       29     48.4      0.00      0.00      81.0     0.42      1014.0     4       311         6       293        8.85     267       35.3
   09/19/2016 17:00      84.7      84.0       31     50.6      0.00      0.00      80.6     0.42      1014.0     3       325         5       333        8.41     267       59.5
   09/19/2016 16:50      84.0      83.4       34     52.1      0.00      0.00      80.8     0.42      1014.0     4       313         6       291        8.41     267       93.4
   09/19/2016 16:40      83.5      83.0       35     52.5      0.00      0.00      80.8     0.42      1014.0     5       312         6       309        8.41     267       79.7
   09/19/2016 16:30      83.5      83.0       35     53.0      0.00      0.00      80.7     0.42      1014.0     4       301         6       291        8.41     267       78.5
   09/19/2016 16:20      84.4      83.0       35     53.1      0.00      0.00      80.5     0.42      1014.0     5       304        10       308        8.41     266       58.3
   09/19/2016 16:10      85.3      84.6       34     53.5      0.00      0.00      80.7     0.42      1014.0     5       283         7       309        8.42     267       65.6
   09/19/2016 16:00      86.0      85.5       34     54.4      0.00      0.00      80.4     0.42      1014.0     5       298         7       315        8.42     266       45.4
   09/19/2016 15:50      86.8      85.9       35     55.5      0.00      0.00      80.6     0.42      1014.0     3       300         5       289        8.42     266       49.5
   09/19/2016 15:40      89.7      87.4       27     50.3      0.00      0.00      80.4     0.42      1013.0     6       278        10       314        8.42     266       56.1
   09/19/2016 15:30      89.7      89.3       17     39.1      0.00      0.00      80.4     0.42      1013.0     6       248        10       260        8.43     266       75.3
   09/19/2016 15:20      90.1      89.6       16     37.1      0.00      0.00      80.2     0.42      1014.0     7       243         9       250        8.43     266      112.2
   09/19/2016 15:10      90.2      89.4       19     42.4      0.00      0.00      80.1     0.42      1014.0     4       308         5       318        8.43     266      123.0
   09/19/2016 15:00      89.8      89.3       20     43.0      0.00      0.00      80.2     0.42      1014.0     4       102         8        73        8.43     266      125.0
   09/19/2016 14:50      91.0      90.0       20     43.9      0.00      0.00      80.0     0.42      1013.0     5       218         7       237        8.43     266       98.8
   09/19/2016 14:40      91.2      90.9       21     45.1      0.00      0.00      80.1     0.42      1013.0     6       203         8       195        8.44     266       63.0
   09/19/2016 14:30      91.2      90.8       22     46.8      0.00      0.00      79.9     0.42      1013.0     7       180        10       193        8.44     266       80.4
   09/19/2016 14:20      94.1      90.9       20     46.1      0.00      0.00      80.1     0.42      1013.0     8       182        13       186        8.44     266      101.9
   09/19/2016 14:10      95.7      94.4       17     44.1      0.00      0.00      79.9     0.42      1012.0     9       169        13       145        8.44     266      128.5
   09/19/2016 14:00      97.6      95.7       18     45.8      0.00      0.00      80.0     0.42      1012.0    10       158        14       168        8.44     267      186.7
   09/19/2016 13:50      99.4      97.5       17     47.0      0.00      0.00      79.9     0.42      1012.0     8       154        13       138        8.45     267      193.8
   09/19/2016 13:40     100.0      99.1       18     47.8      0.00      0.00      79.8     0.42      1012.0     6       152         8       179        8.44     267      110.4
   09/19/2016 13:30     100.5     100.2       16     46.2      0.00      0.00      79.8     0.41      1012.0     5       183         9       141        8.45     267      155.8
   09/19/2016 13:20     102.3      99.9       16     45.7      0.00      0.00      79.7     0.41      1012.0     3       219         8       252        8.45     267       87.3
   09/19/2016 13:10     103.5     102.7       15     47.4      0.00      0.00      79.9     0.41      1012.0     3       331         6       229        8.45     267      368.3
   09/19/2016 13:00     103.3     102.1       16     47.9      0.00      0.00      79.7     0.41      1012.0     3       321         5       342        8.45     267      376.0
   09/19/2016 12:50     101.8     100.8       17     47.9      0.00      0.00      79.8     0.41      1012.0     3         2         4       358        8.45     268      486.4
   09/19/2016 12:40     101.0      99.7       17     47.7      0.00      0.00      79.8     0.41      1012.0     2        92         5        78        8.45     268      497.2
   09/19/2016 12:30      99.7      99.1       18     47.6      0.00      0.00      79.8     0.41      1012.0     3        33         5       352        8.45     268      398.7
   09/19/2016 12:20      99.3      98.7       17     46.9      0.00      0.00      79.8     0.41      1012.0     3       336         6       355        8.45     268      472.3
   09/19/2016 12:10      99.3      96.9       18     47.4      0.00      0.00      79.7     0.41      1012.0     2       339         4       326        8.45     268      491.9
   09/19/2016 12:00      97.0      96.1       18     46.0      0.00      0.00      79.8     0.41      1013.0     2        27         3        21        8.46     268      499.3
   09/19/2016 11:50      95.9      93.8       19     46.9      0.00      0.00      79.7     0.41      1013.0     2        43         5       101        8.46     268      529.4
   09/19/2016 11:40      94.1      92.9       20     46.9      0.00      0.00      79.8     0.41      1013.0     3        42         4        10        8.46     268      380.4
   09/19/2016 11:30      92.9      92.0       22     48.5      0.00      0.00      79.8     0.41      1013.0     3        18         5       344        8.46     268      388.9
   09/19/2016 11:20      92.3      91.4       24     50.0      0.00      0.00      80.0     0.41      1013.0     3        21         4       357        8.46     269      463.0
   09/19/2016 11:10      91.7      91.0       26     51.7      0.00      0.00      79.6     0.42      1013.0     3        39         4        63        8.46     269      480.5
   09/19/2016 11:00      91.1      89.4       25     49.5      0.00      0.00      79.9     0.42      1013.0     3        16         5        46        8.46     269      447.4
   09/19/2016 10:50      89.0      87.2       27     49.9      0.00      0.00      79.9     0.42      1014.0     2         4         3        52        8.46     270      325.0
   09/19/2016 10:40      87.2      85.9       30     51.2      0.00      0.00      79.9     0.42      1014.0     2       353         3       297        8.46     270      240.2
   09/19/2016 10:30      85.6      84.2       32     51.9      0.00      0.00      79.9     0.42      1014.0     1       333         2       305        8.46     270      175.7
   09/19/2016 10:20      84.4      83.3       33     51.6      0.00      0.00      80.0     0.42      1014.0     1        14         2       332        8.46     270      131.2
   09/19/2016 10:10      83.2      82.4       33     51.0      0.00      0.00      80.1     0.42      1014.0     2        36         3        77        8.46     270      121.7
   09/19/2016 10:00      82.2      80.6       36     51.8      0.00      0.00      79.9     0.42      1014.0     1         5         2       350        8.46     270      204.0
   09/19/2016 09:50      80.4      79.8       38     52.1      0.00      0.00      80.0     0.42      1014.0     1       105         2       129        8.47     270      113.5
   09/19/2016 09:40      80.0      79.2       36     50.1      0.00      0.00      79.9     0.42      1014.0     1         2         2        29        8.47     270      111.6
   09/19/2016 09:30      79.1      77.8       36     49.5      0.00      0.00      80.0     0.42      1014.0     1        13         2       345        8.47     270      104.4
   09/19/2016 09:20      77.9      76.2       39     49.9      0.00      0.00      80.1     0.42      1014.0     1       334         2        21        8.47     270      107.7
   09/19/2016 09:10      76.0      75.4       43     51.6      0.00      0.00      80.0     0.42      1014.0     1       320         2       326        8.48     271      110.5
   09/19/2016 09:00      75.5      75.2       41     50.1      0.00      0.00      80.4     0.42      1014.0     1       331         2       310        8.48     270       87.0
   09/19/2016 08:50      75.2      74.2       41     49.2      0.00      0.00      80.2     0.42      1014.0     2       123         2       135        8.48     271       75.7
   09/19/2016 08:40      74.2      72.7       41     48.1      0.00      0.00      80.3     0.42      1014.0     2       143         4       131        8.48     270       48.5
   09/19/2016 08:30      72.7      70.2       44     48.4      0.00      0.00      80.4     0.42      1014.0     2       148         4       160        8.48     270       70.8
   09/19/2016 08:20      70.1      68.9       47     48.5      0.00      0.00      80.2     0.42      1014.0     2       145         3       159        8.48     270       32.1
   09/19/2016 08:10      68.8      67.4       50     48.8      0.00      0.00      80.1     0.42      1014.0     3       162         4       161        8.49     270       20.1
   09/19/2016 08:00      67.4      66.8       55     50.4      0.00      0.00      80.4     0.42      1015.0     2       155         4       154        8.49     270        4.6
   09/19/2016 07:50      66.8      66.1       58     51.0      0.00      0.00      80.3     0.42      1015.0     1       167         2       163        8.49     271       -4.4
   09/19/2016 07:40      66.1      65.5       59     51.1      0.00      0.00      80.5     0.42      1015.0     1       157         1       143        8.49     270       -8.5
   09/19/2016 07:30      65.6      64.8       60     50.9      0.00      0.00      80.5     0.42      1015.0     1       339         2       339        8.49     271      -10.6
   09/19/2016 07:20      64.9      64.0       62     51.0      0.00      0.00      80.1     0.42      1015.0     1       101         1       126        8.50     271       -8.5
   09/19/2016 07:10      64.0      63.2       63     50.9      0.00      0.00      80.4     0.42      1015.0     1       126         2       130        8.50     270      -22.6
   09/19/2016 07:00      63.3      62.7       64     50.6      0.00      0.00      80.1     0.42      1015.0     2       187         3       169        8.50     270      -35.2
   09/19/2016 06:50      63.6      62.4       63     50.0      0.00      0.00      80.7     0.42      1015.0     2       222         3       157        8.50     270      -43.1
   09/19/2016 06:40      62.8      62.5       64     50.4      0.00      0.00      80.4     0.42      1015.0     2       143         3       141        8.50     270      -46.7
   09/19/2016 06:30      63.4      62.8       64     50.5      0.00      0.00      80.7     0.42      1015.0     2       138         3       136        8.50     270      -48.2
   09/19/2016 06:20      63.3      62.9       63     50.4      0.00      0.00      80.6     0.42      1014.0     1       169         3       156        8.50     270      -48.9
   09/19/2016 06:10      63.1      62.5       64     50.6      0.00      0.00      80.9     0.42      1014.0     2       138         3       140        8.50     270      -50.0
   09/19/2016 06:00      62.9      62.6       64     50.4      0.00      0.00      80.6     0.42      1014.0     2       145         2       155        8.50     270      -49.7
   09/19/2016 05:50      63.0      62.6       64     50.3      0.00      0.00      80.7     0.42      1014.0     2       148         2       153        8.50     270      -49.7
   09/19/2016 05:40      63.2      62.6       62     49.9      0.00      0.00      80.8     0.42      1014.0     2       135         2       138        8.50     270      -50.1
   09/19/2016 05:30      63.6      63.3       61     49.6      0.00      0.00      80.9     0.42      1014.0     1        84         1       133        8.51     270      -48.9
   09/19/2016 05:20      63.8      63.5       60     49.7      0.00      0.00      80.8     0.42      1014.0     1       358         1       354        8.51     270      -48.2
   09/19/2016 05:10      64.1      63.8       60     49.9      0.00      0.00      80.8     0.42      1014.0     1        47         1        92        8.51     270      -48.4
   09/19/2016 05:00      64.0      63.4       61     50.1      0.00      0.00      81.0     0.42      1014.0     1       147         2       132        8.51     270      -49.0
   09/19/2016 04:50      63.6      63.3       64     50.9      0.00      0.00      80.7     0.42      1014.0     2       156         3       144        8.51     270      -50.0
   09/19/2016 04:40      63.9      63.4       64     51.3      0.00      0.00      80.9     0.42      1014.0     1       120         2       139        8.51     270      -50.2
   09/19/2016 04:30      64.2      63.8       65     51.8      0.00      0.00      80.9     0.42      1013.0     1        75         1       119        8.51     269      -50.0
   09/19/2016 04:20      64.3      64.0       65     52.1      0.00      0.00      80.9     0.42      1013.0     1       166         2       145        8.51     269      -50.6
   09/19/2016 04:10      64.5      64.2       63     51.5      0.00      0.00      81.0     0.42      1013.0     1       175         1       130        8.51     269      -50.6
   09/19/2016 04:00      64.3      63.9       64     51.8      0.00      0.00      80.9     0.42      1013.0     0       168         1       219        8.51     269      -51.0
   09/19/2016 03:50      64.5      64.3       63     51.6      0.00      0.00      80.9     0.42      1013.0     1       167         1       120        8.51     269      -51.6
   09/19/2016 03:40      64.9      64.4       64     52.1      0.00      0.00      81.1     0.42      1014.0     1       140         1       141        8.52     269      -52.2
   09/19/2016 03:30      65.3      65.0       62     51.7      0.00      0.00      81.1     0.42      1014.0     1       185         1       126        8.52     269      -52.3
   09/19/2016 03:20      65.6      65.2       63     52.3      0.00      0.00      81.0     0.42      1014.0     0       234         1       210        8.52     269      -52.0
   09/19/2016 03:10      65.7      65.3       63     52.4      0.00      0.00      81.1     0.42      1014.0     1        63         1         3        8.52     269      -52.4
   09/19/2016 03:00      65.7      65.5       63     52.6      0.00      0.00      81.0     0.42      1014.0     1       150         2       140        8.52     269      -53.1
   09/19/2016 02:50      65.6      65.3       63     52.5      0.00      0.00      81.2     0.42      1014.0     1       146         2       129        8.52     269      -54.2
   09/19/2016 02:40      65.6      65.3       63     52.5      0.00      0.00      81.1     0.42      1014.0     2       138         2       140        8.52     269      -54.3
   09/19/2016 02:30      66.0      65.6       62     52.5      0.00      0.00      81.2     0.42      1014.0     1       156         2       184        8.52     269      -54.4
   09/19/2016 02:20      66.3      66.1       62     52.8      0.00      0.00      81.2     0.43      1014.0     1       144         2       144        8.52     269      -55.1
   09/19/2016 02:10      66.5      66.2       61     52.4      0.00      0.00      81.3     0.43      1014.0     1       167         2       147        8.52     269      -54.5
   09/19/2016 02:00      66.6      66.3       61     52.6      0.00      0.00      81.3     0.42      1014.0     1       188         1       179        8.52     269      -54.8
   09/19/2016 01:50      66.7      66.3       61     52.6      0.00      0.00      81.2     0.43      1014.0     1       172         2       165        8.52     269      -55.3
   09/19/2016 01:40      67.1      66.6       60     52.6      0.00      0.00      81.2     0.43      1014.0     2       142         3       134        8.52     269      -56.0
   09/19/2016 01:30      67.3      66.7       61     53.2      0.00      0.00      81.5     0.43      1014.0     1       176         1       141        8.53     269      -56.2
   09/19/2016 01:20      67.4      67.1       60     52.9      0.00      0.00      81.4     0.43      1014.0     1       159         3       164        8.53     269      -57.2
   09/19/2016 01:10      67.4      67.2       59     52.6      0.00      0.00      81.4     0.43      1014.0     1       177         2       146        8.53     269      -57.8
   09/19/2016 01:00      67.4      67.0       60     52.8      0.00      0.00      81.5     0.43      1014.0     2       150         2       140        8.53     269      -58.7
   09/19/2016 00:50      67.7      67.2       57     51.7      0.00      0.00      81.3     0.43      1014.0     2       155         3       152        8.53     268      -59.5
   09/19/2016 00:40      68.3      68.0       58     52.7      0.00      0.00      81.3     0.43      1014.0     2       147         3       160        8.53     268      -60.0
   09/19/2016 00:30      68.5      68.1       56     52.1      0.00      0.00      81.4     0.43      1014.0     2       177         2       126        8.53     268      -59.7
   09/19/2016 00:20      68.6      68.3       55     51.8      0.00      0.00      81.3     0.43      1014.0     1       178         2       207        8.53     268      -60.9
   09/19/2016 00:10      69.5      68.8       53     51.5      0.00      0.00      81.5     0.43      1014.0     1       207         2       213        8.53     268      -61.3
   09/19/2016 00:00      70.6      69.6       51     51.4      0.00      0.00      81.4     0.43      1014.0     1       168         2       155        8.54     268      -61.8
   09/18/2016 23:50      71.7      70.8       51     52.0      0.00      0.00      81.2     0.43      1014.0     1       136         2       125        8.54     268      -63.1
   09/18/2016 23:40      72.3      71.8       50     52.3      0.00      0.00      81.4     0.43      1014.0     1       100         2        98        8.54     268      -65.1
   09/18/2016 23:30      72.6      72.3       49     52.2      0.00      0.00      81.3     0.43      1014.0     2        71         2        34        8.54     268      -65.7
   09/18/2016 23:20      72.8      72.5       49     52.5      0.00      0.00      81.5     0.43      1014.0     2        43         2        38        8.54     268      -65.5
   09/18/2016 23:10      72.5      71.8       49     52.1      0.00      0.00      81.4     0.43      1014.0     2        59         3        55        8.54     268      -65.2
   09/18/2016 23:00      71.8      71.6       46     49.9      0.00      0.00      81.4     0.43      1014.0     1        32         2        99        8.54     267      -63.6
   09/18/2016 22:50      72.0      71.5       45     49.4      0.00      0.00      81.3     0.43      1014.0     1       111         2       126        8.54     267      -64.0
   09/18/2016 22:40      72.8      72.2       44     49.1      0.00      0.00      81.3     0.43      1014.0     2       137         2       138        8.54     267      -64.2
   09/18/2016 22:30      73.4      72.7       42     48.8      0.00      0.00      81.4     0.43      1013.0     1       102         2       131        8.55     267      -64.1
   09/18/2016 22:20      74.2      73.4       41     48.9      0.00      0.00      81.3     0.43      1013.0     2       142         3       140        8.55     267      -65.3
   09/18/2016 22:10      74.4      74.1       40     48.5      0.00      0.00      81.3     0.43      1013.0     2       153         3       140        8.55     267      -65.2
   09/18/2016 22:00      75.2      74.4       39     48.1      0.00      0.00      81.3     0.43      1013.0     1       166         2       134        8.55     267      -65.9
   09/18/2016 21:50      76.1      75.4       40     49.8      0.00      0.00      81.3     0.42      1013.0     1       173         1       143        8.55     267      -65.6
   09/18/2016 21:40      76.7      76.2       39     49.8      0.00      0.00      81.3     0.42      1013.0     1        85         1       146        8.55     267      -66.5
   09/18/2016 21:30      77.3      76.7       37     48.7      0.00      0.00      81.2     0.43      1013.0     2       137         2       141        8.55     266      -66.6
   09/18/2016 21:20      78.3      77.5       34     47.6      0.00      0.00      81.2     0.43      1013.0     1       126         1       123        8.55     266      -67.0
   09/18/2016 21:10      78.5      78.3       32     46.2      0.00      0.00      81.2     0.43      1013.0     1       133         2       137        8.55     266      -67.3
   09/18/2016 21:00      79.3      78.8       30     45.4      0.00      0.00      81.2     0.43      1013.0     1       123         2       129        8.56     266      -68.1
   09/18/2016 20:50      80.2      79.4       28     44.1      0.00      0.00      81.1     0.43      1013.0     1        88         2       125        8.56     266      -68.6
   09/18/2016 20:40      81.5      80.4       26     43.3      0.00      0.00      81.2     0.43      1013.0     1       133         2       124        8.56     266      -68.4
   09/18/2016 20:30      81.7      81.1       26     43.1      0.00      0.00      81.1     0.43      1013.0     1       152         2       136        8.56     266      -68.3
   09/18/2016 20:20      81.6      81.2       26     42.9      0.00      0.00      81.0     0.42      1012.0     2       161         2       190        8.56     266      -70.1
   09/18/2016 20:10      82.6      81.8       24     42.4      0.00      0.00      80.9     0.43      1012.0     1       131         2       109        8.56     266      -71.2
   09/18/2016 20:00      83.4      82.6       23     41.5      0.00      0.00      80.9     0.43      1012.0     2       130         3       139        8.57     266      -73.3
   09/18/2016 19:50      84.7      83.5       20     38.8      0.00      0.00      80.9     0.42      1012.0     1       148         2       146        8.57     266      -74.6
   09/18/2016 19:40      85.7      85.0       19     38.7      0.00      0.00      80.9     0.42      1012.0     1       147         1       166        8.57     266      -75.6
   09/18/2016 19:30      88.0      86.1       18     38.6      0.00      0.00      80.8     0.42      1012.0     1       148         1       127        8.58     266      -78.8
   09/18/2016 19:20      90.4      88.2       16     37.2      0.00      0.00      80.7     0.42      1012.0     1       228         1       212        8.58     266      -80.7
   09/18/2016 19:10      92.2      90.7       14     36.2      0.00      0.00      80.8     0.42      1011.0     1       296         2       304        8.59     266      -84.0
   09/18/2016 19:00      93.5      92.4       13     35.3      0.00      0.00      80.6     0.42      1011.0     2       217         3       208        8.59     266      -85.5
   09/18/2016 18:50      93.8      93.4       14     37.9      0.00      0.00      80.6     0.42      1011.0     3       240         5       246        8.59     265      -84.4
   09/18/2016 18:40      95.6      94.0       16     42.4      0.00      0.00      80.6     0.42      1011.0     2       278         2       219        8.60     265      -82.5
   09/18/2016 18:30      97.7      95.9       13     37.1      0.00      0.00      80.5     0.42      1011.0     3       223         4       210        8.60     265      -70.0
   09/18/2016 18:20      98.0      97.6       12     37.5      0.00      0.00      80.5     0.42      1011.0     2       230         3       140        8.61     265      -53.4
   09/18/2016 18:10      98.5      98.2       12     36.2      0.00      0.00      80.4     0.42      1011.0     3       217         5       177        8.61     265      -32.0
   09/18/2016 18:00      99.1      98.7       10     33.9      0.00      0.00      80.4     0.42      1011.0     4       172         6       162        8.62     265       -9.3
   09/18/2016 17:50     100.3      99.5       10     33.3      0.00      0.00      80.3     0.42      1011.0     5       185         7       178        8.62     265       14.0
   09/18/2016 17:40     100.8     100.3        9     32.2      0.00      0.00      80.2     0.42      1011.0     3       182         5       218        8.63     265       36.0
   09/18/2016 17:30     100.6     100.0        9     32.2      0.00      0.00      80.0     0.42      1011.0     4       185         6       186        8.63     265       60.7
   09/18/2016 17:20     101.1     100.8        9     31.7      0.00      0.00      80.0     0.42      1011.0     4       185         6       166        8.63     265       85.3
   09/18/2016 17:10     101.5     100.9        9     31.3      0.00      0.00      79.8     0.42      1011.0     4       212         6       160        8.64     265      110.4
   09/18/2016 17:00     101.6     100.7        9     31.7      0.00      0.00      79.7     0.42      1011.0     4       176         6       182        8.64     265      134.7
   09/18/2016 16:50     101.1     100.7        9     31.2      0.00      0.00      79.8     0.42      1011.0     6       212         7       174        8.64     265      158.5
   09/18/2016 16:40     101.6     101.1        8     30.2      0.00      0.00      79.7     0.42      1011.0     5       179         7       168        8.65     265      179.3
   09/18/2016 16:30     101.7     101.1        8     29.3      0.00      0.00      79.8     0.42      1011.0     4       183         7       178        8.65     265      200.9
   09/18/2016 16:20     102.1     101.7        8     30.8      0.00      0.00      79.8     0.42      1011.0     4       147         6       161        8.66     266      218.1
   09/18/2016 16:10     102.5     101.9        8     29.6      0.00      0.00      79.5     0.42      1011.0     5       141         9       151        8.66     267      225.8
   09/18/2016 16:00     103.0     102.4        8     28.9      0.00      0.00      79.4     0.42      1011.0     4       129         6       126        8.67     267      244.9
   09/18/2016 15:50     102.7     101.4        7     27.0      0.00      0.00      79.4     0.42      1011.0     4        82         8       133        8.67     267      267.3
   09/18/2016 15:40     102.2     101.7        7     26.7      0.00      0.00      79.3     0.42      1011.0     3       174         6       231        8.67     267      294.6
   09/18/2016 15:30     102.3     101.2        7     26.8      0.00      0.00      79.3     0.42      1011.0     5       139         8       129        8.68     267      321.4
   09/18/2016 15:20     102.2     101.4        7     26.9      0.00      0.00      79.2     0.42      1011.0     5       189         8       161        8.68     266      339.8
   09/18/2016 15:10     102.3     101.7        7     26.4      0.00      0.00      79.1     0.42      1011.0     6       189        10       158        8.69     267      354.9
   09/18/2016 15:00     102.8     101.7        7     26.6      0.00      0.00      78.9     0.42      1012.0     4       175         7       164        8.69     267      371.0
   09/18/2016 14:50     102.1     101.1        7     26.7      0.00      0.00      79.0     0.42      1012.0     7       147        11       142        8.70     267      388.8
   09/18/2016 14:40     102.8     101.8        7     26.8      0.00      0.00      78.9     0.42      1012.0     5       147         9       147        8.70     267      402.2
   09/18/2016 14:30     103.5     102.0        7     27.0      0.00      0.00      79.0     0.42      1012.0     5       118         9       118        8.71     267      414.6
   09/18/2016 14:20     103.4     102.5        7     27.0      0.00      0.00      78.8     0.42      1012.0     5       106         9       124        8.71     268      425.3
   09/18/2016 14:10     104.0     103.2        7     27.1      0.00      0.00      78.8     0.42      1012.0     3        90         7       133        8.72     268      433.8
   09/18/2016 14:00     103.8     103.0        7     26.9      0.00      0.00      78.6     0.42      1012.0     4        77        10       139        8.72     268      444.1
   09/18/2016 13:50     103.3     102.7        7     26.4      0.00      0.00      78.6     0.42      1012.0     4        61         6        20        8.72     268      452.8
   09/18/2016 13:40     103.8     102.7        7     26.7      0.00      0.00      78.6     0.42      1012.0     5        67         8        74        8.72     268      461.3
   09/18/2016 13:30     103.1     102.5        7     26.9      0.00      0.00      78.6     0.42      1012.0     5        67         8       124        8.72     268      469.4
   09/18/2016 13:20     103.1     102.1        7     27.2      0.00      0.00      78.6     0.42      1012.0     5        77         7        88        8.73     268      477.8
   09/18/2016 13:10     103.6     102.4        7     26.9      0.00      0.00      78.6     0.42      1012.0     5        89         9        76        8.73     268      478.8
   09/18/2016 13:00     103.3     102.4        7     27.7      0.00      0.00      78.5     0.42      1012.0     4        49         6        63        8.73     268      483.9
   09/18/2016 12:50     103.2     102.3        7     28.6      0.00      0.00      78.6     0.42      1012.0     5        77         8       136        8.73     268      483.2
   09/18/2016 12:40     103.2     101.7        9     31.5      0.00      0.00      78.4     0.42      1013.0     3        89         6       103        8.73     269      483.5
   09/18/2016 12:30     102.5     101.3       11     36.4      0.00      0.00      78.3     0.42      1013.0     3       342         4       345        8.73     270      479.8
   09/18/2016 12:20     100.9      99.4       12     38.3      0.00      0.00      78.4     0.42      1013.0     2        37         4        25        8.73     270      481.0
   09/18/2016 12:10      99.7      98.7       13     40.5      0.00      0.00      78.4     0.42      1013.0     3        53         4        72        8.73     269      479.8
   09/18/2016 12:00      98.7      97.5       14     41.1      0.00      0.00      78.5     0.42      1013.0     2       355         3       354        8.73     270      477.0
   09/18/2016 11:50      97.6      96.2       14     40.2      0.00      0.00      78.6     0.42      1013.0     2        19         4         9        8.73     270      474.6
   09/18/2016 11:40      96.2      94.2       18     44.5      0.00      0.00      78.5     0.42      1013.0     3       350         4       352        8.73     270      472.1
   09/18/2016 11:30      94.8      93.2       18     43.8      0.00      0.00      78.6     0.42      1013.0     2        17         3        22        8.73     270      465.8
   09/18/2016 11:20      93.3      92.0       18     42.5      0.00      0.00      78.6     0.42      1013.0     2         4         4        35        8.74     270      459.6
   09/18/2016 11:10      92.1      91.8       18     43.0      0.00      0.00      78.6     0.42      1013.0     3        10         4         8        8.74     270      449.4
   09/18/2016 11:00      91.9      91.3       21     46.1      0.00      0.00      78.5     0.42      1014.0     2         8         4        21        8.74     271      440.9
   09/18/2016 10:50      91.1      89.6       23     47.7      0.00      0.00      78.6     0.42      1014.0     2        19         3        72        8.74     272      430.9
   09/18/2016 10:40      89.8      87.8       26     49.1      0.00      0.00      78.6     0.42      1014.0     2        23         3        31        8.74     272      419.7
   09/18/2016 10:30      87.8      86.1       28     50.2      0.00      0.00      78.7     0.42      1014.0     3        16         4        32        8.74     272      406.4
   09/18/2016 10:20      86.2      84.7       30     51.1      0.00      0.00      78.7     0.42      1014.0     2         6         3        15        8.74     272      393.2
   09/18/2016 10:10      84.5      82.6       34     52.1      0.00      0.00      78.7     0.42      1014.0     2         0         3       344        8.74     272      379.9
   09/18/2016 10:00      82.6      81.8       36     52.4      0.00      0.00      78.8     0.42      1014.0     2        16         3       358        8.74     273      365.5
   09/18/2016 09:50      81.9      80.8       36     51.7      0.00      0.00      78.9     0.42      1014.0     2        10         2        15        8.74     273      350.6
   09/18/2016 09:40      80.7      79.9       38     52.0      0.00      0.00      79.0     0.42      1014.0     1       352         2       327        8.74     274      335.2
   09/18/2016 09:30      80.2      79.3       38     51.8      0.00      0.00      79.0     0.42      1014.0     2        25         2        39        8.74     278      318.4
   09/18/2016 09:20      79.0      76.4       40     51.4      0.00      0.00      78.8     0.42      1014.0     2        16         2        76        8.74     281      301.3
   09/18/2016 09:10      76.4      75.0       42     50.7      0.00      0.00      78.8     0.42      1014.0     2       358         2        10        8.74     285      282.0
   09/18/2016 09:00      75.0      73.7       45     51.5      0.00      0.00      79.0     0.43      1014.0     2       356         2       346        8.75     289      263.1
   09/18/2016 08:50      73.6      72.9       48     52.5      0.00      0.00      78.7     0.43      1014.0     1       343         2         4        8.75     293      242.5
   09/18/2016 08:40      72.9      72.0       49     52.5      0.00      0.00      79.0     0.43      1014.0     1       339         1         3        8.75     298      221.3
   09/18/2016 08:30      72.0      71.2       50     52.1      0.00      0.00      79.1     0.43      1013.0     1       341         1       341        8.75     303      195.4
   09/18/2016 08:20      71.3      70.7       51     52.2      0.00      0.00      78.9     0.43      1014.0     1        16         2         4        8.75     306      163.7
   09/18/2016 08:10      71.2      69.4       55     53.7      0.00      0.00      79.1     0.43      1013.0     0         5         1        10        8.75     307      150.6
   09/18/2016 08:00      69.2      66.0       65     55.4      0.00      0.00      79.2     0.43      1013.0     1        45         1        62        8.75     307      134.8
   09/18/2016 07:50      65.8      63.6       72     55.3      0.00      0.00      79.3     0.43      1013.0     1       350         1       337        8.75     308      108.7
   09/18/2016 07:40      63.6      61.1       77     55.5      0.00      0.00      79.3     0.43      1013.0     0        84         1        87        8.75     309       81.0
   09/18/2016 07:30      61.0      59.4       84     55.3      0.00      0.00      78.8     0.43      1013.0     1       171         1       126        8.75     308       46.0
   09/18/2016 07:20      59.3      57.4       88     54.8      0.00      0.00      79.5     0.43      1013.0     0       189         1       216        8.75     306       13.4
   09/18/2016 07:10      57.5      57.0       90     54.2      0.00      0.00      79.1     0.43      1013.0     1       166         2       229        8.75     305       -5.4
   09/18/2016 07:00      57.0      56.5       91     54.1      0.00      0.00      79.5     0.43      1013.0     1       157         2       132        8.75     303      -17.3
   09/18/2016 06:50      57.0      56.5       90     53.9      0.00      0.00      79.2     0.43      1013.0     1       134         2       139        8.75     301      -21.7
   09/18/2016 06:40      57.3      57.0       91     54.4      0.00      0.00      79.6     0.43      1013.0     1       202         2       145        8.75     300      -25.6
   09/18/2016 06:30      57.3      57.0       91     54.4      0.00      0.00      79.5     0.43      1013.0     0       218         1       108        8.75     299      -27.6
   09/18/2016 06:20      57.4      57.0       91     54.6      0.00      0.00      79.5     0.43      1013.0     1       134         1       118        8.75     297      -28.4
   09/18/2016 06:10      57.7      57.0       90     54.4      0.00      0.00      79.6     0.43      1012.0     1       156         2       142        8.75     296      -28.8
   09/18/2016 06:00      57.8      57.4       90     54.7      0.00      0.00      79.8     0.43      1012.0     1       160         1       183        8.75     295      -29.4
   09/18/2016 05:50      57.9      57.5       89     54.7      0.00      0.00      79.6     0.43      1012.0     1       146         2       152        8.75     294      -29.7
   09/18/2016 05:40      57.9      57.6       90     54.8      0.00      0.00      79.7     0.43      1012.0     1       150         1       142        8.75     293      -30.7
   09/18/2016 05:30      58.0      57.7       89     54.8      0.00      0.00      79.8     0.43      1012.0     1       164         1       141        8.75     291      -31.0
   09/18/2016 05:20      58.0      57.7       88     54.4      0.00      0.00      79.7     0.43      1012.0     0       222         1       210        8.75     290      -32.8
   09/18/2016 05:10      58.2      58.0       88     54.7      0.00      0.00      79.7     0.43      1012.0     1       172         1       144        8.75     288      -33.3
   09/18/2016 05:00      58.4      58.1       87     54.6      0.00      0.00      80.0     0.43      1012.0     1       132         1       150        8.75     287      -35.0
   09/18/2016 04:50      58.6      58.5       87     54.6      0.00      0.00      79.7     0.43      1012.0     1       182         1       144        8.75     286      -35.7
   09/18/2016 04:40      58.8      58.6       87     54.9      0.00      0.00      79.9     0.43      1012.0     1       171         1       131        8.76     285      -36.6
   09/18/2016 04:30      59.1      58.9       86     54.9      0.00      0.00      79.7     0.43      1012.0     1       134         1       133        8.76     283      -38.6
   09/18/2016 04:20      59.5      59.0       86     55.0      0.00      0.00      80.1     0.43      1012.0     0       356         1       294        8.76     281      -40.8
   09/18/2016 04:10      59.4      59.3       87     55.5      0.00      0.00      80.0     0.43      1012.0     1       193         1       138        8.76     280      -41.6
   09/18/2016 04:00      59.5      59.3       86     55.1      0.00      0.00      79.8     0.43      1012.0     1       150         1       157        8.76     279      -47.5
   09/18/2016 03:50      59.5      59.3       84     54.6      0.00      0.00      79.7     0.43      1012.0     1       131         2       136        8.76     277      -52.4
   09/18/2016 03:40      60.2      59.4       82     54.3      0.00      0.00      80.1     0.43      1012.0     2       135         2       127        8.76     276      -55.1
   09/18/2016 03:30      60.0      59.9       83     54.9      0.00      0.00      80.0     0.43      1012.0     1       214         1       200        8.76     275      -54.5
   09/18/2016 03:20      60.5      60.1       82     54.8      0.00      0.00      80.0     0.43      1012.0     1       141         2       142        8.76     274      -57.2
   09/18/2016 03:10      60.9      60.5       82     55.1      0.00      0.00      80.0     0.43      1012.0     1       159         1       180        8.76     275      -57.1
   09/18/2016 03:00      61.0      60.8       81     55.0      0.00      0.00      80.1     0.43      1013.0     1       174         2       141        8.76     274      -58.7
   09/18/2016 02:50      61.3      60.8       80     54.8      0.00      0.00      80.0     0.43      1013.0     1       145         2       128        8.76     274      -60.2
   09/18/2016 02:40      61.6      61.1       78     54.6      0.00      0.00      80.3     0.43      1013.0     1       149         2       126        8.76     273      -60.1
   09/18/2016 02:30      61.9      61.6       79     55.2      0.00      0.00      80.0     0.43      1013.0     1       169         1       135        8.76     272      -59.9
   09/18/2016 02:20      62.0      61.8       79     55.4      0.00      0.00      80.2     0.43      1013.0     1       155         2       131        8.76     271      -60.0
   09/18/2016 02:10      62.0      61.6       79     55.3      0.00      0.00      80.4     0.43      1013.0     1       150         2       129        8.76     270      -60.2
   09/18/2016 02:00      62.4      61.9       80     55.7      0.00      0.00      80.4     0.43      1013.0     1       154         2       140        8.76     270      -60.5
   09/18/2016 01:50      62.5      62.2       80     56.2      0.00      0.00      80.1     0.43      1013.0     1       163         2       141        8.76     269      -60.7
   09/18/2016 01:40      62.6      62.4       79     55.9      0.00      0.00      80.2     0.43      1013.0     1       176         2       161        8.76     269      -61.4
   09/18/2016 01:30      63.3      62.8       78     56.1      0.00      0.00      80.6     0.43      1013.0     1       153         2       130        8.76     269      -62.3
   09/18/2016 01:20      63.4      62.8       77     55.8      0.00      0.00      80.6     0.43      1013.0     2       159         2       146        8.76     269      -62.9
   09/18/2016 01:10      63.8      63.3       76     55.8      0.00      0.00      80.4     0.43      1013.0     2       153         2       145        8.76     269      -62.9
   09/18/2016 01:00      64.0      63.9       76     56.4      0.00      0.00      80.0     0.43      1013.0     1       157         1       158        8.76     268      -62.4
   09/18/2016 00:50      64.4      64.0       75     56.2      0.00      0.00      80.3     0.43      1013.0     1       162         1       164        8.77     268      -63.6
   09/18/2016 00:40      64.6      64.3       74     56.0      0.00      0.00      80.5     0.43      1013.0     1       155         2       153        8.76     269      -63.7
   09/18/2016 00:30      65.3      64.6       73     56.0      0.00      0.00      80.4     0.43      1013.0     1       155         2       132        8.76     268      -64.4
   09/18/2016 00:20      65.5      65.2       72     56.0      0.00      0.00      80.6     0.43      1013.0     1       151         1       145        8.77     268      -64.2
   09/18/2016 00:10      66.3      65.5       67     54.7      0.00      0.00      80.6     0.43      1013.0     1       206         2       180        8.77     268      -64.3
   09/18/2016 00:00      67.5      66.6       67     55.7      0.00      0.00      80.3     0.43      1013.0     1       134         2        10        8.77     268      -65.0
   09/17/2016 23:50      67.9      67.7       67     56.4      0.00      0.00      80.5     0.43      1013.0     1       351         1       340        8.77     269      -66.3
   09/17/2016 23:40      68.2      68.0       66     56.5      0.00      0.00      80.5     0.43      1013.0     1        36         2        53        8.77     269      -67.3
   09/17/2016 23:30      68.3      67.9       65     56.0      0.00      0.00      80.5     0.43      1013.0     2        58         4        97        8.77     269      -67.9
   09/17/2016 23:20      68.3      68.2       60     53.8      0.00      0.00      80.5     0.43      1013.0     1        58         3        88        8.77     269      -67.6
   09/17/2016 23:10      68.3      68.0       48     47.9      0.00      0.00      80.2     0.43      1013.0     0        40         1         1        8.77     268      -66.8
   09/17/2016 23:00      68.4      68.2       44     45.4      0.00      0.00      80.3     0.43      1013.0     0        83         1        73        8.77     268      -66.8
   09/17/2016 22:50      69.1      68.6       42     44.7      0.00      0.00      80.5     0.43      1012.0     1       115         2       127        8.77     269      -67.7
   09/17/2016 22:40      69.6      69.2       41     44.6      0.00      0.00      80.7     0.43      1012.0     2       130         2       127        8.77     269      -67.7
   09/17/2016 22:30      70.3      69.7       40     44.8      0.00      0.00      80.6     0.43      1012.0     1       137         2       130        8.78     269      -67.9
   09/17/2016 22:20      70.8      70.4       39     44.5      0.00      0.00      80.5     0.43      1012.0     2       151         3       149        8.78     269      -68.0
   09/17/2016 22:10      71.5      70.5       39     44.8      0.00      0.00      80.5     0.43      1012.0     2       143         3       130        8.78     269      -69.1
   09/17/2016 22:00      71.3      71.1       38     44.5      0.00      0.00      80.4     0.43      1012.0     1       162         2       110        8.78     269      -69.4
   09/17/2016 21:50      72.3      71.3       39     45.3      0.00      0.00      80.4     0.43      1012.0     2       125         2       128        8.78     269      -70.0
   09/17/2016 21:40      73.2      72.4       35     44.0      0.00      0.00      80.7     0.43      1012.0     1       202         2       127        8.78     269      -69.0
   09/17/2016 21:30      73.8      72.8       36     44.5      0.00      0.00      80.5     0.43      1012.0     1       145         1       106        8.79     269      -70.0
   09/17/2016 21:20      75.0      73.8       35     44.6      0.00      0.00      80.3     0.43      1012.0     1       144         2       143        8.79     269      -71.1
   09/17/2016 21:10      75.5      75.0       35     45.5      0.00      0.00      80.3     0.43      1012.0     1       236         2       257        8.79     269      -72.3
   09/17/2016 21:00      76.8      75.4       34     45.9      0.00      0.00      80.5     0.43      1012.0     2        40         3        41        8.79     269      -75.9
   09/17/2016 20:50      79.5      77.2       32     45.8      0.00      0.00      80.2     0.43      1012.0     1        47         3        20        8.79     269      -76.6
   09/17/2016 20:40      79.9      79.5       29     44.4      0.00      0.00      80.4     0.43      1012.0     3       191         5       207        8.80     268      -77.7
   09/17/2016 20:30      79.9      79.8       29     44.8      0.00      0.00      80.2     0.43      1012.0     3       197         5       224        8.80     268      -77.8
   09/17/2016 20:20      80.3      79.8       30     45.6      0.00      0.00      80.1     0.43      1012.0     4       199         6       201        8.80     268      -78.5
   09/17/2016 20:10      80.8      80.3       30     46.1      0.00      0.00      80.2     0.43      1012.0     3       204         5       206        8.80     268      -80.9
   09/17/2016 20:00      81.0      80.8       30     47.0      0.00      0.00      80.0     0.43      1012.0     3       201         6       202        8.80     268      -82.2
   09/17/2016 19:50      81.3      80.8       32     48.1      0.00      0.00      79.9     0.43      1011.0     3       200         4       217        8.81     268      -83.0
   09/17/2016 19:40      81.8      81.3       32     48.9      0.00      0.00      80.0     0.43      1011.0     4       209         6       208        8.81     268      -83.7
   09/17/2016 19:30      82.5      81.9       32     49.4      0.00      0.00      80.3     0.43      1011.0     5       209         7       219        8.81     268      -84.8
   09/17/2016 19:20      83.2      82.6       32     49.7      0.00      0.00      80.0     0.43      1011.0     3       216         5       201        8.82     268      -85.9
   09/17/2016 19:10      84.1      83.4       31     49.6      0.00      0.00      80.0     0.43      1011.0     3       227         5       224        8.82     268      -85.9
   09/17/2016 19:00      85.2      84.1       30     49.2      0.00      0.00      79.7     0.43      1011.0     2       206         3       208        8.82     268      -83.8
   09/17/2016 18:50      86.0      85.3       28     48.9      0.00      0.00      80.0     0.43      1011.0     4       237         7       244        8.82     268      -79.9
   09/17/2016 18:40      86.9      86.0       27     48.5      0.00      0.00      79.8     0.43      1011.0     4       232         7       235        8.83     268      -76.1
   09/17/2016 18:30      87.7      87.1       25     47.8      0.00      0.00      79.7     0.43      1011.0     5       231         7       246        8.83     268      -61.1
   09/17/2016 18:20      88.3      87.9       25     47.6      0.00      0.00      79.5     0.43      1011.0     4       239         6       254        8.84     267      -43.7
   09/17/2016 18:10      88.7      87.9       25     47.6      0.00      0.00      79.7     0.43      1011.0     5       245         8       250        8.84     268      -23.2
   09/17/2016 18:00      88.8      88.0       25     48.4      0.00      0.00      79.4     0.43      1011.0     5       226         9       213        8.84     267       -0.5
   09/17/2016 17:50      89.3      88.7       27     50.4      0.00      0.00      79.5     0.43      1011.0     6       224         8       230        8.85     267       23.4
   09/17/2016 17:40      91.4      89.3       27     51.8      0.00      0.00      79.3     0.43      1011.0     6       225         8       204        8.85     268       46.2
   09/17/2016 17:30      91.6      91.2       27     52.5      0.00      0.00      79.3     0.43      1011.0     5       238         8       234        8.86     268       70.0
   09/17/2016 17:20      91.8      91.1       27     52.5      0.00      0.00      79.3     0.43      1011.0     6       243         9       228        8.87     268       94.6
   09/17/2016 17:10      93.4      92.0       25     51.6      0.00      0.00      79.1     0.43      1011.0     5       230         6       213        8.87     268      117.9
   09/17/2016 17:00      93.5      93.0       22     48.9      0.00      0.00      79.1     0.43      1011.0     4       247         8       255        8.88     268      142.6
   09/17/2016 16:50      93.7      93.1       22     48.7      0.00      0.00      79.2     0.43      1011.0     5       247         8       267        8.88     268      164.9
   09/17/2016 16:40      94.1      93.7       22     49.3      0.00      0.00      78.8     0.43      1011.0     6       248         8       216        8.89     268      185.8
   09/17/2016 16:30      94.7      94.3       23     51.3      0.00      0.00      78.7     0.43      1011.0     5       280         8       264        8.90     268      206.7
   09/17/2016 16:20      95.2      94.7       25     53.2      0.00      0.00      78.8     0.43      1011.0     5       278         7       304        8.90     269      222.7
   09/17/2016 16:10      96.1      95.2       25     54.4      0.00      0.00      78.7     0.43      1011.0     4       315         9       306        8.90     270      234.0
   09/17/2016 16:00      96.6      95.5       25     54.4      0.00      0.00      78.6     0.43      1011.0     4       315         6       312        8.91     270      256.1
   09/17/2016 15:50      96.5      96.0       24     54.1      0.00      0.00      78.5     0.43      1011.0     4       314         6       297        8.91     270      269.9
   09/17/2016 15:40      96.9      96.3       25     55.0      0.00      0.00      78.5     0.43      1011.0     3         6         5       337        8.91     270      291.2
   09/17/2016 15:30      96.8      95.6       24     54.1      0.00      0.00      78.3     0.43      1011.0     2        55         4       119        8.91     270      316.4
   09/17/2016 15:20      96.1      95.7       24     53.3      0.00      0.00      78.3     0.43      1011.0     3        51         4        26        8.91     270      333.2
   09/17/2016 15:10      96.4      96.1       24     53.1      0.00      0.00      78.3     0.43      1011.0     3        64         5        74        8.92     270      349.7
   09/17/2016 15:00      96.9      96.6       22     51.5      0.00      0.00      78.3     0.42      1011.0     3        33         5        78        8.92     270      366.6
   09/17/2016 14:50      96.6      95.1       22     50.8      0.00      0.00      78.3     0.42      1011.0     3         7         5         0        8.92     270      384.7
   09/17/2016 14:40      95.5      94.1       22     49.6      0.00      0.00      78.0     0.42      1012.0     3       277         4       260        8.92     270      399.4
   09/17/2016 14:30      96.0      95.2       21     49.6      0.00      0.00      78.1     0.42      1012.0     3        31         4       356        8.92     270      412.0
   09/17/2016 14:20      95.1      93.5       22     49.1      0.00      0.00      77.9     0.42      1012.0     2        52         2        44        8.92     271      423.4
   09/17/2016 14:10      94.7      93.6       22     49.1      0.00      0.00      78.1     0.42      1012.0     3        89         5        74        8.92     271      437.6
   09/17/2016 14:00      94.8      93.1       22     49.3      0.00      0.00      77.9     0.42      1012.0     3        19         4        79        8.93     271      447.4
   09/17/2016 13:50      93.7      92.9       22     49.2      0.00      0.00      77.7     0.42      1012.0     2       302         3       285        8.93     271      453.4
   09/17/2016 13:40      93.3      92.0       23     49.5      0.00      0.00      78.0     0.42      1012.0     2        24         3       348        8.93     271      463.4
   09/17/2016 13:30      92.8      91.8       24     49.8      0.00      0.00      77.7     0.42      1013.0     1         3         4        94        8.93     271      474.6
   09/17/2016 13:20      91.7      90.2       25     50.3      0.00      0.00      77.8     0.42      1013.0     2        31         3       335        8.93     271      481.1
   09/17/2016 13:10      90.2      89.7       26     50.9      0.00      0.00      77.9     0.42      1013.0     3        44         4         7        8.93     271      484.9
   09/17/2016 13:00      89.6      88.2       28     51.6      0.00      0.00      77.9     0.42      1013.0     2       318         4         3        8.93     271      490.5
   09/17/2016 12:50      88.5      87.6       30     52.5      0.00      0.00      77.8     0.42      1013.0     2       335         4       352        8.93     272      493.2
   09/17/2016 12:40      87.7      87.3       31     53.2      0.00      0.00      77.8     0.42      1014.0     3        58         4        70        8.93     272      496.6
   09/17/2016 12:30      87.4      85.9       32     53.2      0.00      0.00      78.0     0.42      1014.0     2       360         5        34        8.93     272      497.0
   09/17/2016 12:20      85.9      85.3       34     53.9      0.00      0.00      77.9     0.42      1014.0     2        44         4       357        8.93     272      494.2
   09/17/2016 12:10      85.3      84.2       35     54.0      0.00      0.00      77.7     0.42      1014.0     3        59         5        76        8.93     272      494.5
   09/17/2016 12:00      84.4      83.6       36     54.0      0.00      0.00      77.9     0.42      1014.0     3         7         4        15        8.93     272      490.0
   09/17/2016 11:50      84.4      82.4       35     53.2      0.00      0.00      77.7     0.42      1014.0     3        27         4         2        8.93     276      486.5
   09/17/2016 11:40      82.5      81.9       36     52.6      0.00      0.00      77.7     0.42      1014.0     3        21         4        10        8.93     284      481.5
   09/17/2016 11:30      82.4      80.8       36     52.3      0.00      0.00      77.5     0.42      1014.0     3        19         4       350        8.93     287      475.7
   09/17/2016 11:20      81.0      79.5       38     52.2      0.00      0.00      77.7     0.42      1014.0     3        14         4        14        8.93     289      467.9
   09/17/2016 11:10      79.8      78.3       39     52.3      0.00      0.00      78.0     0.42      1014.0     2        58         4       107        8.93     291      459.6
   09/17/2016 11:00      78.5      77.4       41     52.2      0.00      0.00      77.8     0.42      1015.0     3        11         5        27        8.93     293      450.1
   09/17/2016 10:50      78.1      76.8       41     51.9      0.00      0.00      78.3     0.42      1015.0     1       300         3       269        8.93     299      437.2
   09/17/2016 10:40      76.9      75.8       42     51.7      0.00      0.00      78.0     0.42      1015.0     2       358         3       355        8.93     303      424.0
   09/17/2016 10:30      76.5      75.5       43     51.8      0.00      0.00      78.2     0.42      1015.0     2        24         4        34        8.93     311      411.5
   09/17/2016 10:20      75.7      74.4       44     51.4      0.00      0.00      78.1     0.42      1015.0     2        83         3       115        8.93     318      396.8
   09/17/2016 10:10      74.4      74.0       46     52.2      0.00      0.00      78.4     0.42      1015.0     2        44         4        76        8.93     324      380.7
   09/17/2016 10:00      74.3      73.1       46     52.1      0.00      0.00      78.5     0.43      1015.0     2        76         3        60        8.93     330      363.9
   09/17/2016 09:50      73.2      71.6       50     52.6      0.00      0.00      78.1     0.43      1015.0     2        13         3        99        8.93     337      348.1
   09/17/2016 09:40      72.2      71.3       52     53.3      0.00      0.00      78.6     0.43      1015.0     2       305         3       359        8.93     344      329.6
   09/17/2016 09:30      71.4      70.5       53     53.3      0.00      0.00      78.0     0.43      1015.0     2         4         3       337        8.93     349      311.4
   09/17/2016 09:20      70.2      68.6       57     53.6      0.00      0.00      78.2     0.43      1015.0     1       356         2       326        8.93     354      293.6
   09/17/2016 09:10      69.0      68.2       59     53.6      0.00      0.00      78.3     0.43      1015.0     2       297         2       334        8.93     359      272.7
   09/17/2016 09:00      68.4      67.2       59     53.4      0.00      0.00      78.7     0.43      1015.0     1       321         2       291        8.93     365      251.8
   09/17/2016 08:50      66.8      66.4       62     53.1      0.00      0.00      78.3     0.43      1015.0     1       296         2       324        8.93     370      231.2
   09/17/2016 08:40      67.0      65.5       61     52.6      0.00      0.00      78.5     0.43      1015.0     1       351         2       268        8.93     376      209.0
   09/17/2016 08:30      65.5      64.7       64     52.4      0.00      0.00      78.5     0.43      1015.0     1       348         2         2        8.93     386      183.9
   09/17/2016 08:20      64.7      63.4       66     52.3      0.00      0.00      78.6     0.43      1015.0     1       317         3       322        8.93     389      152.9
   09/17/2016 08:10      63.6      62.6       67     52.1      0.00      0.00      78.4     0.43      1015.0     2       328         3       331        8.93     390      118.9
   09/17/2016 08:00      62.7      62.5       68     52.0      0.00      0.00      78.3     0.43      1014.0     1       336         2       325        8.93     390       93.0
   09/17/2016 07:50      62.5      61.3       70     52.1      0.00      0.00      79.1     0.43      1014.0     1       327         1       347        8.94     390       97.4
   09/17/2016 07:40      61.0      58.5       77     52.3      0.00      0.00      78.7     0.43      1014.0     0        34         1        59        8.94     390       83.1
   09/17/2016 07:30      58.4      56.7       82     52.0      0.00      0.00      78.8     0.43      1014.0     1        82         2       128        8.94     389       47.1
   09/17/2016 07:20      56.7      55.6       84     51.5      0.00      0.00      78.6     0.43      1014.0     1       168         1       128        8.94     388       11.3
   09/17/2016 07:10      55.6      55.0       87     51.7      0.00      0.00      78.5     0.43      1014.0     0       143         1       262        8.94     387       -6.4
   09/17/2016 07:00      55.2      54.2       88     51.3      0.00      0.00      78.4     0.43      1014.0     1       128         1       140        8.94     385      -21.9
   09/17/2016 06:50      54.6      54.2       88     50.8      0.00      0.00      78.8     0.43      1014.0     2       135         3       131        8.94     384      -28.1
   09/17/2016 06:40      54.5      54.2       88     50.8      0.00      0.00      78.6     0.43      1014.0     2       136         2       131        8.94     383      -31.9
   09/17/2016 06:30      54.7      54.4       88     51.0      0.00      0.00      78.6     0.43      1014.0     2       135         3       143        8.94     382      -34.5
   09/17/2016 06:20      54.7      54.3       88     51.0      0.00      0.00      78.9     0.43      1014.0     1       133         2       120        8.94     380      -35.3
   09/17/2016 06:10      54.8      54.5       87     51.0      0.00      0.00      78.8     0.43      1014.0     1       148         2       134        8.94     378      -36.3
   09/17/2016 06:00      55.1      55.0       88     51.5      0.00      0.00      79.1     0.43      1013.0     1       164         2       142        8.94     376      -36.3
   09/17/2016 05:50      55.4      54.8       87     51.2      0.00      0.00      78.7     0.43      1013.0     2       165         2       138        8.94     374      -37.3
   09/17/2016 05:40      55.5      55.1       87     51.5      0.00      0.00      79.0     0.43      1013.0     1       159         1       138        8.94     371      -38.5
   09/17/2016 05:30      55.5      55.0       85     51.0      0.00      0.00      78.9     0.43      1013.0     2       146         2       140        8.94     370      -40.3
   09/17/2016 05:20      55.9      55.5       85     51.2      0.00      0.00      79.1     0.43      1013.0     1       111         2       139        8.94     367      -40.3
   09/17/2016 05:10      56.0      55.6       87     51.9      0.00      0.00      79.4     0.43      1013.0     1       248         2       270        8.94     365      -38.9
   09/17/2016 05:00      55.8      55.5       86     51.6      0.00      0.00      79.4     0.43      1013.0     1       150         1       151        8.94     363      -40.9
   09/17/2016 04:50      56.3      55.9       85     51.7      0.00      0.00      79.3     0.43      1013.0     1        92         1        85        8.94     360      -41.9
   09/17/2016 04:40      56.6      56.1       85     51.8      0.00      0.00      78.9     0.43      1013.0     1        32         1        92        8.94     358      -42.9
   09/17/2016 04:30      56.9      56.5       85     52.3      0.00      0.00      78.8     0.43      1013.0     1        79         1       125        8.94     353      -44.9
   09/17/2016 04:20      56.9      56.5       85     52.2      0.00      0.00      79.2     0.43      1013.0     2       166         2       129        8.94     350      -46.6
   09/17/2016 04:10      56.9      56.7       84     52.0      0.00      0.00      79.2     0.43      1013.0     1       146         1       174        8.94     348      -46.3
   09/17/2016 04:00      57.0      56.7       84     52.2      0.00      0.00      79.5     0.43      1013.0     0       231         1       265        8.94     346      -47.5
   09/17/2016 03:50      57.4      56.8       83     51.9      0.00      0.00      79.0     0.43      1013.0     1       141         2       133        8.94     346      -49.1
   09/17/2016 03:40      57.6      57.4       83     52.4      0.00      0.00      79.4     0.43      1013.0     1       164         1       122        8.94     343      -47.7
   09/17/2016 03:30      58.0      57.7       84     52.9      0.00      0.00      79.4     0.43      1013.0     1       176         1       166        8.94     340      -47.3
   09/17/2016 03:20      58.2      57.9       84     53.2      0.00      0.00      79.7     0.43      1013.0     1       161         1       154        8.94     337      -48.4
   09/17/2016 03:10      58.1      57.9       83     53.0      0.00      0.00      79.8     0.43      1013.0     0       186         1       174        8.94     333      -51.3
   09/17/2016 03:00      58.4      58.0       83     53.0      0.00      0.00      79.4     0.43      1013.0     0       204         0       247        8.95     330      -52.7
   09/17/2016 02:50      58.5      58.2       82     53.0      0.00      0.00      79.5     0.43      1013.0     1       147         2       140        8.95     326      -54.3
   09/17/2016 02:40      58.5      58.3       82     52.9      0.00      0.00      79.4     0.43      1013.0     1       140         1       125        8.95     323      -56.3
   09/17/2016 02:30      59.0      58.5       81     52.7      0.00      0.00      79.7     0.43      1013.0     2       138         2       139        8.95     320      -56.7
   09/17/2016 02:20      59.1      58.9       82     53.4      0.00      0.00      79.9     0.43      1013.0     1       147         1       132        8.95     318      -55.1
   09/17/2016 02:10      59.4      59.0       81     53.5      0.00      0.00      80.0     0.43      1013.0     1       138         1       124        8.95     314      -56.0
   09/17/2016 02:00      59.6      59.4       81     53.8      0.00      0.00      79.9     0.43      1013.0     1       165         1       142        8.95     312      -56.8
   09/17/2016 01:50      59.7      59.3       81     53.7      0.00      0.00      80.0     0.43      1013.0     1       161         1       169        8.95     309      -57.5
   09/17/2016 01:40      59.4      59.1       81     53.4      0.00      0.00      79.8     0.43      1013.0     1       138         2       137        8.95     307      -58.6
   09/17/2016 01:30      59.6      59.3       80     53.4      0.00      0.00      79.7     0.43      1013.0     1       137         1       129        8.95     304      -58.6
   09/17/2016 01:20      59.8      59.4       80     53.4      0.00      0.00      79.8     0.43      1013.0     1       161         2       150        8.95     301      -59.3
   09/17/2016 01:10      60.0      59.7       79     53.4      0.00      0.00      79.9     0.43      1014.0     1       164         3       156        8.95     299      -59.6
   09/17/2016 01:00      60.3      60.1       79     53.5      0.00      0.00      80.1     0.43      1014.0     1       147         2       142        8.95     297      -60.1
   09/17/2016 00:50      60.6      60.2       77     53.2      0.00      0.00      80.0     0.43      1014.0     1       172         2       151        8.95     294      -60.8
   09/17/2016 00:40      61.0      60.8       76     53.3      0.00      0.00      79.8     0.43      1014.0     2       136         2       139        8.95     292      -61.5
   09/17/2016 00:30      61.4      60.8       76     53.3      0.00      0.00      80.2     0.43      1014.0     1       159         2       149        8.95     293      -61.4
   09/17/2016 00:20      61.5      61.2       75     53.4      0.00      0.00      79.8     0.44      1014.0     1       182         2       188        8.95     292      -60.6
   09/17/2016 00:10      61.7      61.4       74     53.3      0.00      0.00      79.8     0.44      1014.0     2       154         2       130        8.96     289      -61.6
   09/17/2016 00:00      62.4      61.8       74     53.6      0.00      0.00      80.2     0.44      1014.0     1       140         2       141        8.96     288      -61.6
   09/16/2016 23:50      62.3      62.1       74     54.0      0.00      0.00      79.6     0.44      1014.0     0       187         1       186        8.96     286      -62.0
   09/16/2016 23:40      62.6      62.2       74     53.9      0.00      0.00      80.3     0.44      1014.0     1       151         2       136        8.96     284      -62.7
   09/16/2016 23:30      62.8      62.3       73     53.8      0.00      0.00      79.8     0.44      1014.0     1       176         2       143        8.96     283      -62.5
   09/16/2016 23:20      63.4      62.8       71     53.6      0.00      0.00      80.1     0.44      1014.0     1       144         2       141        8.96     282      -63.8
   09/16/2016 23:10      63.4      63.3       70     53.5      0.00      0.00      80.2     0.44      1014.0     2       143         2       161        8.96     280      -64.3
   09/16/2016 23:00      64.3      63.4       70     53.6      0.00      0.00      79.8     0.44      1014.0     2       144         2       138        8.96     279      -64.1
   09/16/2016 22:50      64.6      64.2       69     54.0      0.00      0.00      80.1     0.44      1014.0     1       154         1       136        8.96     278      -64.2
   09/16/2016 22:40      65.0      64.7       68     54.1      0.00      0.00      80.3     0.44      1014.0     1       182         1       208        8.97     276      -64.1
   09/16/2016 22:30      65.5      65.1       67     53.9      0.00      0.00      79.9     0.44      1013.0     1       135         1       142        8.97     275      -64.9
   09/16/2016 22:20      65.6      65.2       65     53.3      0.00      0.00      80.1     0.44      1013.0     1       124         1       117        8.97     274      -65.5
   09/16/2016 22:10      66.2      65.7       63     53.0      0.00      0.00      80.1     0.44      1013.0     1       123         2       127        8.97     273      -66.7
   09/16/2016 22:00      66.8      66.3       61     52.6      0.00      0.00      80.0     0.44      1013.0     0       125         1       134        8.97     272      -66.2
   09/16/2016 21:50      67.2      66.6       57     51.4      0.00      0.00      80.1     0.44      1013.0     1       164         1       175        8.97     271      -66.6
   09/16/2016 21:40      68.3      67.4       55     51.1      0.00      0.00      80.1     0.44      1013.0     0        65         1        66        8.97     271      -67.5
   09/16/2016 21:30      68.6      68.4       54     51.0      0.00      0.00      80.1     0.44      1013.0     1       347         2        73        8.98     270      -68.1
   09/16/2016 21:20      68.7      68.1       54     51.1      0.00      0.00      80.2     0.44      1013.0     1        32         2        44        8.98     269      -68.7
   09/16/2016 21:10      69.8      69.1       52     51.1      0.00      0.00      80.3     0.44      1013.0     1        57         1        58        8.98     269      -70.5
   09/16/2016 21:00      70.4      70.1       51     51.5      0.00      0.00      80.1     0.44      1013.0     1       238         2       229        8.98     269      -71.6
   09/16/2016 20:50      71.0      70.4       51     51.5      0.00      0.00      79.9     0.44      1013.0     1       207         2       229        8.98     270      -72.3
   09/16/2016 20:40      71.2      70.7       50     51.5      0.00      0.00      80.1     0.44      1013.0     1       233         3       232        8.99     270      -73.1
   09/16/2016 20:30      71.5      71.2       49     51.4      0.00      0.00      80.1     0.44      1013.0     2       199         3       190        8.99     271      -73.1
   09/16/2016 20:20      72.1      71.5       48     50.8      0.00      0.00      80.1     0.44      1013.0     2       214         3       203        8.99     271      -73.9
   09/16/2016 20:10      72.6      72.2       46     50.6      0.00      0.00      79.8     0.44      1012.0     2       230         3       241        8.99     271      -75.1
   09/16/2016 20:00      72.8      72.5       46     50.7      0.00      0.00      79.8     0.44      1012.0     3       226         4       225        9.00     271      -76.8
   09/16/2016 19:50      73.4      72.8       45     50.6      0.00      0.00      80.0     0.44      1012.0     3       223         6       227        9.00     271      -77.4
   09/16/2016 19:40      74.0      73.4       44     50.5      0.00      0.00      79.8     0.44      1012.0     4       230         5       250        9.00     270      -78.5
   09/16/2016 19:30      75.3      74.2       43     50.5      0.00      0.00      79.7     0.44      1012.0     3       215         4       213        9.01     270      -79.5
   09/16/2016 19:20      75.8      75.2       41     50.5      0.00      0.00      79.7     0.44      1012.0     5       234         8       236        9.01     270      -80.0
   09/16/2016 19:10      76.9      76.1       41     51.0      0.00      0.00      79.8     0.44      1011.0     3       231         5       230        9.01     270      -80.7
   09/16/2016 19:00      77.8      77.1       40     51.1      0.00      0.00      79.5     0.44      1011.0     4       246         6       261        9.02     270      -78.7
   09/16/2016 18:50      79.0      77.8       38     50.7      0.00      0.00      79.7     0.44      1011.0     4       236         5       236        9.02     270      -75.8
   09/16/2016 18:40      80.3      79.2       37     50.8      0.00      0.00      79.7     0.44      1011.0     4       258         8       256        9.02     270      -72.3
   09/16/2016 18:30      81.3      80.4       35     50.6      0.00      0.00      79.5     0.44      1011.0     4       255         6       220        9.03     270      -58.2
   09/16/2016 18:20      82.5      81.0       34     50.3      0.00      0.00      79.5     0.43      1011.0     4       255         7       258        9.03     269      -38.1
   09/16/2016 18:10      83.5      82.4       33     50.4      0.00      0.00      79.5     0.43      1011.0     4       264         8       259        9.03     269      -17.4
   09/16/2016 18:00      83.6      83.2       32     50.3      0.00      0.00      79.4     0.43      1011.0     3       268         5       301        9.04     269        4.2
   09/16/2016 17:50      83.8      83.1       32     50.3      0.00      0.00      79.0     0.43      1011.0     5       272         7       287        9.04     269       27.4
   09/16/2016 17:40      84.1      83.6       31     50.4      0.00      0.00      79.2     0.43      1011.0     4       274         5       320        9.04     270       51.6
   09/16/2016 17:30      84.1      83.7       31     50.3      0.00      0.00      79.1     0.43      1011.0     4       263         7       259        9.04     269       75.9
   09/16/2016 17:20      85.2      84.1       31     50.5      0.00      0.00      79.0     0.43      1011.0     5       301         7       315        9.04     270       97.5
   09/16/2016 17:10      85.2      84.4       31     51.2      0.00      0.00      78.9     0.43      1011.0     5       265         8       288        9.04     270      125.4
   09/16/2016 17:00      85.6      84.7       32     52.0      0.00      0.00      79.0     0.43      1011.0     5       250         7       228        9.05     269      151.2
   09/16/2016 16:50      86.0      84.9       32     52.5      0.00      0.00      78.8     0.43      1011.0     5       263         7       230        9.04     270      177.7
   09/16/2016 16:40      86.5      85.3       32     52.9      0.00      0.00      79.0     0.43      1011.0     5       238         8       255        9.04     269      197.9
   09/16/2016 16:30      86.2      85.4       32     53.0      0.00      0.00      78.7     0.43      1011.0     4       241         6       251        9.04     269      220.7
   09/16/2016 16:20      86.3      86.1       32     53.2      0.00      0.00      78.7     0.43      1011.0     4       246         7       255        9.04     269      236.4
   09/16/2016 16:10      86.3      85.7       33     53.3      0.00      0.00      78.4     0.43      1011.0     5       222         6       209        9.05     270      250.4
   09/16/2016 16:00      86.3      86.0       32     52.7      0.00      0.00      78.5     0.43      1011.0     5       169         8       224        9.05     270      272.8
   09/16/2016 15:50      86.6      85.7       32     52.6      0.00      0.00      78.6     0.43      1011.0     5       171         7       173        9.05     270      300.4
   09/16/2016 15:40      86.9      85.7       32     52.5      0.00      0.00      78.5     0.43      1011.0     5       171         6       164        9.05     270      326.0
   09/16/2016 15:30      87.1      86.3       31     52.4      0.00      0.00      78.3     0.43      1011.0     5       203         7       189        9.05     270      340.8
   09/16/2016 15:20      89.2      86.3       29     51.4      0.00      0.00      78.3     0.43      1011.0     5       152         8       146        9.05     270      360.3
   09/16/2016 15:10      89.5      88.9       21     43.7      0.00      0.00      78.3     0.43      1011.0     3        89         5       129        9.05     270      373.8
   09/16/2016 15:00      89.2      88.4       22     44.9      0.00      0.00      78.2     0.43      1011.0     3        39         5        72        9.05     271      388.6
   09/16/2016 14:50      88.5      87.7       24     46.7      0.00      0.00      77.9     0.43      1011.0     3        57         6        83        9.05     271      407.6
   09/16/2016 14:40      88.8      87.7       24     47.0      0.00      0.00      78.1     0.43      1011.0     4        72         5        80        9.05     271      420.5
   09/16/2016 14:30      88.7      87.9       25     47.7      0.00      0.00      77.9     0.43      1011.0     3        60         6       114        9.05     272      432.9
   09/16/2016 14:20      89.1      88.7       24     47.9      0.00      0.00      78.0     0.43      1011.0     3        54         5        39        9.05     272      444.6
   09/16/2016 14:10      89.1      88.0       24     47.2      0.00      0.00      77.8     0.43      1011.0     2        32         4       101        9.05     272      454.4
   09/16/2016 14:00      88.2      87.1       23     45.5      0.00      0.00      77.9     0.43      1012.0     3        22         5       342        9.05     272      466.3
   09/16/2016 13:50      88.5      86.8       25     47.2      0.00      0.00      77.9     0.43      1012.0     3        53         6        76        9.05     272      477.6
   09/16/2016 13:40      88.7      87.3       26     48.5      0.00      0.00      77.8     0.43      1012.0     3       355         5       327        9.05     272      480.7
   09/16/2016 13:30      87.9      86.1       27     48.4      0.00      0.00      77.8     0.43      1012.0     3       355         6        70        9.05     272      488.9
   09/16/2016 13:20      86.5      84.9       28     48.5      0.00      0.00      77.6     0.43      1012.0     4       343         7       344        9.05     272      496.2
   09/16/2016 13:10      85.9      84.9       28     49.1      0.00      0.00      77.9     0.43      1012.0     4        14         6       350        9.05     272      500.4
   09/16/2016 13:00      85.3      84.3       29     49.2      0.00      0.00      78.0     0.43      1012.0     3        13         5        27        9.05     272      506.3
   09/16/2016 12:50      85.0      83.6       30     49.9      0.00      0.00      77.8     0.43      1012.0     4        96         5       135        9.05     272      507.5
   09/16/2016 12:40      84.5      83.9       31     49.9      0.00      0.00      77.5     0.43      1013.0     4       318         6       309        9.05     273      507.3
   09/16/2016 12:30      84.7      84.0       31     49.9      0.00      0.00      77.8     0.43      1013.0     4         9         6       358        9.05     273      504.0
   09/16/2016 12:20      84.6      83.3       31     49.7      0.00      0.00      77.8     0.43      1013.0     2        97         3        70        9.05     275      507.3
   09/16/2016 12:10      83.6      81.8       31     49.5      0.00      0.00      78.0     0.43      1013.0     2        29         4        55        9.05     284      504.6
   09/16/2016 12:00      82.4      80.8       32     49.2      0.00      0.00      77.9     0.43      1013.0     2        19         3       321        9.05     292      502.3
   09/16/2016 11:50      80.7      79.4       34     49.1      0.00      0.00      77.7     0.43      1013.0     2       286         4       309        9.05     295      497.0
   09/16/2016 11:40      79.8      78.7       35     49.3      0.00      0.00      77.8     0.43      1013.0     3       324         4       312        9.05     296      494.0
   09/16/2016 11:30      79.5      77.8       36     49.2      0.00      0.00      77.8     0.43      1013.0     2       316         5       240        9.05     299      487.8
   09/16/2016 11:20      78.9      78.0       35     48.9      0.00      0.00      77.9     0.43      1013.0     3       339         4         6        9.05     308      479.3
   09/16/2016 11:10      78.4      76.8       37     48.7      0.00      0.00      77.8     0.43      1013.0     2       345         3       348        9.05     312      471.6
   09/16/2016 11:00      77.2      75.7       37     48.4      0.00      0.00      77.7     0.43      1014.0     2       279         4       326        9.05     316      463.3
   09/16/2016 10:50      75.6      74.2       39     48.4      0.00      0.00      77.8     0.43      1014.0     1       267         3       350        9.05     323      452.8
   09/16/2016 10:40      74.6      73.7       40     48.6      0.00      0.00      78.0     0.43      1014.0     2       355         4        10        9.05     324      439.8
   09/16/2016 10:30      73.7      72.5       42     48.6      0.00      0.00      77.7     0.43      1014.0     2       359         4        17        9.05     326      427.6
   09/16/2016 10:20      73.3      72.0       43     48.9      0.00      0.00      78.4     0.43      1014.0     2        15         4        34        9.04     326      413.7
   09/16/2016 10:10      72.3      71.7       44     49.1      0.00      0.00      78.3     0.44      1014.0     2       311         3       359        9.05     343      397.9
   09/16/2016 10:00      72.5      72.1       45     49.8      0.00      0.00      77.7     0.44      1014.0     2        31         3        23        9.04     358      382.2
   09/16/2016 09:50      72.1      70.1       47     49.7      0.00      0.00      78.7     0.44      1014.0     1        88         3        89        9.04     370      364.5
   09/16/2016 09:40      70.0      69.1       49     49.8      0.00      0.00      78.4     0.44      1014.0     2        44         3       359        9.04     377      347.4
   09/16/2016 09:30      69.7      68.6       50     49.8      0.00      0.00      79.0     0.44      1014.0     2       116         3        90        9.04     372      330.4
   09/16/2016 09:20      69.5      67.3       50     49.3      0.00      0.00      78.0     0.44      1014.0     1        58         2        95        9.04     375      312.4
   09/16/2016 09:10      67.3      66.8       54     49.8      0.00      0.00      78.1     0.44      1014.0     2        12         2       340        9.04     377      289.3
   09/16/2016 09:00      67.0      66.1       54     49.3      0.00      0.00      78.5     0.43      1014.0     2        34         2        44        8.83     432      255.9
   09/16/2016 08:50      66.2      65.3       58     50.7      0.00      0.00      78.5     0.43      1014.0     2       353         3       141        8.76     271      233.9
   09/16/2016 08:40      65.2      64.0       63     51.5      0.00      0.00      78.4     0.43      1014.0     2       350         3       338        8.76     271      211.2
   09/16/2016 08:30      65.0      64.2       61     51.0      0.00      0.00      78.8     0.43      1014.0     2       355         2       343        8.76     271      186.2
   09/16/2016 08:20      65.4      64.8       60     50.7      0.00      0.00      78.7     0.43      1014.0     1         0         2         2        8.76     271      156.4
   09/16/2016 08:10      65.4      64.3       59     50.5      0.00      0.00      78.5     0.43      1014.0     1       118         1        63        8.76     272      122.2
   09/16/2016 08:00      64.1      61.4       65     51.0      0.00      0.00      78.8     0.43      1014.0     0       203         1       282        8.77     272       94.7
   09/16/2016 07:50      61.1      58.2       75     51.7      0.00      0.00      78.5     0.43      1014.0     0       102         1       160        8.76     272       86.9
   09/16/2016 07:40      58.1      56.8       78     50.7      0.00      0.00      78.5     0.43      1014.0     1       144         2       143        8.76     272       67.1
   09/16/2016 07:30      56.6      55.5       81     50.3      0.00      0.00      78.6     0.43      1014.0     1       154         1       143        8.76     272       41.2
   09/16/2016 07:20      55.3      54.1       85     50.2      0.00      0.00      78.8     0.43      1014.0     1       233         1       274        8.76     273       17.6
   09/16/2016 07:10      54.1      53.5       88     50.2      0.00      0.00      78.3     0.43      1014.0     1       184         1       149        8.76     273       -2.3
   09/16/2016 07:00      53.6      53.0       89     50.0      0.00      0.00      78.5     0.43      1014.0     1       148         1       161        8.76     273      -20.6
   09/16/2016 06:50      53.2      52.6       88     49.3      0.00      0.00      78.8     0.43      1014.0     0        91         0        18        8.76     273      -27.6
   09/16/2016 06:40      53.2      53.0       88     49.6      0.00      0.00      78.9     0.44      1014.0     1       134         2       130        8.76     273      -32.8
   09/16/2016 06:30      53.4      53.1       87     49.6      0.00      0.00      79.0     0.43      1014.0     1       152         1       138        8.76     272      -34.4
   09/16/2016 06:20      53.6      53.5       88     50.0      0.00      0.00      78.8     0.44      1014.0     1       143         1       141        8.77     272      -35.0
   09/16/2016 06:10      53.7      53.4       87     49.9      0.00      0.00      79.2     0.44      1014.0     0       163         1       156        8.77     272      -37.0
   09/16/2016 06:00      53.8      53.5       87     49.8      0.00      0.00      78.8     0.44      1014.0     0       178         1       138        8.77     272      -38.6
   09/16/2016 05:50      53.8      53.5       87     49.9      0.00      0.00      78.9     0.44      1014.0     1       144         1       143        8.77     272      -40.3
   09/16/2016 05:40      53.4      53.1       85     49.0      0.00      0.00      78.9     0.44      1014.0     1       139         2       140        8.77     272      -45.2
   09/16/2016 05:30      54.4      53.5       86     49.7      0.00      0.00      78.8     0.44      1014.0     1       133         2       139        8.77     272      -45.0
   09/16/2016 05:20      54.4      53.9       87     50.3      0.00      0.00      79.4     0.44      1014.0     1       177         1       149        8.77     272      -47.4
   09/16/2016 05:10      54.1      53.6       84     49.3      0.00      0.00      79.3     0.44      1014.0     1       145         2       134        8.77     272      -52.0
   09/16/2016 05:00      54.6      54.2       84     49.6      0.00      0.00      79.0     0.44      1014.0     1       133         1       133        8.77     271      -52.8
   09/16/2016 04:50      54.9      54.6       82     49.4      0.00      0.00      79.2     0.44      1014.0     1       148         2       143        8.77     271      -54.3
   09/16/2016 04:40      55.0      54.8       80     48.8      0.00      0.00      79.4     0.44      1014.0     1       156         1       124        8.77     271      -55.6
   09/16/2016 04:30      55.1      54.9       80     48.9      0.00      0.00      79.1     0.44      1014.0     1       165         1       201        8.77     271      -55.6
   09/16/2016 04:20      55.3      55.1       81     49.5      0.00      0.00      79.3     0.44      1014.0     0        12         0        79        8.77     271      -54.9
   09/16/2016 04:10      55.4      55.0       81     49.4      0.00      0.00      79.4     0.44      1014.0     1       167         2       143        8.77     271      -56.1
   09/16/2016 04:00      55.9      55.3       78     49.0      0.00      0.00      79.4     0.44      1014.0     2       139         2       135        8.77     271      -56.7
   09/16/2016 03:50      56.0      55.7       78     49.1      0.00      0.00      79.6     0.44      1014.0     1       191         1       196        8.77     271      -55.8
   09/16/2016 03:40      55.9      55.7       78     49.1      0.00      0.00      79.5     0.44      1014.0     1       143         1       127        8.77     271      -56.2
   09/16/2016 03:30      56.1      55.8       79     49.4      0.00      0.00      79.6     0.44      1014.0     1       126         2       129        8.77     270      -56.6
   09/16/2016 03:20      56.0      55.9       78     49.3      0.00      0.00      79.5     0.44      1014.0     1       144         2       142        8.77     270      -56.9
   09/16/2016 03:10      56.3      56.0       77     49.2      0.00      0.00      79.3     0.44      1014.0     1       164         1       133        8.77     270      -57.1
   09/16/2016 03:00      56.3      56.0       76     48.8      0.00      0.00      79.8     0.44      1014.0     2       144         2       136        8.77     270      -58.0
   09/16/2016 02:50      56.6      56.4       76     48.9      0.00      0.00      79.8     0.44      1014.0     2       135         2       135        8.77     270      -58.3
   09/16/2016 02:40      56.8      56.5       76     49.1      0.00      0.00      79.9     0.44      1014.0     1       153         2       188        8.77     270      -58.5
   09/16/2016 02:30      57.0      56.8       75     49.3      0.00      0.00      80.1     0.44      1014.0     2       139         2       139        8.77     270      -58.5
   09/16/2016 02:20      57.2      56.9       76     49.5      0.00      0.00      79.8     0.44      1014.0     1       170         1       135        8.77     270      -58.2
   09/16/2016 02:10      57.6      57.0       74     48.9      0.00      0.00      79.6     0.44      1014.0     2       137         2       135        8.78     270      -59.1
   09/16/2016 02:00      58.2      57.7       73     49.3      0.00      0.00      79.8     0.44      1014.0     1       138         2       142        8.78     270      -58.5
   09/16/2016 01:50      58.2      57.9       72     49.2      0.00      0.00      80.0     0.44      1014.0     0       170         1       120        8.78     270      -58.5
   09/16/2016 01:40      58.1      57.9       72     48.9      0.00      0.00      79.7     0.44      1014.0     0       189         1       214        8.78     270      -59.4
   09/16/2016 01:30      58.5      58.1       70     48.7      0.00      0.00      79.7     0.44      1014.0     2       139         2       142        8.78     270      -60.1
   09/16/2016 01:20      58.6      58.2       70     48.7      0.00      0.00      80.0     0.44      1014.0     1       198         1       140        8.78     270      -59.6
   09/16/2016 01:10      58.5      58.2       69     48.1      0.00      0.00      79.9     0.44      1014.0     2       137         2       145        8.78     269      -61.0
   09/16/2016 01:00      59.0      58.5       68     48.4      0.00      0.00      80.0     0.44      1014.0     2       138         2       128        8.78     269      -61.1
   09/16/2016 00:50      59.6      59.2       68     48.7      0.00      0.00      79.9     0.44      1014.0     1       162         2       190        8.78     269      -60.8
   09/16/2016 00:40      59.7      59.3       66     48.1      0.00      0.00      79.8     0.44      1014.0     1       172         1       128        8.78     269      -61.0
   09/16/2016 00:30      59.5      59.3       67     48.5      0.00      0.00      80.0     0.44      1014.0     1       148         2       143        8.78     269      -61.8
   09/16/2016 00:20      59.6      59.4       67     48.4      0.00      0.00      80.1     0.44      1014.0     2       140         2       144        8.78     269      -62.1
   09/16/2016 00:10      60.0      59.5       66     48.3      0.00      0.00      80.1     0.44      1014.0     1       140         2       140        8.78     269      -62.0
   09/16/2016 00:00      60.4      60.2       65     48.6      0.00      0.00      80.0     0.44      1014.0     1       132         2       130        8.79     269      -62.8
   09/15/2016 23:50      60.6      60.4       65     48.9      0.00      0.00      80.1     0.44      1014.0     2       142         3       147        8.79     269      -63.3
   09/15/2016 23:40      61.0      60.7       65     48.9      0.00      0.00      79.7     0.44      1014.0     2       144         2       139        8.79     269      -62.8
   09/15/2016 23:30      61.1      60.9       63     48.5      0.00      0.00      80.0     0.44      1014.0     1       147         2       130        8.79     268      -62.7
   09/15/2016 23:20      61.9      61.3       61     48.1      0.00      0.00      79.9     0.44      1014.0     1       140         2       140        8.79     268      -62.9
   09/15/2016 23:10      62.2      62.0       61     48.5      0.00      0.00      80.1     0.44      1014.0     1       156         1       126        8.79     269      -63.1
   09/15/2016 23:00      62.6      62.2       61     48.6      0.00      0.00      80.0     0.44      1014.0     1       122         1       125        8.79     268      -63.8
   09/15/2016 22:50      62.8      62.5       60     48.6      0.00      0.00      80.1     0.44      1014.0     1       142         2       150        8.79     268      -63.8
   09/15/2016 22:40      63.0      62.8       59     48.1      0.00      0.00      80.0     0.44      1014.0     1       166         2       142        8.80     268      -64.3
   09/15/2016 22:30      63.4      62.8       56     47.3      0.00      0.00      80.2     0.44      1014.0     1       152         2       147        8.80     268      -65.5
   09/15/2016 22:20      63.8      63.4       55     47.3      0.00      0.00      80.2     0.44      1014.0     1       138         2       140        8.80     268      -65.0
   09/15/2016 22:10      64.6      63.9       54     47.2      0.00      0.00      80.2     0.44      1014.0     1        96         1       121        8.80     268      -64.9
   09/15/2016 22:00      64.8      64.3       54     47.5      0.00      0.00      80.3     0.44      1014.0     0        95         1       142        8.80     268      -66.0
   09/15/2016 21:50      65.5      64.8       52     47.0      0.00      0.00      80.1     0.44      1014.0     1        54         1        63        8.80     268      -67.2
   09/15/2016 21:40      65.7      65.5       51     47.0      0.00      0.00      79.9     0.44      1014.0     1       117         1       192        8.80     268      -68.4
   09/15/2016 21:30      66.4      65.7       50     46.8      0.00      0.00      79.9     0.44      1014.0     1       148         1       127        8.80     268      -69.6
   09/15/2016 21:20      68.0      66.9       47     46.5      0.00      0.00      80.1     0.44      1014.0     1        69         1        54        8.81     268      -71.4
   09/15/2016 21:10      68.5      68.1       46     47.0      0.00      0.00      80.0     0.44      1014.0     1       200         2       202        8.81     268      -72.2
   09/15/2016 21:00      68.9      68.6       45     46.7      0.00      0.00      80.1     0.44      1014.0     1       220         2       226        8.81     268      -72.5
   09/15/2016 20:50      69.1      68.8       44     46.3      0.00      0.00      80.0     0.44      1014.0     2       203         4       193        8.81     268      -72.8
   09/15/2016 20:40      69.6      69.2       43     45.8      0.00      0.00      79.9     0.44      1014.0     1       198         2       218        8.81     267      -73.1
   09/15/2016 20:30      70.3      69.7       41     45.5      0.00      0.00      80.1     0.44      1014.0     1       206         2       215        8.81     267      -74.4
   09/15/2016 20:20      70.9      70.6       40     45.5      0.00      0.00      80.0     0.44      1014.0     3       224         3       239        8.82     267      -75.5
   09/15/2016 20:10      71.5      71.2       39     45.4      0.00      0.00      80.0     0.44      1014.0     3       230         5       235        8.82     267      -76.7
   09/15/2016 20:00      71.8      71.5       39     45.4      0.00      0.00      79.9     0.44      1013.0     3       234         4       252        8.82     267      -77.9
   09/15/2016 19:50      72.3      71.9       37     44.5      0.00      0.00      79.9     0.44      1013.0     2       217         5       206        8.82     267      -78.9
   09/15/2016 19:40      73.2      72.5       36     44.4      0.00      0.00      79.9     0.44      1013.0     2       225         4       222        8.82     267      -80.0
   09/15/2016 19:30      73.7      73.1       36     44.8      0.00      0.00      79.9     0.44      1013.0     2       261         3       270        8.83     266      -81.8
   09/15/2016 19:20      74.3      73.7       36     45.1      0.00      0.00      79.6     0.44      1013.0     3       284         6       310        8.83     266      -83.5
   09/15/2016 19:10      75.2      74.4       35     45.3      0.00      0.00      79.5     0.44      1013.0     3       298         4       290        8.83     266      -83.8
   09/15/2016 19:00      76.1      75.4       34     45.8      0.00      0.00      79.7     0.44      1013.0     3       289         5       301        8.83     266      -81.9
   09/15/2016 18:50      76.6      76.2       36     47.6      0.00      0.00      79.7     0.44      1013.0     3       269         6       256        8.83     266      -77.7
   09/15/2016 18:40      77.4      76.8       38     49.3      0.00      0.00      79.7     0.44      1013.0     4       252         7       251        8.84     266      -72.8
   09/15/2016 18:30      78.5      77.5       38     50.5      0.00      0.00      79.5     0.44      1013.0     5       259         6       262        8.84     266      -55.6
   09/15/2016 18:20      79.0      78.7       38     51.3      0.00      0.00      79.6     0.44      1013.0     4       252         5       273        8.84     266      -37.2
   09/15/2016 18:10      79.7      79.0       38     51.8      0.00      0.00      79.5     0.44      1013.0     4       250         6       226        8.85     266      -17.7
   09/15/2016 18:00      80.5      79.8       38     52.1      0.00      0.00      79.5     0.44      1012.0     4       284         6       273        8.85     266        3.9
   09/15/2016 17:50      81.7      80.7       36     51.7      0.00      0.00      79.5     0.44      1012.0     4       285         5       275        8.85     266       26.3
   09/15/2016 17:40      82.3      81.5       27     44.0      0.00      0.00      79.2     0.44      1012.0     3       223         6       251        8.85     266       48.4
   09/15/2016 17:30      82.6      81.9       23     40.3      0.00      0.00      79.2     0.44      1012.0     3       181         4       163        8.86     266       74.0
   09/15/2016 17:20      83.3      82.4       22     39.8      0.00      0.00      79.2     0.44      1012.0     2       235         5       201        8.86     266       98.2
   09/15/2016 17:10      82.5      81.9       22     39.3      0.00      0.00      79.0     0.44      1012.0     2       274         5       232        8.86     266      124.3
   09/15/2016 17:00      82.4      82.0       22     39.3      0.00      0.00      79.2     0.44      1012.0     3       250         4       243        8.87     266      150.8
   09/15/2016 16:50      82.5      81.5       22     39.2      0.00      0.00      79.0     0.44      1013.0     3       198         4       137        8.87     266      175.0
   09/15/2016 16:40      81.9      81.4       21     38.3      0.00      0.00      78.9     0.44      1013.0     3       224         5       189        8.87     266      198.7
   09/15/2016 16:30      81.5      80.9       21     37.4      0.00      0.00      78.9     0.44      1013.0     3       169         5       193        8.88     266      222.9
   09/15/2016 16:20      81.4      80.7       20     36.7      0.00      0.00      78.9     0.44      1013.0     5       190         7       192        8.88     266      242.3
   09/15/2016 16:10      81.3      80.9       20     35.7      0.00      0.00      78.6     0.44      1013.0     5       163         8       166        8.89     267      255.5
   09/15/2016 16:00      81.6      81.2       19     35.4      0.00      0.00      78.8     0.44      1013.0     6       164         7       156        8.89     267      280.7
   09/15/2016 15:50      82.3      81.2       19     35.3      0.00      0.00      78.6     0.44      1013.0     7       167         9       175        8.90     267      306.0
   09/15/2016 15:40      83.1      81.6       19     35.4      0.00      0.00      78.7     0.44      1013.0     6       170         8       187        8.90     267      332.1
   09/15/2016 15:30      82.4      81.5       19     36.1      0.00      0.00      78.5     0.44      1013.0     7       154        10       133        8.91     267      354.4
   09/15/2016 15:20      83.2      81.6       20     37.6      0.00      0.00      78.5     0.44      1013.0     6       149         9       173        8.91     267      372.8
   09/15/2016 15:10      83.0      82.1       21     39.2      0.00      0.00      78.2     0.44      1013.0     4       161         8       190        8.91     267      389.3
   09/15/2016 15:00      82.9      82.0       21     38.5      0.00      0.00      78.4     0.43      1013.0     6       159        10       151        8.92     267      406.7
   09/15/2016 14:50      82.9      82.1       21     38.5      0.00      0.00      78.3     0.43      1013.0     6       166         8       159        8.92     268      420.9
   09/15/2016 14:40      82.5      81.6       22     39.0      0.00      0.00      78.2     0.43      1013.0     7       167         9       190        8.93     268      436.2
   09/15/2016 14:30      82.5      81.4       23     40.3      0.00      0.00      78.2     0.43      1013.0     7       168        10       147        8.93     268      449.4
   09/15/2016 14:20      82.5      82.0       25     42.5      0.00      0.00      78.0     0.43      1013.0     6       158         9       130        8.93     268      457.5
   09/15/2016 14:10      82.6      81.7       26     43.5      0.00      0.00      78.2     0.43      1014.0     6       174         9       184        8.94     269      467.8
   09/15/2016 14:00      82.7      81.8       26     43.9      0.00      0.00      78.0     0.43      1014.0     5       173         8       193        8.94     269      477.7
   09/15/2016 13:50      83.6      81.9       27     45.1      0.00      0.00      78.0     0.43      1014.0     5       152         7       139        8.94     268      482.0
   09/15/2016 13:40      83.6      82.5       27     45.9      0.00      0.00      78.2     0.43      1014.0     3        52         6       103        8.94     269      485.8
   09/15/2016 13:30      84.2      82.4       26     44.7      0.00      0.00      78.0     0.43      1014.0     4       110         6        65        8.94     269      491.6
   09/15/2016 13:20      84.5      82.4       26     44.4      0.00      0.00      77.8     0.43      1014.0     3        72         6       133        8.94     269      497.1
   09/15/2016 13:10      84.6      82.6       25     44.3      0.00      0.00      77.9     0.43      1014.0     3         7         4        18        8.94     268      498.3
   09/15/2016 13:00      82.6      82.0       27     44.7      0.00      0.00      77.8     0.43      1014.0     3        30         5        39        8.95     269      502.0
   09/15/2016 12:50      82.7      81.6       28     46.2      0.00      0.00      77.6     0.43      1014.0     3        13         8       334        8.95     269      503.2
   09/15/2016 12:40      81.9      81.1       30     47.5      0.00      0.00      77.9     0.43      1015.0     4        11         6         3        8.95     270      504.6
   09/15/2016 12:30      80.8      80.3       33     48.4      0.00      0.00      77.8     0.43      1015.0     3         1         4        29        8.95     270      503.0
   09/15/2016 12:20      80.6      79.2       34     48.8      0.00      0.00      77.7     0.43      1015.0     3        33         5       340        8.95     270      503.2
   09/15/2016 12:10      79.3      78.3       35     48.7      0.00      0.00      77.8     0.43      1015.0     3        76         5       135        8.95     269      502.1
   09/15/2016 12:00      78.7      78.0       35     48.3      0.00      0.00      78.0     0.43      1015.0     3       357         5         6        8.95     270      496.5
   09/15/2016 11:50      78.4      77.5       35     47.8      0.00      0.00      77.8     0.43      1015.0     4         9         7        66        8.95     270      493.7
   09/15/2016 11:40      78.2      77.7       34     47.7      0.00      0.00      77.8     0.43      1015.0     4        38         6        80        8.95     270      489.4
   09/15/2016 11:30      77.8      75.8       36     47.9      0.00      0.00      78.0     0.43      1016.0     3        12         6        12        8.95     270      482.5
   09/15/2016 11:20      75.8      75.4       38     48.1      0.00      0.00      78.0     0.43      1016.0     3       356         5         0        8.95     270      475.7
   09/15/2016 11:10      76.0      74.4       38     48.1      0.00      0.00      77.8     0.43      1016.0     3        55         5        73        8.95     271      466.6
   09/15/2016 11:00      74.4      73.4       40     48.1      0.00      0.00      77.8     0.43      1016.0     3         1         5         6        8.95     271      453.8
   09/15/2016 10:50      73.5      72.2       43     48.9      0.00      0.00      78.2     0.43      1016.0     3        19         5       356        8.95     271      443.1
   09/15/2016 10:40      72.8      72.3       43     49.0      0.00      0.00      78.2     0.43      1016.0     3         2         5        12        8.95     271      432.8
   09/15/2016 10:30      72.9      72.2       44     49.4      0.00      0.00      78.2     0.43      1016.0     2        11         4        45        8.95     272      418.8
   09/15/2016 10:20      72.3      71.1       45     49.3      0.00      0.00      78.0     0.43      1016.0     3        29         4         9        8.95     272      401.3
   09/15/2016 10:10      71.1      70.2       48     49.9      0.00      0.00      78.3     0.43      1016.0     3        20         4        55        8.95     272      385.9
   09/15/2016 10:00      70.9      69.1       50     50.6      0.00      0.00      78.1     0.43      1016.0     2        47         3        36        8.95     273      369.1
   09/15/2016 09:50      69.3      68.8       53     51.2      0.00      0.00      78.4     0.44      1016.0     2         3         5         1        8.95     274      353.3
   09/15/2016 09:40      69.0      67.7       55     51.6      0.00      0.00      78.3     0.44      1017.0     2         9         3        10        8.95     276      336.1
   09/15/2016 09:30      67.6      67.1       57     51.6      0.00      0.00      78.3     0.44      1017.0     2        54         3        37        8.95     278      317.6
   09/15/2016 09:20      67.6      65.6       59     51.7      0.00      0.00      78.3     0.44      1017.0     1        68         2        60        8.95     280      298.3
   09/15/2016 09:10      65.2      64.5       62     51.5      0.00      0.00      78.4     0.44      1017.0     2        45         3        20        8.95     282      278.2
   09/15/2016 09:00      64.9      63.5       63     51.3      0.00      0.00      78.4     0.44      1017.0     2       348         3       327        8.95     286      257.6
   09/15/2016 08:50      63.8      63.5       62     50.6      0.00      0.00      78.3     0.44      1017.0     2       354         3        12        8.95     289      236.3
   09/15/2016 08:40      64.0      63.5       60     49.8      0.00      0.00      78.5     0.44      1017.0     1        83         2       354        8.95     292      213.6
   09/15/2016 08:30      63.8      62.7       60     49.5      0.00      0.00      78.6     0.44      1017.0     1        20         2        39        8.95     295      188.8
   09/15/2016 08:20      62.6      60.9       64     49.2      0.00      0.00      78.8     0.44      1017.0     1       244         2        10        8.95     297      159.5
   09/15/2016 08:10      60.9      59.8       66     48.9      0.00      0.00      78.5     0.44      1017.0     1       292         1       336        8.95     299      135.1
   09/15/2016 08:00      61.1      60.0       65     48.6      0.00      0.00      78.8     0.44      1017.0     1       336         2       315        8.95     300       99.4
   09/15/2016 07:50      59.6      57.7       70     48.7      0.00      0.00      79.0     0.44      1017.0     0        37         1       344        8.95     301       90.8
   09/15/2016 07:40      57.6      55.2       75     48.6      0.00      0.00      78.5     0.44      1017.0     0        81         0        92        8.95     301       76.0
   09/15/2016 07:30      55.1      53.6       81     48.5      0.00      0.00      78.4     0.44      1017.0     1       158         1       177        8.95     301       51.4
   09/15/2016 07:20      53.6      52.2       84     48.3      0.00      0.00      78.7     0.44      1017.0     0       258         1       182        8.95     299       21.4
   09/15/2016 07:10      52.2      51.1       87     47.7      0.00      0.00      78.7     0.44      1016.0     1       115         2       133        8.95     298        1.3
   09/15/2016 07:00      51.2      50.8       88     47.5      0.00      0.00      79.0     0.44      1016.0     1       131         1       130        8.95     298      -16.6
   09/15/2016 06:50      51.1      50.7       88     47.4      0.00      0.00      78.9     0.44      1016.0     0       132         1       128        8.95     297      -24.4
   09/15/2016 06:40      50.8      50.6       88     47.4      0.00      0.00      78.8     0.44      1016.0     0       207         1       143        8.95     295      -28.6
   09/15/2016 06:30      50.8      50.5       88     47.3      0.00      0.00      79.3     0.44      1016.0     1       158         1       150        8.95     294      -31.7
   09/15/2016 06:20      50.5      50.1       88     46.8      0.00      0.00      79.0     0.44      1016.0     2       153         3       156        8.95     293      -33.5
   09/15/2016 06:10      50.7      50.5       88     47.2      0.00      0.00      78.8     0.44      1016.0     1       157         2       163        8.95     293      -33.6
   09/15/2016 06:00      50.8      50.6       86     46.8      0.00      0.00      79.2     0.44      1016.0     1       142         2       156        8.96     291      -35.3
   09/15/2016 05:50      51.0      50.6       86     46.8      0.00      0.00      79.4     0.44      1016.0     1       184         1       193        8.96     290      -35.1
   09/15/2016 05:40      51.2      50.8       86     47.0      0.00      0.00      79.0     0.44      1016.0     1       120         1       163        8.96     289      -35.7
   09/15/2016 05:30      51.8      51.2       85     47.2      0.00      0.00      79.3     0.44      1016.0     1       132         1       134        8.96     288      -37.3
   09/15/2016 05:20      51.8      51.5       86     47.5      0.00      0.00      79.4     0.44      1016.0     1       178         1       182        8.96     287      -38.2
   09/15/2016 05:10      51.8      51.5       86     47.5      0.00      0.00      79.4     0.44      1016.0     1       169         1       139        8.96     286      -39.2
   09/15/2016 05:00      51.8      51.6       86     47.6      0.00      0.00      79.6     0.44      1016.0     1       164         1       150        8.96     285      -41.5
   09/15/2016 04:50      51.8      51.3       86     47.5      0.00      0.00      79.6     0.44      1016.0     1       169         1       167        8.96     284      -43.3
   09/15/2016 04:40      51.6      51.3       86     47.3      0.00      0.00      79.4     0.44      1016.0     1       152         1       164        8.96     283      -45.7
   09/15/2016 04:30      51.7      51.4       85     47.1      0.00      0.00      79.6     0.44      1016.0     2       146         2       132        8.96     282      -48.7
   09/15/2016 04:20      51.8      51.5       85     47.2      0.00      0.00      79.7     0.44      1016.0     1       181         1       181        8.96     281      -51.0
   09/15/2016 04:10      51.8      51.7       84     47.2      0.00      0.00      79.4     0.44      1016.0     1       150         2       131        8.96     280      -54.3
   09/15/2016 04:00      52.0      51.7       82     46.6      0.00      0.00      79.6     0.44      1016.0     1       126         1       129        8.96     279      -57.1
   09/15/2016 03:50      52.6      51.8       81     46.4      0.00      0.00      79.4     0.44      1016.0     1       134         2       132        8.96     278      -59.0
   09/15/2016 03:40      52.8      52.6       81     47.0      0.00      0.00      79.4     0.44      1016.0     0       175         1       141        8.96     278      -58.4
   09/15/2016 03:30      53.0      52.6       80     46.9      0.00      0.00      79.9     0.44      1016.0     1       203         2       132        8.96     277      -59.8
   09/15/2016 03:20      53.4      53.1       80     47.2      0.00      0.00      80.0     0.44      1016.0     1       148         2       138        8.96     276      -59.2
   09/15/2016 03:10      53.4      53.0       80     47.2      0.00      0.00      79.8     0.44      1016.0     1       148         2       157        8.96     276      -59.5
   09/15/2016 03:00      53.2      53.0       79     47.0      0.00      0.00      80.1     0.44      1016.0     1       134         2       130        8.96     275      -61.3
   09/15/2016 02:50      54.1      53.5       78     47.2      0.00      0.00      79.7     0.44      1016.0     1       135         2       129        8.96     274      -61.6
   09/15/2016 02:40      54.1      53.9       79     47.7      0.00      0.00      79.7     0.44      1016.0     1       174         1       190        8.96     274      -61.0
   09/15/2016 02:30      54.0      53.9       80     48.1      0.00      0.00      79.7     0.44      1016.0     0       177         1       157        8.96     273      -61.6
   09/15/2016 02:20      54.1      53.7       80     48.0      0.00      0.00      80.0     0.44      1016.0     0       152         1       165        8.96     273      -62.6
   09/15/2016 02:10      54.1      53.7       79     47.5      0.00      0.00      80.0     0.44      1016.0     1       158         2       151        8.96     273      -63.7
   09/15/2016 02:00      54.4      53.8       78     47.2      0.00      0.00      80.0     0.44      1016.0     2       167         3       163        8.96     272      -63.7
   09/15/2016 01:50      55.1      54.6       78     48.1      0.00      0.00      80.1     0.44      1016.0     1       172         2       154        8.96     272      -63.0
   09/15/2016 01:40      55.4      55.2       77     48.3      0.00      0.00      80.5     0.44      1016.0     1       161         1       181        8.96     272      -63.2
   09/15/2016 01:30      55.5      55.3       77     48.4      0.00      0.00      80.4     0.44      1016.0     1       168         2       142        8.97     272      -64.2
   09/15/2016 01:20      56.4      55.5       74     47.7      0.00      0.00      80.1     0.44      1016.0     1       147         2       138        8.97     271      -64.7
   09/15/2016 01:10      56.3      56.0       74     48.1      0.00      0.00      80.0     0.44      1016.0     1       163         1       200        8.97     271      -64.7
   09/15/2016 01:00      56.9      56.4       73     47.8      0.00      0.00      80.1     0.44      1016.0     1       147         2       149        8.97     271      -64.9
   09/15/2016 00:50      57.4      56.9       71     47.8      0.00      0.00      80.1     0.44      1016.0     0       160         1       126        8.97     271      -64.7
   09/15/2016 00:40      58.0      57.4       69     47.7      0.00      0.00      80.3     0.44      1016.0     1         6         1         7        8.97     271      -64.9
   09/15/2016 00:30      58.5      58.0       68     47.6      0.00      0.00      80.2     0.44      1016.0     1        21         1        31        8.97     271      -64.4
   09/15/2016 00:20      59.2      58.6       66     47.7      0.00      0.00      80.2     0.44      1016.0     1        27         1       267        8.97     271      -64.4
   09/15/2016 00:10      59.4      59.1       66     48.0      0.00      0.00      80.2     0.44      1016.0     1       280         2       272        8.97     270      -64.0
   09/15/2016 00:00      59.9      59.5       65     48.0      0.00      0.00      80.1     0.44      1016.0     1       320         1       324        8.97     270      -64.8
   09/14/2016 23:50      59.9      59.7       66     48.3      0.00      0.00      80.3     0.44      1016.0     1        25         2       328        8.97     270      -65.4
   09/14/2016 23:40      60.1      59.9       65     48.4      0.00      0.00      80.3     0.44      1016.0     1        61         1        55        8.97     270      -65.8
   09/14/2016 23:30      60.4      60.1       65     48.5      0.00      0.00      80.3     0.44      1016.0     1       251         3       226        8.97     270      -66.2
   09/14/2016 23:20      60.5      60.3       66     48.8      0.00      0.00      80.6     0.44      1016.0     1       327         2       172        8.97     270      -66.8
   09/14/2016 23:10      60.6      60.4       65     48.8      0.00      0.00      80.4     0.44      1016.0     1       209         2        68        8.98     269      -67.3
   09/14/2016 23:00      60.6      60.4       65     48.9      0.00      0.00      80.5     0.44      1016.0     3       208         6       224        8.98     269      -66.7
   09/14/2016 22:50      60.8      60.4       65     49.0      0.00      0.00      80.2     0.45      1016.0     4       203         6       199        8.98     269      -66.8
   09/14/2016 22:40      61.1      60.9       65     49.1      0.00      0.00      80.3     0.45      1016.0     3       234         5       251        8.98     269      -66.9
   09/14/2016 22:30      61.2      60.9       64     49.0      0.00      0.00      80.2     0.45      1016.0     3       229         4       251        8.98     269      -67.0
   09/14/2016 22:20      61.4      61.2       64     48.9      0.00      0.00      80.3     0.45      1016.0     4       221         8       201        8.98     269      -66.8
   09/14/2016 22:10      61.4      61.2       64     48.9      0.00      0.00      80.6     0.45      1016.0     7       211         9       196        8.98     269      -66.5
   09/14/2016 22:00      61.6      61.4       63     48.8      0.00      0.00      80.4     0.45      1016.0     5       209         7       206        8.98     269      -67.2
   09/14/2016 21:50      61.8      61.5       63     48.9      0.00      0.00      80.3     0.45      1016.0     4       214         6       220        8.99     269      -67.9
   09/14/2016 21:40      61.9      61.7       63     49.0      0.00      0.00      80.6     0.45      1016.0     4       209         6       220        8.99     269      -68.6
   09/14/2016 21:30      62.2      61.8       62     48.9      0.00      0.00      80.5     0.45      1016.0     4       201         6       205        8.99     269      -69.8
   09/14/2016 21:20      62.6      62.2       60     48.6      0.00      0.00      80.4     0.45      1016.0     3       207         6       214        8.99     269      -70.8
   09/14/2016 21:10      63.0      62.6       60     48.6      0.00      0.00      80.4     0.45      1016.0     4       234         7       242        8.99     269      -71.0
   09/14/2016 21:00      63.3      62.9       60     48.9      0.00      0.00      80.2     0.45      1016.0     5       240         7       246        8.99     269      -71.2
   09/14/2016 20:50      63.5      63.2       59     49.0      0.00      0.00      80.3     0.45      1016.0     4       226         6       233        8.99     269      -71.5
   09/14/2016 20:40      64.1      63.6       59     49.2      0.00      0.00      80.4     0.45      1016.0     4       234         8       234        9.00     269      -72.0
   09/14/2016 20:30      64.5      64.1       58     49.4      0.00      0.00      80.6     0.45      1016.0     4       235         7       253        9.00     269      -72.7
   09/14/2016 20:20      65.1      64.6       58     49.5      0.00      0.00      80.3     0.45      1016.0     4       230         6       226        9.00     269      -73.7
   09/14/2016 20:10      65.7      65.2       56     49.5      0.00      0.00      80.4     0.45      1016.0     4       237         6       237        9.00     269      -74.4
   09/14/2016 20:00      66.2      65.8       55     49.5      0.00      0.00      80.2     0.45      1016.0     4       228         8       230        9.01     268      -75.3
   09/14/2016 19:50      66.7      66.4       54     49.3      0.00      0.00      80.2     0.45      1015.0     4       229         5       242        9.01     268      -76.0
   09/14/2016 19:40      67.5      66.9       53     49.4      0.00      0.00      80.1     0.45      1015.0     5       234         7       235        9.01     268      -77.0
   09/14/2016 19:30      68.2      67.8       51     49.3      0.00      0.00      80.4     0.45      1015.0     4       253         8       262        9.01     268      -77.9
   09/14/2016 19:20      68.8      68.2       50     49.3      0.00      0.00      80.1     0.45      1015.0     6       259         9       265        9.02     268      -78.8
   09/14/2016 19:10      69.8      68.7       49     49.3      0.00      0.00      79.9     0.45      1015.0     4       243         5       231        9.02     268      -78.6
   09/14/2016 19:00      70.3      70.0       48     49.5      0.00      0.00      79.9     0.45      1015.0     5       261         7       267        9.02     268      -77.0
   09/14/2016 18:50      70.8      70.3       47     49.6      0.00      0.00      79.9     0.45      1015.0     5       264         8       269        9.02     268      -73.3
   09/14/2016 18:40      71.8      70.8       47     49.8      0.00      0.00      79.9     0.45      1015.0     5       287         8       299        9.03     268      -69.3
   09/14/2016 18:30      72.7      72.1       46     50.2      0.00      0.00      80.1     0.45      1015.0     5       290         9       303        9.03     268      -48.4
   09/14/2016 18:20      73.1      72.8       45     50.3      0.00      0.00      79.8     0.45      1015.0     5       299         7       322        9.03     268      -28.6
   09/14/2016 18:10      73.5      72.9       44     50.3      0.00      0.00      79.7     0.45      1015.0     5       305         8       307        9.03     268       -6.2
   09/14/2016 18:00      74.4      73.5       43     50.3      0.00      0.00      79.8     0.45      1015.0     6       289         8       305        9.03     268       17.1
   09/14/2016 17:50      74.7      74.2       43     50.5      0.00      0.00      79.8     0.45      1015.0     4       305         6       280        9.04     268       40.4
   09/14/2016 17:40      74.6      74.3       43     50.6      0.00      0.00      80.1     0.45      1015.0     6       301         9       282        9.04     268       65.3
   09/14/2016 17:30      75.5      74.6       42     50.5      0.00      0.00      79.7     0.45      1015.0     6       285         9       265        9.04     268       89.9
   09/14/2016 17:20      76.0      75.1       41     50.4      0.00      0.00      79.6     0.45      1015.0     6       272         9       307        9.04     268      114.9
   09/14/2016 17:10      76.8      75.8       40     50.5      0.00      0.00      79.6     0.44      1015.0     5       282         8       270        9.04     268      137.9
   09/14/2016 17:00      76.8      76.0       40     50.2      0.00      0.00      79.6     0.44      1015.0     5       291         8       261        9.04     267      163.6
   09/14/2016 16:50      76.5      76.1       39     49.7      0.00      0.00      79.4     0.44      1015.0     5       270         8       251        9.04     268      188.7
   09/14/2016 16:40      78.0      76.8       38     49.8      0.00      0.00      79.3     0.44      1015.0     7       272        11       262        9.04     267      211.3
   09/14/2016 16:30      77.9      77.0       38     49.6      0.00      0.00      79.2     0.44      1015.0     6       290         9       253        9.04     268      233.4
   09/14/2016 16:20      77.5      76.8       38     49.4      0.00      0.00      79.3     0.44      1015.0     6       253        11       269        9.04     268      251.3
   09/14/2016 16:10      77.6      76.5       38     49.6      0.00      0.00      79.0     0.44      1015.0     5       198         7       205        9.04     268      264.9
   09/14/2016 16:00      78.1      77.8       37     49.8      0.00      0.00      78.9     0.44      1015.0     5       244         7       220        9.04     268      288.2
   09/14/2016 15:50      78.1      77.0       39     50.8      0.00      0.00      79.1     0.44      1015.0     6       218         7       212        9.04     269      315.7
   09/14/2016 15:40      78.4      77.8       40     51.7      0.00      0.00      78.9     0.44      1015.0     5       165         8       229        9.04     269      333.9
   09/14/2016 15:30      78.7      77.8       39     51.4      0.00      0.00      78.8     0.44      1015.0     5       145         8       139        9.04     269      353.9
   09/14/2016 15:20      79.5      78.1       37     50.5      0.00      0.00      78.9     0.44      1015.0     5       137         7       144        9.04     269      368.4
   09/14/2016 15:10      80.5      79.3       35     50.0      0.00      0.00      78.8     0.44      1015.0     4        88         6        88        9.04     269      380.9
   09/14/2016 15:00      80.8      78.9       35     50.0      0.00      0.00      78.6     0.44      1015.0     3        34         4        30        9.04     269      400.5
   09/14/2016 14:50      79.5      78.6       36     49.9      0.00      0.00      78.9     0.44      1015.0     5        73         7        66        9.04     269      418.2
   09/14/2016 14:40      79.8      78.2       36     49.4      0.00      0.00      78.7     0.44      1016.0     4       116         7        76        9.04     270      428.8
   09/14/2016 14:30      79.5      78.3       35     49.0      0.00      0.00      78.5     0.44      1016.0     4       104         7       128        9.04     270      442.3
   09/14/2016 14:20      79.6      78.7       33     47.4      0.00      0.00      78.6     0.44      1016.0     2       250         3       195        9.04     270      451.0
   09/14/2016 14:10      78.8      77.5       34     47.6      0.00      0.00      78.5     0.44      1016.0     2       134         3       139        9.04     270      464.0
   09/14/2016 14:00      78.4      77.5       34     47.7      0.00      0.00      78.5     0.44      1016.0     2       147         4       284        9.04     270      472.7
   09/14/2016 13:50      77.5      76.6       36     48.0      0.00      0.00      78.5     0.44      1016.0     2       209         3       152        9.04     270      483.9
   09/14/2016 13:40      77.7      76.3       37     48.4      0.00      0.00      78.6     0.44      1016.0     3       263         5       330        9.04     270      492.0
   09/14/2016 13:30      77.8      76.5       36     48.3      0.00      0.00      78.4     0.44      1016.0     3       267         5       222        9.04     270      498.0
   09/14/2016 13:20      77.3      75.7       37     48.5      0.00      0.00      78.5     0.44      1017.0     3        55         6        64        9.04     270      503.0
   09/14/2016 13:10      75.7      74.2       40     48.6      0.00      0.00      78.0     0.44      1017.0     2        95         4        61        9.04     270      510.8
   09/14/2016 13:00      75.2      73.8       40     48.6      0.00      0.00      78.4     0.44      1017.0     3       166         6       188        9.04     270      515.2
   09/14/2016 12:50      74.9      73.6       40     48.6      0.00      0.00      78.0     0.44      1017.0     3       264         8       259        9.04     270      516.7
   09/14/2016 12:40      73.5      73.2       41     48.5      0.00      0.00      78.1     0.44      1017.0     4       240         5       253        9.04     270      516.6
   09/14/2016 12:30      74.9      73.4       40     48.5      0.00      0.00      78.1     0.44      1017.0     2       227         4       180        9.04     270      515.2
   09/14/2016 12:20      76.2      74.8       39     49.0      0.00      0.00      78.4     0.44      1017.0     2       337         4       314        9.04     271      510.4
   09/14/2016 12:10      74.5      73.0       41     48.9      0.00      0.00      78.4     0.44      1017.0     3        72         4        71        9.04     271      504.0
   09/14/2016 12:00      73.5      72.6       42     48.9      0.00      0.00      78.3     0.44      1017.0     3        35         6        26        9.04     271      499.9
   09/14/2016 11:50      74.3      72.7       42     49.0      0.00      0.00      78.3     0.44      1017.0     3        12         5       341        9.04     272      496.9
   09/14/2016 11:40      72.3      71.6       43     48.4      0.00      0.00      78.7     0.44      1018.0     1       179         2       236        9.04     272      492.2
   09/14/2016 11:30      72.7      71.4       44     48.7      0.00      0.00      78.4     0.44      1018.0     3        18         5        41        9.04     272      482.7
   09/14/2016 11:20      72.3      71.3       45     49.5      0.00      0.00      78.2     0.44      1018.0     3        14         5       354        9.04     272      474.2
   09/14/2016 11:10      72.0      71.2       45     49.5      0.00      0.00      78.3     0.44      1018.0     2        19         3        19        9.04     273      466.8
   09/14/2016 11:00      72.0      69.8       48     49.9      0.00      0.00      78.6     0.44      1018.0     2         2         3       329        9.04     274      456.2
   09/14/2016 10:50      69.8      67.7       52     50.1      0.00      0.00      78.6     0.44      1018.0     2       339         3       356        9.04     279      447.4
   09/14/2016 10:40      68.1      67.4       53     50.1      0.00      0.00      78.5     0.44      1018.0     2       313         5       337        9.04     288      432.1
   09/14/2016 10:30      68.8      68.0       52     50.3      0.00      0.00      78.8     0.44      1018.0     3       323         5       321        9.04     295      418.2
   09/14/2016 10:20      68.1      67.3       53     50.2      0.00      0.00      78.6     0.44      1018.0     2        45         4       350        8.92     299      403.3
   09/14/2016 10:10      67.7      66.7       54     50.2      0.00      0.00      79.0     0.44      1018.0     2        24         4       339        8.47     302      384.4
   09/14/2016 10:00      67.2      64.9       57     50.4      0.00      0.00      78.3     0.44      1018.0     1       337         3       274        8.47     307      368.0
   09/14/2016 09:50      65.8      64.2       59     50.1      0.00      0.00      78.5     0.44      1018.0     2       352         3         8        8.47     310      348.2
   09/14/2016 09:40      65.9      65.0       58     50.3      0.00      0.00      79.0     0.44      1018.0     2        54         4        79        8.47     315      331.7
   09/14/2016 09:30      65.0      64.1       60     50.2      0.00      0.00      78.9     0.44      1018.0     3        15         5        22        8.47     318      313.5
   09/14/2016 09:20      64.2      62.8       61     49.9      0.00      0.00      79.0     0.45      1018.0     2        10         3         4        8.48     321      294.1
   09/14/2016 09:10      63.8      62.4       62     49.7      0.00      0.00      78.9     0.45      1018.0     1        14         2        18        8.48     324      275.8
   09/14/2016 09:00      62.4      61.0       64     49.4      0.00      0.00      78.7     0.45      1018.0     2       347         3       322        8.48     327      254.4
   09/14/2016 08:50      61.4      60.7       65     49.2      0.00      0.00      79.4     0.45      1018.0     2       267         3       283        8.48     330      232.5
   09/14/2016 08:40      61.5      60.9       65     49.3      0.00      0.00      78.9     0.45      1018.0     1       338         3         8        8.48     334      209.8
   09/14/2016 08:30      61.9      60.9       64     49.3      0.00      0.00      79.0     0.45      1018.0     1       352         3       328        8.48     340      183.1
   09/14/2016 08:20      62.4      61.9       63     49.3      0.00      0.00      78.9     0.45      1018.0     1        56         2        91        8.48     342      155.2
   09/14/2016 08:10      62.0      59.3       68     49.7      0.00      0.00      79.2     0.45      1018.0     1       329         1        80        8.48     343      138.5
   09/14/2016 08:00      59.3      57.8       71     49.1      0.00      0.00      79.4     0.45      1018.0     1       167         1       163        8.48     343      124.8
   09/14/2016 07:50      58.1      56.5       75     49.7      0.00      0.00      79.3     0.45      1018.0     1       139         1       169        8.48     342       96.4
   09/14/2016 07:40      56.1      53.9       81     49.0      0.00      0.00      79.6     0.45      1018.0     0       128         1       132        8.48     341       71.1
   09/14/2016 07:30      53.9      52.8       84     48.6      0.00      0.00      79.5     0.45      1018.0     1       139         1       131        8.48     341       47.6
   09/14/2016 07:20      52.8      51.6       88     48.6      0.00      0.00      79.6     0.45      1018.0     0       178         1       174        8.48     340       22.4
   09/14/2016 07:10      51.5      50.4       90     48.1      0.00      0.00      79.7     0.45      1018.0     1       203         1       209        8.48     339        2.0
   09/14/2016 07:00      50.4      49.8       90     47.3      0.00      0.00      79.5     0.45      1018.0     1       167         2       140        8.48     338      -13.0
   09/14/2016 06:50      50.5      50.0       90     47.3      0.00      0.00      79.7     0.45      1018.0     1       162         2       140        8.48     336      -21.0
   09/14/2016 06:40      50.4      50.1       90     47.4      0.00      0.00      79.6     0.45      1017.0     1       156         1       179        8.48     334      -25.2
   09/14/2016 06:30      50.6      50.3       90     47.5      0.00      0.00      79.5     0.45      1017.0     0        92         1        10        8.48     331      -28.0
   09/14/2016 06:20      50.8      50.4       90     47.6      0.00      0.00      79.6     0.45      1017.0     1       221         1       170        8.48     329      -28.9
   09/14/2016 06:10      50.6      50.2       89     47.4      0.00      0.00      79.7     0.45      1017.0     1       149         2       157        8.48     327      -30.1
   09/14/2016 06:00      50.5      50.2       89     47.1      0.00      0.00      79.8     0.45      1017.0     1       107         1       140        8.48     324      -31.0
   09/14/2016 05:50      50.5      50.2       88     47.0      0.00      0.00      80.0     0.45      1017.0     1       133         2       141        8.48     320      -32.1
   09/14/2016 05:40      50.7      50.4       89     47.5      0.00      0.00      80.0     0.45      1017.0     1       176         2       169        8.48     318      -31.7
   09/14/2016 05:30      51.0      50.7       89     47.5      0.00      0.00      79.7     0.45      1017.0     0       173         1       193        8.48     317      -32.2
   09/14/2016 05:20      50.9      50.6       88     47.3      0.00      0.00      79.7     0.45      1017.0     1       131         1       147        8.48     314      -33.9
   09/14/2016 05:10      51.0      50.8       87     47.3      0.00      0.00      80.0     0.45      1017.0     1       131         2       128        8.48     312      -35.2
   09/14/2016 05:00      51.4      51.0       88     47.6      0.00      0.00      80.3     0.45      1017.0     2       151         3       137        8.48     310      -35.9
   09/14/2016 04:50      51.2      51.0       88     47.7      0.00      0.00      80.1     0.45      1017.0     1       158         1       172        8.48     308      -36.7
   09/14/2016 04:40      51.4      51.1       87     47.7      0.00      0.00      80.1     0.45      1017.0     1       150         1       142        8.48     306      -38.2
   09/14/2016 04:30      51.6      51.3       87     47.7      0.00      0.00      80.2     0.45      1016.0     0       113         1       123        8.48     304      -39.7
   09/14/2016 04:20      51.4      51.2       87     47.6      0.00      0.00      80.4     0.45      1016.0     1       150         1       151        8.48     303      -40.5
   09/14/2016 04:10      51.7      51.2       87     47.6      0.00      0.00      80.2     0.45      1017.0     1       140         2       133        8.48     301      -42.8
   09/14/2016 04:00      51.7      51.4       87     48.0      0.00      0.00      80.4     0.45      1016.0     1       185         1       199        8.48     300      -45.3
   09/14/2016 03:50      51.6      51.0       87     47.4      0.00      0.00      80.2     0.45      1017.0     1       184         2       159        8.48     299      -48.4
   09/14/2016 03:40      51.3      51.1       85     46.9      0.00      0.00      80.6     0.45      1017.0     2       169         3       167        8.48     297      -50.4
   09/14/2016 03:30      51.4      51.3       85     47.0      0.00      0.00      80.8     0.45      1017.0     2       161         3       159        8.48     296      -51.4
   09/14/2016 03:20      52.4      51.5       85     47.5      0.00      0.00      80.5     0.45      1017.0     2       154         3       159        8.49     295      -50.2
   09/14/2016 03:10      52.5      52.1       85     47.9      0.00      0.00      80.4     0.45      1017.0     1       192         1       164        8.49     294      -52.1
   09/14/2016 03:00      52.3      52.0       84     47.5      0.00      0.00      80.4     0.45      1017.0     1       142         2       140        8.49     293      -54.2
   09/14/2016 02:50      52.7      52.3       83     47.5      0.00      0.00      80.8     0.45      1017.0     2       152         2       134        8.49     291      -55.4
   09/14/2016 02:40      53.1      52.8       83     47.9      0.00      0.00      80.7     0.45      1017.0     0       221         0       204        8.49     290      -54.7
   09/14/2016 02:30      53.3      53.0       83     48.2      0.00      0.00      80.6     0.45      1017.0     1       146         1       168        8.49     289      -55.4
   09/14/2016 02:20      53.3      53.1       82     48.0      0.00      0.00      80.9     0.45      1017.0     1       202         1       164        8.49     287      -56.4
   09/14/2016 02:10      53.4      53.1       83     48.2      0.00      0.00      80.7     0.45      1017.0     1       149         1       149        8.49     286      -56.7
   09/14/2016 02:00      53.7      53.1       81     47.6      0.00      0.00      80.5     0.45      1017.0     1        90         1        71        8.49     285      -58.5
   09/14/2016 01:50      53.8      53.6       80     47.7      0.00      0.00      80.7     0.45      1017.0     1        76         1        63        8.49     283      -59.0
   09/14/2016 01:40      54.7      53.7       78     47.2      0.00      0.00      81.0     0.45      1017.0     1       100         1       112        8.49     282      -60.4
   09/14/2016 01:30      54.8      54.4       79     48.3      0.00      0.00      81.0     0.45      1017.0     1       191         1       215        8.49     281      -60.1
   09/14/2016 01:20      54.5      54.2       79     48.0      0.00      0.00      80.7     0.45      1017.0     1       181         2       200        8.49     280      -61.1
   09/14/2016 01:10      54.6      54.3       78     47.9      0.00      0.00      81.2     0.45      1017.0     1        12         1       319        8.49     279      -60.8
   09/14/2016 01:00      55.3      54.7       77     48.0      0.00      0.00      80.7     0.45      1016.0     1        89         1        86        8.49     278      -61.5
   09/14/2016 00:50      55.5      55.3       77     48.5      0.00      0.00      80.9     0.45      1016.0     1        83         1       147        8.49     277      -61.8
   09/14/2016 00:40      55.8      55.4       77     48.5      0.00      0.00      81.3     0.45      1016.0     1       160         2       145        8.49     276      -62.5
   09/14/2016 00:30      55.7      55.3       77     48.5      0.00      0.00      81.2     0.45      1016.0     2       154         2       142        8.49     275      -63.4
   09/14/2016 00:20      55.6      55.4       77     48.4      0.00      0.00      80.8     0.45      1016.0     2       164         2       171        8.49     275      -64.1
   09/14/2016 00:10      55.7      55.4       76     48.2      0.00      0.00      81.3     0.45      1016.0     1       157         2       166        8.49     274      -64.5
   09/14/2016 00:00      56.5      55.8       74     48.2      0.00      0.00      81.1     0.45      1016.0     1       103         1       192        8.49     273      -65.1
   09/13/2016 23:50      57.1      56.6       73     48.1      0.00      0.00      81.4     0.45      1016.0     1       145         2       141        8.50     273      -66.1
   09/13/2016 23:40      57.6      57.3       72     48.6      0.00      0.00      81.5     0.45      1016.0     1       202         2       223        8.50     273      -66.9
   09/13/2016 23:30      57.7      57.5       72     48.5      0.00      0.00      81.4     0.45      1016.0     2       200         3       223        8.50     273      -67.5
   09/13/2016 23:20      57.7      57.5       71     48.4      0.00      0.00      81.1     0.45      1016.0     4       205         5       201        8.50     273      -67.3
   09/13/2016 23:10      57.8      57.4       71     48.3      0.00      0.00      81.3     0.45      1016.0     2       205         4       200        8.50     272      -67.4
   09/13/2016 23:00      58.0      57.5       71     48.3      0.00      0.00      81.5     0.45      1016.0     2       201         4       214        8.50     272      -67.7
   09/13/2016 22:50      58.2      58.0       70     48.4      0.00      0.00      81.3     0.45      1016.0     1       215         2       214        8.50     272      -68.5
   09/13/2016 22:40      58.3      58.0       70     48.5      0.00      0.00      81.6     0.45      1016.0     3       209         3       220        8.50     272      -68.2
   09/13/2016 22:30      58.8      58.3       69     48.5      0.00      0.00      81.5     0.45      1016.0     2       187         3       208        8.50     272      -68.6
   09/13/2016 22:20      59.0      58.8       68     48.4      0.00      0.00      81.5     0.45      1016.0     2       207         3       189        8.50     272      -69.2
   09/13/2016 22:10      59.2      58.9       68     48.4      0.00      0.00      81.7     0.45      1016.0     3       207         4       201        8.50     272      -69.3
   09/13/2016 22:00      59.4      59.1       67     48.5      0.00      0.00      81.6     0.45      1016.0     2       228         3       216        8.50     271      -70.1
   09/13/2016 21:50      59.5      59.4       67     48.6      0.00      0.00      81.5     0.45      1016.0     2       225         4       243        8.50     271      -70.1
   09/13/2016 21:40      59.8      59.5       67     48.6      0.00      0.00      81.3     0.45      1016.0     2       213         3       207        8.50     271      -70.3
   09/13/2016 21:30      60.1      59.9       67     48.9      0.00      0.00      81.6     0.45      1016.0     2       216         2       218        8.50     271      -69.6
   09/13/2016 21:20      60.4      60.1       67     49.2      0.00      0.00      81.6     0.45      1016.0     2       211         3       201        8.50     271      -70.2
   09/13/2016 21:10      60.4      60.3       66     49.1      0.00      0.00      81.5     0.45      1016.0     2       211         4       222        8.50     271      -70.8
   09/13/2016 21:00      60.9      60.5       66     49.1      0.00      0.00      81.6     0.45      1016.0     2       220         4       215        8.51     271      -71.7
   09/13/2016 20:50      60.9      60.6       65     49.2      0.00      0.00      81.2     0.45      1016.0     2       219         3       242        8.51     270      -72.4
   09/13/2016 20:40      61.1      60.9       65     49.3      0.00      0.00      81.6     0.45      1015.0     2       222         4       233        8.51     270      -73.1
   09/13/2016 20:30      61.2      60.9       65     49.3      0.00      0.00      81.8     0.45      1015.0     2       212         3       229        8.51     270      -74.1
   09/13/2016 20:20      61.6      61.2       64     49.3      0.00      0.00      81.7     0.45      1015.0     2       216         4       227        8.51     270      -74.7
   09/13/2016 20:10      62.0      61.6       64     49.3      0.00      0.00      81.6     0.45      1015.0     3       231         4       216        8.51     270      -75.6
   09/13/2016 20:00      62.1      61.8       63     49.2      0.00      0.00      81.7     0.45      1015.0     3       231         4       255        8.51     269      -76.2
   09/13/2016 19:50      62.4      62.1       62     49.3      0.00      0.00      81.8     0.45      1015.0     3       238         4       221        8.52     269      -76.3
   09/13/2016 19:40      62.5      62.3       62     49.1      0.00      0.00      81.7     0.45      1015.0     3       207         4       233        8.52     269      -77.3
   09/13/2016 19:30      62.6      62.4       61     49.0      0.00      0.00      81.8     0.45      1015.0     2       193         3       196        8.52     269      -78.5
   09/13/2016 19:20      62.8      62.6       61     49.3      0.00      0.00      81.6     0.45      1015.0     2       190         4       212        8.52     269      -79.3
   09/13/2016 19:10      62.9      62.6       62     49.4      0.00      0.00      81.8     0.45      1014.0     3       173         5       194        8.53     269      -78.1
   09/13/2016 19:00      63.4      63.0       61     49.5      0.00      0.00      81.6     0.46      1014.0     4       192         5       177        8.53     269      -75.3
   09/13/2016 18:50      63.9      63.4       60     49.5      0.00      0.00      81.5     0.46      1014.0     5       175         7       165        8.53     268      -70.2
   09/13/2016 18:40      65.0      63.9       58     49.4      0.00      0.00      81.5     0.45      1014.0     6       182         7       171        8.54     268      -65.5
   09/13/2016 18:30      65.5      65.2       56     49.2      0.00      0.00      81.2     0.46      1014.0     4       178         6       171        8.54     268      -30.8
   09/13/2016 18:20      65.9      65.6       55     49.1      0.00      0.00      81.4     0.45      1014.0     5       189         8       200        8.54     268      -17.8
   09/13/2016 18:10      67.1      66.1       53     49.0      0.00      0.00      81.4     0.46      1014.0     5       175         6       153        8.55     268        2.3
   09/13/2016 18:00      67.3      66.4       52     48.7      0.00      0.00      81.5     0.45      1014.0     5       172         8       163        8.55     268       27.1
   09/13/2016 17:50      67.4      66.5       52     48.6      0.00      0.00      81.6     0.45      1014.0     5       181         6       222        8.55     268       52.8
   09/13/2016 17:40      67.5      67.2       51     48.4      0.00      0.00      81.3     0.46      1014.0     5       170         9       184        8.56     268       78.9
   09/13/2016 17:30      68.2      67.4       50     48.5      0.00      0.00      81.5     0.45      1014.0     6       174        10       170        8.56     268      105.9
   09/13/2016 17:20      68.3      67.5       50     48.8      0.00      0.00      81.4     0.45      1014.0     7       165        10       175        8.56     268      133.6
   09/13/2016 17:10      68.5      67.8       50     48.8      0.00      0.00      81.2     0.45      1014.0     7       173         9       146        8.57     269      158.0
   09/13/2016 17:00      68.9      68.5       49     48.6      0.00      0.00      81.3     0.45      1014.0     5       151         7       131        8.57     268      184.4
   09/13/2016 16:50      69.1      68.1       48     48.2      0.00      0.00      81.1     0.45      1014.0     6       142        10       128        8.58     269      211.4
   09/13/2016 16:40      68.8      68.2       49     48.6      0.00      0.00      81.4     0.45      1014.0     8       152        12       119        8.59     268      246.7
   09/13/2016 16:30      69.2      68.6       49     48.8      0.00      0.00      80.9     0.45      1014.0     7       145        11       152        8.59     269      268.2
   09/13/2016 16:20      69.4      68.9       48     48.9      0.00      0.00      81.2     0.45      1014.0     6       156         9       125        8.59     269      284.6
   09/13/2016 16:10      69.5      68.9       48     48.8      0.00      0.00      80.9     0.45      1014.0     7       187        10       198        8.60     269      298.9
   09/13/2016 16:00      69.1      68.5       48     48.6      0.00      0.00      81.0     0.45      1014.0     6       139         9       128        8.60     270      323.0
   09/13/2016 15:50      69.8      68.7       48     48.6      0.00      0.00      81.2     0.45      1014.0     7       160        11       151        8.60     269      243.1
   09/13/2016 15:40      70.3      68.7       48     49.1      0.00      0.00      81.1     0.45      1014.0     6       151        10       167        8.61     269      355.7
   09/13/2016 15:30      70.3      69.7       48     49.5      0.00      0.00      81.2     0.45      1014.0     6       155        10       145        8.61     269      410.1
   09/13/2016 15:20      70.1      69.6       48     49.5      0.00      0.00      80.7     0.45      1014.0     6       144        10       134        8.61     269      416.0
   09/13/2016 15:10      70.3      69.2       49     49.6      0.00      0.00      80.6     0.45      1014.0     7       157        10       129        8.61     269      420.2
   09/13/2016 15:00      70.3      68.7       51     50.4      0.00      0.00      80.8     0.45      1014.0     8       179        11       165        8.62     269      439.2
   09/13/2016 14:50      70.1      68.8       51     50.7      0.00      0.00      80.5     0.45      1014.0     7       171        12       179        8.62     269      455.6
   09/13/2016 14:40      70.4      68.7       51     50.5      0.00      0.00      80.8     0.45      1014.0     8       172        13       145        8.62     269      471.1
   09/13/2016 14:30      69.3      68.6       52     50.5      0.00      0.00      80.4     0.45      1014.0    10       148        14       167        8.62     269      488.9
   09/13/2016 14:20      70.6      68.9       51     50.7      0.00      0.00      80.7     0.45      1014.0     9       167        11       162        8.63     269      498.1
   09/13/2016 14:10      70.6      69.8       50     50.6      0.00      0.00      80.6     0.45      1014.0     7       149        13       166        8.63     270      515.6
   09/13/2016 14:00      71.1      69.4       50     50.5      0.00      0.00      80.6     0.45      1015.0     8       150        11       178        8.63     269      522.7
   09/13/2016 13:50      70.8      69.4       51     50.7      0.00      0.00      80.5     0.45      1015.0     7       167        11       186        8.63     269      536.7
   09/13/2016 13:40      70.3      69.0       52     51.0      0.00      0.00      80.6     0.45      1015.0     9       166        12       171        8.63     269      541.4
   09/13/2016 13:30      69.7      68.8       51     50.6      0.00      0.00      80.3     0.45      1015.0     9       153        12       140        8.64     269      547.7
   09/13/2016 13:20      69.8      68.3       52     50.9      0.00      0.00      80.6     0.45      1015.0     8       174        12       152        8.64     269      555.8
   09/13/2016 13:10      71.0      69.7       50     51.0      0.00      0.00      80.2     0.45      1015.0     6       169        12       217        8.64     269      575.2
   09/13/2016 13:00      70.0      68.9       52     51.0      0.00      0.00      80.1     0.45      1015.0     7       165        10       186        8.64     269      587.6
   09/13/2016 12:50      69.7      68.5       53     51.4      0.00      0.00      80.1     0.45      1015.0     7       166        10       140        8.64     269      603.8
   09/13/2016 12:40      69.9      68.6       53     51.5      0.00      0.00      80.6     0.45      1015.0     8       154        14       123        8.64     270      658.0
   09/13/2016 12:30      68.7      67.6       56     51.6      0.00      0.00      80.5     0.45      1015.0     9       174        12       164        8.65     270      660.2
   09/13/2016 12:20      68.1      67.3       57     51.8      0.00      0.00      80.3     0.45      1015.0     7       172        10       143        8.65     271      596.8
   09/13/2016 12:10      68.5      67.4       56     52.0      0.00      0.00      80.3     0.45      1015.0     7       191        11       177        8.65     270      519.7
   09/13/2016 12:00      67.6      66.6       59     52.1      0.00      0.00      80.7     0.45      1015.0     7       180        10       194        8.65     271      528.5
   09/13/2016 11:50      67.9      67.2       57     52.0      0.00      0.00      80.4     0.45      1015.0     7       184        12       209        8.65     271      426.1
   09/13/2016 11:40      68.8      67.3       56     51.8      0.00      0.00      80.5     0.45      1015.0     7       174        11       225        8.66     272      513.4
   09/13/2016 11:30      68.9      67.6       56     52.2      0.00      0.00      80.6     0.45      1015.0     7       141         9       173        8.66     272      625.7
   09/13/2016 11:20      68.9      67.0       57     52.2      0.00      0.00      80.4     0.45      1015.0     6       145        10       127        8.66     272      603.9
   09/13/2016 11:10      68.1      66.9       59     52.8      0.00      0.00      80.5     0.45      1015.0     7       181         8       180        8.66     272      559.4
   09/13/2016 11:00      68.5      67.3       58     52.9      0.00      0.00      80.3     0.45      1015.0     7       191        11       221        8.66     273      566.2
   09/13/2016 10:50      68.1      66.7       59     53.0      0.00      0.00      80.7     0.45      1015.0     6       153        10        94        8.66     274      676.4
   09/13/2016 10:40      66.2      65.6       64     53.2      0.00      0.00      80.7     0.45      1015.0     6       190        10       220        8.66     277      546.0
   09/13/2016 10:30      65.5      64.5       67     53.6      0.00      0.00      80.7     0.45      1015.0     6       167         9       127        8.66     279      389.6
   09/13/2016 10:20      64.9      63.5       69     53.6      0.00      0.00      80.8     0.46      1015.0     6       162         9       161        8.66     278      375.1
   09/13/2016 10:10      63.8      62.5       71     53.8      0.00      0.00      80.7     0.46      1015.0     5       153         8       127        8.66     276      183.7
   09/13/2016 10:00      63.5      62.7       72     53.9      0.00      0.00      80.4     0.46      1015.0     5       160         8       147        8.66     277      156.4
   09/13/2016 09:50      63.2      62.2       75     54.8      0.00      0.00      80.9     0.46      1015.0     6       149        10       150        8.66     278      268.6
   09/13/2016 09:40      62.1      61.5       80     55.4      0.00      0.00      80.3     0.46      1015.0     5       137         8       119        8.66     279      215.2
   09/13/2016 09:30      62.8      61.8       76     54.8      0.00      0.00      80.8     0.46      1014.0     5       135         8       141        8.66     282       73.6
   09/13/2016 09:20      63.3      62.8       70     53.1      0.00      0.00      80.6     0.46      1014.0     6       134         8       142        8.66     280       40.9
   09/13/2016 09:10      63.3      63.0       69     52.9      0.00      0.00      80.4     0.46      1014.0     4       157         5       120        8.66     281       71.3
   09/13/2016 09:00      63.2      62.9       69     52.9      0.00      0.00      80.6     0.46      1014.0     4       129         6       127        8.66     282       61.5
   09/13/2016 08:50      63.7      63.2       68     52.8      0.00      0.00      80.9     0.46      1014.0     6       150        10       151        8.66     282       75.5
   09/13/2016 08:40      63.3      62.6       69     52.7      0.00      0.00      80.7     0.46      1014.0     6       157         9       148        8.66     283       83.3
   09/13/2016 08:30      62.9      62.3       72     53.4      0.00      0.00      81.1     0.46      1014.0     4       154         8       139        8.66     284       91.6
   09/13/2016 08:20      62.5      61.8       73     53.3      0.00      0.00      80.8     0.46      1014.0     4       150         6       140        8.66     284       69.7
   09/13/2016 08:10      62.1      61.8       73     53.1      0.00      0.00      81.1     0.46      1014.0     4       179         6       191        8.66     284       45.4
   09/13/2016 08:00      62.2      61.8       72     52.9      0.00      0.00      81.0     0.46      1014.0     5       157         8       161        8.66     284       45.7
   09/13/2016 07:50      62.4      61.5       73     53.2      0.00      0.00      81.0     0.46      1014.0     5       151         7       167        8.66     282       81.8
   09/13/2016 07:40      61.5      60.8       75     53.0      0.00      0.00      81.2     0.46      1014.0     2       158         3       143        8.66     282       35.8
   09/13/2016 07:30      61.0      60.8       75     52.9      0.00      0.00      81.2     0.46      1014.0     3       166         4       140        8.66     280      -15.7
   09/13/2016 07:20      61.2      60.9       74     52.7      0.00      0.00      80.8     0.46      1013.0     3       140         4       135        8.66     280       -8.2
   09/13/2016 07:10      61.4      60.9       73     52.5      0.00      0.00      81.1     0.46      1013.0     3       154         5       164        8.66     280      -22.4
   09/13/2016 07:00      61.0      60.8       74     52.6      0.00      0.00      81.1     0.46      1013.0     3       169         5       138        8.67     280      -21.3
   09/13/2016 06:50      61.1      60.7       75     52.8      0.00      0.00      81.3     0.46      1013.0     3       185         4       160        8.67     280      -23.0
   09/13/2016 06:40      60.9      60.6       75     52.8      0.00      0.00      81.2     0.46      1013.0     3       182         4       189        8.67     279      -25.5
   09/13/2016 06:30      60.9      60.8       75     52.8      0.00      0.00      81.4     0.46      1013.0     4       164         6       177        8.67     279      -26.6
   09/13/2016 06:20      60.9      60.7       75     52.8      0.00      0.00      81.2     0.46      1013.0     5       172        10       167        8.67     279      -19.9
   09/13/2016 06:10      60.9      60.7       75     52.7      0.00      0.00      81.5     0.46      1013.0     4       171         6       177        8.67     279      -21.6
   09/13/2016 06:00      61.0      60.8       74     52.6      0.00      0.00      81.2     0.46      1013.0     5       172         7       175        8.67     278      -31.5
   09/13/2016 05:50      61.1      60.8       74     52.6      0.00      0.00      81.7     0.46      1013.0     5       159         8       197        8.67     277      -25.6
   09/13/2016 05:40      61.1      60.9       74     52.6      0.00      0.00      81.5     0.46      1013.0     4       161         6       125        8.67     277      -22.4
   09/13/2016 05:30      61.2      60.9       74     52.7      0.00      0.00      81.4     0.46      1013.0     3       165         5       166        8.67     276      -26.3
   09/13/2016 05:20      61.1      60.9       74     52.8      0.00      0.00      81.6     0.46      1012.0     2       167         3       168        8.67     276      -27.3
   09/13/2016 05:10      61.3      61.0       74     52.9      0.00      0.00      81.7     0.46      1012.0     3       175         6       182        8.67     275      -26.4
   09/13/2016 05:00      61.4      61.1       74     53.0      0.00      0.00      81.7     0.46      1012.0     3       174         5       183        8.67     275      -23.9
   09/13/2016 04:50      61.5      61.2       74     53.0      0.00      0.00      82.0     0.46      1012.0     3       163         4       140        8.67     274      -21.8
   09/13/2016 04:40      61.5      61.2       74     53.1      0.00      0.00      81.6     0.46      1013.0     3       170         3       170        8.67     274      -21.8
   09/13/2016 04:30      61.5      61.3       74     53.1      0.00      0.00      81.6     0.46      1012.0     4       175         7       168        8.67     274      -22.0
   09/13/2016 04:20      61.7      61.4       74     53.3      0.00      0.00      82.1     0.46      1012.0     2       161         3       138        8.67     273      -21.6
   09/13/2016 04:10      61.6      61.5       74     53.4      0.00      0.00      81.9     0.46      1012.0     2       155         4       202        8.68     273      -21.6
   09/13/2016 04:00      61.6      61.4       75     53.4      0.00      0.00      81.7     0.46      1012.0     2       204         5       178        8.68     273      -23.3
   09/13/2016 03:50      61.9      61.6       74     53.4      0.00      0.00      81.5     0.46      1012.0     3       177         5       192        8.68     273      -21.2
   09/13/2016 03:40      61.9      61.6       74     53.5      0.00      0.00      82.0     0.46      1012.0     3       202         5       159        8.68     273      -19.9
   09/13/2016 03:30      61.9      61.6       75     53.6      0.00      0.00      81.5     0.46      1012.0     2       206         4       187        8.68     272      -19.6
   09/13/2016 03:20      61.6      61.5       75     53.7      0.00      0.00      81.8     0.46      1012.0     2       202         3       228        8.68     272      -19.5
   09/13/2016 03:10      61.7      61.5       75     53.8      0.00      0.00      81.9     0.46      1012.0     3       191         5       190        8.68     272      -19.7
   09/13/2016 03:00      61.8      61.6       75     53.7      0.00      0.00      82.1     0.46      1012.0     2       184         3       163        8.68     272      -20.2
   09/13/2016 02:50      61.7      61.4       76     54.0      0.00      0.00      81.7     0.46      1012.0     3       183         5       210        8.68     271      -20.3
   09/13/2016 02:40      61.6      61.4       77     54.2      0.00      0.00      81.9     0.46      1012.0     3       185         6       195        8.68     272      -20.6
   09/13/2016 02:30      61.6      61.4       77     54.1      0.00      0.00      81.8     0.46      1012.0     4       181         6       188        8.68     271      -19.9
   09/13/2016 02:20      61.8      61.7       75     53.9      0.00      0.00      81.7     0.46      1012.0     4       150         7       154        8.68     271      -20.3
   09/13/2016 02:10      62.1      61.8       74     53.7      0.00      0.00      82.1     0.46      1012.0     3       138         5       143        8.68     270      -23.6
   09/13/2016 02:00      62.0      61.8       74     53.5      0.00      0.00      81.9     0.46      1012.0     3       158         5       159        8.68     270      -23.8
   09/13/2016 01:50      62.1      62.0       73     53.4      0.00      0.00      82.0     0.46      1012.0     3       145         5       169        8.68     270      -22.2
   09/13/2016 01:40      62.2      62.1       73     53.4      0.00      0.00      81.9     0.46      1012.0     5       153         7       136        8.68     270      -22.8
   09/13/2016 01:30      62.4      62.1       73     53.4      0.00      0.00      82.1     0.46      1012.0     4       156         6       145        8.69     270      -22.6
   09/13/2016 01:20      62.5      62.2       73     53.5      0.00      0.00      82.2     0.46      1012.0     4       140         6       115        8.69     270      -22.0
   09/13/2016 01:10      62.6      62.3       73     53.6      0.00      0.00      82.1     0.46      1012.0     3       133         4       124        8.69     270      -20.8
   09/13/2016 01:00      62.4      62.2       73     53.6      0.00      0.00      82.3     0.46      1013.0     3       158         5       147        8.69     270      -20.1
   09/13/2016 00:50      62.4      62.3       73     53.5      0.00      0.00      82.3     0.46      1013.0     4       164         7       173        8.69     270      -20.6
   09/13/2016 00:40      62.6      62.3       72     53.4      0.00      0.00      82.0     0.46      1013.0     4       193         7       235        8.69     271      -20.7
   09/13/2016 00:30      62.7      62.3       72     53.1      0.00      0.00      82.1     0.46      1013.0     4       200         5       200        8.69     271      -20.1
   09/13/2016 00:20      62.6      62.4       71     53.0      0.00      0.00      82.4     0.46      1013.0     4       179         5       176        8.69     271      -19.3
   09/13/2016 00:10      62.7      62.4       71     53.0      0.00      0.00      82.6     0.46      1013.0     4       182         6       154        8.69     270      -19.5
   09/13/2016 00:00      62.9      62.6       70     52.9      0.00      0.00      82.1     0.46      1013.0     5       164         7       180        8.69     270      -19.9
   09/12/2016 23:50      62.7      62.6       70     52.8      0.00      0.00      82.5     0.46      1013.0     4       158         5       172        8.70     270      -20.1
   09/12/2016 23:40      62.9      62.6       69     52.6      0.00      0.00      82.4     0.46      1013.0     4       174         6       152        8.70     270      -20.1
   09/12/2016 23:30      63.0      62.7       69     52.5      0.00      0.00      82.4     0.46      1013.0     3       158         4       150        8.70     269      -20.4
   09/12/2016 23:20      62.9      62.6       69     52.5      0.00      0.00      82.5     0.46      1013.0     4       176         5       178        8.70     270      -20.4
   09/12/2016 23:10      62.9      62.7       69     52.5      0.00      0.00      82.5     0.46      1013.0     4       160         6       150        8.70     270      -20.8
   09/12/2016 23:00      62.9      62.7       69     52.5      0.00      0.00      82.6     0.46      1013.0     3       169         6       145        8.70     270      -20.6
   09/12/2016 22:50      62.9      62.6       69     52.4      0.00      0.00      82.5     0.46      1013.0     3       189         5       186        8.70     269      -21.3
   09/12/2016 22:40      63.0      62.8       69     52.4      0.00      0.00      82.6     0.46      1013.0     3       192         5       165        8.71     269      -21.6
   09/12/2016 22:30      63.0      62.7       69     52.5      0.00      0.00      82.8     0.46      1013.0     3       176         4       177        8.71     270      -21.5
   09/12/2016 22:20      62.9      62.8       69     52.6      0.00      0.00      82.7     0.46      1013.0     4       174         5       174        8.71     270      -21.5
   09/12/2016 22:10      63.2      62.9       69     52.8      0.00      0.00      82.4     0.46      1013.0     5       178         6       178        8.71     270      -22.0
   09/12/2016 22:00      63.3      62.9       69     52.7      0.00      0.00      82.4     0.46      1013.0     3       170         6       165        8.71     270      -21.8
   09/12/2016 21:50      63.4      63.0       69     52.7      0.00      0.00      82.6     0.46      1013.0     5       164         8       185        8.71     270      -21.4
   09/12/2016 21:40      63.6      63.1       68     52.8      0.00      0.00      82.4     0.46      1013.0     5       166         7       175        8.72     271      -21.8
   09/12/2016 21:30      63.8      63.6       68     53.0      0.00      0.00      82.7     0.46      1013.0     6       151         9       151        8.72     269      -27.7
   09/12/2016 21:20      64.0      63.9       68     53.1      0.00      0.00      82.6     0.46      1013.0     3       147         5       167        8.72     269      -26.0
   09/12/2016 21:10      64.2      63.9       68     53.1      0.00      0.00      82.6     0.46      1013.0     3       161         4       126        8.72     269      -24.9
   09/12/2016 21:00      64.3      64.1       68     53.3      0.00      0.00      82.6     0.46      1013.0     3       171         5       157        8.72     269      -24.8
   09/12/2016 20:50      64.5      64.1       68     53.4      0.00      0.00      82.7     0.46      1013.0     2       146         4       154        8.72     269      -27.9
   09/12/2016 20:40      64.4      64.2       68     53.4      0.00      0.00      82.7     0.46      1012.0     4       151         6       155        8.72     270      -26.1
   09/12/2016 20:30      64.5      64.3       68     53.5      0.00      0.00      82.7     0.46      1012.0     3       166         5       151        8.72     270      -24.1
   09/12/2016 20:20      64.5      64.3       68     53.4      0.00      0.00      82.9     0.46      1012.0     4       170         5       189        8.73     270      -25.8
   09/12/2016 20:10      64.8      64.3       67     53.5      0.00      0.00      82.9     0.47      1012.0     3       169         5       183        8.73     270      -28.7
   09/12/2016 20:00      64.9      64.5       67     53.6      0.00      0.00      82.3     0.47      1012.0     3       173         5       141        8.73     270      -25.8
   09/12/2016 19:50      65.2      64.9       66     53.6      0.00      0.00      82.8     0.47      1012.0     4       154         7       160        8.73     270      -26.1
   09/12/2016 19:40      65.3      64.9       66     53.5      0.00      0.00      82.6     0.47      1012.0     4       165         7       131        8.73     271      -25.6
   09/12/2016 19:30      65.2      64.8       66     53.6      0.00      0.00      82.7     0.47      1012.0     4       164         7       169        8.73     271      -26.1
   09/12/2016 19:20      65.1      64.8       67     53.6      0.00      0.00      82.2     0.47      1012.0     4       156         5       154        8.74     270      -26.7
   09/12/2016 19:10      65.1      64.8       67     53.7      0.00      0.00      82.2     0.47      1012.0     5       179         6       181        8.74     271      -29.2
   09/12/2016 19:00      65.6      65.2       66     53.7      0.00      0.00      82.5     0.47      1012.0     5       154         7       141        8.74     270      -36.1
   09/12/2016 18:50      65.9      65.5       65     53.8      0.00      0.00      82.6     0.47      1012.0     6       157         7       174        8.74     270      -34.3
   09/12/2016 18:40      66.5      65.9       64     53.8      0.00      0.00      82.5     0.47      1012.0     6       159         9       147        8.75     270      -21.1
   09/12/2016 18:30      67.2      66.6       63     53.8      0.00      0.00      82.5     0.47      1012.0     6       144         8       126        8.75     271       -8.9
   09/12/2016 18:20      67.4      66.9       62     53.8      0.00      0.00      82.7     0.47      1012.0     8       147        11       138        8.75     270       -0.8
   09/12/2016 18:10      68.7      67.4       61     53.9      0.00      0.00      82.4     0.47      1012.0     8       165         9       193        8.75     270       11.1
   09/12/2016 18:00      69.5      69.0       59     54.2      0.00      0.00      82.5     0.47      1012.0     6       139        10       122        8.76     270       29.0
   09/12/2016 17:50      70.5      69.4       57     54.3      0.00      0.00      82.6     0.47      1012.0     6       126         9       127        8.76     270       51.3
   09/12/2016 17:40      70.5      69.8       57     54.2      0.00      0.00      82.3     0.47      1012.0     4       144         5       166        8.76     270       74.7
   09/12/2016 17:30      71.0      70.2       56     54.1      0.00      0.00      82.2     0.47      1012.0     6       160         7       151        8.76     270       97.5
   09/12/2016 17:20      71.2      70.5       55     54.1      0.00      0.00      82.3     0.47      1012.0     7       160         9       159        8.76     270      121.4
   09/12/2016 17:10      71.8      71.0       54     54.2      0.00      0.00      82.3     0.47      1012.0     6       160        10       203        8.77     270      143.8
   09/12/2016 17:00      72.9      72.3       53     54.5      0.00      0.00      82.0     0.47      1012.0     4       111         6        78        8.77     270      166.1
   09/12/2016 16:50      72.1      71.5       55     54.5      0.00      0.00      82.6     0.47      1012.0     4       133         7       116        8.77     270      193.1
   09/12/2016 16:40      72.3      71.3       54     54.5      0.00      0.00      82.6     0.47      1012.0     5       109         8       115        8.77     270      214.5
   09/12/2016 16:30      72.3      71.1       54     54.4      0.00      0.00      82.0     0.47      1012.0     7       142        11       192        8.77     270      236.6
   09/12/2016 16:20      71.7      71.2       55     54.2      0.00      0.00      81.9     0.47      1012.0     6       164         9       160        8.77     270      255.5
   09/12/2016 16:10      72.2      71.7       54     54.3      0.00      0.00      81.9     0.47      1012.0     6       165         9       169        8.77     270      273.6
   09/12/2016 16:00      72.7      71.6       53     54.2      0.00      0.00      82.1     0.47      1012.0     6       177         8       163        8.78     270      299.0
   09/12/2016 15:50      72.4      71.7       54     54.4      0.00      0.00      81.9     0.47      1012.0     8       157        12       148        8.78     270      326.1
   09/12/2016 15:40      73.0      72.2       53     54.5      0.00      0.00      81.9     0.47      1012.0     7       158         9       139        8.78     270      346.9
   09/12/2016 15:30      73.2      72.4       52     54.4      0.00      0.00      81.9     0.47      1012.0     7       159        10       127        8.78     270      365.2
   09/12/2016 15:20      74.1      72.8       52     54.3      0.00      0.00      81.8     0.47      1012.0     7       172        10       151        8.78     270      379.7
   09/12/2016 15:10      73.9      72.6       52     54.5      0.00      0.00      81.8     0.47      1013.0     6       166        13       130        8.78     270      394.7
   09/12/2016 15:00      73.5      72.9       52     54.4      0.00      0.00      81.7     0.47      1013.0     7       136         9       125        8.78     270      412.9
   09/12/2016 14:50      73.7      72.4       52     54.3      0.00      0.00      81.6     0.47      1013.0     6       149         8       125        8.78     270      429.3
   09/12/2016 14:40      74.1      72.9       51     54.5      0.00      0.00      81.7     0.47      1013.0     7       158         8       158        8.78     271      441.4
   09/12/2016 14:30      75.0      73.8       51     54.8      0.00      0.00      81.6     0.47      1013.0     7       188         9       204        8.78     271      455.4
   09/12/2016 14:20      75.2      74.2       50     54.9      0.00      0.00      81.7     0.47      1013.0     7       162        12       170        8.78     272      467.8
   09/12/2016 14:10      74.4      73.2       52     54.8      0.00      0.00      81.2     0.47      1013.0     6       182         9       175        8.78     272      479.7
   09/12/2016 14:00      74.2      73.2       51     54.7      0.00      0.00      81.6     0.47      1013.0     5       165         9       192        8.78     271      485.8
   09/12/2016 13:50      74.7      73.3       51     54.7      0.00      0.00      81.6     0.47      1013.0     5       180        10       192        8.78     271      493.9
   09/12/2016 13:40      74.7      73.7       51     54.7      0.00      0.00      81.6     0.47      1013.0     5       156         9       181        8.78     271      500.3
   09/12/2016 13:30      74.5      73.4       51     54.7      0.00      0.00      81.3     0.47      1013.0     6       195        10       211        8.78     271      507.0
   09/12/2016 13:20      74.1      72.2       52     54.8      0.00      0.00      81.5     0.47      1013.0     5       209        10       225        8.78     271      515.0
   09/12/2016 13:10      73.2      72.0       53     54.7      0.00      0.00      81.8     0.47      1013.0     7       193        11       191        8.78     270      522.3
   09/12/2016 13:00      75.1      72.4       52     54.9      0.00      0.00      81.9     0.47      1013.0     7       181        10       154        8.78     270      522.6
   09/12/2016 12:50      74.8      73.0       52     55.0      0.00      0.00      81.4     0.47      1014.0     3       121         5       110        8.78     273      523.5
   09/12/2016 12:40      74.8      73.4       52     55.1      0.00      0.00      81.9     0.47      1014.0     4       120         7        92        8.78     275      500.2
   09/12/2016 12:30      75.4      73.3       52     55.4      0.00      0.00      81.4     0.47      1014.0     3       144         6       144        8.78     281      510.2
   09/12/2016 12:20      74.3      72.6       52     55.3      0.00      0.00      81.8     0.47      1014.0     3        60         8        79        8.78     287      535.3
   09/12/2016 12:10      74.1      72.4       53     55.0      0.00      0.00      81.7     0.47      1014.0     3        88         5        85        8.78     286      421.1
   09/12/2016 12:00      73.8      71.1       54     55.1      0.00      0.00      81.7     0.47      1014.0     3        56         4        82        8.78     289      547.0
   09/12/2016 11:50      72.7      70.5       55     54.7      0.00      0.00      81.9     0.47      1014.0     3       137         5       134        8.78     289      547.5
   09/12/2016 11:40      72.3      70.2       56     54.7      0.00      0.00      82.1     0.47      1014.0     5       121         7       128        8.78     295      537.8
   09/12/2016 11:30      72.7      70.8       56     55.0      0.00      0.00      82.2     0.47      1014.0     4        57         6        73        8.78     300      562.7
   09/12/2016 11:20      70.5      68.6       59     54.7      0.00      0.00      82.2     0.47      1015.0     3       139         5       216        8.78     306      550.6
   09/12/2016 11:10      69.3      68.3       60     54.6      0.00      0.00      81.6     0.47      1015.0     4       158         7       158        8.78     316      339.3
   09/12/2016 11:00      69.5      68.8       60     54.9      0.00      0.00      81.5     0.48      1015.0     3        52         6        69        8.78     329      259.4
   09/12/2016 10:50      69.0      67.4       63     55.0      0.00      0.00      82.1     0.48      1015.0     1       334         2       114        8.78     335      263.6
   09/12/2016 10:40      67.8      67.5       63     54.8      0.00      0.00      81.8     0.48      1015.0     2       140         4       109        8.77     338      252.1
   09/12/2016 10:30      67.4      67.2       65     55.2      0.00      0.00      81.6     0.48      1015.0     3        25         5        30        8.77     340      245.6
   09/12/2016 10:20      67.0      66.3       66     54.9      0.00      0.00      82.4     0.48      1015.0     3        88         4        82        8.77     340      222.7
   09/12/2016 10:10      66.5      65.8       67     55.0      0.00      0.00      82.1     0.48      1015.0     2        33         4        76        8.77     345      205.8
   09/12/2016 10:00      65.8      64.9       68     54.6      0.00      0.00      81.9     0.45      1015.0     2       130         5       142        8.77     296      160.0
   09/12/2016 09:50      65.2      64.9       69     54.6      0.00      0.00      82.2     0.45      1015.0     3       112         6       116        8.54     270      137.8
   09/12/2016 09:40      65.0      64.5       69     54.6      0.00      0.00      82.0     0.45      1015.0     2       145         4        98        8.05     270      131.4
   09/12/2016 09:30      64.5      63.4       72     54.6      0.00      0.00      82.1     0.45      1015.0     2       181         3       158        8.05     270      126.1
   09/12/2016 09:20      63.5      62.9       73     54.5      0.00      0.00      81.9     0.45      1015.0     2       179         3       158        8.05     270      117.1
   09/12/2016 09:10      63.0      62.6       74     54.5      0.00      0.00      82.6     0.45      1015.0     3       173         5       157        8.05     270       99.1
   09/12/2016 09:00      62.6      62.1       75     54.5      0.00      0.00      82.2     0.45      1015.0     2       181         4       174        8.05     270       83.5
   09/12/2016 08:50      62.5      62.1       76     54.6      0.00      0.00      82.0     0.45      1015.0     3       146         4       143        8.05     270       57.5
   09/12/2016 08:40      62.5      61.8       77     54.8      0.00      0.00      82.0     0.45      1015.0     2       123         3       135        8.05     270       44.3
   09/12/2016 08:30      61.9      61.5       78     54.9      0.00      0.00      82.2     0.46      1015.0     3       123         4       147        8.05     270       33.2
   09/12/2016 08:20      61.9      61.6       79     55.2      0.00      0.00      82.1     0.46      1015.0     2       103         5       148        8.05     270       18.3
   09/12/2016 08:10      61.6      61.2       80     55.2      0.00      0.00      82.4     0.46      1015.0     2        80         3        83        8.05     270       11.7
   09/12/2016 08:00      61.4      61.2       80     55.2      0.00      0.00      82.1     0.46      1015.0     2       108         4       133        8.05     270        7.4
   09/12/2016 07:50      61.5      61.2       81     55.4      0.00      0.00      82.2     0.46      1015.0     1        78         2        95        8.05     270        4.3
   09/12/2016 07:40      61.2      60.9       81     55.3      0.00      0.00      82.5     0.46      1015.0     2       111         3       129        8.05     270        0.5
   09/12/2016 07:30      61.0      60.8       82     55.3      0.00      0.00      82.5     0.46      1015.0     2         3         3        23        8.05     270       -4.1
   09/12/2016 07:20      61.1      60.5       83     55.5      0.00      0.00      82.5     0.46      1015.0     1        38         2        29        8.05     270       -6.7
   09/12/2016 07:10      60.6      60.4       83     55.4      0.00      0.00      82.3     0.46      1015.0     1       117         2       101        8.05     270       -8.8
   09/12/2016 07:00      60.4      60.2       84     55.3      0.00      0.00      82.4     0.46      1015.0     2        96         3       111        8.05     270      -11.1
   09/12/2016 06:50      60.4      60.2       84     55.4      0.00      0.00      82.4     0.46      1014.0     2       103         3       113        8.05     270      -12.7
   09/12/2016 06:40      60.4      59.8       84     55.2      0.00      0.00      82.5     0.46      1014.0     2       156         3       165        8.05     270      -13.9
   09/12/2016 06:30      59.9      59.7       85     55.2      0.00      0.00      82.3     0.46      1014.0     2       171         4       164        8.05     270      -14.2
   09/12/2016 06:20      60.0      59.7       85     55.2      0.00      0.00      82.6     0.46      1014.0     2       141         4       164        8.05     270      -14.3
   09/12/2016 06:10      59.9      59.4       85     55.1      0.00      0.00      82.8     0.46      1014.0     2       125         3       154        8.05     270      -14.6
   09/12/2016 06:00      59.7      59.4       86     55.1      0.00      0.00      82.6     0.46      1014.0     3       124         4       175        8.06     270      -14.2
   09/12/2016 05:50      59.6      59.3       86     55.3      0.00      0.00      82.9     0.46      1014.0     2       123         4       131        8.06     270      -14.5
   09/12/2016 05:40      59.3      59.1       86     55.1      0.00      0.00      82.8     0.46      1014.0     3       158         5       135        8.06     270      -14.5
   09/12/2016 05:30      59.4      59.3       86     55.3      0.00      0.00      83.1     0.46      1014.0     3       137         4       159        8.06     270      -14.6
   09/12/2016 05:20      59.4      59.1       87     55.2      0.00      0.00      82.9     0.46      1014.0     2       176         3       166        8.06     270      -14.6
   09/12/2016 05:10      59.2      58.8       86     54.8      0.00      0.00      82.9     0.46      1014.0     1       212         2       199        8.06     270      -14.4
   09/12/2016 05:00      58.9      58.7       86     54.4      0.00      0.00      82.8     0.46      1014.0     2       191         2       158        8.06     270      -14.2
   09/12/2016 04:50      58.9      58.5       85     54.3      0.00      0.00      83.1     0.46      1014.0     2       171         3       160        8.06     270      -13.9
   09/12/2016 04:40      58.7      58.2       86     54.1      0.00      0.00      83.2     0.46      1014.0     2       164         3       180        8.06     270      -13.8
   09/12/2016 04:30      58.5      58.1       87     54.4      0.00      0.00      82.5     0.46      1014.0     3       172         4       176        8.06     269      -13.6
   09/12/2016 04:20      58.9      58.4       87     54.9      0.00      0.00      83.3     0.46      1014.0     4       159         6       165        8.06     269      -13.8
   09/12/2016 04:10      59.1      58.9       87     55.2      0.00      0.00      83.0     0.46      1014.0     3       131         4       124        8.06     270      -14.0
   09/12/2016 04:00      59.3      59.1       87     55.4      0.00      0.00      82.7     0.46      1014.0     2       123         3        94        8.06     269      -14.1
   09/12/2016 03:50      59.4      59.2       87     55.5      0.00      0.00      83.1     0.46      1014.0     2       116         3       123        8.06     270      -13.4
   09/12/2016 03:40      59.4      59.1       86     54.9      0.00      0.00      82.8     0.46      1014.0     2       125         3       123        8.06     270      -13.1
   09/12/2016 03:30      59.5      59.3       87     55.4      0.00      0.00      83.4     0.46      1014.0     3       122         4       149        8.06     270      -14.5
   09/12/2016 03:20      59.7      59.4       88     56.1      0.00      0.00      83.4     0.46      1014.0     3        75         4       104        8.06     270      -14.6
   09/12/2016 03:10      59.4      59.3       89     56.1      0.00      0.00      82.8     0.46      1014.0     2        90         3       126        8.07     270      -14.4
   09/12/2016 03:00      59.5      59.2       89     55.9      0.00      0.00      83.4     0.46      1014.0     2        54         3        49        8.07     270      -13.7
   09/12/2016 02:50      59.6      59.2       88     55.9      0.00      0.00      83.5     0.46      1014.0     3        21         4       359        8.07     270      -13.3
   09/12/2016 02:40      59.3      58.7       88     55.5      0.00      0.00      83.6     0.46      1014.0     1        75         2        41        8.07     270      -15.1
   09/12/2016 02:30      58.7      58.4       88     55.0      0.00      0.00      83.4     0.46      1015.0     1        68         3        82        8.07     270      -31.1
   09/12/2016 02:20      59.0      58.5       88     55.0      0.00      0.00      83.5     0.46      1015.0     1        88         2       108        8.07     270      -47.7
   09/12/2016 02:10      58.8      58.7       87     55.0      0.00      0.00      83.7     0.46      1015.0     1        83         2        80        8.07     269      -50.1
   09/12/2016 02:00      59.2      58.9       87     55.2      0.00      0.00      83.5     0.46      1015.0     2       108         2        95        8.07     269      -51.9
   09/12/2016 01:50      59.4      59.1       86     55.2      0.00      0.00      83.2     0.46      1015.0     2       103         3        78        8.07     269      -54.3
   09/12/2016 01:40      59.5      59.3       86     55.2      0.00      0.00      83.6     0.46      1015.0     1        92         2        94        8.07     269      -56.0
   09/12/2016 01:30      59.7      59.4       85     55.2      0.00      0.00      83.5     0.46      1015.0     2       107         2       115        8.08     269      -58.4
   09/12/2016 01:20      59.9      59.5       85     55.1      0.00      0.00      83.5     0.46      1015.0     1        96         2        63        8.08     269      -60.9
   09/12/2016 01:10      60.0      59.9       84     55.0      0.00      0.00      83.4     0.46      1015.0     1        84         2        76        8.08     269      -62.7
   09/12/2016 01:00      60.4      60.2       83     55.0      0.00      0.00      83.5     0.46      1015.0     1       101         1       126        8.08     269      -64.4
   09/12/2016 00:50      60.6      60.3       82     55.0      0.00      0.00      83.6     0.46      1015.0     2        74         3        85        8.08     269      -64.8
   09/12/2016 00:40      61.1      60.8       81     55.0      0.00      0.00      83.9     0.46      1015.0     2        85         3        67        8.08     269      -65.5
   09/12/2016 00:30      61.6      61.3       79     55.0      0.00      0.00      83.6     0.46      1015.0     2        48         4        60        8.08     269      -66.4
   09/12/2016 00:20      61.9      61.6       78     55.1      0.00      0.00      83.7     0.46      1015.0     2        47         4        65        8.08     269      -66.6
   09/12/2016 00:10      62.1      61.8       78     55.2      0.00      0.00      84.0     0.46      1015.0     2        38         2        35        8.08     269      -67.0
   09/12/2016 00:00      62.2      61.9       78     55.0      0.00      0.00      83.9     0.46      1015.0     1        44         2        34        8.08     269      -67.2
   09/11/2016 23:50      62.2      62.0       77     55.1      0.00      0.00      83.7     0.46      1015.0     2        81         2        75        8.08     269      -67.7
   09/11/2016 23:40      62.5      62.3       76     54.9      0.00      0.00      83.6     0.46      1015.0     2       120         3        90        8.08     268      -68.3
   09/11/2016 23:30      62.9      62.6       75     54.8      0.00      0.00      83.8     0.46      1015.0     1       116         2       119        8.08     268      -68.7
   09/11/2016 23:20      63.3      62.8       74     54.5      0.00      0.00      83.7     0.46      1015.0     1        94         2       103        8.08     268      -68.8
   09/11/2016 23:10      63.8      63.4       71     54.1      0.00      0.00      84.0     0.46      1015.0     1        77         1        72        8.08     268      -69.2
   09/11/2016 23:00      64.2      63.8       69     53.7      0.00      0.00      83.8     0.46      1015.0     1        57         2        75        8.08     268      -69.3
   09/11/2016 22:50      64.4      64.2       69     53.7      0.00      0.00      84.0     0.46      1015.0     1        77         1       101        8.08     268      -69.5
   09/11/2016 22:40      64.9      64.5       67     53.6      0.00      0.00      83.7     0.46      1015.0     2        94         3        76        8.08     268      -68.7
   09/11/2016 22:30      65.1      64.8       66     53.3      0.00      0.00      84.1     0.46      1015.0     1       113         2       127        8.08     268      -68.7
   09/11/2016 22:20      65.4      65.1       65     53.3      0.00      0.00      84.0     0.46      1015.0     2       118         3        98        8.09     268      -69.5
   09/11/2016 22:10      65.8      65.5       64     53.1      0.00      0.00      83.7     0.46      1015.0     1        86         3       104        8.09     268      -70.5
   09/11/2016 22:00      66.1      65.8       63     53.0      0.00      0.00      84.0     0.46      1015.0     1        63         2        43        8.09     268      -71.0
   09/11/2016 21:50      66.3      66.1       62     52.7      0.00      0.00      83.9     0.46      1015.0     1        75         2        41        8.09     268      -71.6
   09/11/2016 21:40      66.9      66.3       59     51.8      0.00      0.00      83.7     0.46      1015.0     1        74         2        66        8.09     267      -71.6
   09/11/2016 21:30      67.4      67.0       59     52.4      0.00      0.00      83.9     0.46      1015.0     1        99         1       131        8.09     267      -72.3
   09/11/2016 21:20      67.8      67.4       58     52.5      0.00      0.00      83.7     0.46      1015.0     1        85         1        67        8.09     267      -74.0
   09/11/2016 21:10      68.4      67.8       58     52.7      0.00      0.00      84.0     0.46      1015.0     1        89         2       121        8.09     267      -74.7
   09/11/2016 21:00      69.1      68.3       58     53.3      0.00      0.00      83.8     0.46      1015.0     1        95         2       117        8.09     267      -75.2
   09/11/2016 20:50      69.7      69.2       56     53.3      0.00      0.00      83.8     0.46      1015.0     1        66         3        67        8.09     267      -75.9
   09/11/2016 20:40      70.8      69.8       55     53.1      0.00      0.00      84.0     0.46      1015.0     2        74         3        79        8.09     267      -76.5
   09/11/2016 20:30      71.6      70.9       52     52.6      0.00      0.00      83.8     0.46      1015.0     1        73         3        72        8.09     267      -78.0
   09/11/2016 20:20      72.4      71.6       50     52.4      0.00      0.00      83.9     0.46      1014.0     1        65         2        65        8.09     267      -79.0
   09/11/2016 20:10      73.3      72.3       49     52.4      0.00      0.00      83.7     0.46      1014.0     1        34         2         7        8.09     266      -80.7
   09/11/2016 20:00      73.9      73.6       41     48.4      0.00      0.00      83.5     0.46      1014.0     1        91         2        28        8.09     266      -81.4
   09/11/2016 19:50      74.9      74.0       39     48.3      0.00      0.00      83.7     0.46      1014.0     1       111         1       129        8.09     266      -82.2
   09/11/2016 19:40      75.6      75.1       40     49.3      0.00      0.00      83.6     0.46      1014.0     1        52         2        69        8.09     266      -83.3
   09/11/2016 19:30      76.2      75.7       40     49.8      0.00      0.00      83.5     0.46      1014.0     2       146         4       146        8.09     266      -84.4
   09/11/2016 19:20      76.9      76.3       40     50.3      0.00      0.00      83.5     0.46      1014.0     3       186         4       178        8.09     266      -84.8
   09/11/2016 19:10      78.0      76.9       40     50.9      0.00      0.00      83.5     0.46      1014.0     2       163         4       194        8.09     266      -84.9
   09/11/2016 19:00      78.6      78.0       39     51.5      0.00      0.00      83.6     0.46      1014.0     1       111         1       134        8.09     266      -83.5
   09/11/2016 18:50      79.5      78.7       38     51.4      0.00      0.00      83.4     0.46      1014.0     2        69         3        70        8.09     266      -80.8
   09/11/2016 18:40      80.4      79.7       37     51.2      0.00      0.00      83.3     0.46      1014.0     2        44         2         5        8.09     266      -69.3
   09/11/2016 18:30      81.7      80.5       35     51.2      0.00      0.00      83.3     0.46      1014.0     2        40         3        53        8.10     266      -46.0
   09/11/2016 18:20      82.5      81.6       35     51.2      0.00      0.00      83.2     0.46      1014.0     2        42         3        30        8.10     266      -24.6
   09/11/2016 18:10      84.2      82.8       33     51.2      0.00      0.00      83.3     0.46      1013.0     3        48         6        74        8.10     266       -3.1
   09/11/2016 18:00      85.9      84.4       31     50.8      0.00      0.00      83.3     0.46      1013.0     4         9         5       335        8.10     266       19.6
   09/11/2016 17:50      86.3      85.7       30     51.2      0.00      0.00      83.1     0.46      1013.0     4       305         7       341        8.10     266       43.3
   09/11/2016 17:40      86.6      86.5       30     51.2      0.00      0.00      83.0     0.46      1013.0     3       304         6       296        8.10     266       67.4
   09/11/2016 17:30      87.0      86.2       29     51.1      0.00      0.00      83.2     0.46      1013.0     4       312         6       307        8.11     266       91.0
   09/11/2016 17:20      87.0      86.6       29     50.8      0.00      0.00      82.9     0.46      1013.0     4       293         5       295        8.11     266      116.1
   09/11/2016 17:10      87.5      87.0       29     51.0      0.00      0.00      82.8     0.46      1013.0     4       296         7       277        8.11     266      139.5
   09/11/2016 17:00      87.7      87.0       29     50.8      0.00      0.00      82.9     0.46      1013.0     5       276         8       267        8.11     266      162.2
   09/11/2016 16:50      88.1      87.6       28     50.3      0.00      0.00      82.8     0.46      1013.0     5       304         7       288        8.12     265      184.5
   09/11/2016 16:40      88.0      87.7       28     50.6      0.00      0.00      82.7     0.46      1013.0     5       309         9       314        8.13     266      208.2
   09/11/2016 16:30      90.2      88.0       24     46.9      0.00      0.00      82.5     0.46      1013.0     5       238         7       266        8.14     265      231.0
   09/11/2016 16:20      90.1      89.3       19     42.2      0.00      0.00      82.7     0.46      1013.0     3       215         5       236        8.15     266      251.1
   09/11/2016 16:10      89.3      88.7       16     36.4      0.00      0.00      82.5     0.46      1014.0     5       175         8       172        8.16     266      269.9
   09/11/2016 16:00      89.4      88.7       15     35.9      0.00      0.00      82.5     0.46      1014.0     5       176         7       163        8.17     266      292.5
   09/11/2016 15:50      90.2      89.3       15     36.5      0.00      0.00      82.4     0.46      1014.0     5       176         7       155        8.17     267      314.1
   09/11/2016 15:40      89.4      88.6       16     37.4      0.00      0.00      82.2     0.46      1014.0     5       175         7       184        8.18     267      334.9
   09/11/2016 15:30      88.9      88.3       18     39.5      0.00      0.00      82.3     0.46      1014.0     6       162         9       148        8.18     266      355.7
   09/11/2016 15:20      89.8      88.8       18     40.6      0.00      0.00      82.2     0.46      1014.0     6       175         8       165        8.19     266      373.1
   09/11/2016 15:10      89.7      89.0       19     41.0      0.00      0.00      82.1     0.46      1014.0     5       159         7       167        8.19     266      388.3
   09/11/2016 15:00      89.9      89.2       19     42.0      0.00      0.00      82.1     0.45      1014.0     6       148         9       171        8.20     266      404.7
   09/11/2016 14:50      90.0      89.1       19     42.6      0.00      0.00      82.1     0.45      1015.0     5       175         8       140        8.20     267      416.8
   09/11/2016 14:40      90.6      89.7       19     43.0      0.00      0.00      82.0     0.45      1015.0     6       152         9       140        8.21     267      428.4
   09/11/2016 14:30      90.1      89.1       20     43.0      0.00      0.00      81.9     0.45      1015.0     5       145         7       172        8.21     267      441.5
   09/11/2016 14:20      89.6      88.4       21     43.8      0.00      0.00      82.0     0.45      1015.0     7       148        10       126        8.22     267      453.8
   09/11/2016 14:10      90.3      89.5       21     44.4      0.00      0.00      81.8     0.45      1015.0     6       170         7       165        8.22     267      461.1
   09/11/2016 14:00      90.6      89.7       21     44.4      0.00      0.00      81.9     0.45      1015.0     6       159         8       150        8.22     268      467.8
   09/11/2016 13:50      91.7      89.8       21     45.9      0.00      0.00      81.9     0.45      1015.0     4       157         8       133        8.22     268      473.9
   09/11/2016 13:40      90.6      89.1       25     48.7      0.00      0.00      81.9     0.45      1015.0     3       117         6       143        8.23     268      480.3
   09/11/2016 13:30      90.4      88.8       26     49.9      0.00      0.00      81.8     0.45      1016.0     4        28        10         1        8.23     268      482.0
   09/11/2016 13:20      89.8      88.9       27     51.4      0.00      0.00      81.9     0.45      1016.0     4        17         6       330        8.23     267      485.7
   09/11/2016 13:10      89.6      89.1       29     52.4      0.00      0.00      81.6     0.45      1016.0     4        34         7        11        8.23     267      492.6
   09/11/2016 13:00      89.7      88.7       29     52.5      0.00      0.00      81.5     0.45      1016.0     4        64         7        98        8.23     268      495.3
   09/11/2016 12:50      88.7      87.4       30     52.7      0.00      0.00      81.6     0.45      1016.0     5        11         7         5        8.24     268      493.1
   09/11/2016 12:40      88.2      87.4       30     52.9      0.00      0.00      81.6     0.45      1016.0     3       359         6       357        8.24     268      494.1
   09/11/2016 12:30      87.7      87.1       30     52.6      0.00      0.00      81.9     0.45      1017.0     2        72         4        33        8.24     269      495.1
   09/11/2016 12:20      87.4      86.7       30     51.8      0.00      0.00      81.6     0.45      1017.0     4         6         6       341        8.24     269      490.0
   09/11/2016 12:10      87.7      85.7       30     51.4      0.00      0.00      81.7     0.45      1017.0     3        11         7       358        8.24     268      490.0
   09/11/2016 12:00      86.9      85.7       29     50.0      0.00      0.00      81.7     0.45      1017.0     3        30         6        24        8.24     268      488.0
   09/11/2016 11:50      87.1      85.8       27     48.0      0.00      0.00      81.8     0.45      1017.0     2       353         4       356        8.24     269      485.5
   09/11/2016 11:40      86.2      85.0       26     46.5      0.00      0.00      81.9     0.45      1017.0     3       337         4         1        8.24     269      481.7
   09/11/2016 11:30      85.0      84.5       27     47.4      0.00      0.00      81.9     0.45      1018.0     3         1         6       338        8.24     269      476.6
   09/11/2016 11:20      84.6      83.5       30     49.5      0.00      0.00      81.9     0.45      1018.0     4         7         6       356        8.24     269      470.0
   09/11/2016 11:10      83.6      82.9       33     51.3      0.00      0.00      81.7     0.45      1018.0     3        38         4        20        8.24     269      461.3
   09/11/2016 11:00      82.5      81.6       36     52.3      0.00      0.00      81.8     0.45      1018.0     2        39         4        76        8.24     270      453.0
   09/11/2016 10:50      82.3      81.5       37     53.2      0.00      0.00      81.9     0.45      1018.0     3        26         4        29        8.24     269      443.2
   09/11/2016 10:40      81.8      79.8       39     53.3      0.00      0.00      81.9     0.45      1018.0     2        59         3        78        8.25     269      431.7
   09/11/2016 10:30      80.5      79.8       38     52.5      0.00      0.00      81.8     0.45      1018.0     2        21         3        35        8.25     270      419.5
   09/11/2016 10:20      80.1      78.5       40     52.7      0.00      0.00      82.1     0.45      1018.0     2        25         3        16        8.25     270      404.9
   09/11/2016 10:10      78.5      76.3       44     54.1      0.00      0.00      82.0     0.46      1018.0     2        27         3       344        8.25     270      391.2
   09/11/2016 10:00      76.3      75.8       48     55.0      0.00      0.00      82.0     0.46      1018.0     2        20         3        26        8.25     270      373.5
   09/11/2016 09:50      75.6      75.0       49     55.0      0.00      0.00      82.1     0.46      1018.0     2       356         3       329        8.25     270      356.7
   09/11/2016 09:40      75.3      73.7       53     56.2      0.00      0.00      82.0     0.46      1018.0     1        18         2        17        8.25     270      341.3
   09/11/2016 09:30      73.8      72.9       56     56.6      0.00      0.00      82.1     0.46      1018.0     2       342         3       359        8.25     270      321.9
   09/11/2016 09:20      73.8      71.9       58     57.3      0.00      0.00      82.1     0.46      1018.0     2        19         3       322        8.25     271      301.7
   09/11/2016 09:10      72.0      71.3       60     57.1      0.00      0.00      82.3     0.46      1018.0     2       336         3       318        8.26     271      280.0
   09/11/2016 09:00      72.1      69.3       63     57.5      0.00      0.00      82.3     0.46      1018.0     1        48         2        71        8.26     271      258.3
   09/11/2016 08:50      69.8      69.2       66     57.8      0.00      0.00      82.2     0.46      1018.0     1       356         2        19        8.26     271      236.2
   09/11/2016 08:40      70.6      69.8       66     58.0      0.00      0.00      82.1     0.46      1018.0     2        36         3        88        8.26     271      213.0
   09/11/2016 08:30      70.0      69.2       67     58.0      0.00      0.00      82.3     0.46      1018.0     1        44         2        60        8.26     271      188.8
   09/11/2016 08:20      69.9      69.3       67     58.1      0.00      0.00      82.5     0.46      1018.0     1        41         2         6        8.26     271      163.6
   09/11/2016 08:10      69.1      67.3       70     58.3      0.00      0.00      82.4     0.46      1018.0     1       350         1        10        8.26     272      135.5
   09/11/2016 08:00      67.0      65.3       75     58.1      0.00      0.00      82.2     0.46      1018.0     0       298         1       275        8.27     274      124.5
   09/11/2016 07:50      65.3      63.5       79     57.8      0.00      0.00      82.4     0.46      1018.0     1       328         1         7        8.26     274      102.9
   09/11/2016 07:40      63.5      61.3       85     57.7      0.00      0.00      82.3     0.46      1018.0     1        15         1       359        8.26     275       84.3
   09/11/2016 07:30      61.3      59.6       89     56.9      0.00      0.00      82.3     0.46      1018.0     0       103         1       104        8.27     276       64.7
   09/11/2016 07:20      59.6      58.8       91     56.5      0.00      0.00      82.5     0.46      1018.0     0        31         1        43        8.27     276       33.0
   09/11/2016 07:10      59.0      58.0       91     55.9      0.00      0.00      82.3     0.46      1018.0     1       166         2       142        8.27     275       -2.4
   09/11/2016 07:00      58.1      57.4       91     55.2      0.00      0.00      82.5     0.46      1018.0     1       158         2       140        8.27     275      -15.6
   09/11/2016 06:50      57.7      57.5       91     55.0      0.00      0.00      82.5     0.46      1018.0     1       156         2       143        8.27     274      -24.4
   09/11/2016 06:40      57.6      57.3       91     54.7      0.00      0.00      82.8     0.46      1018.0     2       162         3       140        8.27     274      -29.6
   09/11/2016 06:30      58.0      57.6       91     55.3      0.00      0.00      82.8     0.46      1018.0     1       157         3       140        8.27     274      -31.5
   09/11/2016 06:20      58.5      58.0       91     55.6      0.00      0.00      82.5     0.46      1018.0     1       163         1       143        8.27     274      -32.4
   09/11/2016 06:10      58.2      57.9       90     55.3      0.00      0.00      83.0     0.46      1018.0     1       222         1       251        8.27     273      -32.9
   09/11/2016 06:00      58.4      58.0       90     55.3      0.00      0.00      82.6     0.46      1018.0     1       213         2       247        8.27     273      -33.1
   09/11/2016 05:50      58.5      58.2       88     54.9      0.00      0.00      82.7     0.46      1018.0     0       121         1       149        8.27     272      -35.8
   09/11/2016 05:40      59.0      58.6       89     55.5      0.00      0.00      82.9     0.46      1018.0     1       149         1       219        8.27     272      -37.0
   09/11/2016 05:30      59.3      59.0       89     55.8      0.00      0.00      83.0     0.46      1018.0     1       182         2       158        8.27     272      -37.5
   09/11/2016 05:20      59.8      59.3       88     56.0      0.00      0.00      82.9     0.46      1018.0     1       163         2       161        8.27     271      -38.5
   09/11/2016 05:10      59.9      59.5       88     56.1      0.00      0.00      82.9     0.46      1018.0     1       151         2       126        8.27     271      -41.1
   09/11/2016 05:00      60.3      59.8       86     56.0      0.00      0.00      83.2     0.46      1018.0     1       136         2       147        8.27     271      -43.0
   09/11/2016 04:50      60.8      60.4       86     56.4      0.00      0.00      83.1     0.46      1018.0     1       111         2       127        8.27     271      -44.4
   09/11/2016 04:40      61.2      61.0       86     56.7      0.00      0.00      83.5     0.46      1018.0     1        96         2       110        8.27     271      -46.7
   09/11/2016 04:30      61.4      61.0       85     56.8      0.00      0.00      83.0     0.46      1018.0     2        95         3        85        8.27     271      -48.6
   09/11/2016 04:20      61.1      60.8       84     56.2      0.00      0.00      83.2     0.46      1018.0     2        95         2        74        8.27     270      -51.9
   09/11/2016 04:10      61.4      61.0       83     56.1      0.00      0.00      83.2     0.46      1018.0     1       103         2       122        8.27     270      -51.3
   09/11/2016 04:00      61.4      61.1       84     56.3      0.00      0.00      83.2     0.46      1017.0     1       116         2        96        8.27     270      -53.4
   09/11/2016 03:50      61.3      60.8       83     55.8      0.00      0.00      83.3     0.46      1017.0     1       115         2       121        8.27     270      -56.8
   09/11/2016 03:40      61.3      60.9       80     54.9      0.00      0.00      83.3     0.46      1017.0     1       101         2        82        8.27     270      -58.4
   09/11/2016 03:30      61.4      61.2       81     55.6      0.00      0.00      83.4     0.47      1017.0     2       137         2       134        8.27     270      -58.0
   09/11/2016 03:20      61.7      61.4       79     55.2      0.00      0.00      83.2     0.47      1017.0     1       141         2       152        8.27     270      -58.2
   09/11/2016 03:10      61.9      61.7       80     55.8      0.00      0.00      83.7     0.47      1017.0     0       319         1       276        8.27     270      -56.4
   09/11/2016 03:00      62.2      61.9       79     55.6      0.00      0.00      83.4     0.47      1017.0     1         9         1        83        8.27     270      -57.8
   09/11/2016 02:50      62.6      62.2       79     56.0      0.00      0.00      83.3     0.46      1017.0     1       147         1       162        8.27     270      -58.3
   09/11/2016 02:40      62.8      62.6       80     56.4      0.00      0.00      83.7     0.47      1017.0     1       126         2       106        8.27     269      -58.4
   09/11/2016 02:30      63.1      62.6       79     56.2      0.00      0.00      83.5     0.47      1017.0     1       127         1       128        8.28     270      -58.8
   09/11/2016 02:20      63.5      63.1       80     56.9      0.00      0.00      83.5     0.47      1017.0     1       136         2       142        8.28     269      -57.3
   09/11/2016 02:10      63.9      63.5       79     57.0      0.00      0.00      83.7     0.47      1017.0     1       138         1       161        8.28     269      -57.3
   09/11/2016 02:00      64.4      63.8       78     57.0      0.00      0.00      83.6     0.47      1017.0     1       113         1        96        8.28     269      -57.4
   09/11/2016 01:50      64.8      64.5       77     57.2      0.00      0.00      83.4     0.47      1017.0     1       115         1        93        8.28     269      -58.0
   09/11/2016 01:40      65.3      64.9       76     57.3      0.00      0.00      83.7     0.47      1017.0     1       131         2       133        8.28     269      -59.0
   09/11/2016 01:30      65.5      65.2       77     57.9      0.00      0.00      83.4     0.47      1017.0     2       113         2       128        8.28     269      -59.5
   09/11/2016 01:20      65.8      65.5       76     57.8      0.00      0.00      83.7     0.47      1017.0     2        96         2        95        8.28     269      -60.0
   09/11/2016 01:10      66.2      65.8       74     57.3      0.00      0.00      83.8     0.47      1017.0     1        57         2        64        8.28     269      -60.3
   09/11/2016 01:00      66.3      66.2       73     57.5      0.00      0.00      83.7     0.47      1017.0     1        67         2        49        8.28     269      -60.1
   09/11/2016 00:50      66.5      66.3       73     57.5      0.00      0.00      83.7     0.47      1017.0     2        71         3        76        8.28     269      -59.9
   09/11/2016 00:40      67.0      66.6       72     57.6      0.00      0.00      83.8     0.47      1017.0     2        79         3        90        8.28     269      -60.0
   09/11/2016 00:30      67.1      66.8       71     57.2      0.00      0.00      84.0     0.47      1017.0     1        82         2        88        8.28     269      -60.0
   09/11/2016 00:20      67.3      67.1       69     56.5      0.00      0.00      83.8     0.47      1017.0     1        78         2        62        8.29     269      -59.6
   09/11/2016 00:10      67.3      67.1       66     55.3      0.00      0.00      83.8     0.47      1017.0     1        85         3        85        8.29     269      -60.3
   09/11/2016 00:00      67.3      67.1       59     52.5      0.00      0.00      83.7     0.47      1017.0     1        85         2        66        8.29     269      -59.4
   09/10/2016 23:50      67.5      67.2       55     50.6      0.00      0.00      83.8     0.47      1017.0     1        65         1        80        8.29     268      -59.3
   09/10/2016 23:40      67.7      67.5       53     50.1      0.00      0.00      84.0     0.47      1017.0     1        91         1        72        8.29     268      -59.5
   09/10/2016 23:30      68.2      67.7       51     49.3      0.00      0.00      84.0     0.47      1017.0     1       120         1        99        8.29     268      -60.4
   09/10/2016 23:20      68.3      67.7       52     49.5      0.00      0.00      84.0     0.47      1017.0     1       145         1       171        8.30     268      -60.3
   09/10/2016 23:10      68.3      68.0       51     49.3      0.00      0.00      83.9     0.47      1017.0     1       130         2       132        8.30     268      -61.3
   09/10/2016 23:00      69.2      68.5       53     50.9      0.00      0.00      83.8     0.47      1017.0     1       136         1       142        8.30     268      -62.6
   09/10/2016 22:50      69.5      69.4       52     51.0      0.00      0.00      83.9     0.47      1017.0     1       140         1       143        8.30     268      -63.3
   09/10/2016 22:40      70.0      69.6       50     50.4      0.00      0.00      83.9     0.47      1017.0     1       140         1       197        8.30     268      -64.1
   09/10/2016 22:30      70.4      69.9       50     50.6      0.00      0.00      83.8     0.47      1017.0     1       172         2       151        8.31     268      -64.1
   09/10/2016 22:20      70.8      70.3       47     49.5      0.00      0.00      84.1     0.47      1017.0     2       132         2       128        8.31     268      -65.0
   09/10/2016 22:10      71.3      70.8       47     50.0      0.00      0.00      84.1     0.47      1017.0     1       145         1       129        8.31     268      -65.3
   09/10/2016 22:00      71.7      71.1       46     49.4      0.00      0.00      83.8     0.47      1017.0     1       199         2       214        8.31     268      -65.7
   09/10/2016 21:50      72.2      71.7       43     48.3      0.00      0.00      83.9     0.47      1017.0     1       172         1       153        8.32     268      -65.8
   09/10/2016 21:40      72.3      72.2       40     46.5      0.00      0.00      84.1     0.47      1017.0     1       158         1       158        8.32     268      -66.5
   09/10/2016 21:30      73.0      72.4       37     45.0      0.00      0.00      83.9     0.47      1017.0     1       134         1       130        8.32     268      -67.5
   09/10/2016 21:20      73.5      73.2       37     45.2      0.00      0.00      83.9     0.47      1017.0     1       159         1       150        8.32     268      -68.2
   09/10/2016 21:10      73.8      73.5       34     43.7      0.00      0.00      83.9     0.47      1016.0     1       152         1       136        8.33     268      -69.6
   09/10/2016 21:00      74.5      74.0       30     40.5      0.00      0.00      83.8     0.47      1016.0     1       156         1       140        8.33     267      -70.8
   09/10/2016 20:50      74.8      74.4       27     38.8      0.00      0.00      83.7     0.47      1016.0     1       149         2       153        8.33     267      -72.4
   09/10/2016 20:40      76.5      75.2       25     37.4      0.00      0.00      83.8     0.47      1016.0     1       110         2       122        8.33     267      -74.1
   09/10/2016 20:30      78.5      77.0       23     36.4      0.00      0.00      83.8     0.47      1016.0     1       143         1       189        8.33     267      -73.9
   09/10/2016 20:20      79.8      78.7       20     35.2      0.00      0.00      83.8     0.47      1016.0     2       233         3       227        8.33     267      -74.7
   09/10/2016 20:10      80.0      79.8       19     33.7      0.00      0.00      83.7     0.47      1016.0     2       256         2       279        8.33     267      -77.2
   09/10/2016 20:00      80.0      79.8       18     33.0      0.00      0.00      83.8     0.47      1016.0     1       285         3       228        8.33     266      -77.9
   09/10/2016 19:50      81.9      80.3       18     33.4      0.00      0.00      83.5     0.47      1016.0     1       285         1       280        8.34     266      -79.0
   09/10/2016 19:40      82.6      82.0       17     33.4      0.00      0.00      83.7     0.47      1016.0     1       268         2       287        8.34     267      -81.8
   09/10/2016 19:30      83.3      82.7       16     32.9      0.00      0.00      83.7     0.47      1015.0     1       280         2       256        8.34     267      -82.8
   09/10/2016 19:20      84.1      83.4       15     31.6      0.00      0.00      83.6     0.47      1015.0     2       232         4       220        8.34     267      -83.9
   09/10/2016 19:10      84.7      84.3       17     34.5      0.00      0.00      83.8     0.47      1015.0     3       251         4       249        8.35     267      -83.9
   09/10/2016 19:00      85.7      85.0       18     37.7      0.00      0.00      83.4     0.47      1015.0     2       270         3       244        8.35     267      -82.4
   09/10/2016 18:50      87.1      86.0       18     37.4      0.00      0.00      83.3     0.47      1015.0     3       292         5       317        8.36     267      -81.2
   09/10/2016 18:40      88.0      87.5       17     37.6      0.00      0.00      83.4     0.47      1015.0     3       290         4       316        8.36     267      -65.9
   09/10/2016 18:30      88.7      88.1       18     39.4      0.00      0.00      83.4     0.47      1015.0     3       264         5       296        8.37     267      -40.3
   09/10/2016 18:20      89.1      88.9       18     39.8      0.00      0.00      83.3     0.47      1015.0     4       284         6       294        8.37     267      -17.8
   09/10/2016 18:10      89.6      89.0       23     46.1      0.00      0.00      83.2     0.46      1015.0     4       259         7       233        8.37     267        6.1
   09/10/2016 18:00      90.1      89.6       25     48.8      0.00      0.00      83.1     0.46      1014.0     5       255         7       231        8.38     267       27.1
   09/10/2016 17:50      90.1      89.7       25     49.5      0.00      0.00      83.2     0.46      1014.0     5       247         7       245        8.38     267       49.7
   09/10/2016 17:40      90.4      89.6       25     49.1      0.00      0.00      83.1     0.46      1014.0     5       237         9       235        8.38     267       72.3
   09/10/2016 17:30      91.9      90.3       24     48.6      0.00      0.00      82.9     0.46      1014.0     4       242         8       250        8.39     267       94.1
   09/10/2016 17:20      92.2      91.0       22     47.1      0.00      0.00      83.0     0.46      1014.0     5       241         8       227        8.39     268      116.2
   09/10/2016 17:10      92.8      92.0       16     39.7      0.00      0.00      82.7     0.46      1014.0     5       287         7       296        8.40     268      136.0
   09/10/2016 17:00      93.1      92.3       17     41.3      0.00      0.00      82.9     0.46      1014.0     5       286         7       287        8.40     267      158.8
   09/10/2016 16:50      94.0      93.1       22     49.4      0.00      0.00      82.8     0.46      1014.0     5       240         6       316        8.40     267      182.5
   09/10/2016 16:40      94.0      92.3       22     48.4      0.00      0.00      82.9     0.46      1014.0     4       297         8       305        8.41     267      204.4
   09/10/2016 16:30      93.1      92.3       21     47.5      0.00      0.00      82.8     0.46      1014.0     8       315        13       321        8.41     267      225.7
   09/10/2016 16:20      93.4      92.3       23     49.3      0.00      0.00      82.6     0.46      1014.0     7       325        10       307        8.41     268      246.2
   09/10/2016 16:10      94.3      93.2       24     51.5      0.00      0.00      82.4     0.46      1014.0     6       318        11       328        8.42     268      267.1
   09/10/2016 16:00      94.6      93.0       25     52.3      0.00      0.00      82.4     0.46      1014.0     7       318        13       321        8.42     268      290.1
   09/10/2016 15:50      95.1      94.1       25     53.7      0.00      0.00      82.3     0.46      1014.0     6       305         9       296        8.42     269      304.6
   09/10/2016 15:40      96.1      95.1       26     55.2      0.00      0.00      82.4     0.46      1014.0     5       329         9       311        8.43     269      317.6
   09/10/2016 15:30      96.1      95.8       27     56.9      0.00      0.00      82.2     0.46      1014.0     4       350         7       339        8.43     269      332.8
   09/10/2016 15:20      96.1      94.7       28     56.9      0.00      0.00      82.0     0.46      1014.0     3        68         5        64        8.43     269      351.6
   09/10/2016 15:10      95.8      94.6       28     56.9      0.00      0.00      82.2     0.46      1014.0     3        93         5        94        8.44     269      374.7
   09/10/2016 15:00      95.2      93.7       29     57.0      0.00      0.00      82.1     0.46      1015.0     3        92         5       122        8.44     269      390.0
   09/10/2016 14:50      94.7      92.9       30     57.4      0.00      0.00      82.0     0.46      1015.0     4        79         5        63        8.44     269      407.0
   09/10/2016 14:40      95.1      93.1       29     57.4      0.00      0.00      82.1     0.46      1015.0     3        66         5        82        8.44     269      416.6
   09/10/2016 14:30      94.4      93.5       30     57.5      0.00      0.00      81.9     0.46      1015.0     3        42         6        82        8.44     270      427.9
   09/10/2016 14:20      94.3      93.3       30     57.4      0.00      0.00      81.8     0.46      1015.0     5        20         8       356        8.45     270      438.6
   09/10/2016 14:10      93.3      92.1       30     56.7      0.00      0.00      81.8     0.46      1015.0     4        94         5        85        8.45     270      448.1
   09/10/2016 14:00      94.0      93.2       29     56.8      0.00      0.00      81.8     0.46      1015.0     4        30         7        66        8.45     270      459.0
   09/10/2016 13:50      93.6      92.1       30     56.5      0.00      0.00      81.9     0.46      1015.0     3        70         9        65        8.45     270      466.8
   09/10/2016 13:40      93.0      92.3       30     56.4      0.00      0.00      81.5     0.46      1015.0     3        84         6        84        8.45     269      471.2
   09/10/2016 13:30      93.2      91.8       28     55.0      0.00      0.00      81.8     0.46      1016.0     3        43         6        25        8.45     270      475.9
   09/10/2016 13:20      92.2      91.5       28     54.4      0.00      0.00      81.7     0.46      1016.0     3        57         5       118        8.46     269      482.4
   09/10/2016 13:10      92.5      91.4       28     53.6      0.00      0.00      81.5     0.46      1016.0     3        21         6         5        8.46     269      484.8
   09/10/2016 13:00      91.7      90.8       28     53.3      0.00      0.00      81.5     0.46      1016.0     3        27         6       352        8.46     270      488.9
   09/10/2016 12:50      92.3      90.7       27     52.6      0.00      0.00      81.4     0.46      1016.0     3         1         4        27        8.46     270      490.5
   09/10/2016 12:40      90.8      89.4       26     50.8      0.00      0.00      81.5     0.46      1016.0     3       339         3        43        8.46     270      490.8
   09/10/2016 12:30      89.4      88.2       28     51.8      0.00      0.00      81.5     0.46      1016.0     2        39         4        16        8.47     270      494.2
   09/10/2016 12:20      88.5      87.7       30     52.6      0.00      0.00      81.6     0.46      1016.0     2       322         4       341        8.47     271      490.9
   09/10/2016 12:10      87.9      87.2       31     53.1      0.00      0.00      81.3     0.46      1016.0     2        42         3       110        8.47     270      491.9
   09/10/2016 12:00      88.1      87.0       32     53.7      0.00      0.00      81.7     0.46      1016.0     3        82         5        69        8.47     271      488.5
   09/10/2016 11:50      87.7      85.3       31     52.5      0.00      0.00      81.5     0.46      1017.0     2       352         4        12        8.47     271      485.2
   09/10/2016 11:40      86.7      85.5       33     53.3      0.00      0.00      81.4     0.46      1017.0     3        66         4       111        8.47     271      482.4
   09/10/2016 11:30      86.5      84.4       33     53.2      0.00      0.00      81.4     0.46      1017.0     2       319         3         8        8.47     272      479.0
   09/10/2016 11:20      84.5      83.8       37     55.2      0.00      0.00      81.5     0.46      1017.0     2        74         5        22        8.47     272      469.6
   09/10/2016 11:10      84.1      82.9       40     56.4      0.00      0.00      81.5     0.46      1017.0     2        28         4        77        8.47     272      461.1
   09/10/2016 11:00      82.9      81.2       43     57.0      0.00      0.00      81.6     0.46      1017.0     2       358         4       347        8.47     272      451.4
   09/10/2016 10:50      81.3      80.8       45     57.5      0.00      0.00      81.7     0.46      1017.0     3         5         4        26        8.47     272      440.0
   09/10/2016 10:40      80.9      79.9       46     57.5      0.00      0.00      81.5     0.46      1017.0     2        18         4       357        8.47     272      429.7
   09/10/2016 10:30      80.2      79.2       47     57.9      0.00      0.00      81.6     0.46      1017.0     3        38         5         3        8.47     272      417.4
   09/10/2016 10:20      79.2      77.5       50     57.6      0.00      0.00      81.6     0.46      1017.0     2        27         3        44        8.47     272      402.3
   09/10/2016 10:10      77.7      77.2       52     58.1      0.00      0.00      81.7     0.46      1017.0     3        27         4         3        8.47     272      385.3
   09/10/2016 10:00      77.1      76.1       53     58.3      0.00      0.00      81.8     0.46      1017.0     3        14         4         2        8.47     273      369.2
   09/10/2016 09:50      76.3      74.8       55     58.2      0.00      0.00      81.5     0.46      1017.0     2         3         3        22        8.48     273      352.0
   09/10/2016 09:40      75.6      73.9       55     58.0      0.00      0.00      81.7     0.46      1017.0     2        54         4        73        8.48     273      335.8
   09/10/2016 09:30      74.5      73.3       58     58.0      0.00      0.00      81.9     0.46      1017.0     3         8         3        21        8.48     273      314.9
   09/10/2016 09:20      74.5      73.0       58     58.0      0.00      0.00      82.1     0.46      1017.0     2        38         4        73        8.48     274      295.1
   09/10/2016 09:10      73.0      72.1       61     58.3      0.00      0.00      82.2     0.47      1017.0     2        16         3        27        8.48     274      276.6
   09/10/2016 09:00      72.9      71.9       61     58.4      0.00      0.00      81.9     0.47      1017.0     2        13         3        11        8.48     274      254.6
   09/10/2016 08:50      73.0      71.9       62     58.7      0.00      0.00      81.7     0.47      1017.0     2        76         2       122        8.48     275      233.2
   09/10/2016 08:40      72.0      70.6       64     58.4      0.00      0.00      81.9     0.47      1017.0     1        94         3        96        8.48     276      210.0
   09/10/2016 08:30      70.3      68.6       67     58.0      0.00      0.00      82.2     0.47      1017.0     1        12         2        86        8.49     277      188.3
   09/10/2016 08:20      69.1      68.6       67     57.5      0.00      0.00      82.6     0.47      1017.0     1       316         2       350        8.49     277      163.2
   09/10/2016 08:10      68.9      67.9       67     57.0      0.00      0.00      82.4     0.47      1017.0     1       351         2       258        8.49     279      133.6
   09/10/2016 08:00      68.7      67.7       66     56.6      0.00      0.00      82.3     0.47      1017.0     1         5         2       350        8.49     281      101.9
   09/10/2016 07:50      69.2      66.7       67     56.6      0.00      0.00      82.1     0.47      1017.0     1        47         1        29        8.49     282       81.0
   09/10/2016 07:40      66.3      62.3       79     57.5      0.00      0.00      82.6     0.47      1017.0     0         9         1        27        8.49     283       74.4
   09/10/2016 07:30      62.1      60.8       84     56.4      0.00      0.00      82.4     0.47      1017.0     0        60         0        29        8.49     283       56.1
   09/10/2016 07:20      60.8      60.0       86     56.3      0.00      0.00      82.3     0.47      1017.0     0        11         1         0        8.49     283       34.1
   09/10/2016 07:10      60.0      59.1       88     56.0      0.00      0.00      82.4     0.47      1017.0     0       173         1       165        8.49     281       -1.4
   09/10/2016 07:00      59.0      58.6       88     55.4      0.00      0.00      82.6     0.47      1016.0     1       157         1       130        8.49     280      -17.0
   09/10/2016 06:50      58.8      58.5       88     55.2      0.00      0.00      82.5     0.47      1016.0     1       161         2       139        8.49     280      -24.6
   09/10/2016 06:40      59.1      59.0       88     55.6      0.00      0.00      82.7     0.47      1016.0     1       152         1       126        8.49     280      -28.7
   09/10/2016 06:30      59.1      58.7       88     55.5      0.00      0.00      82.5     0.47      1016.0     1       156         2       145        8.49     279      -32.2
   09/10/2016 06:20      59.0      58.8       87     55.2      0.00      0.00      82.7     0.47      1016.0     1       162         2       136        8.49     279      -33.6
   09/10/2016 06:10      59.6      59.1       87     55.5      0.00      0.00      82.7     0.47      1016.0     1       160         1       142        8.49     279      -33.7
   09/10/2016 06:00      59.6      59.4       88     55.9      0.00      0.00      82.5     0.47      1016.0     1       142         1       153        8.50     278      -33.4
   09/10/2016 05:50      59.5      59.3       87     55.6      0.00      0.00      82.7     0.47      1016.0     1       174         2       147        8.50     278      -35.0
   09/10/2016 05:40      59.6      59.4       87     55.5      0.00      0.00      82.6     0.47      1016.0     1       176         1       203        8.50     277      -35.6
   09/10/2016 05:30      59.6      59.3       86     55.2      0.00      0.00      82.8     0.47      1016.0     1       212         2       185        8.50     276      -36.2
   09/10/2016 05:20      59.6      59.4       87     55.5      0.00      0.00      82.6     0.47      1016.0     1       159         1       132        8.50     275      -37.1
   09/10/2016 05:10      59.9      59.6       86     55.6      0.00      0.00      82.8     0.47      1015.0     1       133         1       129        8.50     275      -37.7
   09/10/2016 05:00      60.1      59.9       87     56.1      0.00      0.00      82.7     0.47      1015.0     1       138         2       134        8.50     275      -37.6
   09/10/2016 04:50      60.2      59.8       86     55.6      0.00      0.00      82.8     0.47      1015.0     1       156         2       146        8.50     276      -40.8
   09/10/2016 04:40      60.4      60.2       85     55.9      0.00      0.00      82.7     0.47      1015.0     1       152         2       134        8.50     276      -41.4
   09/10/2016 04:30      60.5      60.3       86     56.1      0.00      0.00      83.3     0.47      1015.0     1       180         1       173        8.50     278      -42.6
   09/10/2016 04:20      60.6      60.3       85     56.0      0.00      0.00      83.2     0.47      1015.0     1       125         1       133        8.50     278      -45.9
   09/10/2016 04:10      60.5      60.3       85     55.8      0.00      0.00      83.1     0.47      1015.0     1       160         1       167        8.50     277      -49.6
   09/10/2016 04:00      61.0      60.3       82     55.1      0.00      0.00      83.3     0.47      1015.0     1       133         2       136        8.50     276      -51.3
   09/10/2016 03:50      61.1      60.9       84     56.1      0.00      0.00      82.8     0.47      1015.0     1       141         2       131        8.50     276      -48.9
   09/10/2016 03:40      61.1      60.8       83     55.9      0.00      0.00      83.3     0.47      1015.0     1       136         2       139        8.50     276      -50.1
   09/10/2016 03:30      61.3      61.1       84     56.2      0.00      0.00      83.4     0.47      1015.0     1       158         2       142        8.50     275      -51.2
   09/10/2016 03:20      61.3      61.0       83     56.0      0.00      0.00      83.2     0.47      1015.0     1       146         2       140        8.50     274      -53.4
   09/10/2016 03:10      61.6      61.1       81     55.5      0.00      0.00      83.4     0.47      1015.0     1       138         2       143        8.50     274      -54.7
   09/10/2016 03:00      62.0      61.7       81     56.0      0.00      0.00      83.2     0.47      1015.0     1       154         2       126        8.50     274      -54.1
   09/10/2016 02:50      61.9      61.7       82     56.1      0.00      0.00      83.2     0.47      1015.0     0       162         1       198        8.50     274      -53.8
   09/10/2016 02:40      61.9      61.6       81     55.9      0.00      0.00      83.3     0.47      1015.0     1       154         1       152        8.50     273      -55.0
   09/10/2016 02:30      62.2      62.0       80     55.8      0.00      0.00      83.2     0.47      1015.0     1       146         2       140        8.50     273      -55.6
   09/10/2016 02:20      62.5      62.3       81     56.4      0.00      0.00      83.3     0.47      1015.0     1       172         1       188        8.50     273      -55.0
   09/10/2016 02:10      62.6      62.3       80     56.3      0.00      0.00      83.8     0.47      1015.0     1       141         2       135        8.50     272      -54.9
   09/10/2016 02:00      62.8      62.6       79     56.1      0.00      0.00      83.5     0.47      1016.0     1       143         2       142        8.51     273      -55.4
   09/10/2016 01:50      63.2      62.8       78     56.0      0.00      0.00      83.4     0.47      1016.0     2       134         2       137        8.51     272      -56.3
   09/10/2016 01:40      63.3      63.0       77     55.8      0.00      0.00      83.4     0.47      1015.0     1       190         1       189        8.51     272      -56.4
   09/10/2016 01:30      63.7      63.3       76     55.9      0.00      0.00      83.8     0.47      1015.0     1       140         1       133        8.51     272      -56.4
   09/10/2016 01:20      64.0      63.8       75     55.9      0.00      0.00      83.5     0.47      1015.0     1       148         1       129        8.51     272      -56.4
   09/10/2016 01:10      64.1      63.9       76     56.2      0.00      0.00      83.6     0.47      1015.0     1       166         1       155        8.51     271      -56.4
   09/10/2016 01:00      64.3      64.0       75     56.1      0.00      0.00      83.5     0.47      1016.0     1       144         1       127        8.51     271      -57.1
   09/10/2016 00:50      64.5      63.9       75     56.2      0.00      0.00      83.7     0.47      1016.0     1        75         1        91        8.51     271      -57.7
   09/10/2016 00:40      64.3      63.9       75     56.1      0.00      0.00      83.7     0.47      1015.0     1       164         1       181        8.51     271      -58.3
   09/10/2016 00:30      64.5      64.3       75     56.2      0.00      0.00      83.8     0.47      1016.0     1       159         1       136        8.51     271      -58.3
   09/10/2016 00:20      64.9      64.7       74     56.5      0.00      0.00      83.5     0.47      1016.0     2       151         2       147        8.51     271      -59.3
   09/10/2016 00:10      65.0      64.9       73     56.3      0.00      0.00      83.7     0.47      1016.0     1       148         2       135        8.51     271      -59.9
   09/10/2016 00:00      65.2      64.9       72     56.0      0.00      0.00      83.7     0.47      1016.0     1       175         1       127        8.51     271      -60.3
   09/09/2016 23:50      65.7      65.3       72     56.4      0.00      0.00      83.5     0.47      1016.0     1       149         2       141        8.51     271      -60.4
   09/09/2016 23:40      65.9      65.6       72     56.3      0.00      0.00      83.8     0.47      1016.0     1       160         2       142        8.51     271      -60.7
   09/09/2016 23:30      66.1      65.7       71     56.2      0.00      0.00      84.0     0.47      1016.0     1       154         1       129        8.51     271      -61.1
   09/09/2016 23:20      66.2      65.8       70     56.0      0.00      0.00      83.9     0.47      1016.0     1       154         2       148        8.52     271      -61.6
   09/09/2016 23:10      66.7      66.2       69     56.0      0.00      0.00      83.7     0.47      1016.0     1       142         2       134        8.52     271      -62.0
   09/09/2016 23:00      66.9      66.7       69     56.2      0.00      0.00      83.7     0.47      1016.0     1       161         2       140        8.52     271      -62.5
   09/09/2016 22:50      67.4      66.9       65     55.1      0.00      0.00      83.7     0.47      1016.0     1       173         2       138        8.52     271      -62.6
   09/09/2016 22:40      67.7      67.4       66     55.7      0.00      0.00      83.8     0.47      1016.0     1       189         1       196        8.52     271      -62.6
   09/09/2016 22:30      68.3      67.8       65     55.8      0.00      0.00      83.7     0.47      1016.0     1       159         1       193        8.52     270      -64.1
   09/09/2016 22:20      69.0      68.5       64     56.0      0.00      0.00      84.2     0.47      1016.0     1       171         1       188        8.52     270      -64.7
   09/09/2016 22:10      69.3      69.1       62     55.9      0.00      0.00      83.9     0.47      1016.0     1       195         1       215        8.52     270      -64.3
   09/09/2016 22:00      69.2      68.8       62     55.5      0.00      0.00      84.0     0.47      1016.0     1       192         2       206        8.52     270      -65.1
   09/09/2016 21:50      69.3      69.1       63     56.0      0.00      0.00      84.0     0.47      1016.0     1       203         2       206        8.52     270      -65.5
   09/09/2016 21:40      70.3      69.4       61     55.7      0.00      0.00      83.7     0.47      1016.0     1       124         1       128        8.52     270      -67.7
   09/09/2016 21:30      71.0      70.5       60     56.2      0.00      0.00      83.7     0.47      1016.0     1       201         1       215        8.52     270      -67.9
   09/09/2016 21:20      71.5      71.2       59     56.3      0.00      0.00      83.9     0.47      1015.0     1       161         2       201        8.53     270      -69.4
   09/09/2016 21:10      71.9      71.5       59     56.4      0.00      0.00      83.9     0.47      1015.0     2       237         4       248        8.53     269      -69.6
   09/09/2016 21:00      72.5      72.0       58     56.6      0.00      0.00      83.6     0.47      1015.0     2       246         4       246        8.53     270      -70.6
   09/09/2016 20:50      72.6      72.4       57     56.6      0.00      0.00      83.7     0.47      1015.0     2       262         3       234        8.53     269      -71.1
   09/09/2016 20:40      73.0      72.7       57     56.7      0.00      0.00      83.9     0.47      1015.0     1       203         2       257        8.53     269      -71.7
   09/09/2016 20:30      73.2      73.0       57     56.8      0.00      0.00      83.7     0.47      1015.0     2       223         4       211        8.53     269      -71.7
   09/09/2016 20:20      73.5      73.1       57     57.0      0.00      0.00      83.4     0.47      1015.0     3       207         5       197        8.53     269      -71.8
   09/09/2016 20:10      73.9      73.5       56     57.0      0.00      0.00      83.6     0.47      1015.0     4       205         6       217        8.54     269      -71.7
   09/09/2016 20:00      74.6      74.0       55     56.9      0.00      0.00      83.6     0.47      1015.0     3       221         5       190        8.54     269      -72.9
   09/09/2016 19:50      75.5      74.8       53     56.7      0.00      0.00      83.3     0.47      1014.0     4       221         6       242        8.54     268      -74.4
   09/09/2016 19:40      76.4      75.7       51     56.3      0.00      0.00      83.3     0.47      1014.0     3       238         6       241        8.55     268      -75.4
   09/09/2016 19:30      77.4      76.6       48     55.9      0.00      0.00      83.7     0.47      1014.0     3       223         6       239        8.55     268      -76.2
   09/09/2016 19:20      78.1      77.4       46     55.5      0.00      0.00      83.2     0.47      1014.0     3       231         5       235        8.56     268      -76.1
   09/09/2016 19:10      78.9      78.3       44     55.0      0.00      0.00      83.5     0.47      1014.0     4       227         5       253        8.57     268      -74.5
   09/09/2016 19:00      79.8      79.1       43     55.0      0.00      0.00      83.3     0.47      1014.0     5       227         6       254        8.57     268      -70.7
   09/09/2016 18:50      80.9      80.0       42     55.0      0.00      0.00      83.3     0.47      1014.0     4       235         7       242        8.58     268      -66.1
   09/09/2016 18:40      81.5      81.1       42     56.1      0.00      0.00      83.0     0.47      1014.0     5       245         6       234        8.58     268      -52.6
   09/09/2016 18:30      81.9      81.5       43     56.9      0.00      0.00      83.1     0.47      1014.0     5       238         8       229        8.59     268      -30.2
   09/09/2016 18:20      82.9      81.9       42     57.3      0.00      0.00      83.2     0.47      1014.0     5       231         6       255        8.60     268       -9.8
   09/09/2016 18:10      83.5      83.0       42     57.6      0.00      0.00      83.1     0.47      1013.0     5       228         7       221        8.60     268       12.0
   09/09/2016 18:00      83.9      83.6       41     57.7      0.00      0.00      83.0     0.47      1013.0     6       224         9       240        8.61     268       33.3
   09/09/2016 17:50      84.2      83.8       41     57.8      0.00      0.00      83.0     0.47      1013.0     6       232         8       249        8.61     268       55.6
   09/09/2016 17:40      86.0      84.6       40     57.9      0.00      0.00      82.9     0.47      1013.0     6       242        11       243        8.61     268       76.5
   09/09/2016 17:30      86.6      85.6       39     58.0      0.00      0.00      82.7     0.47      1013.0     5       235         8       233        8.62     268      100.4
   09/09/2016 17:20      87.7      86.5       38     58.0      0.00      0.00      82.8     0.47      1013.0     6       249         9       258        8.62     269      123.1
   09/09/2016 17:10      88.5      87.4       37     58.1      0.00      0.00      82.8     0.47      1013.0     6       230         8       222        8.63     269      145.0
   09/09/2016 17:00      88.9      87.8       36     58.2      0.00      0.00      82.5     0.47      1013.0     6       221        10       220        8.63     268      167.2
   09/09/2016 16:50      90.0      89.2       35     58.2      0.00      0.00      82.6     0.47      1013.0     5       265         7       266        8.63     268      187.1
   09/09/2016 16:40      90.9      90.2       34     58.3      0.00      0.00      82.6     0.47      1013.0     5       305         6       303        8.64     269      207.0
   09/09/2016 16:30      91.1      90.2       34     58.2      0.00      0.00      82.5     0.47      1013.0     5       305         8       311        8.64     269      227.2
   09/09/2016 16:20      90.5      89.9       34     58.1      0.00      0.00      82.4     0.47      1013.0     6       317         8       311        8.64     269      250.3
   09/09/2016 16:10      91.4      90.4       33     58.3      0.00      0.00      82.3     0.47      1013.0     5       319         7       311        8.64     270      270.8
   09/09/2016 16:00      91.9      90.9       33     58.4      0.00      0.00      82.4     0.47      1013.0     4       336         7       313        8.65     270      285.3
   09/09/2016 15:50      91.8      90.9       34     58.5      0.00      0.00      82.2     0.47      1013.0     4       321         5       341        8.65     270      307.3
   09/09/2016 15:40      91.9      91.3       33     58.2      0.00      0.00      82.0     0.47      1013.0     4       340         6       357        8.65     270      321.6
   09/09/2016 15:30      92.1      90.1       33     58.1      0.00      0.00      82.1     0.47      1013.0     3       315         6       354        8.65     270      338.1
   09/09/2016 15:20      92.0      89.8       33     58.0      0.00      0.00      82.2     0.47      1013.0     3       234         5       255        8.65     270      356.0
   09/09/2016 15:10      92.5      91.1       32     57.6      0.00      0.00      82.0     0.47      1013.0     3        31         4        50        8.66     270      373.8
   09/09/2016 15:00      92.3      91.1       32     57.8      0.00      0.00      81.8     0.47      1013.0     3        12         6       348        8.66     270      388.4
   09/09/2016 14:50      91.5      90.4       33     57.8      0.00      0.00      81.8     0.47      1013.0     3        19         5        74        8.66     270      403.3
   09/09/2016 14:40      91.6      90.5       33     57.9      0.00      0.00      81.8     0.47      1013.0     3        35         5         1        8.66     270      412.5
   09/09/2016 14:30      91.6      89.7       33     57.7      0.00      0.00      81.7     0.47      1013.0     3       323         5       315        8.66     271      424.6
   09/09/2016 14:20      89.8      88.8       35     58.1      0.00      0.00      81.7     0.47      1014.0     4       344         6       350        8.67     271      436.5
   09/09/2016 14:10      90.1      88.9       35     58.4      0.00      0.00      81.7     0.47      1014.0     4        19         7       353        8.67     271      453.2
   09/09/2016 14:00      89.0      88.1       36     58.0      0.00      0.00      81.7     0.47      1014.0     3        24         6        68        8.67     271      465.4
   09/09/2016 13:50      88.7      87.7       36     58.1      0.00      0.00      81.2     0.47      1014.0     3       341         5         5        8.67     271      472.8
   09/09/2016 13:40      87.6      86.5       37     57.9      0.00      0.00      81.7     0.46      1014.0     3         4         4       316        8.67     271      479.6
   09/09/2016 13:30      86.7      85.0       38     57.5      0.00      0.00      81.7     0.47      1014.0     2        46         4       348        8.67     271      485.8
   09/09/2016 13:20      86.1      85.4       38     57.4      0.00      0.00      81.7     0.46      1014.0     3        69         4        37        8.68     270      492.3
   09/09/2016 13:10      86.1      85.0       38     57.2      0.00      0.00      81.2     0.46      1014.0     3        19         4       312        8.68     271      495.4
   09/09/2016 13:00      86.0      85.0       38     56.9      0.00      0.00      81.6     0.46      1015.0     3         9         5       356        8.68     271      497.8
   09/09/2016 12:50      84.6      82.9       40     56.9      0.00      0.00      81.5     0.46      1015.0     2        45         4        83        8.68     271      500.9
   09/09/2016 12:40      83.2      82.1       41     56.8      0.00      0.00      81.3     0.46      1015.0     2       306         3       296        8.68     272      502.2
   09/09/2016 12:30      82.6      81.5       44     57.8      0.00      0.00      81.2     0.46      1015.0     3       332         5       356        8.68     272      500.9
   09/09/2016 12:20      82.1      80.8       45     57.8      0.00      0.00      81.2     0.46      1015.0     2       284         4       302        8.68     272      501.3
   09/09/2016 12:10      80.6      79.5       47     57.9      0.00      0.00      81.4     0.46      1015.0     1       292         3        20        8.68     272      500.0
   09/09/2016 12:00      80.7      79.3       47     57.8      0.00      0.00      81.3     0.46      1015.0     3       312         5       307        8.68     272      495.0
   09/09/2016 11:50      79.9      78.5       49     58.2      0.00      0.00      81.3     0.46      1016.0     3       350         3        25        8.68     273      491.3
   09/09/2016 11:40      79.3      77.7       49     58.1      0.00      0.00      81.4     0.46      1016.0     2        34         3       312        8.68     273      488.3
   09/09/2016 11:30      77.5      76.1       52     57.9      0.00      0.00      81.2     0.47      1016.0     2       352         3       334        8.68     274      480.7
   09/09/2016 11:20      76.4      75.1       54     58.0      0.00      0.00      81.2     0.47      1016.0     2       319         3       337        8.68     274      474.9
   09/09/2016 11:10      76.1      74.6       55     58.3      0.00      0.00      81.6     0.47      1016.0     3        44         4        33        8.68     274      465.6
   09/09/2016 11:00      74.5      73.3       59     58.3      0.00      0.00      81.6     0.47      1016.0     2       254         3       335        8.69     274      455.2
   09/09/2016 10:50      74.1      73.3       59     58.4      0.00      0.00      81.6     0.47      1016.0     2        74         3       101        8.69     274      443.8
   09/09/2016 10:40      73.2      71.6       61     58.3      0.00      0.00      81.3     0.47      1016.0     2         8         3       357        8.69     275      429.9
   09/09/2016 10:30      71.9      71.1       63     58.2      0.00      0.00      81.6     0.47      1016.0     2       133         3       157        8.69     278      416.5
   09/09/2016 10:20      71.5      70.6       64     58.2      0.00      0.00      81.9     0.47      1016.0     2         7         3        27        8.69     281      397.8
   09/09/2016 10:10      70.7      70.0       65     58.2      0.00      0.00      81.6     0.47      1017.0     3        14         4        11        8.69     284      380.8
   09/09/2016 10:00      69.8      68.6       68     58.0      0.00      0.00      81.2     0.47      1017.0     2       135         3       125        8.69     287      363.5
   09/09/2016 09:50      69.1      67.8       70     58.0      0.00      0.00      81.1     0.47      1017.0     2        31         3        68        8.69     290      342.2
   09/09/2016 09:40      68.1      67.3       70     57.9      0.00      0.00      81.5     0.47      1017.0     2        54         3        35        8.69     291      322.0
   09/09/2016 09:30      67.2      64.9       76     57.9      0.00      0.00      81.6     0.47      1017.0     2       232         3       285        8.69     294      274.2
   09/09/2016 09:20      65.6      64.3       78     57.8      0.00      0.00      81.7     0.47      1017.0     2       214         4       129        8.69     295      252.5
   09/09/2016 09:10      65.0      64.8       78     57.8      0.00      0.00      81.7     0.47      1017.0     3        85         4        86        8.69     297      134.9
   09/09/2016 09:00      64.9      63.7       79     57.8      0.00      0.00      81.5     0.47      1017.0     2        82         3        79        8.70     298      177.5
   09/09/2016 08:50      63.6      63.0       82     57.7      0.00      0.00      81.8     0.47      1017.0     2       185         2       150        8.70     300      124.0
   09/09/2016 08:40      63.2      62.8       82     57.5      0.00      0.00      81.2     0.47      1017.0     1        97         2        29        8.70     301       77.5
   09/09/2016 08:30      63.0      62.3       83     57.5      0.00      0.00      81.6     0.47      1017.0     1         2         2        28        8.70     302       69.0
   09/09/2016 08:20      63.0      62.5       83     57.4      0.00      0.00      81.7     0.47      1017.0     3       358         4       346        8.70     302       56.3
   09/09/2016 08:10      63.0      62.3       84     57.7      0.00      0.00      82.0     0.47      1017.0     2        72         4        62        8.70     303       53.3
   09/09/2016 08:00      62.4      62.0       85     57.6      0.00      0.00      81.7     0.47      1017.0     1       129         2       123        8.70     303       32.1
   09/09/2016 07:50      62.2      61.7       85     57.6      0.00      0.00      81.7     0.47      1017.0     1        81         2        86        8.70     304       23.0
   09/09/2016 07:40      62.0      61.6       86     57.5      0.00      0.00      82.1     0.47      1017.0     2       120         3       128        8.70     304       17.7
   09/09/2016 07:30      62.0      61.8       85     57.4      0.00      0.00      82.1     0.47      1017.0     1        91         2        59        8.70     304       11.8
   09/09/2016 07:20      62.0      61.7       85     57.4      0.00      0.00      81.6     0.47      1017.0     1        49         2        44        8.70     304        5.1
   09/09/2016 07:10      62.0      61.7       86     57.5      0.00      0.00      82.2     0.47      1017.0     2        61         3        93        8.70     304       -2.0
   09/09/2016 07:00      61.8      61.6       86     57.5      0.00      0.00      82.0     0.47      1017.0     2        81         4       100        8.70     303       -6.4
   09/09/2016 06:50      61.8      61.6       86     57.5      0.00      0.00      82.1     0.47      1017.0     1        88         2        92        8.70     303       -9.8
   09/09/2016 06:40      61.9      61.6       86     57.7      0.00      0.00      81.7     0.47      1017.0     2       109         2       127        8.70     303      -11.6
   09/09/2016 06:30      61.9      61.6       87     57.9      0.00      0.00      81.9     0.47      1017.0     1        37         1        78        8.71     303      -12.4
   09/09/2016 06:20      61.7      61.5       88     58.0      0.00      0.00      82.4     0.47      1017.0     2         8         3       352        8.71     303      -12.9
   09/09/2016 06:10      61.9      61.5       88     57.9      0.00      0.00      82.2     0.47      1017.0     3         7         4        14        8.71     303      -13.4
   09/09/2016 06:00      61.9      61.6       88     58.1      0.00      0.00      82.1     0.47      1017.0     2        25         3       346        8.71     303      -13.8
   09/09/2016 05:50      61.6      61.3       89     58.1      0.00      0.00      82.2     0.47      1017.0     1        88         2        82        8.71     304      -13.4
   09/09/2016 05:40      61.6      61.3       89     58.1      0.00      0.00      82.1     0.47      1016.0     1        34         2         8        8.71     305      -13.4
   09/09/2016 05:30      61.5      61.3       89     58.1      0.00      0.00      82.2     0.47      1016.0     2        66         3         7        8.71     305      -12.9
   09/09/2016 05:20      61.5      61.3       89     58.0      0.00      0.00      82.0     0.47      1016.0     2        47         3        54        8.71     305      -12.8
   09/09/2016 05:10      61.5      61.2       89     58.1      0.00      0.00      82.2     0.47      1016.0     2        52         3        31        8.71     305      -11.8
   09/09/2016 05:00      61.4      60.9       90     58.0      0.00      0.00      82.4     0.47      1016.0     2        63         3         3        8.71     305       -9.4
   09/09/2016 04:50      61.1      60.8       90     58.0      0.00      0.00      82.1     0.47      1016.0     2        81         3        78        8.71     304       -8.4
   09/09/2016 04:40      61.1      60.3       90     57.8      0.00      0.00      82.6     0.47      1016.0     2        62         3        32        8.71     302       -8.5
   09/09/2016 04:30      60.5      59.4       90     57.0      0.00      0.00      82.4     0.47      1016.0     1        77         2        80        8.71     301      -12.8
   09/09/2016 04:20      59.9      59.4       89     56.4      0.00      0.00      82.2     0.47      1016.0     1        94         1        82        8.72     299      -30.1
   09/09/2016 04:10      60.2      59.9       90     56.9      0.00      0.00      82.4     0.47      1016.0     1       119         1        88        8.72     297      -34.6
   09/09/2016 04:00      60.0      59.8       89     56.6      0.00      0.00      82.7     0.47      1016.0     1       118         1        79        8.72     296      -36.3
   09/09/2016 03:50      60.4      59.9       88     56.7      0.00      0.00      82.5     0.47      1016.0     1       104         2        62        8.72     295      -37.5
   09/09/2016 03:40      60.9      60.4       88     57.0      0.00      0.00      82.8     0.47      1016.0     1       124         1       132        8.72     294      -38.3
   09/09/2016 03:30      61.0      60.8       87     57.1      0.00      0.00      82.9     0.47      1016.0     1        93         1        92        8.72     293      -39.6
   09/09/2016 03:20      61.3      60.9       87     57.1      0.00      0.00      83.0     0.47      1016.0     1        66         1        34        8.72     292      -42.1
   09/09/2016 03:10      61.4      61.1       87     57.2      0.00      0.00      82.7     0.47      1016.0     1        64         2        75        8.72     290      -43.3
   09/09/2016 03:00      61.4      61.0       86     56.9      0.00      0.00      83.0     0.47      1016.0     1        87         2        68        8.72     289      -45.5
   09/09/2016 02:50      61.4      61.1       85     56.8      0.00      0.00      82.7     0.47      1016.0     1        80         1        56        8.72     288      -47.2
   09/09/2016 02:40      61.6      61.4       84     56.6      0.00      0.00      82.9     0.47      1016.0     1        90         2        77        8.72     287      -50.1
   09/09/2016 02:30      61.8      61.5       84     56.9      0.00      0.00      82.9     0.47      1016.0     1        84         2        67        8.73     286      -52.2
   09/09/2016 02:20      61.7      61.5       83     56.6      0.00      0.00      82.9     0.47      1016.0     1        94         2        75        8.73     285      -53.7
   09/09/2016 02:10      61.9      61.6       83     56.5      0.00      0.00      83.3     0.47      1016.0     1       102         2       126        8.73     284      -53.6
   09/09/2016 02:00      62.2      61.8       82     56.7      0.00      0.00      82.9     0.47      1016.0     1       109         2       104        8.73     282      -54.0
   09/09/2016 01:50      62.4      62.2       82     56.6      0.00      0.00      82.8     0.47      1016.0     1       113         2       122        8.73     282      -54.6
   09/09/2016 01:40      62.6      62.3       81     56.6      0.00      0.00      83.2     0.47      1016.0     1       128         2       130        8.73     289      -54.7
   09/09/2016 01:30      62.9      62.6       81     56.7      0.00      0.00      83.1     0.47      1016.0     1        94         1        88        8.73     288      -54.9
   09/09/2016 01:20      63.2      63.0       80     57.0      0.00      0.00      83.0     0.48      1016.0     1        95         2        94        8.73     287      -54.5
   09/09/2016 01:10      63.3      63.2       80     57.1      0.00      0.00      83.3     0.47      1016.0     1        71         1        61        8.73     286      -54.6
   09/09/2016 01:00      63.3      63.1       80     57.0      0.00      0.00      83.2     0.48      1016.0     1       107         2        96        8.73     285      -54.3
   09/09/2016 00:50      63.4      63.2       80     56.9      0.00      0.00      83.2     0.48      1016.0     1       137         1       122        8.73     284      -54.6
   09/09/2016 00:40      63.5      63.4       80     57.0      0.00      0.00      83.2     0.48      1016.0     1       144         1       146        8.73     283      -55.0
   09/09/2016 00:30      63.8      63.5       78     56.9      0.00      0.00      83.3     0.48      1016.0     1       163         1       160        8.73     282      -55.3
   09/09/2016 00:20      64.3      63.9       78     56.9      0.00      0.00      83.0     0.48      1016.0     1       162         2       179        8.74     281      -56.0
   09/09/2016 00:10      64.4      64.2       77     57.1      0.00      0.00      82.9     0.48      1016.0     1       174         2       140        8.74     280      -56.3
   09/09/2016 00:00      64.4      64.2       77     56.9      0.00      0.00      83.5     0.48      1016.0     1       172         1       176        8.74     280      -56.9
   09/08/2016 23:50      64.6      64.3       77     56.9      0.00      0.00      83.2     0.48      1016.0     1       171         1       167        8.74     279      -56.8
   09/08/2016 23:40      64.6      64.5       76     56.9      0.00      0.00      83.3     0.48      1016.0     1       149         1       161        8.74     278      -57.1
   09/08/2016 23:30      65.1      64.9       75     56.7      0.00      0.00      83.4     0.48      1016.0     1       132         1       105        8.74     277      -57.0
   09/08/2016 23:20      65.4      65.1       74     56.7      0.00      0.00      83.3     0.48      1016.0     1       110         1       124        8.74     276      -57.6
   09/08/2016 23:10      65.9      65.4       72     56.3      0.00      0.00      83.6     0.48      1016.0     1       164         1       191        8.74     276      -58.6
   09/08/2016 23:00      66.3      66.0       71     56.6      0.00      0.00      83.5     0.48      1016.0     1       218         2       232        8.74     275      -59.7
   09/08/2016 22:50      66.2      65.7       72     56.6      0.00      0.00      83.3     0.48      1016.0     1       271         3       285        8.74     274      -59.5
   09/08/2016 22:40      66.0      65.7       73     57.1      0.00      0.00      83.3     0.48      1016.0     1       167         1       235        8.75     274      -60.1
   09/08/2016 22:30      66.0      65.8       71     56.4      0.00      0.00      83.6     0.48      1016.0     1        99         1       105        8.75     273      -60.7
   09/08/2016 22:20      66.3      66.0       72     56.8      0.00      0.00      83.2     0.48      1016.0     1       180         1       194        8.75     273      -60.5
   09/08/2016 22:10      66.5      66.1       71     56.7      0.00      0.00      83.4     0.48      1016.0     1       176         1       216        8.75     272      -61.6
   09/08/2016 22:00      66.7      66.5       71     57.0      0.00      0.00      83.1     0.48      1016.0     1       136         1       111        8.75     271      -62.3
   09/08/2016 21:50      67.2      66.9       71     57.5      0.00      0.00      83.1     0.48      1016.0     1       109         1        83        8.75     271      -63.4
   09/08/2016 21:40      67.2      67.1       71     57.6      0.00      0.00      82.8     0.48      1016.0     1       108         2       133        8.75     271      -64.5
   09/08/2016 21:30      67.5      67.2       71     57.5      0.00      0.00      83.2     0.48      1016.0     2       116         2        93        8.75     271      -65.2
   09/08/2016 21:20      67.8      67.5       70     57.6      0.00      0.00      83.4     0.48      1016.0     2       104         2        85        8.75     270      -65.6
   09/08/2016 21:10      68.5      67.8       69     57.6      0.00      0.00      83.2     0.48      1016.0     2        93         4        87        8.76     270      -65.9
   09/08/2016 21:00      69.5      68.7       67     57.6      0.00      0.00      83.3     0.48      1016.0     2        73         4        71        8.76     270      -66.9
   09/08/2016 20:50      69.8      69.6       65     57.4      0.00      0.00      83.3     0.48      1015.0     2        47         2        20        8.76     270      -67.5
   09/08/2016 20:40      70.3      69.8       64     57.4      0.00      0.00      83.1     0.48      1015.0     2        62         3        63        8.76     270      -67.3
   09/08/2016 20:30      70.7      70.4       63     57.4      0.00      0.00      83.4     0.48      1015.0     1        63         2        89        8.76     271      -67.8
   09/08/2016 20:20      71.0      70.7       62     57.3      0.00      0.00      82.9     0.48      1015.0     2        73         2        79        8.76     271      -68.0
   09/08/2016 20:10      71.4      71.1       61     57.3      0.00      0.00      83.3     0.48      1015.0     1        68         2        65        8.76     271      -68.7
   09/08/2016 20:00      71.7      71.3       61     57.3      0.00      0.00      83.2     0.48      1015.0     2        97         3       116        8.76     271      -68.4
   09/08/2016 19:50      72.2      71.9       60     57.3      0.00      0.00      83.2     0.48      1015.0     1        58         3        35        8.77     271      -69.0
   09/08/2016 19:40      73.2      72.5       58     57.1      0.00      0.00      83.2     0.48      1015.0     2        72         3        90        8.77     271      -70.1
   09/08/2016 19:30      73.9      73.2       57     57.2      0.00      0.00      83.0     0.48      1015.0     2        66         5        70        8.77     270      -71.2
   09/08/2016 19:20      75.0      74.3       55     57.3      0.00      0.00      83.0     0.48      1014.0     2        57         4        65        8.77     270      -71.5
   09/08/2016 19:10      76.5      75.2       53     57.5      0.00      0.00      83.2     0.48      1014.0     2        70         3        94        8.77     270      -70.0
   09/08/2016 19:00      77.3      76.4       51     57.6      0.00      0.00      82.9     0.48      1014.0     2        56         3        66        8.78     270      -67.3
   09/08/2016 18:50      78.6      77.5       50     57.9      0.00      0.00      82.9     0.48      1014.0     2        15         5         0        8.78     270      -63.8
   09/08/2016 18:40      79.8      78.7       48     58.0      0.00      0.00      82.7     0.48      1014.0     3         2         5       296        8.78     269      -46.0
   09/08/2016 18:30      80.9      80.1       44     56.7      0.00      0.00      82.9     0.48      1014.0     4       276         7       235        8.79     269      -24.6
   09/08/2016 18:20      81.4      81.1       43     56.8      0.00      0.00      82.8     0.48      1014.0     3       237         6       226        8.79     269       -5.3
   09/08/2016 18:10      82.6      81.5       44     57.9      0.00      0.00      82.8     0.47      1014.0     2        29         4        70        8.79     269       15.4
   09/08/2016 18:00      83.1      82.6       41     56.9      0.00      0.00      82.6     0.47      1014.0     3       283         4       278        8.80     269       38.0
   09/08/2016 17:50      83.5      82.5       42     57.2      0.00      0.00      82.5     0.47      1014.0     5       315         7       313        8.80     270       59.9
   09/08/2016 17:40      83.8      83.3       41     57.4      0.00      0.00      82.4     0.47      1014.0     5       280         6       209        8.80     269       82.7
   09/08/2016 17:30      84.7      83.9       40     57.7      0.00      0.00      82.5     0.47      1014.0     4       303         6       280        8.80     270      106.3
   09/08/2016 17:20      84.5      83.9       41     57.7      0.00      0.00      82.3     0.47      1014.0     3       256         4       270        8.81     270      128.8
   09/08/2016 17:10      84.5      84.0       41     57.8      0.00      0.00      82.4     0.47      1014.0     3       211         5       247        8.81     270      152.1
   09/08/2016 17:00      84.4      83.9       41     57.7      0.00      0.00      82.5     0.47      1014.0     4       249         7       259        8.81     269      176.1
   09/08/2016 16:50      84.9      83.9       41     57.9      0.00      0.00      82.1     0.47      1014.0     4       230         6       265        8.82     269      198.0
   09/08/2016 16:40      85.4      84.4       40     58.1      0.00      0.00      82.1     0.47      1014.0     6       263         8       250        8.82     269      219.9
   09/08/2016 16:30      84.8      84.0       40     57.8      0.00      0.00      82.3     0.47      1014.0     4       258         5       255        8.82     270      240.7
   09/08/2016 16:20      86.2      85.1       39     57.9      0.00      0.00      82.0     0.47      1014.0     4       264         8       252        8.83     270      260.5
   09/08/2016 16:10      87.0      86.0       38     58.0      0.00      0.00      81.9     0.47      1014.0     4       332         6         3        8.83     270      278.4
   09/08/2016 16:00      87.0      86.2       39     58.3      0.00      0.00      81.9     0.47      1014.0     4       350         6       333        8.83     270      298.5
   09/08/2016 15:50      87.2      86.1       38     58.0      0.00      0.00      82.0     0.47      1015.0     3       225         5       206        8.83     270      319.2
   09/08/2016 15:40      87.7      86.9       37     58.0      0.00      0.00      81.8     0.47      1015.0     4       335         6       336        8.84     270      336.8
   09/08/2016 15:30      87.7      87.0       36     57.4      0.00      0.00      81.7     0.47      1015.0     3       322         6       311        8.84     270      354.9
   09/08/2016 15:20      88.1      87.0       36     57.3      0.00      0.00      81.6     0.47      1015.0     4       288         7       252        8.84     270      373.3
   09/08/2016 15:10      87.7      86.0       37     57.1      0.00      0.00      81.7     0.47      1015.0     2        84         4       138        8.85     270      388.6
   09/08/2016 15:00      87.7      86.3       36     57.1      0.00      0.00      81.5     0.47      1015.0     3       102         5       126        8.85     270      402.6
   09/08/2016 14:50      87.2      86.6       36     56.9      0.00      0.00      81.4     0.47      1015.0     4        53         5        27        8.85     270      414.7
   09/08/2016 14:40      86.8      86.2       36     56.2      0.00      0.00      81.4     0.47      1015.0     3        90         5        64        8.85     271      425.9
   09/08/2016 14:30      86.8      86.1       36     56.3      0.00      0.00      81.5     0.47      1015.0     4        57         6        58        8.86     271      438.9
   09/08/2016 14:20      87.2      86.1       35     55.8      0.00      0.00      81.3     0.47      1015.0     4        63         6        76        8.86     271      450.7
   09/08/2016 14:10      87.6      86.3       33     54.8      0.00      0.00      81.2     0.47      1016.0     3        72         5       115        8.86     271      458.8
   09/08/2016 14:00      87.5      86.6       31     52.7      0.00      0.00      81.3     0.47      1016.0     3        37         4        36        8.86     271      466.2
   09/08/2016 13:50      87.0      85.7       28     49.2      0.00      0.00      81.1     0.47      1016.0     4       320        12        20        8.86     271      472.6
   09/08/2016 13:40      87.0      85.9       28     49.4      0.00      0.00      81.2     0.47      1016.0     3        10         6        12        8.86     271      479.2
   09/08/2016 13:30      86.8      84.5       28     48.4      0.00      0.00      81.1     0.47      1016.0     2        17         4       338        8.87     271      486.4
   09/08/2016 13:20      85.1      84.0       28     48.0      0.00      0.00      81.1     0.47      1016.0     4       124         6       131        8.87     270      493.8
   09/08/2016 13:10      85.4      84.5       28     48.0      0.00      0.00      81.0     0.47      1017.0     4        58         6       103        8.87     270      494.8
   09/08/2016 13:00      84.9      83.7       28     47.9      0.00      0.00      81.2     0.47      1017.0     3       339         6       343        8.87     271      497.1
   09/08/2016 12:50      84.5      83.6       29     48.6      0.00      0.00      81.1     0.47      1017.0     4       330         5       327        8.87     272      500.1
   09/08/2016 12:40      83.7      81.9       31     49.1      0.00      0.00      81.1     0.47      1017.0     2        35         4         3        8.87     272      499.3
   09/08/2016 12:30      82.3      81.6       29     47.0      0.00      0.00      80.8     0.47      1017.0     3        32         5        12        8.88     272      497.6
   09/08/2016 12:20      82.4      80.5       34     49.9      0.00      0.00      80.9     0.47      1017.0     3       346         5       331        8.88     272      497.1
   09/08/2016 12:10      80.7      79.8       36     50.3      0.00      0.00      81.0     0.47      1017.0     3         3         5       343        8.88     272      495.3
   09/08/2016 12:00      80.8      79.9       38     52.5      0.00      0.00      80.9     0.47      1017.0     4        21         6       342        8.88     273      492.6
   09/08/2016 11:50      80.2      79.2       41     54.3      0.00      0.00      80.9     0.47      1018.0     3         4         4       343        8.88     273      490.3
   09/08/2016 11:40      79.5      77.5       44     54.7      0.00      0.00      81.0     0.47      1018.0     2        35         4        26        8.88     274      483.9
   09/08/2016 11:30      77.5      76.5       46     54.7      0.00      0.00      81.0     0.47      1018.0     2       291         4       356        8.88     274      477.9
   09/08/2016 11:20      77.8      76.7       46     54.8      0.00      0.00      81.1     0.47      1018.0     2       325         4       263        8.88     274      471.1
   09/08/2016 11:10      77.3      76.1       48     55.5      0.00      0.00      81.1     0.47      1018.0     3        16         5         1        8.88     275      462.6
   09/08/2016 11:00      77.5      76.3       49     56.3      0.00      0.00      80.6     0.47      1018.0     3       349         4         4        8.88     280      455.9
   09/08/2016 10:50      75.8      75.3       51     56.4      0.00      0.00      81.1     0.47      1018.0     3        17         5        33        8.88     287      443.7
   09/08/2016 10:40      75.7      74.6       52     56.3      0.00      0.00      81.3     0.47      1018.0     2        17         3       331        8.88     296      430.8
   09/08/2016 10:30      74.9      74.2       53     56.4      0.00      0.00      81.0     0.47      1018.0     2        17         4        62        8.88     306      417.6
   09/08/2016 10:20      74.4      73.8       54     56.6      0.00      0.00      81.3     0.47      1018.0     3        81         4        79        8.88     313      404.2
   09/08/2016 10:10      74.0      72.7       56     56.7      0.00      0.00      80.8     0.47      1019.0     2        41         3        61        8.88     318      388.5
   09/08/2016 10:00      73.5      72.7       56     56.5      0.00      0.00      81.4     0.47      1019.0     2       340         4       353        8.88     322      371.1
   09/08/2016 09:50      72.6      71.2       58     56.5      0.00      0.00      80.7     0.47      1019.0     2        92         2        63        8.88     327      353.7
   09/08/2016 09:40      71.2      69.9       62     57.1      0.00      0.00      81.3     0.47      1019.0     2       339         4       292        8.88     330      333.6
   09/08/2016 09:30      69.8      68.2       66     57.1      0.00      0.00      81.4     0.47      1019.0     2       315         3       324        8.88     331      310.6
   09/08/2016 09:20      68.7      67.9       67     57.0      0.00      0.00      81.1     0.47      1019.0     2       204         4       168        8.89     332      289.5
   09/08/2016 09:10      68.7      67.9       67     57.0      0.00      0.00      81.7     0.47      1019.0     2        95         3       357        8.89     333      264.5
   09/08/2016 09:00      68.1      66.9       69     56.9      0.00      0.00      81.3     0.48      1019.0     2       157         3       101        8.89     334      237.3
   09/08/2016 08:50      67.3      66.5       70     56.7      0.00      0.00      81.3     0.48      1019.0     2       330         3         3        8.89     335      209.1
   09/08/2016 08:40      67.7      66.8       69     56.9      0.00      0.00      81.6     0.48      1019.0     2        51         3        55        8.89     334      198.3
   09/08/2016 08:30      66.9      66.2       71     56.9      0.00      0.00      81.6     0.48      1019.0     3        47         3        62        8.89     334      174.0
   09/08/2016 08:20      66.8      66.2       71     56.9      0.00      0.00      81.1     0.48      1019.0     3        61         4         3        8.89     335      149.4
   09/08/2016 08:10      66.2      64.7       74     57.0      0.00      0.00      81.5     0.48      1019.0     2        87         3       122        8.89     336      134.2
   09/08/2016 08:00      64.9      63.9       77     57.0      0.00      0.00      81.2     0.48      1019.0     1        35         3       114        8.89     338       75.7
   09/08/2016 07:50      64.0      63.3       78     56.7      0.00      0.00      81.6     0.48      1019.0     1       140         2       172        8.89     339       34.6
   09/08/2016 07:40      63.4      63.1       79     56.6      0.00      0.00      81.8     0.48      1019.0     2       144         4       131        8.89     340       18.8
   09/08/2016 07:30      63.5      63.3       79     56.7      0.00      0.00      81.6     0.48      1019.0     2        89         4       139        8.89     341       11.5
   09/08/2016 07:20      63.6      63.1       79     56.8      0.00      0.00      82.1     0.48      1019.0     1        67         1        57        8.89     342        8.9
   09/08/2016 07:10      63.3      63.1       79     56.7      0.00      0.00      81.6     0.48      1019.0     2        68         3        14        8.89     342        0.1
   09/08/2016 07:00      63.1      62.8       80     56.5      0.00      0.00      81.6     0.48      1019.0     1        82         2       149        8.89     342       -4.7
   09/08/2016 06:50      62.8      62.3       80     56.4      0.00      0.00      81.5     0.48      1019.0     1       295         2       293        8.89     342       -9.5
   09/08/2016 06:40      62.4      61.7       81     56.1      0.00      0.00      81.7     0.48      1019.0     1       261         2       290        8.89     341      -11.7
   09/08/2016 06:30      61.9      61.1       82     55.9      0.00      0.00      82.0     0.48      1018.0     1       195         1       178        8.89     341      -12.0
   09/08/2016 06:20      61.3      60.6       84     56.1      0.00      0.00      81.4     0.48      1018.0     1       163         1       158        8.89     340      -13.0
   09/08/2016 06:10      60.6      60.1       85     56.0      0.00      0.00      81.8     0.48      1018.0     0       165         1       166        8.89     339      -14.3
   09/08/2016 06:00      60.3      59.9       86     55.8      0.00      0.00      82.0     0.48      1018.0     0       153         1       148        8.89     337      -27.4
   09/08/2016 05:50      60.3      59.9       85     55.6      0.00      0.00      81.8     0.48      1018.0     0       160         0       174        8.89     334      -43.5
   09/08/2016 05:40      60.6      60.3       84     55.6      0.00      0.00      81.3     0.48      1018.0     1       118         1       131        8.89     330      -49.8
   09/08/2016 05:30      60.9      60.6       84     56.0      0.00      0.00      81.8     0.48      1018.0     1       170         2       159        8.89     328      -51.5
   09/08/2016 05:20      61.3      61.0       83     56.0      0.00      0.00      82.0     0.48      1018.0     1       189         2       196        8.89     323      -53.2
   09/08/2016 05:10      61.4      61.1       83     55.9      0.00      0.00      81.6     0.48      1018.0     2       194         2       195        8.89     319      -54.3
   09/08/2016 05:00      61.7      61.4       82     56.0      0.00      0.00      82.2     0.48      1018.0     2       205         3       204        8.89     315      -54.8
   09/08/2016 04:50      62.0      61.8       82     56.3      0.00      0.00      81.9     0.48      1018.0     2       172         3       145        8.89     312      -55.7
   09/08/2016 04:40      62.4      62.0       81     56.4      0.00      0.00      82.1     0.48      1018.0     3       159         5       151        8.89     309      -56.6
   09/08/2016 04:30      62.4      62.2       81     56.4      0.00      0.00      81.9     0.48      1018.0     3       147         4       169        8.90     307      -57.4
   09/08/2016 04:20      62.7      62.6       80     56.5      0.00      0.00      81.8     0.48      1018.0     3       144         5       120        8.89     303      -58.2
   09/08/2016 04:10      63.0      62.8       80     56.6      0.00      0.00      82.3     0.48      1018.0     1       167         2       164        8.89     300      -57.0
   09/08/2016 04:00      63.2      62.9       80     56.8      0.00      0.00      82.0     0.48      1018.0     2       119         3       109        8.89     298      -46.2
   09/08/2016 03:50      63.4      63.2       79     56.8      0.00      0.00      82.0     0.48      1018.0     2       140         3       127        8.90     297      -33.3
   09/08/2016 03:40      63.4      63.2       80     56.9      0.00      0.00      82.2     0.48      1018.0     2       126         3       116        8.90     296      -29.3
   09/08/2016 03:30      63.5      63.4       79     56.8      0.00      0.00      82.3     0.48      1018.0     2       111         3       108        8.90     295      -33.7
   09/08/2016 03:20      63.5      63.3       79     56.9      0.00      0.00      81.9     0.48      1018.0     1        22         2       352        8.90     294      -34.6
   09/08/2016 03:10      63.5      63.4       79     56.9      0.00      0.00      82.0     0.48      1018.0     2       122         2       136        8.90     293      -33.1
   09/08/2016 03:00      63.7      63.4       79     57.0      0.00      0.00      82.0     0.48      1018.0     2       105         5        88        8.90     293      -26.9
   09/08/2016 02:50      63.9      63.6       79     57.1      0.00      0.00      82.0     0.48      1018.0     3        63         5        99        8.90     293      -21.1
   09/08/2016 02:40      63.9      63.5       79     57.1      0.00      0.00      82.5     0.48      1018.0     1       108         2        87        8.90     293      -20.1
   09/08/2016 02:30      64.0      63.6       79     57.2      0.00      0.00      82.2     0.48      1018.0     2       104         3        96        8.90     292      -19.8
   09/08/2016 02:20      63.9      63.7       79     57.2      0.00      0.00      82.2     0.48      1018.0     2       115         2       123        8.90     293      -17.9
   09/08/2016 02:10      63.9      63.6       79     57.2      0.00      0.00      82.4     0.48      1019.0     2       116         3        91        8.90     292      -17.2
   09/08/2016 02:00      63.9      63.6       79     57.1      0.00      0.00      82.5     0.48      1019.0     2       115         4       135        8.90     292      -17.0
   09/08/2016 01:50      64.3      64.0       78     57.3      0.00      0.00      82.7     0.48      1019.0     2        89         4       130        8.90     291      -18.3
   09/08/2016 01:40      64.4      64.3       78     57.4      0.00      0.00      82.7     0.48      1019.0     2        72         4        71        8.90     291      -18.1
   09/08/2016 01:30      64.3      64.0       79     57.4      0.00      0.00      82.3     0.48      1019.0     3       102         4       108        8.90     291      -17.4
   09/08/2016 01:20      64.5      64.1       79     57.5      0.00      0.00      82.7     0.48      1019.0     3       142         5       141        8.90     291      -17.3
   09/08/2016 01:10      64.7      64.6       78     57.6      0.00      0.00      82.6     0.48      1018.0     2       129         4       117        8.90     290      -17.6
   09/08/2016 01:00      64.9      64.5       78     57.7      0.00      0.00      82.8     0.48      1018.0     2       116         4       134        8.90     290      -18.1
   09/08/2016 00:50      64.7      64.3       79     57.8      0.00      0.00      83.0     0.48      1018.0     2        41         2        45        8.90     290      -17.6
   09/08/2016 00:40      64.6      64.3       79     57.8      0.00      0.00      82.7     0.48      1018.0     4       136         6       160        8.91     290      -17.7
   09/08/2016 00:30      64.7      64.3       79     58.0      0.00      0.00      82.6     0.48      1018.0     3       135         5       133        8.91     288      -18.2
   09/08/2016 00:20      64.9      64.4       80     58.1      0.00      0.00      82.4     0.48      1018.0     4       113         7       135        8.91     288      -17.4
   09/08/2016 00:10      65.1      64.8       79     58.4      0.00      0.00      82.6     0.48      1018.0     3       113         4        89        8.91     288      -17.6
   09/08/2016 00:00      65.1      64.9       80     58.5      0.00      0.00      82.8     0.48      1018.0     3       127         5       168        8.91     288      -17.1
   09/07/2016 23:50      65.0      64.9       80     58.6      0.00      0.00      82.6     0.48      1018.0     3       117         5       112        8.91     287      -17.0
   09/07/2016 23:40      65.3      65.1       80     58.8      0.00      0.00      82.4     0.48      1018.0     4       116         5       145        8.91     288      -16.8
   09/07/2016 23:30      65.4      65.2       79     58.8      0.00      0.00      82.9     0.48      1018.0     2       108         4       118        8.91     288      -16.8
   09/07/2016 23:20      65.7      65.3       79     58.9      0.00      0.00      82.9     0.48      1018.0     3        82         6        67        8.91     288      -16.7
   09/07/2016 23:10      65.5      65.4       79     58.8      0.00      0.00      82.5     0.48      1018.0     2       106         4       125        8.91     288      -16.6
   09/07/2016 23:00      65.8      65.5       78     58.9      0.00      0.00      82.5     0.48      1018.0     2        70         6        92        8.91     287      -17.4
   09/07/2016 22:50      65.5      65.2       79     58.7      0.00      0.00      82.6     0.48      1018.0     3        77         5        71        8.92     287      -17.1
   09/07/2016 22:40      65.5      65.1       79     58.5      0.00      0.00      82.7     0.48      1018.0     3       112         6       137        8.92     286      -19.7
   09/07/2016 22:30      65.4      65.2       78     58.2      0.00      0.00      83.0     0.48      1018.0     3       116         6       104        8.92     286      -19.1
   09/07/2016 22:20      65.4      64.8       77     57.8      0.00      0.00      83.1     0.48      1018.0     2       113         4       111        8.92     286      -18.5
   09/07/2016 22:10      64.9      64.5       77     57.6      0.00      0.00      83.0     0.48      1018.0     2       116         4       129        8.92     285      -18.5
   09/07/2016 22:00      64.6      64.3       78     57.4      0.00      0.00      83.2     0.48      1018.0     2       120         3       142        8.92     281      -41.8
   09/07/2016 21:50      64.5      64.3       78     57.5      0.00      0.00      82.4     0.48      1018.0     2        98         4       130        8.92     278      -62.8
   09/07/2016 21:40      64.7      64.5       78     57.5      0.00      0.00      82.7     0.48      1018.0     3       104         4        56        8.93     277      -63.6
   09/07/2016 21:30      65.0      64.7       77     57.4      0.00      0.00      82.9     0.48      1018.0     3        94         5       119        8.93     275      -63.9
   09/07/2016 21:20      65.2      65.0       76     57.4      0.00      0.00      82.9     0.48      1018.0     3       106         5       129        8.93     275      -64.0
   09/07/2016 21:10      65.5      65.3       75     57.5      0.00      0.00      82.8     0.48      1018.0     2       111         5       114        8.93     273      -64.5
   09/07/2016 21:00      66.0      65.5       75     57.6      0.00      0.00      83.0     0.48      1018.0     3       128         5       131        8.93     273      -65.7
   09/07/2016 20:50      66.3      66.1       74     57.7      0.00      0.00      82.8     0.48      1018.0     3       118         5       128        8.94     272      -66.4
   09/07/2016 20:40      67.2      66.4       73     57.7      0.00      0.00      82.7     0.48      1017.0     3       135         5       145        8.94     271      -68.2
   09/07/2016 20:30      67.8      67.2       71     57.8      0.00      0.00      82.6     0.48      1017.0     3       128         5       135        8.94     271      -68.6
   09/07/2016 20:20      68.7      67.9       69     58.0      0.00      0.00      82.8     0.48      1017.0     3       127         4       129        8.94     270      -70.0
   09/07/2016 20:10      69.2      68.7       68     58.0      0.00      0.00      82.8     0.48      1017.0     2       114         4       129        8.94     270      -70.8
   09/07/2016 20:00      69.9      69.3       66     57.7      0.00      0.00      82.7     0.48      1017.0     2       116         4       114        8.95     269      -71.5
   09/07/2016 19:50      70.3      69.9       65     57.6      0.00      0.00      82.8     0.48      1016.0     2       108         3       110        8.95     269      -72.6
   09/07/2016 19:40      70.9      70.2       63     57.5      0.00      0.00      82.7     0.48      1016.0     3       106         5       113        8.95     269      -75.0
   09/07/2016 19:30      71.7      71.0       60     57.0      0.00      0.00      82.4     0.48      1016.0     3       110         4       125        8.95     269      -77.4
   09/07/2016 19:20      72.6      71.9       58     56.5      0.00      0.00      82.8     0.48      1016.0     4       124         5       115        8.96     270      -79.5
   09/07/2016 19:10      73.3      72.6       55     55.9      0.00      0.00      82.5     0.48      1016.0     3       132         5       139        8.96     270      -78.3
   09/07/2016 19:00      74.3      73.3       53     55.6      0.00      0.00      82.4     0.48      1016.0     4       121         5       138        8.96     270      -75.9
   09/07/2016 18:50      75.2      74.4       49     54.8      0.00      0.00      82.9     0.48      1016.0     4        93         5       120        8.97     270      -73.5
   09/07/2016 18:40      76.3      75.3       47     54.1      0.00      0.00      82.5     0.48      1015.0     5       145         8       153        8.97     270      -50.5
   09/07/2016 18:30      77.5      76.3       43     52.9      0.00      0.00      82.4     0.48      1015.0     5       129        10       130        8.98     270      -27.9
   09/07/2016 18:20      78.2      77.4       42     53.0      0.00      0.00      82.5     0.48      1015.0     6       114        10       132        8.98     270       -4.6
   09/07/2016 18:10      78.6      78.2       43     53.8      0.00      0.00      82.5     0.48      1015.0     5        80         7        94        8.99     270       20.8
   09/07/2016 18:00      80.0      78.8       42     54.5      0.00      0.00      82.4     0.48      1015.0     7       103        10       116        8.99     270       44.9
   09/07/2016 17:50      81.5      80.6       40     54.5      0.00      0.00      82.3     0.48      1015.0     6        83         9        80        9.00     270       63.9
   09/07/2016 17:40      83.0      81.5       35     52.0      0.00      0.00      82.5     0.48      1015.0     6       112         8        98        9.00     270       86.9
   09/07/2016 17:30      83.2      82.8       34     51.2      0.00      0.00      82.3     0.48      1015.0     4       120         6       121        9.00     270      110.6
   09/07/2016 17:20      83.3      82.4       37     54.0      0.00      0.00      82.4     0.48      1015.0     4        97         7       137        9.00     270      133.7
   09/07/2016 17:10      84.6      82.6       37     54.4      0.00      0.00      82.4     0.48      1015.0     6       137         8       142        9.00     270      159.3
   09/07/2016 17:00      84.6      84.0       38     55.5      0.00      0.00      82.2     0.48      1014.0     4        85         6        83        9.00     270      181.7
   09/07/2016 16:50      84.9      83.5       37     55.6      0.00      0.00      82.0     0.48      1014.0     3        75         4        74        9.01     270      203.3
   09/07/2016 16:40      83.7      82.9       39     55.4      0.00      0.00      82.0     0.48      1014.0     4       165         6       162        9.01     270      226.3
   09/07/2016 16:30      83.6      82.7       38     55.2      0.00      0.00      81.8     0.48      1014.0     4       131         8       120        9.01     270      253.2
   09/07/2016 16:20      84.0      82.2       39     55.1      0.00      0.00      81.8     0.48      1014.0     5       116         7       120        9.01     270      276.5
   09/07/2016 16:10      84.0      82.6       38     55.4      0.00      0.00      81.6     0.48      1014.0     5       105         8       143        9.01     270      294.5
   09/07/2016 16:00      84.3      83.1       38     55.3      0.00      0.00      81.9     0.48      1014.0     4        73         7        83        9.01     270      311.6
   09/07/2016 15:50      84.0      82.9       38     55.1      0.00      0.00      81.7     0.48      1014.0     4        91         7       104        9.00     270      333.2
   09/07/2016 15:40      84.0      83.1       39     55.8      0.00      0.00      81.7     0.48      1014.0     5        85         7       103        9.00     270      355.2
   09/07/2016 15:30      85.3      83.9       38     56.4      0.00      0.00      81.5     0.48      1014.0     4       134         9       128        9.00     270      372.2
   09/07/2016 15:20      84.2      83.7       39     56.5      0.00      0.00      81.4     0.48      1014.0     4        98         7       114        9.01     270      393.6
   09/07/2016 15:10      84.5      83.4       39     56.1      0.00      0.00      81.7     0.48      1014.0     6       114         9       100        9.00     270      411.7
   09/07/2016 15:00      84.1      83.5       40     56.9      0.00      0.00      81.3     0.48      1014.0     7       107        10        89        9.00     271      427.6
   09/07/2016 14:50      83.7      82.9       41     57.3      0.00      0.00      81.5     0.48      1014.0     9        94        11        64        9.00     271      441.7
   09/07/2016 14:40      85.1      83.9       40     57.7      0.00      0.00      81.2     0.48      1014.0     7        90         9       139        9.00     271      452.7
   09/07/2016 14:30      86.1      84.5       40     57.9      0.00      0.00      81.2     0.48      1014.0     7       101        10       112        9.00     272      464.2
   09/07/2016 14:20      86.3      85.7       39     58.0      0.00      0.00      81.2     0.48      1014.0     6        84         9       107        9.01     272      471.7
   09/07/2016 14:10      86.8      85.6       37     57.3      0.00      0.00      81.6     0.48      1014.0     5        84        13        87        9.01     272      479.0
   09/07/2016 14:00      86.7      86.2       38     57.6      0.00      0.00      81.1     0.48      1014.0     5        65         7        73        9.01     272      484.9
   09/07/2016 13:50      86.4      85.6       38     57.6      0.00      0.00      81.3     0.48      1014.0     5        53         8        71        9.01     273      490.1
   09/07/2016 13:40      86.4      85.6       39     58.5      0.00      0.00      81.1     0.48      1014.0     4        55         6        82        9.01     273      499.6
   09/07/2016 13:30      86.4      84.8       40     58.7      0.00      0.00      81.0     0.48      1014.0     4        45         6        75        9.01     272      503.3
   09/07/2016 13:20      85.7      84.3       38     57.0      0.00      0.00      81.0     0.48      1014.0     4        38         6        77        9.01     273      508.6
   09/07/2016 13:10      85.0      84.5       38     56.5      0.00      0.00      81.2     0.48      1014.0     5        66         7        93        9.01     274      514.8
   09/07/2016 13:00      85.3      84.8       38     56.8      0.00      0.00      81.4     0.48      1014.0     5        53         9        66        9.01     275      516.6
   09/07/2016 12:50      86.3      85.0       36     55.9      0.00      0.00      81.2     0.48      1014.0     5        64         8        93        9.01     277      514.4
   09/07/2016 12:40      85.9      84.5       39     57.1      0.00      0.00      81.6     0.48      1014.0     5        51         7        39        9.01     281      515.0
   09/07/2016 12:30      85.7      84.4       41     58.3      0.00      0.00      80.9     0.48      1014.0     4        56         7        66        9.01     291      519.4
   09/07/2016 12:20      85.2      84.1       41     58.3      0.00      0.00      81.3     0.48      1014.0     5        51         8        68        9.01     317      516.4
   09/07/2016 12:10      84.5      83.0       43     58.5      0.00      0.00      80.7     0.48      1014.0     3        41         5        80        9.01     338      513.5
   09/07/2016 12:00      82.9      82.1       43     57.9      0.00      0.00      80.7     0.48      1014.0     4        24         5        26        9.01     350      511.0
   09/07/2016 11:50      83.1      82.6       43     58.1      0.00      0.00      81.2     0.48      1014.0     4        41         7        22        9.01     360      509.7
   09/07/2016 11:40      82.4      81.8       44     58.2      0.00      0.00      81.4     0.48      1014.0     4        48         5        62        9.01     365      508.5
   09/07/2016 11:30      81.9      81.0       45     58.2      0.00      0.00      80.8     0.48      1014.0     4        52         7        77        9.01     362      504.5
   09/07/2016 11:20      81.2      80.3       46     58.0      0.00      0.00      81.1     0.48      1014.0     4        39         6        24        9.01     369      496.4
   09/07/2016 11:10      80.4      80.0       46     57.8      0.00      0.00      80.9     0.48      1014.0     4        34         7        32        9.01     374      488.9
   09/07/2016 11:00      80.5      79.5       47     57.8      0.00      0.00      81.4     0.49      1014.0     3        33         6        65        9.01     380      483.5
   09/07/2016 10:50      80.5      78.8       47     57.7      0.00      0.00      81.3     0.49      1014.0     3        39         5        27        9.00     389      479.3
   09/07/2016 10:40      79.0      78.4       49     57.9      0.00      0.00      81.1     0.49      1014.0     3        34         6        33        9.00     394      472.6
   09/07/2016 10:30      78.7      77.7       50     58.1      0.00      0.00      81.0     0.49      1014.0     3        44         6        77        9.00     413      463.2
   09/07/2016 10:20      78.6      77.3       51     58.5      0.00      0.00      80.9     0.49      1014.0     3        39         4        35        9.00     422      426.4
   09/07/2016 10:10      77.3      75.6       55     58.8      0.00      0.00      81.2     0.47      1014.0     3        29         4        11        8.26     270      387.8
   09/07/2016 10:00      75.4      74.9       57     58.7      0.00      0.00      81.1     0.47      1014.0     4         3         5         1        7.69     271      370.6
   09/07/2016 09:50      75.4      74.8       57     58.8      0.00      0.00      81.2     0.47      1014.0     3        37         4         6        7.69     271      353.1
   09/07/2016 09:40      75.5      74.5       56     58.4      0.00      0.00      81.7     0.47      1014.0     3        62         5        65        7.69     271      335.9
   09/07/2016 09:30      75.3      73.1       56     57.3      0.00      0.00      81.5     0.47      1014.0     2        46         3        74        7.69     271      317.1
   09/07/2016 09:20      72.8      72.0       59     57.3      0.00      0.00      81.4     0.47      1014.0     3        20         4        10        7.69     271      295.6
   09/07/2016 09:10      72.8      72.2       59     57.5      0.00      0.00      81.3     0.48      1014.0     2        17         3       346        7.69     271      275.2
   09/07/2016 09:00      72.8      72.3       60     57.6      0.00      0.00      81.8     0.48      1013.0     2        28         4        80        7.69     271      252.3
   09/07/2016 08:50      72.4      70.8       62     57.8      0.00      0.00      81.6     0.48      1013.0     2        70         3        97        7.69     271      230.9
   09/07/2016 08:40      70.7      69.4       66     58.0      0.00      0.00      81.5     0.48      1013.0     2        48         4        66        7.69     271      207.4
   09/07/2016 08:30      70.1      69.5       67     58.3      0.00      0.00      81.5     0.48      1013.0     2        32         3        27        7.69     271      202.4
   09/07/2016 08:20      70.2      68.6       68     58.6      0.00      0.00      82.3     0.48      1013.0     1        57         2        61        7.69     271      192.8
   09/07/2016 08:10      68.4      67.2       71     57.9      0.00      0.00      82.0     0.48      1013.0     1       139         1       156        7.70     271      164.4
   09/07/2016 08:00      67.3      64.5       77     58.7      0.00      0.00      81.8     0.48      1013.0     0        59         1       130        7.69     272      128.6
   09/07/2016 07:50      64.4      62.5       82     57.6      0.00      0.00      81.7     0.48      1013.0     1       104         1       110        7.70     272       91.0
   09/07/2016 07:40      62.5      60.3       89     58.1      0.00      0.00      81.8     0.48      1012.0     0        82         1       108        7.69     272       57.6
   09/07/2016 07:30      60.2      59.0       92     57.3      0.00      0.00      81.6     0.48      1012.0     0        33         1        56        7.69     272       37.3
   09/07/2016 07:20      59.1      58.2       93     56.6      0.00      0.00      81.7     0.48      1012.0     0       298         1       267        7.69     272        6.8
   09/07/2016 07:10      58.1      57.4       93     55.8      0.00      0.00      81.9     0.48      1012.0     1       176         2       160        7.70     272        5.3
   09/07/2016 07:00      57.6      57.3       93     55.4      0.00      0.00      82.0     0.48      1012.0     1       162         1       150        7.69     272       -3.7
   09/07/2016 06:50      57.4      56.8       93     54.9      0.00      0.00      81.8     0.48      1012.0     2       187         2       162        7.70     272      -13.7
   09/07/2016 06:40      57.3      56.7       93     54.9      0.00      0.00      81.6     0.48      1012.0     1       181         2       172        7.69     272      -19.9
   09/07/2016 06:30      57.4      56.8       92     55.0      0.00      0.00      81.7     0.48      1012.0     2       184         3       174        7.70     273      -22.9
   09/07/2016 06:20      57.5      57.0       92     55.0      0.00      0.00      82.2     0.48      1012.0     1       170         1       178        7.70     273      -24.4
   09/07/2016 06:10      57.6      57.1       92     55.0      0.00      0.00      82.3     0.48      1012.0     2       151         2       160        7.70     272      -24.9
   09/07/2016 06:00      57.9      57.5       92     55.4      0.00      0.00      82.0     0.48      1011.0     1       150         2       136        7.70     272      -24.1
   09/07/2016 05:50      58.0      57.7       92     55.6      0.00      0.00      81.9     0.48      1011.0     1       169         1       129        7.70     272      -24.4
   09/07/2016 05:40      58.2      58.0       92     55.8      0.00      0.00      82.1     0.48      1011.0     1       226         1       274        7.70     272      -24.5
   09/07/2016 05:30      58.4      58.2       92     56.0      0.00      0.00      82.2     0.48      1011.0     0       265         1       271        7.70     272      -24.6
   09/07/2016 05:20      58.4      58.1       92     55.8      0.00      0.00      82.4     0.48      1011.0     1       356         1       326        7.70     272      -25.3
   09/07/2016 05:10      58.7      58.3       92     56.1      0.00      0.00      82.3     0.48      1011.0     1       132         1       126        7.70     272      -26.3
   09/07/2016 05:00      59.1      58.8       92     56.5      0.00      0.00      82.3     0.48      1011.0     0       159         1       148        7.70     272      -26.3
   09/07/2016 04:50      59.3      59.0       92     56.7      0.00      0.00      82.5     0.48      1011.0     1       171         1       171        7.70     272      -26.9
   09/07/2016 04:40      59.6      59.2       92     57.0      0.00      0.00      82.4     0.48      1011.0     1       169         2       149        7.70     271      -27.2
   09/07/2016 04:30      59.7      59.3       92     57.2      0.00      0.00      82.4     0.48      1011.0     1       169         2       158        7.70     272      -27.3
   09/07/2016 04:20      59.4      59.0       92     56.8      0.00      0.00      82.6     0.48      1011.0     1       173         2       182        7.70     271      -28.3
   09/07/2016 04:10      59.0      58.7       91     56.4      0.00      0.00      82.7     0.48      1011.0     2       149         3       145        7.70     271      -29.6
   09/07/2016 04:00      59.2      59.0       92     56.6      0.00      0.00      82.5     0.48      1011.0     1       170         3       146        7.70     271      -29.8
   09/07/2016 03:50      59.3      58.9       91     56.7      0.00      0.00      82.6     0.48      1011.0     1       171         2       159        7.70     271      -30.5
   09/07/2016 03:40      59.4      58.8       91     56.5      0.00      0.00      82.9     0.48      1011.0     1       172         2       171        7.70     271      -31.6
   09/07/2016 03:30      59.4      59.0       91     56.8      0.00      0.00      82.2     0.48      1011.0     3       156         4       161        7.70     271      -32.1
   09/07/2016 03:20      59.3      59.1       91     56.7      0.00      0.00      82.5     0.48      1011.0     2       162         3       148        7.70     271      -32.7
   09/07/2016 03:10      59.8      59.2       91     56.7      0.00      0.00      82.1     0.48      1011.0     2       166         2       162        7.70     271      -33.6
   09/07/2016 03:00      60.0      59.7       91     57.2      0.00      0.00      82.9     0.48      1011.0     1       171         2       186        7.70     271      -33.5
   09/07/2016 02:50      60.0      59.5       90     57.0      0.00      0.00      82.8     0.48      1011.0     2       208         2       198        7.70     271      -34.4
   09/07/2016 02:40      60.5      60.3       91     57.7      0.00      0.00      82.8     0.48      1011.0     2       199         2       208        7.70     270      -33.8
   09/07/2016 02:30      61.0      60.4       90     57.8      0.00      0.00      82.7     0.48      1011.0     1       171         1       168        7.70     270      -35.6
   09/07/2016 02:20      60.9      60.7       90     57.8      0.00      0.00      82.7     0.48      1011.0     1       150         2       153        7.70     270      -36.6
   09/07/2016 02:10      61.3      60.8       89     57.8      0.00      0.00      82.8     0.48      1011.0     1       139         2       133        7.70     270      -38.3
   09/07/2016 02:00      61.4      61.0       89     57.9      0.00      0.00      82.8     0.48      1011.0     1       125         2       128        7.71     270      -39.2
   09/07/2016 01:50      61.5      61.4       88     58.1      0.00      0.00      82.7     0.48      1011.0     1       112         1       102        7.71     270      -39.9
   09/07/2016 01:40      62.0      61.6       87     58.0      0.00      0.00      83.0     0.48      1011.0     1        86         1       101        7.71     270      -42.1
   09/07/2016 01:30      62.2      61.9       87     58.1      0.00      0.00      83.1     0.48      1011.0     1        65         2        68        7.71     270      -44.0
   09/07/2016 01:20      62.4      62.2       87     58.5      0.00      0.00      83.1     0.48      1011.0     1        56         2        71        7.71     270      -46.0
   09/07/2016 01:10      62.6      62.4       88     58.8      0.00      0.00      83.0     0.48      1011.0     1        74         2        59        7.71     270      -47.5
   09/07/2016 01:00      62.7      62.5       87     58.8      0.00      0.00      82.9     0.48      1011.0     2        95         3        77        7.71     270      -49.4
   09/07/2016 00:50      62.8      62.6       87     58.6      0.00      0.00      83.0     0.48      1011.0     2       100         3       100        7.71     270      -52.9
   09/07/2016 00:40      62.8      62.5       85     58.0      0.00      0.00      83.1     0.48      1011.0     1        86         2        94        7.71     269      -57.6
   09/07/2016 00:30      63.3      62.8       83     58.0      0.00      0.00      82.8     0.48      1011.0     1        69         1        56        7.71     269      -58.6
   09/07/2016 00:20      63.8      63.3       83     58.3      0.00      0.00      83.0     0.48      1011.0     1        64         1        62        7.71     269      -61.1
   09/07/2016 00:10      64.1      63.8       83     58.5      0.00      0.00      82.8     0.48      1011.0     1        98         2       124        7.71     269      -63.6
   09/07/2016 00:00      64.3      64.0       82     58.7      0.00      0.00      83.0     0.48      1011.0     2       113         2       117        7.71     269      -64.5
   09/06/2016 23:50      64.8      64.3       81     58.7      0.00      0.00      83.0     0.48      1011.0     2        95         3       124        7.71     269      -64.8
   09/06/2016 23:40      64.9      64.8       80     58.7      0.00      0.00      83.1     0.48      1011.0     2        57         3        75        7.71     269      -65.2
   09/06/2016 23:30      65.4      64.9       79     58.4      0.00      0.00      83.2     0.48      1011.0     1        84         2       100        7.71     269      -66.1
   09/06/2016 23:20      65.7      65.4       78     58.5      0.00      0.00      83.2     0.48      1011.0     2        70         3        71        7.72     269      -66.3
   09/06/2016 23:10      66.2      65.8       77     58.5      0.00      0.00      83.0     0.48      1011.0     2        56         3        28        7.72     269      -67.0
   09/06/2016 23:00      66.4      66.1       76     58.4      0.00      0.00      83.5     0.48      1011.0     2        56         3        80        7.72     269      -67.6
   09/06/2016 22:50      66.9      66.6       75     58.5      0.00      0.00      83.0     0.48      1010.0     2        41         3        32        7.72     269      -67.9
   09/06/2016 22:40      66.9      66.8       74     58.4      0.00      0.00      83.3     0.48      1010.0     1        49         2        79        7.72     269      -68.0
   09/06/2016 22:30      67.3      67.0       74     58.5      0.00      0.00      82.7     0.48      1010.0     2        89         2       102        7.72     269      -68.6
   09/06/2016 22:20      67.8      67.3       72     58.4      0.00      0.00      83.2     0.48      1010.0     2        82         3        76        7.72     268      -69.5
   09/06/2016 22:10      68.0      67.7       71     58.3      0.00      0.00      82.9     0.48      1010.0     2        83         3        72        7.72     268      -69.5
   09/06/2016 22:00      68.4      68.0       70     58.1      0.00      0.00      83.1     0.48      1010.0     2        79         3        83        7.72     269      -70.1
   09/06/2016 21:50      68.9      68.4       68     57.8      0.00      0.00      83.1     0.48      1010.0     1        75         1        99        7.72     268      -71.1
   09/06/2016 21:40      69.6      69.1       67     57.9      0.00      0.00      83.1     0.48      1010.0     1        53         2        71        7.72     268      -71.9
   09/06/2016 21:30      70.2      69.7       66     57.9      0.00      0.00      83.1     0.48      1010.0     1        56         2        34        7.72     268      -72.5
   09/06/2016 21:20      70.4      70.2       65     57.9      0.00      0.00      83.0     0.48      1010.0     1        45         2        66        7.73     268      -73.1
   09/06/2016 21:10      71.3      70.6       63     57.8      0.00      0.00      82.9     0.48      1010.0     1        70         2        80        7.73     268      -73.5
   09/06/2016 21:00      71.8      71.4       62     57.7      0.00      0.00      83.0     0.48      1010.0     1        52         2        43        7.73     268      -74.7
   09/06/2016 20:50      72.6      71.9       60     57.7      0.00      0.00      83.1     0.48      1010.0     2        53         3        59        7.73     268      -75.1
   09/06/2016 20:40      73.5      72.8       58     57.5      0.00      0.00      83.0     0.48      1009.0     2        53         3        70        7.73     268      -75.9
   09/06/2016 20:30      74.8      73.8       55     57.3      0.00      0.00      82.9     0.48      1009.0     1        55         3        77        7.73     267      -76.8
   09/06/2016 20:20      75.6      75.0       53     57.0      0.00      0.00      83.0     0.48      1009.0     1        43         2        32        7.73     267      -76.2
   09/06/2016 20:10      76.3      75.6       52     57.1      0.00      0.00      83.1     0.48      1009.0     1        15         2       298        7.74     267      -76.2
   09/06/2016 20:00      76.9      76.2       51     57.2      0.00      0.00      82.8     0.48      1009.0     2       218         3       215        7.74     267      -77.4
   09/06/2016 19:50      77.5      76.8       50     57.2      0.00      0.00      82.8     0.48      1009.0     2       194         5       210        7.74     267      -78.7
   09/06/2016 19:40      78.2      77.7       49     57.0      0.00      0.00      82.7     0.48      1009.0     2       231         4       244        7.74     267      -79.4
   09/06/2016 19:30      78.8      78.3       48     57.0      0.00      0.00      82.6     0.48      1009.0     3       234         5       255        7.75     267      -79.8
   09/06/2016 19:20      79.7      78.8       46     56.9      0.00      0.00      82.6     0.48      1009.0     5       242         8       241        7.75     267      -79.5
   09/06/2016 19:10      80.5      79.7       45     56.7      0.00      0.00      82.6     0.48      1008.0     4       223         6       210        7.75     266      -77.6
   09/06/2016 19:00      81.6      80.7       42     56.0      0.00      0.00      82.8     0.48      1008.0     4       230         5       240        7.76     266      -72.5
   09/06/2016 18:50      82.3      81.9       40     55.4      0.00      0.00      82.6     0.48      1008.0     3       246         7       242        7.77     266      -68.6
   09/06/2016 18:40      82.4      81.9       40     55.4      0.00      0.00      82.6     0.48      1008.0     4       233         6       232        7.77     266      -48.0
   09/06/2016 18:30      82.4      82.2       40     55.6      0.00      0.00      82.5     0.48      1008.0     5       231         8       231        7.78     266      -29.2
   09/06/2016 18:20      83.0      82.2       40     56.0      0.00      0.00      82.3     0.48      1008.0     6       227         8       220        7.78     266       -8.2
   09/06/2016 18:10      83.0      82.6       40     56.4      0.00      0.00      82.2     0.48      1008.0     5       252         8       259        7.79     266       14.4
   09/06/2016 18:00      83.7      83.1       41     57.0      0.00      0.00      82.3     0.48      1008.0     6       232         9       224        7.79     266       36.6
   09/06/2016 17:50      85.0      84.0       40     57.1      0.00      0.00      82.4     0.48      1008.0     6       244         8       220        7.79     266       57.2
   09/06/2016 17:40      86.1      85.4       38     57.5      0.00      0.00      82.1     0.48      1008.0     4       271         7       257        7.80     267       77.6
   09/06/2016 17:30      86.6      86.1       37     57.4      0.00      0.00      82.1     0.48      1008.0     5       292         8       330        7.80     267      102.7
   09/06/2016 17:20      87.9      86.8       36     57.3      0.00      0.00      82.1     0.48      1008.0     6       311         7       327        7.81     267      124.4
   09/06/2016 17:10      88.6      87.9       35     57.4      0.00      0.00      82.0     0.48      1008.0     5       278         7       257        7.82     267      145.9
   09/06/2016 17:00      89.0      88.4       35     57.1      0.00      0.00      82.1     0.48      1008.0     4       316         8       342        7.82     267      164.4
   09/06/2016 16:50      88.9      88.5       34     56.6      0.00      0.00      81.8     0.48      1008.0     2        44         3        29        7.83     266      186.1
   09/06/2016 16:40      89.3      88.5       34     56.8      0.00      0.00      81.8     0.48      1008.0     3        28         4        39        7.83     266      206.0
   09/06/2016 16:30      89.5      89.0       34     56.9      0.00      0.00      81.7     0.48      1008.0     3        49         6        81        7.83     267      228.0
   09/06/2016 16:20      90.2      89.4       33     56.8      0.00      0.00      81.8     0.48      1008.0     3        27         4        23        7.84     268      252.2
   09/06/2016 16:10      89.9      88.8       33     56.8      0.00      0.00      81.5     0.48      1008.0     3        26         5        73        7.84     268      269.5
   09/06/2016 16:00      88.8      87.6       34     56.3      0.00      0.00      81.5     0.48      1008.0     3        22         5        24        7.84     268      295.5
   09/06/2016 15:50      89.1      88.3       33     56.3      0.00      0.00      81.4     0.48      1008.0     4        38         5        74        7.85     268      314.7
   09/06/2016 15:40      88.6      88.1       34     56.4      0.00      0.00      81.4     0.48      1008.0     3        56         4        47        7.85     268      333.9
   09/06/2016 15:30      88.9      88.0       34     56.5      0.00      0.00      81.4     0.48      1008.0     3        50         5        67        7.85     268      352.9
   09/06/2016 15:20      89.4      87.8       34     56.8      0.00      0.00      81.3     0.48      1008.0     4        54         6        26        7.86     268      371.5
   09/06/2016 15:10      90.8      89.4       32     55.9      0.00      0.00      81.2     0.48      1008.0     4        35         9        75        7.86     268      382.2
   09/06/2016 15:00      91.2      89.2       27     51.8      0.00      0.00      81.3     0.48      1008.0     3        57         5       358        7.86     268      397.6
   09/06/2016 14:50      89.5      88.2       28     52.1      0.00      0.00      81.2     0.48      1008.0     3        96         5        95        7.86     268      414.1
   09/06/2016 14:40      89.6      88.4       29     53.0      0.00      0.00      81.1     0.48      1008.0     3        66         6       137        7.87     269      425.2
   09/06/2016 14:30      89.6      88.1       30     53.4      0.00      0.00      81.0     0.48      1008.0     3        50         5        10        7.87     269      435.9
   09/06/2016 14:20      89.7      88.0       31     54.1      0.00      0.00      80.8     0.48      1009.0     4        12         6         2        7.87     268      446.2
   09/06/2016 14:10      88.8      87.9       31     53.8      0.00      0.00      80.7     0.48      1009.0     2        16         4       337        7.87     268      459.0
   09/06/2016 14:00      87.6      86.0       33     54.3      0.00      0.00      80.8     0.48      1009.0     3         4         5        13        7.87     269      470.4
   09/06/2016 13:50      86.2      85.2       34     54.3      0.00      0.00      81.1     0.48      1009.0     3        39         6        54        7.87     269      479.4
   09/06/2016 13:40      87.3      85.7       34     54.6      0.00      0.00      81.0     0.47      1009.0     3       359         6       327        7.87     269      484.4
   09/06/2016 13:30      85.6      84.3       35     54.4      0.00      0.00      80.8     0.47      1009.0     3         5         6       355        7.87     269      490.7
   09/06/2016 13:20      84.7      83.4       37     54.6      0.00      0.00      80.9     0.47      1009.0     4         9         5        32        7.88     268      496.8
   09/06/2016 13:10      85.1      83.2       36     54.6      0.00      0.00      80.9     0.47      1010.0     4       333         5       314        7.88     268      499.5
   09/06/2016 13:00      83.6      82.1       38     54.4      0.00      0.00      80.5     0.47      1010.0     4       347         6       325        7.88     269      504.9
   09/06/2016 12:50      82.3      81.0       39     54.2      0.00      0.00      80.7     0.47      1010.0     2       302         5        29        7.88     269      507.5
   09/06/2016 12:40      80.5      79.5       41     54.0      0.00      0.00      80.7     0.47      1010.0     3       289         4         6        7.88     269      506.4
   09/06/2016 12:30      80.1      79.4       41     54.1      0.00      0.00      80.5     0.47      1010.0     2        20         3       359        7.88     270      505.0
   09/06/2016 12:20      80.2      79.2       42     54.3      0.00      0.00      80.4     0.47      1010.0     3        49         4        84        7.88     269      504.0
   09/06/2016 12:10      79.6      78.8       42     54.3      0.00      0.00      80.8     0.47      1010.0     3        33         5        74        7.89     269      500.0
   09/06/2016 12:00      79.2      77.9       43     54.1      0.00      0.00      80.6     0.47      1010.0     3       348         5       326        7.89     270      498.0
   09/06/2016 11:50      78.9      77.9       43     54.1      0.00      0.00      80.8     0.47      1010.0     3        60         5         7        7.89     270      493.7
   09/06/2016 11:40      77.8      76.3       45     54.3      0.00      0.00      80.6     0.47      1010.0     3        32         4       349        7.89     270      488.9
   09/06/2016 11:30      76.3      75.8       47     54.5      0.00      0.00      80.6     0.48      1010.0     3       336         5       327        7.89     270      483.8
   09/06/2016 11:20      76.3      74.9       48     54.4      0.00      0.00      80.5     0.48      1011.0     3       340         5         5        7.89     270      476.9
   09/06/2016 11:10      75.7      74.7       49     54.7      0.00      0.00      81.0     0.48      1011.0     3       356         4        24        7.89     270      467.3
   09/06/2016 11:00      75.2      74.8       49     54.6      0.00      0.00      80.9     0.48      1011.0     2       342         4       127        7.89     271      458.0
   09/06/2016 10:50      75.1      72.6       51     54.5      0.00      0.00      80.8     0.48      1011.0     2       208         3       163        7.89     270      448.4
   09/06/2016 10:40      72.7      72.3       53     54.5      0.00      0.00      80.9     0.48      1011.0     2       314         3       248        7.89     271      435.3
   09/06/2016 10:30      72.4      70.9       55     54.3      0.00      0.00      81.2     0.48      1011.0     2        83         4       272        7.89     271      421.4
   09/06/2016 10:20      70.8      69.9       57     54.2      0.00      0.00      80.6     0.48      1011.0     3       293         4       308        7.89     271      405.8
   09/06/2016 10:10      70.9      69.8       57     54.2      0.00      0.00      81.1     0.48      1011.0     3       354         4       262        7.89     271      390.7
   09/06/2016 10:00      70.5      68.7       59     54.4      0.00      0.00      81.0     0.48      1011.0     2        80         4       354        7.89     271      371.7
   09/06/2016 09:50      68.7      68.0       61     54.4      0.00      0.00      81.0     0.48      1011.0     2        17         3         6        7.90     272      352.9
   09/06/2016 09:40      68.7      68.1       61     54.5      0.00      0.00      81.3     0.48      1011.0     2       351         3       316        7.90     272      334.5
   09/06/2016 09:30      68.2      67.2       62     54.6      0.00      0.00      81.3     0.48      1011.0     2        31         4        80        7.90     272      315.8
   09/06/2016 09:20      67.3      66.7       64     54.5      0.00      0.00      81.3     0.48      1011.0     2        19         3        10        7.90     272      295.4
   09/06/2016 09:10      67.4      66.3       64     54.5      0.00      0.00      81.7     0.48      1011.0     2       193         3       265        7.90     272      273.4
   09/06/2016 09:00      65.9      64.5       69     54.5      0.00      0.00      81.2     0.48      1011.0     1       252         4       274        7.91     273      251.0
   09/06/2016 08:50      65.2      64.5       69     54.4      0.00      0.00      81.3     0.48      1011.0     2       238         4       256        7.91     275      229.1
   09/06/2016 08:40      64.5      64.3       70     54.3      0.00      0.00      81.4     0.48      1011.0     2       339         3       320        7.92     276      204.8
   09/06/2016 08:30      64.3      63.0       72     54.4      0.00      0.00      81.4     0.48      1011.0     2       327         3       301        7.92     277      177.3
   09/06/2016 08:20      63.4      62.4       73     54.2      0.00      0.00      81.5     0.48      1011.0     2       286         4       339        7.93     279      147.1
   09/06/2016 08:10      62.6      62.2       74     53.9      0.00      0.00      81.5     0.48      1011.0     2       323         3       332        7.93     280      121.3
   09/06/2016 08:00      62.1      61.1       74     53.1      0.00      0.00      81.5     0.48      1011.0     2       277         3       258        7.93     281      101.7
   09/06/2016 07:50      61.1      60.3       76     53.0      0.00      0.00      81.3     0.49      1011.0     2       260         2       272        7.93     282       92.6
   09/06/2016 07:40      60.1      58.0       80     53.0      0.00      0.00      81.8     0.49      1011.0     1       270         2       235        7.93     283       70.9
   09/06/2016 07:30      57.9      56.8       85     52.8      0.00      0.00      81.6     0.49      1011.0     1       298         1       236        7.93     282       36.0
   09/06/2016 07:20      56.8      55.9       88     52.6      0.00      0.00      81.5     0.49      1011.0     0       134         0       131        7.93     282       -0.6
   09/06/2016 07:10      55.8      55.1       88     51.8      0.00      0.00      81.4     0.49      1011.0     1       169         2       150        7.93     281       -3.9
   09/06/2016 07:00      55.1      55.0       87     51.4      0.00      0.00      81.7     0.49      1011.0     1       143         1       131        7.93     281      -12.8
   09/06/2016 06:50      55.4      54.7       89     51.8      0.00      0.00      81.2     0.49      1011.0     1       236         1       245        7.93     280      -20.3
   09/06/2016 06:40      54.7      54.4       89     51.5      0.00      0.00      81.6     0.49      1011.0     1       169         2       161        7.93     279      -27.1
   09/06/2016 06:30      54.7      54.6       89     51.4      0.00      0.00      81.8     0.49      1011.0     1       104         2       124        7.93     279      -31.6
   09/06/2016 06:20      55.3      54.9       89     51.8      0.00      0.00      82.0     0.49      1010.0     1       158         1       128        7.93     278      -32.7
   09/06/2016 06:10      55.2      55.0       89     51.7      0.00      0.00      81.6     0.49      1011.0     1       147         1       140        7.93     278      -33.6
   09/06/2016 06:00      55.3      55.1       88     51.6      0.00      0.00      82.0     0.49      1010.0     1       135         1       130        7.94     277      -35.2
   09/06/2016 05:50      55.7      55.3       87     51.8      0.00      0.00      81.7     0.49      1010.0     1       154         1       131        7.94     277      -36.0
   09/06/2016 05:40      55.6      55.3       87     51.7      0.00      0.00      81.6     0.49      1010.0     1       151         2       162        7.94     276      -36.8
   09/06/2016 05:30      55.7      55.2       86     51.3      0.00      0.00      82.3     0.49      1010.0     2       152         2       154        7.94     276      -38.6
   09/06/2016 05:20      55.7      55.4       86     51.5      0.00      0.00      82.0     0.49      1010.0     1       170         2       131        7.94     276      -38.3
   09/06/2016 05:10      55.5      55.1       86     51.3      0.00      0.00      82.0     0.49      1010.0     1       188         2       163        7.94     276      -40.1
   09/06/2016 05:00      55.9      55.3       84     50.9      0.00      0.00      82.1     0.49      1010.0     2       138         2       138        7.94     275      -41.3
   09/06/2016 04:50      56.2      55.7       86     51.7      0.00      0.00      81.7     0.49      1010.0     2       138         2       142        7.94     275      -41.7
   09/06/2016 04:40      55.9      55.5       86     51.5      0.00      0.00      82.2     0.49      1010.0     1       146         2       140        7.94     275      -42.3
   09/06/2016 04:30      56.0      55.8       86     51.7      0.00      0.00      81.9     0.49      1010.0     1       144         2       158        7.94     274      -42.7
   09/06/2016 04:20      56.4      56.0       86     52.0      0.00      0.00      82.3     0.49      1010.0     1       170         2       154        7.94     274      -44.0
   09/06/2016 04:10      56.5      56.2       86     52.1      0.00      0.00      82.1     0.49      1010.0     2       152         3       154        7.94     274      -44.4
   09/06/2016 04:00      56.6      56.3       84     51.8      0.00      0.00      82.6     0.49      1010.0     2       174         2       203        7.94     274      -45.9
   09/06/2016 03:50      56.9      56.6       84     52.1      0.00      0.00      82.5     0.49      1010.0     1       172         2       199        7.94     274      -46.1
   09/06/2016 03:40      57.2      56.8       82     51.7      0.00      0.00      82.4     0.49      1010.0     1       177         2       202        7.94     274      -47.1
   09/06/2016 03:30      57.3      56.8       84     52.3      0.00      0.00      83.0     0.49      1010.0     1       221         1       231        7.94     273      -46.2
   09/06/2016 03:20      57.0      56.5       85     52.3      0.00      0.00      82.6     0.49      1010.0     1       215         1       241        7.94     273      -47.7
   09/06/2016 03:10      57.0      56.5       84     52.0      0.00      0.00      82.8     0.49      1010.0     1       146         2       144        7.94     272      -50.7
   09/06/2016 03:00      57.3      57.0       84     52.4      0.00      0.00      82.6     0.49      1010.0     1       151         1       140        7.94     272      -51.6
   09/06/2016 02:50      57.4      57.1       83     52.2      0.00      0.00      82.6     0.49      1010.0     1       137         2       142        7.94     272      -53.1
   09/06/2016 02:40      57.9      57.6       82     52.3      0.00      0.00      82.6     0.49      1010.0     1       144         2       141        7.94     272      -54.2
   09/06/2016 02:30      57.9      57.6       82     52.3      0.00      0.00      83.1     0.49      1010.0     1       221         1       244        7.94     272      -54.4
   09/06/2016 02:20      57.9      57.4       83     52.3      0.00      0.00      82.7     0.49      1010.0     1       180         2       159        7.94     272      -56.2
   09/06/2016 02:10      57.9      57.4       81     51.6      0.00      0.00      82.8     0.49      1010.0     2       143         2       138        7.94     272      -58.4
   09/06/2016 02:00      58.0      57.9       81     52.1      0.00      0.00      82.7     0.49      1010.0     1       134         2       142        7.94     271      -58.3
   09/06/2016 01:50      58.5      58.0       80     52.3      0.00      0.00      82.8     0.49      1010.0     1       144         2       155        7.94     271      -58.5
   09/06/2016 01:40      58.5      58.3       80     52.4      0.00      0.00      82.8     0.49      1010.0     1       187         1       167        7.94     271      -58.5
   09/06/2016 01:30      58.6      58.4       79     52.1      0.00      0.00      83.0     0.49      1010.0     1       152         2       149        7.94     271      -58.9
   09/06/2016 01:20      59.0      58.8       77     51.9      0.00      0.00      83.0     0.49      1010.0     1       149         2       133        7.95     271      -60.2
   09/06/2016 01:10      59.4      58.9       78     52.1      0.00      0.00      83.1     0.49      1009.0     1       196         1       204        7.95     271      -59.5
   09/06/2016 01:00      59.4      59.1       77     52.2      0.00      0.00      82.9     0.49      1009.0     1       147         2       136        7.95     270      -59.8
   09/06/2016 00:50      59.9      59.5       76     52.3      0.00      0.00      83.1     0.49      1009.0     1       155         1       143        7.95     270      -60.3
   09/06/2016 00:40      60.0      59.7       76     52.4      0.00      0.00      83.0     0.49      1009.0     1       180         1       186        7.95     270      -60.3
   09/06/2016 00:30      60.1      59.9       76     52.2      0.00      0.00      83.1     0.49      1009.0     1       130         1       195        7.95     270      -61.0
   09/06/2016 00:20      60.4      60.1       75     52.3      0.00      0.00      83.2     0.49      1009.0     1       148         1       157        7.95     270      -61.5
   09/06/2016 00:10      60.6      60.4       74     52.3      0.00      0.00      83.1     0.49      1009.0     1       188         1       192        7.95     270      -61.8
   09/06/2016 00:00      60.9      60.5       73     52.1      0.00      0.00      83.0     0.49      1009.0     1       159         2       150        7.95     270      -61.9
   09/05/2016 23:50      61.6      61.1       71     52.0      0.00      0.00      83.2     0.49      1009.0     1       193         1       175        7.95     270      -61.8
   09/05/2016 23:40      61.8      61.6       71     52.0      0.00      0.00      83.2     0.49      1009.0     1       206         2       326        7.95     269      -62.4
   09/05/2016 23:30      62.0      61.4       70     52.0      0.00      0.00      83.0     0.49      1009.0     1       253         1       248        7.95     270      -62.2
   09/05/2016 23:20      62.9      62.3       69     52.4      0.00      0.00      83.7     0.49      1009.0     1       196         1       180        7.95     269      -63.2
   09/05/2016 23:10      63.1      62.8       69     52.7      0.00      0.00      83.3     0.49      1009.0     1       202         2       178        7.95     269      -63.5
   09/05/2016 23:00      63.3      63.1       69     52.8      0.00      0.00      83.1     0.49      1009.0     1       203         2       192        7.95     269      -63.9
   09/05/2016 22:50      63.5      63.2       68     52.6      0.00      0.00      83.1     0.49      1009.0     1       223         3       221        7.95     269      -64.0
   09/05/2016 22:40      63.7      63.4       68     52.7      0.00      0.00      83.5     0.49      1009.0     1       267         3       222        7.95     269      -64.8
   09/05/2016 22:30      64.1      63.7       67     52.6      0.00      0.00      83.6     0.49      1009.0     1       177         2       203        7.95     269      -64.9
   09/05/2016 22:20      64.4      64.3       66     52.8      0.00      0.00      83.0     0.49      1009.0     2       236         3       251        7.95     269      -64.8
   09/05/2016 22:10      64.5      64.3       66     52.8      0.00      0.00      83.4     0.49      1009.0     3       243         4       232        7.95     269      -64.9
   09/05/2016 22:00      64.9      64.6       65     52.9      0.00      0.00      83.3     0.49      1009.0     3       237         4       251        7.95     269      -65.3
   09/05/2016 21:50      65.2      65.0       65     53.0      0.00      0.00      83.5     0.49      1009.0     3       236         5       242        7.96     269      -66.0
   09/05/2016 21:40      65.5      65.2       64     52.9      0.00      0.00      83.1     0.49      1009.0     1       207         2       215        7.96     269      -66.8
   09/05/2016 21:30      65.7      65.3       64     52.9      0.00      0.00      83.3     0.49      1009.0     2       209         3       206        7.96     269      -66.9
   09/05/2016 21:20      66.2      65.9       63     52.9      0.00      0.00      83.3     0.49      1009.0     2       232         3       212        7.96     269      -67.2
   09/05/2016 21:10      66.4      66.0       62     52.9      0.00      0.00      83.6     0.49      1009.0     2       225         3       252        7.96     269      -67.3
   09/05/2016 21:00      66.6      66.4       61     52.8      0.00      0.00      83.2     0.49      1009.0     2       223         3       250        7.96     269      -67.8
   09/05/2016 20:50      67.1      66.6       61     52.8      0.00      0.00      83.4     0.49      1009.0     2       211         3       249        7.96     268      -68.8
   09/05/2016 20:40      67.3      67.2       60     52.9      0.00      0.00      83.3     0.49      1009.0     2       210         3       232        7.96     268      -69.4
   09/05/2016 20:30      67.9      67.5       59     53.0      0.00      0.00      83.3     0.49      1009.0     3       246         4       243        7.97     268      -69.8
   09/05/2016 20:20      67.9      67.7       59     53.1      0.00      0.00      83.4     0.49      1009.0     3       274         4       300        7.97     268      -70.3
   09/05/2016 20:10      68.2      68.0       59     53.1      0.00      0.00      83.1     0.49      1008.0     3       280         4       272        7.97     268      -71.6
   09/05/2016 20:00      68.7      68.2       58     53.2      0.00      0.00      83.2     0.49      1008.0     4       282         6       275        7.98     268      -72.2
   09/05/2016 19:50      69.2      68.7       57     53.3      0.00      0.00      83.2     0.49      1008.0     4       285         5       306        7.98     268      -73.3
   09/05/2016 19:40      69.5      69.2       56     53.3      0.00      0.00      83.3     0.49      1008.0     3       288         6       251        7.98     268      -74.2
   09/05/2016 19:30      70.3      69.7       56     53.3      0.00      0.00      83.3     0.49      1008.0     3       296         5       306        7.99     268      -74.9
   09/05/2016 19:20      70.9      70.3       54     53.3      0.00      0.00      83.2     0.49      1008.0     4       305         6       302        7.99     267      -75.0
   09/05/2016 19:10      71.6      71.0       53     53.4      0.00      0.00      83.1     0.49      1008.0     3       289         4       274        7.99     267      -71.9
   09/05/2016 19:00      72.0      71.6       52     53.4      0.00      0.00      83.0     0.49      1008.0     4       246         6       229        7.99     267      -65.8
   09/05/2016 18:50      72.5      72.0       51     53.3      0.00      0.00      82.9     0.49      1008.0     3       214         4       194        7.99     267      -58.3
   09/05/2016 18:40      73.1      72.7       50     53.3      0.00      0.00      82.9     0.49      1008.0     3       220         5       234        8.00     267      -42.2
   09/05/2016 18:30      73.2      72.8       50     53.3      0.00      0.00      82.9     0.49      1008.0     3       200         5       175        8.00     267      -23.7
   09/05/2016 18:20      73.4      72.9       50     53.3      0.00      0.00      83.0     0.49      1007.0     4       194         7       192        8.00     267       -2.0
   09/05/2016 18:10      74.3      73.4       49     53.2      0.00      0.00      83.1     0.49      1007.0     4       176         6       165        8.00     267       20.7
   09/05/2016 18:00      74.6      73.9       48     53.3      0.00      0.00      82.9     0.49      1007.0     4       171         5       209        8.00     267       43.8
   09/05/2016 17:50      74.4      74.1       48     53.2      0.00      0.00      82.7     0.49      1007.0     4       164         6       178        8.00     267       68.2
   09/05/2016 17:40      75.2      74.2       47     53.3      0.00      0.00      82.7     0.49      1007.0     6       151         9       128        8.00     267       92.1
   09/05/2016 17:30      75.6      74.9       46     53.3      0.00      0.00      82.6     0.49      1007.0     5       188         9       172        8.00     267      114.3
   09/05/2016 17:20      75.2      74.8       47     53.4      0.00      0.00      82.5     0.49      1007.0     5       160         6       126        8.01     267      137.0
   09/05/2016 17:10      75.7      74.9       46     53.4      0.00      0.00      82.5     0.49      1007.0     5       154         7       158        8.01     267      159.1
   09/05/2016 17:00      75.4      74.6       47     53.4      0.00      0.00      82.6     0.49      1007.0     6       168        10       142        8.01     267      182.6
   09/05/2016 16:50      75.7      75.3       46     53.4      0.00      0.00      82.2     0.49      1007.0     6       146         9       161        8.01     266      206.5
   09/05/2016 16:40      75.7      75.3       46     53.3      0.00      0.00      82.6     0.49      1007.0     5       142        11       121        8.01     266      227.8
   09/05/2016 16:30      76.1      75.5       46     53.3      0.00      0.00      82.3     0.49      1007.0     6       156        10       114        8.02     267      250.3
   09/05/2016 16:20      75.9      75.6       46     53.2      0.00      0.00      82.2     0.49      1007.0     6       155         8       147        8.02     267      272.6
   09/05/2016 16:10      76.3      75.4       46     53.3      0.00      0.00      82.3     0.49      1007.0     6       164         9       143        8.02     268      292.1
   09/05/2016 16:00      76.8      76.0       45     53.3      0.00      0.00      81.9     0.49      1007.0     6       158         8       161        8.03     268      312.8
   09/05/2016 15:50      76.9      75.9       44     53.2      0.00      0.00      82.0     0.49      1007.0     7       165        11       141        8.03     268      333.9
   09/05/2016 15:40      78.4      76.3       43     53.1      0.00      0.00      82.1     0.49      1007.0     6       170         9       157        8.04     268      351.8
   09/05/2016 15:30      78.2      77.1       42     53.1      0.00      0.00      81.7     0.49      1007.0     4       175         8       133        8.04     268      367.0
   09/05/2016 15:20      77.8      76.7       43     53.0      0.00      0.00      81.8     0.49      1007.0     5       179         6       163        8.04     268      385.1
   09/05/2016 15:10      78.4      76.2       43     53.0      0.00      0.00      81.8     0.49      1007.0     5       160         7       168        8.05     268      401.4
   09/05/2016 15:00      77.6      76.0       43     53.0      0.00      0.00      81.7     0.49      1007.0     6       152         9       143        8.05     268      417.3
   09/05/2016 14:50      77.8      76.9       43     52.9      0.00      0.00      81.7     0.49      1007.0     5       183         7       131        8.05     268      432.4
   09/05/2016 14:40      77.6      76.1       43     52.7      0.00      0.00      81.6     0.49      1008.0     5       171         7       199        8.06     268      444.2
   09/05/2016 14:30      77.5      76.6       43     52.8      0.00      0.00      81.4     0.49      1008.0     5       154         9       154        8.06     268      450.9
   09/05/2016 14:20      79.2      77.0       41     52.7      0.00      0.00      81.7     0.49      1008.0     4       194         7       159        8.06     268      462.4
   09/05/2016 14:10      79.5      78.3       40     52.8      0.00      0.00      81.5     0.49      1008.0     2       246         7       306        8.07     269      468.6
   09/05/2016 14:00      78.0      75.9       43     52.6      0.00      0.00      81.5     0.48      1008.0     2       209         3       119        8.07     269      476.3
   09/05/2016 13:50      77.8      76.2       43     52.6      0.00      0.00      81.6     0.48      1008.0     4       140         8       198        8.08     269      490.5
   09/05/2016 13:40      77.5      75.9       43     52.8      0.00      0.00      81.4     0.48      1008.0     4       144         5       133        8.08     269      498.1
   09/05/2016 13:30      75.8      75.0       45     52.8      0.00      0.00      81.3     0.48      1008.0     6       189         9       215        8.08     268      505.6
   09/05/2016 13:20      75.8      75.0       45     52.8      0.00      0.00      81.4     0.48      1008.0     4        93         7       137        8.08     268      508.4
   09/05/2016 13:10      75.5      74.6       46     53.1      0.00      0.00      81.4     0.48      1008.0     5       144        12       133        8.08     269      513.8
   09/05/2016 13:00      76.3      74.7       46     53.0      0.00      0.00      81.3     0.48      1009.0     5       159         9       144        8.09     269      505.6
   09/05/2016 12:50      77.9      76.5       41     51.6      0.00      0.00      81.1     0.48      1009.0     3        91         6       196        8.09     269      504.8
   09/05/2016 12:40      77.7      75.5       41     51.2      0.00      0.00      81.2     0.48      1009.0     3        68         6        81        8.09     270      506.7
   09/05/2016 12:30      75.7      74.4       43     51.0      0.00      0.00      81.2     0.48      1009.0     3       129         5       156        8.09     270      508.0
   09/05/2016 12:20      75.1      74.0       44     51.4      0.00      0.00      81.4     0.48      1009.0     3       109         7       128        8.09     270      503.3
   09/05/2016 12:10      75.5      74.9       43     51.2      0.00      0.00      81.2     0.48      1009.0     2       357         4       334        8.09     269      499.4
   09/05/2016 12:00      74.9      73.3       45     51.1      0.00      0.00      81.3     0.48      1009.0     3       261         6       286        8.09     270      500.3
   09/05/2016 11:50      74.0      73.3       45     51.1      0.00      0.00      81.5     0.48      1009.0     3       286         5       303        8.09     270      494.4
   09/05/2016 11:40      73.9      73.3       46     51.8      0.00      0.00      81.2     0.48      1009.0     2        29         4        39        8.09     271      492.8
   09/05/2016 11:30      74.0      72.4       47     52.0      0.00      0.00      81.1     0.48      1009.0     2        61         4        53        8.09     270      484.1
   09/05/2016 11:20      72.5      71.5       49     52.0      0.00      0.00      81.2     0.48      1010.0     3       329         6       359        8.09     271      475.5
   09/05/2016 11:10      71.6      70.3       51     51.9      0.00      0.00      81.2     0.49      1010.0     4         1         5         5        8.09     271      478.5
   09/05/2016 11:00      71.7      70.4       51     52.0      0.00      0.00      81.2     0.49      1010.0     4         0         7       345        8.09     271      446.8
   09/05/2016 10:50      70.5      69.0       53     51.7      0.00      0.00      81.3     0.49      1010.0     2       324         4       325        8.09     271      432.0
   09/05/2016 10:40      70.0      69.5       53     51.7      0.00      0.00      81.3     0.49      1010.0     3       297         5       349        8.09     271      488.0
   09/05/2016 10:30      70.8      69.8       52     51.8      0.00      0.00      80.9     0.49      1010.0     4       345         6       332        8.10     272      309.8
   09/05/2016 10:20      70.8      69.7       52     51.8      0.00      0.00      81.3     0.49      1010.0     3       332         4       326        8.10     271      483.2
   09/05/2016 10:10      70.4      68.7       53     51.9      0.00      0.00      81.3     0.49      1010.0     3       351         4        77        8.10     272      399.0
   09/05/2016 10:00      68.8      68.0       56     52.3      0.00      0.00      81.4     0.49      1010.0     4         4         5       354        8.10     272      352.3
   09/05/2016 09:50      68.3      67.2       58     52.7      0.00      0.00      81.4     0.49      1010.0     3       346         4       359        8.10     272      263.4
   09/05/2016 09:40      67.3      66.7       60     52.6      0.00      0.00      81.5     0.49      1010.0     2       165         5       220        8.10     272      232.9
   09/05/2016 09:30      67.3      66.0       62     53.4      0.00      0.00      81.8     0.49      1010.0     2        59         3        65        8.10     272      174.0
   09/05/2016 09:20      66.1      65.6       64     53.4      0.00      0.00      81.6     0.49      1010.0     3        86         5        93        8.10     272      136.2
   09/05/2016 09:10      65.8      65.3       65     53.6      0.00      0.00      81.7     0.49      1010.0     2        73         6       120        8.10     272      116.9
   09/05/2016 09:00      65.3      64.9       66     53.6      0.00      0.00      81.9     0.49      1010.0     2        75         4       131        8.10     273      112.8
   09/05/2016 08:50      65.7      65.3       65     53.7      0.00      0.00      81.5     0.49      1010.0     2        41         5       111        8.10     272      114.3
   09/05/2016 08:40      65.4      64.7       66     53.5      0.00      0.00      81.2     0.49      1010.0     2        24         3       333        8.10     273      117.6
   09/05/2016 08:30      65.4      64.8       66     53.4      0.00      0.00      82.0     0.49      1010.0     3       134         4       135        8.10     273      112.3
   09/05/2016 08:20      64.6      63.8       68     53.1      0.00      0.00      81.2     0.49      1010.0     3       114         5       118        8.10     273       99.2
   09/05/2016 08:10      63.9      63.7       68     53.0      0.00      0.00      81.5     0.49      1010.0     2        96         3       119        8.10     273       46.3
   09/05/2016 08:00      63.8      63.3       69     53.1      0.00      0.00      81.7     0.49      1010.0     2       145         2       149        8.10     273       37.7
   09/05/2016 07:50      63.5      63.4       69     53.1      0.00      0.00      81.4     0.49      1009.0     3       147         4       167        8.10     273       28.7
   09/05/2016 07:40      63.8      63.5       69     53.1      0.00      0.00      81.9     0.49      1009.0     2       151         4       141        8.10     273       16.4
   09/05/2016 07:30      63.8      63.3       69     53.0      0.00      0.00      82.2     0.49      1009.0     1       157         2       155        8.10     273        8.0
   09/05/2016 07:20      63.5      63.2       69     53.1      0.00      0.00      81.6     0.49      1009.0     1       194         1       133        8.10     273        0.9
   09/05/2016 07:10      63.3      63.0       70     53.2      0.00      0.00      81.7     0.49      1009.0     1       235         2       230        8.10     273      -12.7
   09/05/2016 07:00      63.3      62.9       70     53.1      0.00      0.00      82.0     0.50      1009.0     1       210         1       203        8.10     273      -18.8
   09/05/2016 06:50      63.0      62.8       70     53.1      0.00      0.00      82.2     0.50      1009.0     1       197         1       214        8.10     273      -22.1
   09/05/2016 06:40      63.0      62.8       71     53.2      0.00      0.00      82.0     0.50      1009.0     1       182         2       189        8.10     273      -22.3
   09/05/2016 06:30      63.0      62.9       71     53.2      0.00      0.00      81.8     0.50      1009.0     1       195         1       165        8.10     273      -20.9
   09/05/2016 06:20      63.0      62.8       71     53.3      0.00      0.00      81.7     0.49      1009.0     1       175         2       156        8.10     273      -24.2
   09/05/2016 06:10      63.2      62.9       71     53.5      0.00      0.00      82.2     0.50      1009.0     1        85         1       181        8.10     273      -19.6
   09/05/2016 06:00      63.1      62.8       71     53.5      0.00      0.00      81.9     0.50      1009.0     1        78         1        96        8.10     273      -18.6
   09/05/2016 05:50      63.0      62.8       71     53.4      0.00      0.00      82.0     0.50      1009.0     1       163         2       238        8.10     273      -16.6
   09/05/2016 05:40      63.0      62.8       71     53.5      0.00      0.00      81.9     0.50      1009.0     1       265         2       278        8.10     273      -16.1
   09/05/2016 05:30      62.9      62.7       72     53.5      0.00      0.00      82.1     0.50      1009.0     1        34         1       109        8.10     273      -16.0
   09/05/2016 05:20      62.9      62.8       71     53.5      0.00      0.00      82.5     0.50      1009.0     1       110         2       149        8.10     273      -15.8
   09/05/2016 05:10      62.9      62.6       71     53.5      0.00      0.00      82.3     0.50      1009.0     1        69         2        26        8.10     273      -16.0
   09/05/2016 05:00      62.8      62.5       72     53.4      0.00      0.00      82.4     0.50      1009.0     1         4         2       335        8.10     273      -16.0
   09/05/2016 04:50      62.6      62.3       72     53.3      0.00      0.00      82.4     0.50      1009.0     1        87         1       101        8.10     273      -15.9
   09/05/2016 04:40      62.5      62.2       72     53.3      0.00      0.00      82.2     0.50      1009.0     2       340         3       346        8.10     273      -15.7
   09/05/2016 04:30      62.6      62.2       72     53.3      0.00      0.00      82.4     0.50      1009.0     1        34         2       344        8.11     273      -15.8
   09/05/2016 04:20      62.3      62.1       72     53.3      0.00      0.00      82.4     0.50      1009.0     1        34         3       351        8.11     274      -15.6
   09/05/2016 04:10      62.2      62.0       73     53.4      0.00      0.00      82.4     0.50      1009.0     1         7         2       339        8.11     274      -15.7
   09/05/2016 04:00      62.2      61.9       73     53.4      0.00      0.00      82.7     0.50      1009.0     0        88         1       113        8.11     274      -16.1
   09/05/2016 03:50      62.0      61.7       73     53.2      0.00      0.00      82.6     0.50      1009.0     1       142         1       163        8.11     274      -15.6
   09/05/2016 03:40      61.9      61.6       73     52.9      0.00      0.00      82.5     0.50      1009.0     0       287         1       233        8.11     274      -15.2
   09/05/2016 03:30      61.8      61.4       72     52.6      0.00      0.00      82.9     0.50      1009.0     0        51         1       239        8.11     274      -14.9
   09/05/2016 03:20      61.5      61.1       73     52.5      0.00      0.00      82.9     0.50      1009.0     0        57         0       226        8.11     275      -14.4
   09/05/2016 03:10      61.1      60.8       73     52.1      0.00      0.00      82.7     0.50      1009.0     0        81         1       273        8.11     275      -14.0
   09/05/2016 03:00      60.8      60.4       73     51.9      0.00      0.00      82.7     0.50      1009.0     1       166         2       174        8.11     276      -14.0
   09/05/2016 02:50      60.4      59.8       74     51.6      0.00      0.00      82.9     0.50      1009.0     2       163         2       161        8.11     278      -13.5
   09/05/2016 02:40      59.8      59.1       75     51.5      0.00      0.00      82.7     0.50      1009.0     1       151         2       176        8.11     279      -13.2
   09/05/2016 02:30      59.1      58.2       77     51.3      0.00      0.00      82.7     0.50      1009.0     2       173         3       165        8.11     280      -17.8
   09/05/2016 02:20      58.1      57.3       79     51.3      0.00      0.00      83.1     0.50      1009.0     2       154         2       160        8.11     280      -24.8
   09/05/2016 02:10      57.3      56.9       81     51.1      0.00      0.00      82.8     0.50      1009.0     2       141         2       136        8.11     279      -27.9
   09/05/2016 02:00      57.0      56.8       80     51.0      0.00      0.00      82.8     0.50      1009.0     2       130         2       133        8.11     278      -49.2
   09/05/2016 01:50      57.1      57.0       80     50.9      0.00      0.00      83.2     0.50      1009.0     1       157         1       143        8.11     277      -57.4
   09/05/2016 01:40      57.5      57.2       78     50.7      0.00      0.00      83.0     0.50      1009.0     1       179         1       139        8.11     277      -57.5
   09/05/2016 01:30      57.6      57.4       79     51.1      0.00      0.00      83.0     0.50      1009.0     1       171         1       134        8.11     276      -58.0
   09/05/2016 01:20      58.1      57.6       78     51.2      0.00      0.00      83.0     0.50      1009.0     1       134         1       131        8.11     276      -58.5
   09/05/2016 01:10      58.5      58.2       77     51.3      0.00      0.00      83.1     0.50      1009.0     1       117         1       147        8.11     276      -58.4
   09/05/2016 01:00      58.5      58.4       78     51.6      0.00      0.00      83.0     0.50      1009.0     1       163         2       169        8.11     275      -58.8
   09/05/2016 00:50      58.6      58.4       77     51.4      0.00      0.00      83.3     0.50      1009.0     1       148         2       161        8.11     275      -59.5
   09/05/2016 00:40      58.9      58.7       77     51.6      0.00      0.00      83.4     0.50      1009.0     1       149         1       151        8.11     274      -59.4
   09/05/2016 00:30      58.9      58.7       77     51.5      0.00      0.00      83.2     0.50      1009.0     1       149         1       144        8.12     274      -59.3
   09/05/2016 00:20      59.1      58.8       76     51.4      0.00      0.00      83.6     0.50      1009.0     1       140         2       145        8.12     274      -60.3
   09/05/2016 00:10      59.5      59.2       76     51.8      0.00      0.00      83.5     0.50      1009.0     1       162         2       164        8.12     273      -60.4
   09/05/2016 00:00      59.7      59.4       75     51.6      0.00      0.00      83.4     0.50      1009.0     1       148         2       155        8.12     273      -61.1
   09/04/2016 23:50      60.0      59.8       74     51.6      0.00      0.00      83.6     0.50      1009.0     1       181         1       193        8.12     273      -60.9
   09/04/2016 23:40      60.1      59.7       74     51.8      0.00      0.00      83.3     0.50      1009.0     1       158         1       162        8.12     272      -61.4
   09/04/2016 23:30      60.4      60.1       74     51.9      0.00      0.00      83.4     0.50      1009.0     1       151         2       141        8.12     272      -62.0
   09/04/2016 23:20      60.6      60.3       73     51.7      0.00      0.00      83.2     0.50      1009.0     1       144         2       140        8.12     271      -62.4
   09/04/2016 23:10      60.9      60.5       72     51.7      0.00      0.00      83.2     0.50      1009.0     1       126         2       125        8.13     271      -62.8
   09/04/2016 23:00      61.1      60.9       71     51.4      0.00      0.00      83.6     0.50      1009.0     1       102         1       117        8.13     271      -63.3
   09/04/2016 22:50      61.7      61.3       69     51.4      0.00      0.00      83.4     0.50      1009.0     1       107         2        88        8.13     271      -63.7
   09/04/2016 22:40      62.0      61.9       70     51.9      0.00      0.00      83.8     0.50      1009.0     1        87         1        98        8.13     271      -64.7
   09/04/2016 22:30      62.4      62.0       69     51.9      0.00      0.00      83.6     0.50      1010.0     1        86         2        60        8.13     271      -65.3
   09/04/2016 22:20      62.6      62.3       69     52.0      0.00      0.00      83.3     0.50      1010.0     2        93         2        91        8.13     271      -65.7
   09/04/2016 22:10      62.9      62.6       68     51.8      0.00      0.00      83.6     0.50      1010.0     2        63         3        71        8.13     271      -65.9
   09/04/2016 22:00      62.8      62.6       66     51.1      0.00      0.00      83.6     0.50      1010.0     2        81         2        70        8.14     271      -65.1
   09/04/2016 21:50      63.0      62.6       64     50.3      0.00      0.00      83.6     0.50      1010.0     2       109         2        83        8.14     270      -56.3
   09/04/2016 21:40      63.3      62.4       65     50.8      0.00      0.00      83.6     0.50      1010.0     2       243         2       250        8.14     270      -61.3
   09/04/2016 21:30      63.3      62.6       64     50.4      0.00      0.00      83.4     0.50      1009.0     1       186         1       215        8.14     270      -66.8
   09/04/2016 21:20      63.8      63.4       63     50.6      0.00      0.00      83.8     0.50      1009.0     1       148         2       142        8.14     270      -68.8
   09/04/2016 21:10      64.3      63.7       62     50.7      0.00      0.00      84.1     0.50      1009.0     2       190         3       161        8.14     270      -69.5
   09/04/2016 21:00      64.7      64.3       61     50.8      0.00      0.00      83.6     0.50      1009.0     3       172         4       177        8.14     270      -70.2
   09/04/2016 20:50      65.5      64.9       60     51.0      0.00      0.00      83.5     0.50      1009.0     3       170         3       177        8.14     269      -70.4
   09/04/2016 20:40      65.7      65.3       60     51.1      0.00      0.00      83.7     0.50      1009.0     4       158         5       146        8.15     269      -71.2
   09/04/2016 20:30      66.7      66.0       58     51.0      0.00      0.00      83.7     0.50      1009.0     2       229         3       155        8.15     269      -71.0
   09/04/2016 20:20      66.7      66.4       57     51.1      0.00      0.00      83.7     0.50      1009.0     1       286         2       305        8.15     269      -71.8
   09/04/2016 20:10      67.2      66.7       57     51.4      0.00      0.00      83.7     0.50      1009.0     1       216         3        12        8.15     269      -72.9
   09/04/2016 20:00      67.3      67.0       57     51.3      0.00      0.00      83.7     0.50      1009.0     2       174         2        35        8.15     269      -73.8
   09/04/2016 19:50      67.6      67.4       56     51.4      0.00      0.00      83.3     0.50      1009.0     1       177         2       183        8.15     269      -74.8
   09/04/2016 19:40      68.5      67.8       55     51.4      0.00      0.00      83.5     0.50      1009.0     2       213         2       302        8.15     269      -76.3
   09/04/2016 19:30      68.8      68.5       55     51.6      0.00      0.00      84.0     0.50      1008.0     1       292         2       351        8.15     268      -76.6
   09/04/2016 19:20      69.1      69.0       54     51.8      0.00      0.00      83.7     0.50      1008.0     3       306         4       308        8.15     268      -75.3
   09/04/2016 19:10      69.5      69.1       54     51.8      0.00      0.00      83.7     0.50      1008.0     3       237         5       254        8.15     268      -71.3
   09/04/2016 19:00      70.0      69.3       53     52.0      0.00      0.00      83.5     0.50      1008.0     4       234         6       242        8.15     268      -63.9
   09/04/2016 18:50      70.9      70.2       52     52.0      0.00      0.00      83.4     0.50      1008.0     5       239         7       234        8.16     268      -52.6
   09/04/2016 18:40      71.1      70.7       51     52.1      0.00      0.00      83.4     0.50      1008.0     4       239         5       278        8.16     268      -38.9
   09/04/2016 18:30      71.5      71.4       51     52.2      0.00      0.00      83.4     0.50      1008.0     3       187         6       235        8.16     268      -20.9
   09/04/2016 18:20      71.7      71.2       51     52.2      0.00      0.00      83.2     0.50      1008.0     4       182         7       186        8.16     268        1.3
   09/04/2016 18:10      72.7      71.7       50     52.3      0.00      0.00      83.5     0.50      1008.0     6       162         8       161        8.17     267       23.9
   09/04/2016 18:00      72.9      72.3       49     52.4      0.00      0.00      83.2     0.50      1008.0     5       167         6       146        8.17     268       46.8
   09/04/2016 17:50      73.0      72.3       49     52.5      0.00      0.00      83.4     0.50      1008.0     6       167         7       152        8.17     268       70.0
   09/04/2016 17:40      73.5      72.9       48     52.6      0.00      0.00      83.2     0.50      1008.0     4       186         7       165        8.17     268       94.4
   09/04/2016 17:30      73.8      72.9       48     52.6      0.00      0.00      83.3     0.50      1008.0     5       161         9       123        8.17     268      119.0
   09/04/2016 17:20      74.3      73.4       48     52.7      0.00      0.00      83.2     0.50      1008.0     6       154         9       165        8.18     268      140.3
   09/04/2016 17:10      74.1      72.9       48     52.7      0.00      0.00      82.9     0.50      1008.0     5       156         8       126        8.18     268      162.5
   09/04/2016 17:00      75.7      73.8       46     52.8      0.00      0.00      83.2     0.50      1008.0     6       166         8       139        8.18     268      183.1
   09/04/2016 16:50      75.6      74.6       46     52.9      0.00      0.00      82.7     0.50      1008.0     4       144         7       124        8.18     268      205.4
   09/04/2016 16:40      75.7      74.6       46     52.8      0.00      0.00      82.9     0.50      1008.0     4       197         9       145        8.18     268      227.4
   09/04/2016 16:30      76.4      75.2       45     52.9      0.00      0.00      83.0     0.50      1008.0     4       160         7       153        8.19     268      249.1
   09/04/2016 16:20      75.8      74.8       46     52.8      0.00      0.00      82.7     0.50      1008.0     5       152        12       239        8.19     268      274.7
   09/04/2016 16:10      75.3      74.4       46     52.9      0.00      0.00      83.0     0.50      1008.0     6       153         9       124        8.20     268      299.6
   09/04/2016 16:00      75.5      74.2       47     52.9      0.00      0.00      82.7     0.50      1008.0     5       177         8       194        8.20     269      320.6
   09/04/2016 15:50      74.6      74.1       47     52.9      0.00      0.00      82.7     0.50      1008.0     7       148        11       158        8.20     268      343.4
   09/04/2016 15:40      74.9      74.5       46     52.9      0.00      0.00      83.0     0.50      1008.0     7       149         9       154        8.21     268      360.6
   09/04/2016 15:30      75.2      74.6       46     53.1      0.00      0.00      82.6     0.50      1008.0     6       148        10       184        8.22     268      379.6
   09/04/2016 15:20      75.0      74.4       47     53.0      0.00      0.00      82.5     0.50      1008.0     6       172         8       170        8.22     268      395.9
   09/04/2016 15:10      76.2      74.7       46     53.1      0.00      0.00      82.4     0.50      1008.0     5       170        11       176        8.23     268      413.2
   09/04/2016 15:00      76.0      75.2       46     53.3      0.00      0.00      82.5     0.50      1008.0     6       165         8       184        8.23     269      432.4
   09/04/2016 14:50      76.4      75.6       46     53.5      0.00      0.00      82.5     0.50      1009.0     5       176         9       157        8.23     269      450.4
   09/04/2016 14:40      76.4      75.0       46     53.5      0.00      0.00      82.4     0.50      1009.0     6       171         7       167        8.23     270      477.7
   09/04/2016 14:30      75.5      74.5       47     53.7      0.00      0.00      82.3     0.50      1009.0     6       133         8       128        8.24     270      510.3
   09/04/2016 14:20      76.0      74.1       48     53.6      0.00      0.00      82.3     0.50      1009.0     7       158        10       174        8.24     269      381.5
   09/04/2016 14:10      76.4      75.6       46     53.9      0.00      0.00      82.4     0.50      1009.0     3       187         6       135        8.24     269      350.0
   09/04/2016 14:00      75.3      74.3       48     53.7      0.00      0.00      82.0     0.50      1009.0     4       141         8       153        8.25     270      503.0
   09/04/2016 13:50      75.0      74.2       48     53.7      0.00      0.00      82.1     0.50      1009.0     6       145         9       130        8.25     270      511.1
   09/04/2016 13:40      75.4      74.1       48     54.0      0.00      0.00      82.1     0.50      1010.0     7       169         9       187        8.25     270      532.0
   09/04/2016 13:30      75.2      74.4       49     54.0      0.00      0.00      82.4     0.50      1010.0     6       149         9       166        8.25     270      557.6
   09/04/2016 13:20      75.4      74.6       46     52.9      0.00      0.00      82.3     0.50      1010.0     5       123        11       122        8.26     270      354.1
   09/04/2016 13:10      74.8      73.8       46     52.3      0.00      0.00      81.9     0.50      1010.0     4        66         7       123        8.26     270      536.0
   09/04/2016 13:00      74.8      73.2       45     51.5      0.00      0.00      82.1     0.50      1010.0     4        96         7       125        8.26     271      565.2
   09/04/2016 12:50      73.9      73.2       46     51.4      0.00      0.00      82.3     0.50      1010.0     2       116         4       102        8.26     270      259.9
   09/04/2016 12:40      73.5      72.6       46     51.3      0.00      0.00      82.3     0.50      1010.0     4       236         6       225        8.26     270      599.1
   09/04/2016 12:30      73.0      72.6       47     51.5      0.00      0.00      82.3     0.50      1010.0     4       188         7       189        8.26     271      475.1
   09/04/2016 12:20      74.1      71.3       47     51.6      0.00      0.00      82.4     0.50      1010.0     4       306         5       337        8.26     270      417.3
   09/04/2016 12:10      72.7      71.3       48     51.2      0.00      0.00      82.0     0.50      1011.0     3       284         4       310        8.27     271      127.1
   09/04/2016 12:00      73.0      71.9       47     51.4      0.00      0.00      82.3     0.50      1011.0     4       340         6       353        8.27     271      267.3
   09/04/2016 11:50      72.7      71.0       48     50.9      0.00      0.00      82.3     0.50      1011.0     3       284         4       316        8.27     270      479.4
   09/04/2016 11:40      72.9      71.2       48     51.4      0.00      0.00      82.1     0.50      1011.0     4       221         6       227        8.27     271      458.8
   09/04/2016 11:30      72.4      69.3       51     52.2      0.00      0.00      82.2     0.50      1011.0     3       242         5       233        8.27     271      584.7
   09/04/2016 11:20      72.0      69.7       53     52.6      0.00      0.00      82.5     0.50      1011.0     4       179         8       199        8.27     272      345.0
   09/04/2016 11:10      72.5      69.6       52     52.6      0.00      0.00      82.5     0.50      1011.0     2       117         4       147        8.27     272      507.3
   09/04/2016 11:00      70.0      68.7       55     52.5      0.00      0.00      82.2     0.50      1011.0     2       175         5       161        8.27     273      427.8
   09/04/2016 10:50      69.0      68.2       57     52.9      0.00      0.00      82.2     0.50      1012.0     3       253         4       228        8.27     273      261.2
   09/04/2016 10:40      68.2      67.4       60     53.2      0.00      0.00      82.3     0.50      1012.0     3       252         5       314        8.27     274      344.8
   09/04/2016 10:30      67.6      66.7       62     53.6      0.00      0.00      82.3     0.50      1012.0     3       263         5       241        8.27     277      225.8
   09/04/2016 10:20      66.8      65.9       64     53.8      0.00      0.00      82.5     0.50      1012.0     3       188         4       171        8.27     280      147.8
   09/04/2016 10:10      66.4      66.1       64     53.7      0.00      0.00      82.8     0.50      1012.0     4       169         5       157        8.27     283      113.4
   09/04/2016 10:00      67.3      66.4       63     53.7      0.00      0.00      82.8     0.50      1012.0     4       159         6       150        8.28     285      131.5
   09/04/2016 09:50      67.5      67.2       62     53.8      0.00      0.00      82.7     0.50      1012.0     4       148         6       127        8.28     286      329.6
   09/04/2016 09:40      67.3      66.1       64     54.1      0.00      0.00      82.7     0.50      1012.0     4       199         7       202        8.28     292      399.5
   09/04/2016 09:30      66.1      65.2       67     54.5      0.00      0.00      82.7     0.50      1012.0     3       163         5       185        8.28     296      200.8
   09/04/2016 09:20      65.2      64.5       71     55.1      0.00      0.00      82.7     0.50      1012.0     4       154         5       153        8.28     299      120.6
   09/04/2016 09:10      64.4      63.8       72     55.2      0.00      0.00      82.6     0.50      1012.0     3       149         4       171        8.28     301       95.2
   09/04/2016 09:00      64.0      63.7       73     54.8      0.00      0.00      82.8     0.50      1012.0     3       214         5       220        8.28     303       57.8
   09/04/2016 08:50      64.1      63.6       72     54.5      0.00      0.00      82.7     0.50      1012.0     3       196         5       196        8.28     304       31.7
   09/04/2016 08:40      64.0      63.8       71     54.2      0.00      0.00      82.6     0.50      1011.0     3       139         5       167        8.28     305       44.8
   09/04/2016 08:30      64.2      63.7       71     54.3      0.00      0.00      82.5     0.50      1011.0     3       174         4       157        8.28     307       72.6
   09/04/2016 08:20      64.3      63.9       70     54.1      0.00      0.00      82.9     0.50      1011.0     2       157         5       180        8.28     308       79.3
   09/04/2016 08:10      64.0      63.3       70     53.9      0.00      0.00      83.6     0.50      1011.0     1       128         2       180        8.28     308       74.9
   09/04/2016 08:00      63.4      62.8       71     53.6      0.00      0.00      83.0     0.50      1011.0     1        97         1       152        8.28     305       34.2
   09/04/2016 07:50      62.9      62.6       71     53.4      0.00      0.00      82.6     0.51      1011.0     1       103         1       113        8.28     299       -9.0
   09/04/2016 07:40      62.7      62.3       72     53.3      0.00      0.00      83.0     0.50      1011.0     1       114         2       124        8.28     299      -20.3
   09/04/2016 07:30      62.5      62.2       72     53.1      0.00      0.00      82.9     0.51      1011.0     2       187         3       181        8.28     299      -24.8
   09/04/2016 07:20      62.5      62.1       71     52.8      0.00      0.00      82.8     0.51      1011.0     2       186         3       199        8.28     299      -18.2
   09/04/2016 07:10      62.3      62.2       70     52.5      0.00      0.00      82.9     0.51      1011.0     2       193         3       188        8.28     297      -36.0
   09/04/2016 07:00      62.5      62.1       70     52.5      0.00      0.00      83.1     0.51      1011.0     1       163         2       157        8.28     297      -33.1
   09/04/2016 06:50      62.4      62.3       70     52.5      0.00      0.00      83.1     0.51      1011.0     2       173         2       166        8.28     299      -29.7
   09/04/2016 06:40      62.3      62.2       70     52.3      0.00      0.00      83.1     0.51      1011.0     2       188         2       200        8.28     299      -26.5
   09/04/2016 06:30      62.3      62.1       70     52.3      0.00      0.00      82.7     0.51      1011.0     2       198         2       204        8.28     299      -27.6
   09/04/2016 06:20      62.5      62.2       70     52.3      0.00      0.00      83.5     0.51      1011.0     1       159         2       148        8.28     298      -32.2
   09/04/2016 06:10      62.4      62.2       69     52.2      0.00      0.00      83.3     0.51      1011.0     2       157         4       158        8.28     298      -26.7
   09/04/2016 06:00      62.5      62.1       69     52.2      0.00      0.00      83.2     0.51      1011.0     1       169         2       161        8.28     297      -28.3
   09/04/2016 05:50      62.3      61.9       70     52.2      0.00      0.00      83.3     0.51      1011.0     2       186         2       202        8.28     296      -30.5
   09/04/2016 05:40      61.9      61.7       71     52.1      0.00      0.00      83.3     0.51      1011.0     1       201         2       220        8.28     295      -28.1
   09/04/2016 05:30      62.1      61.8       70     52.0      0.00      0.00      83.8     0.51      1011.0     1       132         1       114        8.28     294      -40.5
   09/04/2016 05:20      62.1      61.8       70     52.1      0.00      0.00      83.7     0.51      1011.0     1       100         3       180        8.28     293      -46.7
   09/04/2016 05:10      62.7      62.1       69     51.9      0.00      0.00      83.7     0.51      1010.0     3       173         4       192        8.28     293      -60.0
   09/04/2016 05:00      62.8      62.7       68     52.2      0.00      0.00      83.7     0.51      1010.0     1       161         1       277        8.28     294      -47.6
   09/04/2016 04:50      62.9      62.8       68     52.1      0.00      0.00      83.7     0.51      1011.0     1       161         2       187        8.28     297      -21.4
   09/04/2016 04:40      62.9      62.7       67     51.9      0.00      0.00      83.8     0.51      1011.0     2       171         3       177        8.28     297      -19.5
   09/04/2016 04:30      62.9      62.7       68     52.0      0.00      0.00      83.9     0.51      1011.0     3       157         5       155        8.28     297      -19.3
   09/04/2016 04:20      62.9      62.8       69     52.6      0.00      0.00      83.6     0.51      1011.0     3       167         5       152        8.28     296      -19.8
   09/04/2016 04:10      63.0      62.8       69     52.8      0.00      0.00      83.6     0.51      1011.0     3       160         5       165        8.28     296      -19.1
   09/04/2016 04:00      63.2      62.9       69     52.9      0.00      0.00      83.9     0.51      1010.0     3       128         4       134        8.28     295      -19.2
   09/04/2016 03:50      63.2      62.8       70     52.9      0.00      0.00      83.8     0.51      1010.0     2       127         3       114        8.28     295      -19.8
   09/04/2016 03:40      63.2      62.8       69     52.8      0.00      0.00      83.4     0.51      1010.0     3       117         4       119        8.28     294      -27.9
   09/04/2016 03:30      63.2      62.9       69     53.0      0.00      0.00      84.0     0.51      1010.0     2       103         4       143        8.28     294      -27.9
   09/04/2016 03:20      63.2      62.9       69     52.8      0.00      0.00      83.9     0.51      1010.0     2       103         4        73        8.28     294      -25.4
   09/04/2016 03:10      63.0      62.8       71     53.2      0.00      0.00      84.2     0.51      1010.0     3       120         4       115        8.28     294      -22.6
   09/04/2016 03:00      63.0      62.8       71     53.4      0.00      0.00      83.8     0.51      1010.0     2       114         4       129        8.29     294      -21.9
   09/04/2016 02:50      62.9      62.6       72     53.5      0.00      0.00      84.1     0.51      1010.0     3       134         4       106        8.29     294      -20.0
   09/04/2016 02:40      62.8      62.6       73     53.8      0.00      0.00      84.0     0.51      1011.0     3       157         5       182        8.29     295      -18.9
   09/04/2016 02:30      63.0      62.6       73     54.0      0.00      0.00      84.1     0.51      1011.0     2       164         3       158        8.29     295      -18.5
   09/04/2016 02:20      62.6      62.4       74     54.1      0.00      0.00      84.4     0.51      1011.0     2       144         3       125        8.29     294      -17.7
   09/04/2016 02:10      62.7      62.4       74     54.3      0.00      0.00      84.2     0.51      1011.0     2       126         3       132        8.29     294      -18.0
   09/04/2016 02:00      62.7      62.4       75     54.4      0.00      0.00      84.5     0.51      1011.0     2       146         4       178        8.29     294      -18.1
   09/04/2016 01:50      62.7      62.4       76     54.8      0.00      0.00      84.2     0.51      1011.0     1       168         1       355        8.29     294      -18.8
   09/04/2016 01:40      62.5      62.2       77     55.0      0.00      0.00      84.1     0.51      1011.0     2        83         3       100        8.29     293      -18.0
   09/04/2016 01:30      62.3      61.8       78     55.0      0.00      0.00      84.2     0.51      1011.0     2        73         3        71        8.29     293      -16.4
   09/04/2016 01:20      61.9      61.5       79     55.1      0.00      0.00      84.6     0.51      1011.0     2        94         2        75        8.29     293      -15.8
   09/04/2016 01:10      61.6      61.0       80     55.2      0.00      0.00      84.6     0.51      1011.0     1        81         2        64        8.29     293      -14.9
   09/04/2016 01:00      60.9      60.5       81     55.0      0.00      0.00      84.7     0.51      1011.0     1       122         2       163        8.29     292      -16.3
   09/04/2016 00:50      60.5      60.2       82     54.9      0.00      0.00      84.5     0.51      1011.0     1       123         2       127        8.29     290      -34.9
   09/04/2016 00:40      60.5      60.3       82     54.9      0.00      0.00      84.7     0.51      1011.0     3       176         4       185        8.29     288      -61.4
   09/04/2016 00:30      60.8      60.3       81     54.6      0.00      0.00      84.4     0.51      1011.0     3       158         5       157        8.29     288      -63.0
   09/04/2016 00:20      61.0      60.9       78     54.1      0.00      0.00      84.7     0.51      1011.0     4       136         6       126        8.29     286      -63.3
   09/04/2016 00:10      61.2      60.8       77     53.7      0.00      0.00      84.6     0.51      1011.0     3       144         4       159        8.29     284      -63.0
   09/04/2016 00:00      61.3      60.9       77     53.9      0.00      0.00      84.5     0.51      1011.0     2       167         2       168        8.29     283      -61.8
   09/03/2016 23:50      61.4      61.3       77     54.0      0.00      0.00      84.8     0.51      1011.0     2       157         2       161        8.30     281      -62.2
   09/03/2016 23:40      61.4      61.1       77     53.9      0.00      0.00      84.8     0.51      1011.0     2       145         2       152        8.30     280      -62.4
   09/03/2016 23:30      61.4      61.3       78     54.4      0.00      0.00      84.7     0.51      1011.0     1       143         2       143        8.30     279      -62.0
   09/03/2016 23:20      61.8      61.5       77     54.3      0.00      0.00      84.6     0.51      1011.0     1       110         2       122        8.30     277      -62.3
   09/03/2016 23:10      62.1      61.8       76     54.2      0.00      0.00      85.0     0.51      1010.0     1       117         1       140        8.30     275      -63.1
   09/03/2016 23:00      62.3      62.0       75     54.4      0.00      0.00      85.0     0.51      1010.0     1       139         1       141        8.30     274      -63.7
   09/03/2016 22:50      62.7      62.5       76     54.9      0.00      0.00      85.0     0.51      1011.0     1       200         2       222        8.30     273      -63.9
   09/03/2016 22:40      63.1      62.7       75     55.0      0.00      0.00      85.3     0.51      1010.0     1       180         2       172        8.30     272      -65.0
   09/03/2016 22:30      63.3      63.2       75     55.1      0.00      0.00      84.7     0.51      1010.0     1       196         2       182        8.30     271      -66.2
   09/03/2016 22:20      63.5      63.2       74     55.1      0.00      0.00      85.1     0.51      1010.0     2       180         3       159        8.30     271      -67.1
   09/03/2016 22:10      63.7      63.4       74     55.0      0.00      0.00      85.2     0.51      1010.0     2       212         2       162        8.30     271      -67.2
   09/03/2016 22:00      63.8      63.6       73     55.0      0.00      0.00      84.9     0.51      1010.0     2       204         4       199        8.30     271      -67.2
   09/03/2016 21:50      64.1      63.9       73     55.1      0.00      0.00      85.0     0.51      1010.0     2       205         3       219        8.30     271      -67.7
   09/03/2016 21:40      64.3      64.1       72     55.1      0.00      0.00      85.1     0.51      1010.0     2       211         3       201        8.30     271      -68.1
   09/03/2016 21:30      64.4      64.2       72     55.1      0.00      0.00      84.8     0.51      1010.0     3       202         4       212        8.30     271      -68.3
   09/03/2016 21:20      64.9      64.4       71     55.1      0.00      0.00      85.2     0.51      1010.0     3       203         4       212        8.30     271      -69.0
   09/03/2016 21:10      65.1      64.8       71     55.2      0.00      0.00      85.1     0.51      1010.0     2       192         4       195        8.30     271      -69.3
   09/03/2016 21:00      65.3      65.1       70     55.2      0.00      0.00      84.8     0.51      1010.0     3       205         5       195        8.31     271      -69.2
   09/03/2016 20:50      65.7      65.4       69     55.2      0.00      0.00      85.3     0.51      1010.0     3       207         5       210        8.31     271      -69.5
   09/03/2016 20:40      66.4      65.8       68     55.3      0.00      0.00      85.2     0.51      1010.0     3       215         4       248        8.31     271      -70.1
   09/03/2016 20:30      66.7      66.4       67     55.3      0.00      0.00      85.0     0.51      1010.0     3       249         4       248        8.31     271      -70.5
   09/03/2016 20:20      66.9      66.7       66     55.3      0.00      0.00      84.7     0.51      1010.0     3       278         5       288        8.31     270      -71.6
   09/03/2016 20:10      67.3      66.9       66     55.4      0.00      0.00      85.1     0.51      1010.0     4       303         5       306        8.31     270      -71.5
   09/03/2016 20:00      67.9      67.3       65     55.4      0.00      0.00      85.2     0.51      1010.0     4       300         6       317        8.32     270      -73.0
   09/03/2016 19:50      68.2      68.1       64     55.7      0.00      0.00      85.3     0.51      1009.0     3       296         5       300        8.32     270      -73.6
   09/03/2016 19:40      69.2      68.3       63     55.7      0.00      0.00      85.0     0.51      1009.0     4       306         6       305        8.32     270      -74.6
   09/03/2016 19:30      69.8      69.2       62     55.8      0.00      0.00      84.9     0.51      1009.0     4       303         5       319        8.32     270      -74.9
   09/03/2016 19:20      70.8      69.9       60     55.9      0.00      0.00      85.0     0.51      1009.0     4       286         5       270        8.32     270      -73.2
   09/03/2016 19:10      71.3      70.9       59     56.0      0.00      0.00      84.7     0.51      1009.0     3       255         5       257        8.33     270      -69.5
   09/03/2016 19:00      72.2      71.5       57     56.0      0.00      0.00      84.7     0.51      1009.0     3       243         5       231        8.33     270      -62.9
   09/03/2016 18:50      73.3      72.5       56     56.1      0.00      0.00      85.2     0.51      1009.0     3       245         5       195        8.33     269      -52.0
   09/03/2016 18:40      73.9      73.3       54     56.1      0.00      0.00      84.8     0.51      1009.0     3       249         6       221        8.33     269      -36.3
   09/03/2016 18:30      74.3      73.8       54     56.5      0.00      0.00      84.8     0.51      1009.0     4       280         6       271        8.33     269      -17.0
   09/03/2016 18:20      74.9      74.5       53     56.5      0.00      0.00      84.8     0.51      1009.0     3       279         6       278        8.34     269        3.6
   09/03/2016 18:10      75.4      74.4       46     53.0      0.00      0.00      84.7     0.51      1009.0     4       234         6       232        8.34     269       27.6
   09/03/2016 18:00      75.7      75.3       44     52.2      0.00      0.00      84.7     0.51      1009.0     4       200         7       182        8.34     268       50.0
   09/03/2016 17:50      76.1      75.6       44     52.7      0.00      0.00      84.9     0.51      1009.0     5       177         7       185        8.35     268       74.5
   09/03/2016 17:40      76.3      75.8       44     52.8      0.00      0.00      84.7     0.51      1009.0     4       172         7       165        8.35     269       97.2
   09/03/2016 17:30      76.6      76.3       44     52.9      0.00      0.00      84.7     0.51      1009.0     5       154         7       131        8.35     269      122.0
   09/03/2016 17:20      76.4      76.1       46     53.8      0.00      0.00      84.7     0.51      1009.0     5       163         8       131        8.36     269      144.9
   09/03/2016 17:10      77.2      76.3       45     53.5      0.00      0.00      84.4     0.51      1009.0     6       157         9       185        8.36     269      170.5
   09/03/2016 17:00      77.7      76.9       44     53.8      0.00      0.00      84.6     0.51      1009.0     5       172         7       169        8.37     268      192.3
   09/03/2016 16:50      77.5      76.9       44     53.7      0.00      0.00      84.3     0.51      1009.0     6       183         9       152        8.37     268      215.3
   09/03/2016 16:40      77.6      77.3       43     53.4      0.00      0.00      84.4     0.51      1009.0     6       164         9       138        8.37     268      236.4
   09/03/2016 16:30      77.4      77.1       44     53.6      0.00      0.00      84.2     0.51      1009.0     7       154        10       153        8.38     269      258.0
   09/03/2016 16:20      78.5      77.5       43     53.9      0.00      0.00      84.5     0.52      1009.0     6       153         8       119        8.38     269      278.6
   09/03/2016 16:10      78.2      77.4       44     54.0      0.00      0.00      84.2     0.51      1009.0     6       148         8       126        8.39     269      299.3
   09/03/2016 16:00      78.4      77.1       44     54.0      0.00      0.00      84.1     0.51      1009.0     5       154         9       134        8.39     270      319.3
   09/03/2016 15:50      78.6      77.6       44     54.3      0.00      0.00      84.1     0.51      1009.0     6       186         9       134        8.40     270      341.0
   09/03/2016 15:40      78.8      77.8       44     54.3      0.00      0.00      83.9     0.51      1009.0     5       168         7       158        8.40     269      358.6
   09/03/2016 15:30      78.7      77.9       44     54.4      0.00      0.00      83.9     0.51      1009.0     5       170         7       157        8.41     269      378.0
   09/03/2016 15:20      79.3      78.5       43     54.5      0.00      0.00      84.2     0.51      1009.0     5       174         8       166        8.41     270      395.1
   09/03/2016 15:10      78.7      78.2       44     54.5      0.00      0.00      84.0     0.51      1010.0     7       180         9       203        8.42     270      411.9
   09/03/2016 15:00      79.5      78.0       43     54.5      0.00      0.00      83.9     0.51      1010.0     6       164         7       201        8.42     270      424.4
   09/03/2016 14:50      80.4      78.3       43     54.8      0.00      0.00      83.9     0.51      1010.0     8       147        10       147        8.42     270      439.9
   09/03/2016 14:40      82.2      80.9       40     55.0      0.00      0.00      83.7     0.51      1010.0     5       159        10       148        8.43     271      441.6
   09/03/2016 14:30      82.6      81.5       39     54.8      0.00      0.00      83.7     0.51      1010.0     3        32         9        66        8.43     271      440.0
   09/03/2016 14:20      82.2      81.4       38     53.7      0.00      0.00      83.6     0.51      1010.0     3        34         6        65        8.43     271      449.9
   09/03/2016 14:10      82.5      81.5       37     53.3      0.00      0.00      84.0     0.51      1010.0     3        36         7        84        8.43     271      460.9
   09/03/2016 14:00      82.1      81.3       38     53.8      0.00      0.00      83.8     0.51      1010.0     3        36         6         9        8.44     271      478.6
   09/03/2016 13:50      81.9      78.8       40     53.6      0.00      0.00      83.3     0.51      1010.0     3        42         6       222        8.44     272      492.0
   09/03/2016 13:40      79.9      78.7       39     52.5      0.00      0.00      83.6     0.51      1010.0     4       290         7       302        8.44     272      491.9
   09/03/2016 13:30      80.0      78.8       40     52.9      0.00      0.00      83.6     0.51      1011.0     4       320         7       322        8.44     272      497.0
   09/03/2016 13:20      78.6      76.8       43     53.3      0.00      0.00      83.4     0.51      1011.0     2        10         7       323        8.45     272      508.2
   09/03/2016 13:10      78.3      76.8       43     53.6      0.00      0.00      83.3     0.51      1011.0     4       201         5       203        8.45     272      513.5
   09/03/2016 13:00      77.3      76.2       45     53.7      0.00      0.00      83.7     0.51      1011.0     3       220         4       288        8.45     272      517.6
   09/03/2016 12:50      78.6      77.6       43     53.7      0.00      0.00      82.9     0.51      1011.0     3       295         6       238        8.45     271      518.2
   09/03/2016 12:40      77.8      77.2       45     54.2      0.00      0.00      83.5     0.52      1012.0     3       329         7       348        8.45     279      521.7
   09/03/2016 12:30      76.8      74.6       48     54.3      0.00      0.00      83.4     0.52      1012.0     2         6         4         3        8.46     287      524.4
   09/03/2016 12:20      75.7      74.4       48     54.3      0.00      0.00      83.3     0.52      1012.0     4       107         7       128        8.46     293      528.5
   09/03/2016 12:10      75.4      73.5       50     54.6      0.00      0.00      83.4     0.52      1012.0     4        98         7       125        8.46     302      528.7
   09/03/2016 12:00      74.2      73.0       52     54.9      0.00      0.00      83.7     0.52      1012.0     5       146         7       122        8.46     313      525.2
   09/03/2016 11:50      75.7      74.1       49     54.8      0.00      0.00      83.1     0.52      1012.0     4       118         8       126        8.46     316      520.3
   09/03/2016 11:40      75.4      73.8       49     54.0      0.00      0.00      83.6     0.52      1012.0     4       110         6        69        8.46     330      520.0
   09/03/2016 11:30      74.4      73.5       49     53.8      0.00      0.00      82.7     0.52      1012.0     3       245         5       130        8.46     337      521.2
   09/03/2016 11:20      74.1      72.6       50     53.6      0.00      0.00      83.8     0.52      1012.0     3       103         4        44        8.46     355      516.7
   09/03/2016 11:10      72.7      72.3       50     53.0      0.00      0.00      83.8     0.52      1013.0     3       155         5       146        8.46     384      516.7
   09/03/2016 11:00      73.3      72.4       51     53.8      0.00      0.00      83.7     0.52      1013.0     3        93         5       138        8.46     411      477.5
   09/03/2016 10:50      72.8      72.0       52     53.8      0.00      0.00      83.5     0.50      1013.0     3        46         7        68        8.46     268      456.5
   09/03/2016 10:40      72.6      71.3       53     53.8      0.00      0.00      83.7     0.50      1013.0     4        99         7       140        8.47     268      438.0
   09/03/2016 10:30      72.0      70.8       53     53.7      0.00      0.00      83.4     0.50      1013.0     3        35         6         8        8.47     268      421.6
   09/03/2016 10:20      71.5      70.3       55     53.8      0.00      0.00      83.8     0.50      1013.0     4        57         6       107        8.47     268      408.9
   09/03/2016 10:10      71.5      70.7       54     53.5      0.00      0.00      83.7     0.50      1013.0     4        53         6        75        8.47     269      392.7
   09/03/2016 10:00      71.0      69.4       56     53.5      0.00      0.00      83.5     0.50      1013.0     3        36         5        61        8.47     269      391.2
   09/03/2016 09:50      69.9      68.5       57     53.4      0.00      0.00      83.5     0.50      1013.0     3        70         6        74        8.47     270      371.0
   09/03/2016 09:40      69.8      69.0       57     53.5      0.00      0.00      83.7     0.50      1013.0     3        80         5        78        8.47     269      271.4
   09/03/2016 09:30      69.2      67.2       60     53.6      0.00      0.00      83.7     0.50      1013.0     4        96         7       102        8.47     269      447.4
   09/03/2016 09:20      67.2      66.1       64     53.8      0.00      0.00      83.7     0.50      1013.0     3       144         5       131        8.47     270      295.0
   09/03/2016 09:10      66.4      65.8       65     54.0      0.00      0.00      83.6     0.51      1013.0     3       117         6       139        8.47     270      134.8
   09/03/2016 09:00      66.1      65.6       66     54.4      0.00      0.00      83.8     0.51      1013.0     4       111         6       109        8.47     270      110.9
   09/03/2016 08:50      66.2      65.7       66     54.5      0.00      0.00      83.3     0.51      1013.0     3       147         5       165        8.48     269       92.0
   09/03/2016 08:40      66.3      65.9       66     54.5      0.00      0.00      83.6     0.51      1013.0     1       158         3       180        8.48     269       78.4
   09/03/2016 08:30      66.0      65.3       67     54.4      0.00      0.00      84.0     0.51      1013.0     1       131         2        78        8.48     270       68.8
   09/03/2016 08:20      65.5      65.2       68     54.3      0.00      0.00      83.9     0.51      1013.0     2        81         4        72        8.48     270       59.1
   09/03/2016 08:10      65.3      64.9       68     54.4      0.00      0.00      84.0     0.51      1013.0     2       115         4       121        8.48     270       49.1
   09/03/2016 08:00      65.5      64.9       69     54.8      0.00      0.00      84.0     0.51      1013.0     2       102         5        84        8.48     270       34.6
   09/03/2016 07:50      65.0      64.6       70     54.8      0.00      0.00      83.9     0.51      1012.0     3       110         4        78        8.48     270       16.8
   09/03/2016 07:40      64.9      64.6       70     54.6      0.00      0.00      84.0     0.51      1012.0     4       115         6       111        8.48     269       16.4
   09/03/2016 07:30      64.9      64.6       70     54.5      0.00      0.00      83.9     0.51      1012.0     3       117         6       136        8.48     270       11.8
   09/03/2016 07:20      64.8      64.3       70     54.6      0.00      0.00      84.1     0.51      1012.0     3       115         5       132        8.48     270        7.5
   09/03/2016 07:10      64.6      64.2       71     54.7      0.00      0.00      84.4     0.51      1012.0     4       115         6       127        8.48     270       -0.9
   09/03/2016 07:00      64.5      64.1       71     54.7      0.00      0.00      84.1     0.51      1012.0     3        92         6       122        8.48     270      -23.6
   09/03/2016 06:50      64.5      64.3       71     55.0      0.00      0.00      84.4     0.51      1012.0     4       125         7       142        8.48     270      -36.4
   09/03/2016 06:40      64.5      64.2       72     55.0      0.00      0.00      84.5     0.51      1012.0     4       125         5       142        8.48     269      -28.3
   09/03/2016 06:30      64.6      64.4       72     55.1      0.00      0.00      84.3     0.51      1012.0     3       117         4       111        8.48     269      -31.0
   09/03/2016 06:20      64.6      64.4       71     55.1      0.00      0.00      84.1     0.51      1012.0     3       131         4       130        8.48     270      -37.0
   09/03/2016 06:10      64.8      64.6       71     55.2      0.00      0.00      84.3     0.51      1011.0     2       124         4       115        8.48     270      -25.4
   09/03/2016 06:00      64.9      64.6       72     55.4      0.00      0.00      84.0     0.51      1011.0     3       133         5       123        8.48     270      -23.3
   09/03/2016 05:50      64.9      64.6       72     55.4      0.00      0.00      84.2     0.51      1011.0     3       127         4       126        8.48     269      -28.3
   09/03/2016 05:40      64.9      64.7       72     55.4      0.00      0.00      84.0     0.51      1011.0     2        98         4        73        8.48     269      -31.9
   09/03/2016 05:30      64.9      64.8       72     55.5      0.00      0.00      84.3     0.51      1011.0     2       112         4       110        8.48     270      -26.3
   09/03/2016 05:20      64.9      64.6       72     55.6      0.00      0.00      84.3     0.51      1011.0     2        85         4       114        8.48     269      -29.5
   09/03/2016 05:10      64.9      64.6       72     55.7      0.00      0.00      84.4     0.51      1011.0     3       109         4       132        8.48     269      -31.6
   09/03/2016 05:00      64.8      64.6       73     55.9      0.00      0.00      84.9     0.51      1011.0     3       119         4       131        8.48     269      -25.8
   09/03/2016 04:50      64.8      64.6       73     55.9      0.00      0.00      84.1     0.51      1011.0     3        98         5       115        8.48     269      -23.5
   09/03/2016 04:40      64.9      64.5       73     55.9      0.00      0.00      84.5     0.51      1011.0     3       107         5       134        8.49     269      -19.8
   09/03/2016 04:30      64.7      64.3       74     56.0      0.00      0.00      84.7     0.51      1011.0     2       112         3       105        8.49     269      -20.0
   09/03/2016 04:20      64.5      64.2       75     56.0      0.00      0.00      84.6     0.51      1011.0     3       123         4       122        8.49     269      -18.3
   09/03/2016 04:10      64.3      63.9       77     56.6      0.00      0.00      84.5     0.51      1011.0     3       112         5       102        8.49     269      -19.0
   09/03/2016 04:00      63.9      63.7       79     57.1      0.00      0.00      84.4     0.51      1011.0     2       132         3       136        8.49     269      -18.6
   09/03/2016 03:50      64.0      63.7       78     56.7      0.00      0.00      84.7     0.51      1011.0     3       123         5       137        8.49     269      -18.0
   09/03/2016 03:40      63.6      63.2       80     57.2      0.00      0.00      84.7     0.51      1011.0     3       162         5       155        8.49     269      -17.5
   09/03/2016 03:30      63.4      63.2       81     57.5      0.00      0.00      84.4     0.51      1011.0     2       155         3       185        8.49     269      -17.3
   09/03/2016 03:20      63.3      62.8       83     57.6      0.00      0.00      84.8     0.51      1011.0     2       128         3       147        8.49     269      -16.5
   09/03/2016 03:10      62.9      62.6       84     57.8      0.00      0.00      85.0     0.51      1011.0     3       119         5        82        8.49     269      -15.5
   09/03/2016 03:00      62.5      62.3       85     58.0      0.00      0.00      84.9     0.51      1011.0     2        80         2        33        8.49     269      -15.5
   09/03/2016 02:50      62.6      62.4       85     58.1      0.00      0.00      84.9     0.51      1011.0     2        87         2        94        8.49     269      -15.5
   09/03/2016 02:40      62.6      62.2       85     58.0      0.00      0.00      85.0     0.51      1011.0     1        42         2        48        8.49     269      -16.0
   09/03/2016 02:30      62.4      62.2       85     57.8      0.00      0.00      85.2     0.51      1011.0     2        99         3        94        8.49     269      -15.7
   09/03/2016 02:20      62.7      62.3       84     57.5      0.00      0.00      85.1     0.51      1011.0     2        68         3        91        8.49     269      -15.8
   09/03/2016 02:10      62.5      62.1       83     57.0      0.00      0.00      84.9     0.51      1011.0     2        90         2        68        8.49     269      -15.6
   09/03/2016 02:00      62.3      62.1       83     56.9      0.00      0.00      85.0     0.51      1012.0     1        96         2       117        8.49     269      -15.7
   09/03/2016 01:50      62.3      61.8       83     56.7      0.00      0.00      85.0     0.51      1012.0     1       124         1        65        8.50     269      -15.3
   09/03/2016 01:40      62.1      61.4       84     56.7      0.00      0.00      85.0     0.51      1012.0     1       154         2       151        8.50     269      -14.8
   09/03/2016 01:30      61.4      61.0       84     56.2      0.00      0.00      85.4     0.51      1012.0     2       189         3       183        8.50     269      -14.2
   09/03/2016 01:20      61.1      60.8       83     55.7      0.00      0.00      85.2     0.51      1012.0     3       174         4       173        8.50     269      -13.7
   09/03/2016 01:10      60.9      60.5       84     55.7      0.00      0.00      85.3     0.51      1012.0     3       162         4       169        8.50     269      -13.5
   09/03/2016 01:00      60.8      60.5       84     55.7      0.00      0.00      84.9     0.51      1012.0     3       152         4       153        8.50     269      -22.7
   09/03/2016 00:50      60.5      60.3       84     55.6      0.00      0.00      85.3     0.51      1012.0     3       161         4       161        8.50     269      -22.3
   09/03/2016 00:40      60.9      60.4       83     55.5      0.00      0.00      85.7     0.51      1012.0     3       167         4       174        8.50     269      -50.1
   09/03/2016 00:30      62.0      61.1       83     56.3      0.00      0.00      85.1     0.51      1012.0     1       236         2       272        8.50     269      -61.1
   09/03/2016 00:20      62.4      62.1       83     57.1      0.00      0.00      85.4     0.51      1012.0     1        56         2       113        8.50     268      -63.8
   09/03/2016 00:10      62.6      62.4       83     57.3      0.00      0.00      85.4     0.51      1012.0     1        94         3       102        8.50     269      -65.4
   09/03/2016 00:00      62.8      62.6       82     57.3      0.00      0.00      85.2     0.51      1011.0     1        89         3        80        8.51     268      -66.5
   09/02/2016 23:50      63.0      62.8       82     57.4      0.00      0.00      85.1     0.51      1011.0     2        88         2        89        8.51     268      -67.0
   09/02/2016 23:40      63.1      62.8       81     57.0      0.00      0.00      85.1     0.51      1011.0     1        86         2        77        8.51     268      -69.4
   09/02/2016 23:30      63.7      63.2       80     57.2      0.00      0.00      85.6     0.51      1011.0     1        67         1        34        8.51     268      -70.8
   09/02/2016 23:20      64.2      63.7       79     57.3      0.00      0.00      85.8     0.51      1011.0     0        48         1        68        8.51     268      -72.4
   09/02/2016 23:10      64.4      64.1       79     57.7      0.00      0.00      85.6     0.51      1011.0     1        84         1        96        8.51     268      -73.2
   09/02/2016 23:00      64.9      64.5       79     57.9      0.00      0.00      85.2     0.51      1011.0     2        97         3        96        8.51     268      -73.1
   09/02/2016 22:50      65.2      64.8       78     58.0      0.00      0.00      85.6     0.51      1011.0     2        74         4        64        8.51     268      -73.2
   09/02/2016 22:40      65.5      65.2       76     57.6      0.00      0.00      85.6     0.51      1011.0     1        68         1        69        8.51     268      -73.6
   09/02/2016 22:30      65.6      65.4       76     57.5      0.00      0.00      85.5     0.51      1011.0     1        22         3        56        8.51     268      -73.4
   09/02/2016 22:20      66.0      65.6       74     57.4      0.00      0.00      85.5     0.51      1011.0     0        66         1        89        8.51     267      -73.8
   09/02/2016 22:10      66.3      66.1       74     57.5      0.00      0.00      85.9     0.51      1011.0     1        49         2        60        8.51     267      -74.3
   09/02/2016 22:00      66.6      66.3       73     57.5      0.00      0.00      85.4     0.51      1011.0     1        60         2        21        8.51     267      -75.0
   09/02/2016 21:50      67.2      66.7       72     57.5      0.00      0.00      85.4     0.51      1011.0     2        94         4       111        8.52     267      -75.6
   09/02/2016 21:40      67.8      67.2       70     57.2      0.00      0.00      85.5     0.51      1011.0     1        75         2        80        8.52     267      -75.8
   09/02/2016 21:30      68.1      67.8       68     57.2      0.00      0.00      85.6     0.51      1011.0     2        38         2        59        8.52     267      -76.3
   09/02/2016 21:20      68.3      68.0       67     57.0      0.00      0.00      85.6     0.51      1011.0     1        98         2        36        8.52     267      -76.5
   09/02/2016 21:10      68.5      68.1       67     57.1      0.00      0.00      85.7     0.51      1011.0     2       162         3       187        8.52     267      -77.2
   09/02/2016 21:00      68.8      68.6       66     57.1      0.00      0.00      85.5     0.51      1011.0     2       186         3       198        8.52     267      -77.7
   09/02/2016 20:50      69.3      68.8       66     57.3      0.00      0.00      85.2     0.51      1011.0     3       175         4       187        8.52     267      -77.7
   09/02/2016 20:40      69.6      69.1       66     57.3      0.00      0.00      85.3     0.51      1011.0     3       166         5       176        8.53     267      -78.5
   09/02/2016 20:30      70.3      69.6       65     57.4      0.00      0.00      85.6     0.51      1011.0     4       183         6       186        8.53     266      -78.8
   09/02/2016 20:20      71.0      70.4       63     57.5      0.00      0.00      85.6     0.51      1011.0     3       181         4       169        8.53     266      -80.0
   09/02/2016 20:10      71.5      71.0       62     57.6      0.00      0.00      85.5     0.51      1010.0     3       184         6       174        8.53     266      -80.0
   09/02/2016 20:00      72.2      71.6       61     57.7      0.00      0.00      85.3     0.51      1010.0     4       171         5       166        8.53     266      -80.8
   09/02/2016 19:50      72.9      72.2       60     57.8      0.00      0.00      85.4     0.51      1010.0     3       174         4       168        8.54     266      -81.3
   09/02/2016 19:40      73.5      73.0       58     57.6      0.00      0.00      85.5     0.51      1010.0     3       163         4       205        8.54     266      -82.6
   09/02/2016 19:30      74.2      73.5       57     57.6      0.00      0.00      85.3     0.51      1010.0     3       178         4       175        8.54     266      -82.9
   09/02/2016 19:20      74.9      74.3       55     57.5      0.00      0.00      85.2     0.51      1010.0     4       191         5       190        8.54     266      -81.3
   09/02/2016 19:10      75.6      75.1       54     57.3      0.00      0.00      85.3     0.51      1010.0     3       172         4       162        8.55     266      -77.7
   09/02/2016 19:00      76.1      75.7       52     56.8      0.00      0.00      85.3     0.51      1010.0     5       176         7       156        8.55     265      -69.5
   09/02/2016 18:50      76.8      76.2       49     55.9      0.00      0.00      85.2     0.51      1010.0     4       172         6       177        8.56     265      -58.0
   09/02/2016 18:40      77.6      76.8       47     55.5      0.00      0.00      85.3     0.51      1010.0     4       184         5       199        8.58     265      -40.1
   09/02/2016 18:30      78.5      77.8       45     54.9      0.00      0.00      85.1     0.51      1010.0     5       177         6       180        8.59     265      -19.1
   09/02/2016 18:20      78.9      78.4       44     54.6      0.00      0.00      85.1     0.51      1010.0     5       173         8       161        8.59     265        2.7
   09/02/2016 18:10      80.4      79.1       42     54.5      0.00      0.00      85.1     0.51      1010.0     5       185         7       188        8.60     265       26.6
   09/02/2016 18:00      80.9      80.4       41     54.6      0.00      0.00      85.0     0.51      1010.0     3       175         5       205        8.60     265       48.3
   09/02/2016 17:50      81.3      80.4       40     54.3      0.00      0.00      84.9     0.51      1010.0     4       161         6       178        8.60     265       71.0
   09/02/2016 17:40      81.9      81.6       37     53.3      0.00      0.00      84.8     0.51      1010.0     5       152         6       143        8.61     266       96.2
   09/02/2016 17:30      82.5      81.9       37     53.5      0.00      0.00      84.8     0.51      1010.0     5       169         7       190        8.61     266      120.2
   09/02/2016 17:20      83.7      82.6       36     53.5      0.00      0.00      84.7     0.51      1010.0     6       167         8       168        8.62     266      141.1
   09/02/2016 17:10      84.0      83.1       35     53.2      0.00      0.00      84.9     0.51      1010.0     5       175         7       161        8.62     266      162.3
   09/02/2016 17:00      84.4      83.7       33     52.2      0.00      0.00      84.6     0.51      1010.0     7       163        10       160        8.63     266      186.4
   09/02/2016 16:50      85.6      85.0       33     52.6      0.00      0.00      84.6     0.51      1010.0     5       166         7       145        8.63     266      209.0
   09/02/2016 16:40      86.3      85.7       33     53.6      0.00      0.00      84.4     0.51      1010.0     3       158         5       158        8.63     265      230.6
   09/02/2016 16:30      87.7      86.2       34     54.8      0.00      0.00      84.4     0.51      1010.0     3        97         5       223        8.64     266      254.6
   09/02/2016 16:20      88.8      87.7       31     53.8      0.00      0.00      84.2     0.51      1010.0     3       139         7       102        8.64     267      274.7
   09/02/2016 16:10      88.7      88.2       30     52.9      0.00      0.00      84.5     0.51      1010.0     3       101         5        77        8.64     267      292.4
   09/02/2016 16:00      87.9      86.9       31     52.9      0.00      0.00      84.3     0.51      1010.0     3        73         5        57        8.64     267      316.5
   09/02/2016 15:50      88.7      87.3       29     52.1      0.00      0.00      84.3     0.51      1010.0     4        73         7       131        8.65     267      333.9
   09/02/2016 15:40      88.2      87.4       29     51.9      0.00      0.00      84.3     0.51      1010.0     2        52         4       137        8.65     267      352.9
   09/02/2016 15:30      88.0      86.8       29     51.1      0.00      0.00      84.0     0.51      1010.0     4        41         5        55        8.66     267      366.1
   09/02/2016 15:20      87.4      86.2       29     50.7      0.00      0.00      84.0     0.51      1010.0     4        44         5        41        8.66     267      379.6
   09/02/2016 15:10      87.6      87.1       30     52.3      0.00      0.00      83.9     0.51      1010.0     4        32         6        21        8.66     267      396.9
   09/02/2016 15:00      88.0      87.3       32     54.3      0.00      0.00      83.8     0.51      1010.0     4        48         6        85        8.67     267      418.8
   09/02/2016 14:50      87.9      86.6       34     55.0      0.00      0.00      83.9     0.51      1011.0     4        35         5        46        8.67     268      428.3
   09/02/2016 14:40      88.1      87.2       34     55.9      0.00      0.00      83.7     0.51      1011.0     5        46         6        23        8.67     268      442.0
   09/02/2016 14:30      88.5      87.2       36     57.2      0.00      0.00      83.8     0.51      1011.0     4        47         7         2        8.67     267      447.5
   09/02/2016 14:20      87.4      86.6       37     57.4      0.00      0.00      83.8     0.51      1011.0     5        18         7         9        8.68     267      457.0
   09/02/2016 14:10      87.4      86.0       37     57.5      0.00      0.00      83.7     0.51      1011.0     4        36         6        60        8.68     267      467.4
   09/02/2016 14:00      87.6      86.8       37     57.6      0.00      0.00      83.5     0.50      1011.0     4        33         5        31        8.68     268      471.6
   09/02/2016 13:50      87.7      86.6       36     57.5      0.00      0.00      83.6     0.50      1011.0     3        26         5       356        8.68     268      479.8
   09/02/2016 13:40      86.6      85.0       38     57.2      0.00      0.00      83.6     0.50      1011.0     3        79         6        65        8.68     268      493.7
   09/02/2016 13:30      86.5      85.2       37     57.0      0.00      0.00      83.6     0.50      1011.0     3        52         6       100        8.68     268      497.4
   09/02/2016 13:20      86.6      85.0       37     56.7      0.00      0.00      83.5     0.50      1011.0     3        23         6       346        8.68     267      500.4
   09/02/2016 13:10      85.7      84.8       38     56.8      0.00      0.00      83.5     0.50      1011.0     2        55         4        89        8.69     268      504.7
   09/02/2016 13:00      85.6      83.8       39     57.1      0.00      0.00      83.5     0.50      1012.0     3       108         6       147        8.69     268      508.5
   09/02/2016 12:50      84.3      83.6       41     57.5      0.00      0.00      83.1     0.50      1012.0     4        54         6        71        8.69     268      510.3
   09/02/2016 12:40      83.6      82.5       43     58.0      0.00      0.00      83.7     0.50      1012.0     3       348         6       345        8.69     268      505.5
   09/02/2016 12:30      82.5      81.1       45     58.2      0.00      0.00      83.3     0.50      1012.0     3         6         5        31        8.69     268      506.0
   09/02/2016 12:20      81.8      80.9       46     58.5      0.00      0.00      83.1     0.50      1012.0     3        17         4        41        8.70     268      504.9
   09/02/2016 12:10      81.3      80.4       47     58.6      0.00      0.00      83.4     0.50      1013.0     4        30         7        71        8.70     268      506.9
   09/02/2016 12:00      81.2      79.7       48     58.6      0.00      0.00      83.3     0.50      1013.0     3       321         5       328        8.70     268      502.1
   09/02/2016 11:50      79.6      78.8       49     58.4      0.00      0.00      83.2     0.50      1013.0     3       321         4       296        8.70     268      497.3
   09/02/2016 11:40      79.5      78.7       49     58.5      0.00      0.00      83.6     0.50      1013.0     3        18         6         1        8.70     269      494.2
   09/02/2016 11:30      79.5      77.7       50     58.4      0.00      0.00      83.4     0.50      1013.0     3       352         4       352        8.70     269      486.2
   09/02/2016 11:20      77.9      75.8       52     58.3      0.00      0.00      83.3     0.50      1013.0     3       341         4       320        8.70     269      479.7
   09/02/2016 11:10      75.7      74.4       55     58.0      0.00      0.00      83.4     0.50      1013.0     3       282         4       284        8.70     269      476.2
   09/02/2016 11:00      74.4      74.0       56     57.8      0.00      0.00      83.3     0.51      1013.0     3       299         4       344        8.70     269      460.0
   09/02/2016 10:50      74.6      73.5       57     57.9      0.00      0.00      83.6     0.51      1013.0     3       289         6       312        8.70     268      448.3
   09/02/2016 10:40      74.2      73.3       58     58.0      0.00      0.00      83.3     0.51      1013.0     3       339         5       357        8.70     269      437.7
   09/02/2016 10:30      74.2      71.8       59     58.0      0.00      0.00      83.8     0.51      1014.0     3       327         4       344        8.70     269      427.8
   09/02/2016 10:20      72.5      71.7       61     57.7      0.00      0.00      83.6     0.51      1014.0     2       347         3        37        8.71     269      412.0
   09/02/2016 10:10      72.3      70.7       63     57.9      0.00      0.00      83.7     0.51      1014.0     2        37         4       350        8.71     270      394.8
   09/02/2016 10:00      71.2      70.1       64     58.1      0.00      0.00      83.6     0.51      1014.0     2        62         4       177        8.71     270      379.8
   09/02/2016 09:50      69.8      67.4       70     58.1      0.00      0.00      83.4     0.51      1014.0     3       143         5        77        8.71     270      353.9
   09/02/2016 09:40      67.7      66.8       72     57.9      0.00      0.00      83.7     0.51      1014.0     4       198         6       205        8.71     270      335.4
   09/02/2016 09:30      67.2      66.6       73     58.0      0.00      0.00      83.5     0.51      1014.0     3       147         5       187        8.71     270      259.2
   09/02/2016 09:20      67.2      65.7       75     58.1      0.00      0.00      83.6     0.51      1014.0     2       204         3       123        8.71     270      172.5
   09/02/2016 09:10      66.0      65.2       77     58.0      0.00      0.00      84.0     0.51      1014.0     2       223         4       220        8.71     270      135.2
   09/02/2016 09:00      65.5      64.9       77     58.1      0.00      0.00      83.4     0.51      1014.0     1       125         2       122        8.71     270      112.9
   09/02/2016 08:50      64.9      64.5       79     58.1      0.00      0.00      83.8     0.51      1014.0     2        89         3        85        8.71     270       88.5
   09/02/2016 08:40      64.7      63.9       80     58.1      0.00      0.00      83.7     0.51      1014.0     2        96         3        66        8.71     271       65.6
   09/02/2016 08:30      64.0      63.5       81     57.9      0.00      0.00      84.2     0.51      1014.0     2       116         3       124        8.71     270       51.0
   09/02/2016 08:20      63.6      63.4       82     57.9      0.00      0.00      84.0     0.51      1014.0     2       174         3       170        8.71     270       42.1
   09/02/2016 08:10      63.8      63.7       81     58.0      0.00      0.00      83.8     0.51      1014.0     2       126         4       125        8.71     271       35.9
   09/02/2016 08:00      63.7      63.2       82     58.0      0.00      0.00      83.7     0.51      1014.0     2        90         3        79        8.71     270       24.9
   09/02/2016 07:50      63.4      63.2       83     58.1      0.00      0.00      84.0     0.51      1014.0     3       109         5       120        8.71     270       19.4
   09/02/2016 07:40      63.4      63.0       84     58.1      0.00      0.00      83.5     0.51      1014.0     2       116         3        71        8.71     270       12.0
   09/02/2016 07:30      63.4      62.9       83     58.1      0.00      0.00      84.1     0.52      1013.0     3       112         4       129        8.71     270       10.9
   09/02/2016 07:20      63.5      63.3       83     58.0      0.00      0.00      83.9     0.52      1013.0     3        95         4        67        8.71     270        5.2
   09/02/2016 07:10      63.7      63.3       82     57.9      0.00      0.00      83.9     0.51      1013.0     2        80         3        66        8.72     270        0.5
   09/02/2016 07:00      63.4      63.3       82     57.9      0.00      0.00      84.1     0.52      1013.0     2        76         3        33        8.72     270       -4.8
   09/02/2016 06:50      63.5      63.3       83     58.0      0.00      0.00      84.2     0.52      1013.0     2        46         3        71        8.72     270       -9.1
   09/02/2016 06:40      63.5      63.2       84     58.4      0.00      0.00      84.3     0.52      1013.0     2        79         5        70        8.72     270      -11.3
   09/02/2016 06:30      63.3      63.0       85     58.5      0.00      0.00      84.2     0.52      1013.0     2       118         4       100        8.72     270      -12.4
   09/02/2016 06:20      63.1      62.9       85     58.5      0.00      0.00      84.2     0.52      1013.0     2       114         3        74        8.72     270      -12.8
   09/02/2016 06:10      63.2      62.8       85     58.5      0.00      0.00      84.4     0.52      1013.0     2       106         3        58        8.72     270      -12.7
   09/02/2016 06:00      62.9      62.6       86     58.4      0.00      0.00      84.3     0.52      1013.0     1       165         2       206        8.72     270      -12.5
   09/02/2016 05:50      62.8      62.5       86     58.3      0.00      0.00      84.4     0.52      1013.0     3       118         4       130        8.72     270      -12.9
   09/02/2016 05:40      63.0      62.7       85     58.4      0.00      0.00      84.5     0.52      1013.0     2       138         3       126        8.72     270      -13.8
   09/02/2016 05:30      63.0      62.8       85     58.4      0.00      0.00      84.3     0.52      1013.0     1       119         3       148        8.72     270      -13.9
   09/02/2016 05:20      62.8      62.5       85     58.1      0.00      0.00      84.7     0.52      1013.0     2       145         2       169        8.72     270      -14.2
   09/02/2016 05:10      62.6      61.9       84     57.4      0.00      0.00      84.9     0.52      1013.0     2       130         3       163        8.72     270      -14.4
   09/02/2016 05:00      62.0      61.3       82     56.2      0.00      0.00      84.5     0.52      1013.0     2       149         3       156        8.72     270      -14.9
   09/02/2016 04:50      61.4      60.4       84     56.0      0.00      0.00      84.5     0.52      1013.0     1       109         2        69        8.73     270      -13.6
   09/02/2016 04:40      60.5      59.7       86     55.8      0.00      0.00      84.8     0.52      1013.0     1       140         1       140        8.73     270      -12.2
   09/02/2016 04:30      59.6      59.4       88     55.9      0.00      0.00      85.2     0.52      1013.0     1       139         1       128        8.73     270      -15.4
   09/02/2016 04:20      59.6      59.4       87     55.7      0.00      0.00      84.6     0.52      1013.0     1       136         1       149        8.73     270      -33.8
   09/02/2016 04:10      59.7      59.4       87     55.7      0.00      0.00      84.8     0.52      1013.0     0       169         1       194        8.73     270      -39.7
   09/02/2016 04:00      59.7      59.6       87     55.7      0.00      0.00      84.8     0.52      1013.0     1       183         1       144        8.73     270      -41.2
   09/02/2016 03:50      60.1      59.7       86     55.6      0.00      0.00      84.6     0.52      1013.0     1       134         2       135        8.73     270      -42.4
   09/02/2016 03:40      60.4      60.1       86     56.2      0.00      0.00      85.0     0.52      1013.0     1       174         1       129        8.73     269      -41.9
   09/02/2016 03:30      60.4      60.2       86     56.2      0.00      0.00      85.0     0.52      1013.0     1       160         2       138        8.73     269      -43.2
   09/02/2016 03:20      60.5      60.3       87     56.4      0.00      0.00      84.9     0.52      1013.0     2       153         2       146        8.73     269      -44.2
   09/02/2016 03:10      60.5      60.2       86     56.3      0.00      0.00      85.2     0.52      1013.0     2       148         3       148        8.73     269      -45.6
   09/02/2016 03:00      60.5      60.3       86     56.3      0.00      0.00      85.0     0.52      1013.0     2       143         2       153        8.73     269      -45.9
   09/02/2016 02:50      60.8      60.6       86     56.6      0.00      0.00      85.4     0.52      1013.0     1       158         2       133        8.73     269      -47.6
   09/02/2016 02:40      60.9      60.6       85     56.3      0.00      0.00      85.1     0.52      1013.0     1       158         2       144        8.73     269      -51.5
   09/02/2016 02:30      61.0      60.8       85     56.4      0.00      0.00      85.4     0.52      1013.0     1       181         2       236        8.73     269      -52.1
   09/02/2016 02:20      60.9      60.6       85     56.2      0.00      0.00      85.6     0.52      1013.0     1       182         2       159        8.73     269      -54.9
   09/02/2016 02:10      61.4      61.0       85     56.8      0.00      0.00      85.3     0.52      1013.0     1       148         2       156        8.73     269      -55.4
   09/02/2016 02:00      61.7      61.6       84     56.9      0.00      0.00      85.4     0.52      1013.0     1       147         1       153        8.73     269      -58.9
   09/02/2016 01:50      62.4      61.7       83     56.6      0.00      0.00      85.3     0.52      1013.0     1       124         1       134        8.73     269      -59.8
   09/02/2016 01:40      62.4      62.0       83     57.1      0.00      0.00      85.4     0.52      1013.0     1        91         1        32        8.74     269      -61.7
   09/02/2016 01:30      62.3      61.8       81     56.2      0.00      0.00      85.4     0.52      1013.0     2       134         3       122        8.74     269      -65.9
   09/02/2016 01:20      63.0      62.3       81     56.6      0.00      0.00      85.5     0.52      1013.0     1       104         2       113        8.74     269      -65.0
   09/02/2016 01:10      63.2      62.7       80     56.6      0.00      0.00      85.5     0.52      1013.0     1       118         1       116        8.74     269      -65.7
   09/02/2016 01:00      63.6      63.3       79     56.8      0.00      0.00      85.8     0.52      1013.0     1        95         1       101        8.74     269      -66.6
   09/02/2016 00:50      63.8      63.6       79     57.0      0.00      0.00      85.3     0.52      1013.0     1        96         2        88        8.74     269      -67.8
   09/02/2016 00:40      63.9      63.5       78     56.7      0.00      0.00      85.9     0.52      1013.0     1        84         1        90        8.74     269      -68.4
   09/02/2016 00:30      64.3      63.8       76     56.5      0.00      0.00      85.7     0.52      1014.0     1        47         2        77        8.74     268      -69.0
   09/02/2016 00:20      64.5      64.2       76     56.5      0.00      0.00      85.6     0.52      1013.0     1        53         2        21        8.74     268      -69.5
   09/02/2016 00:10      64.9      64.5       75     56.6      0.00      0.00      85.1     0.52      1014.0     1        79         2        57        8.74     268      -70.0
   09/02/2016 00:00      65.2      64.9       74     56.6      0.00      0.00      85.7     0.52      1014.0     1        85         2        71        8.74     268      -70.3
   09/01/2016 23:50      65.5      65.2       73     56.6      0.00      0.00      85.8     0.52      1014.0     1        84         2        60        8.74     268      -70.9
   09/01/2016 23:40      65.7      65.3       73     56.7      0.00      0.00      85.6     0.52      1014.0     1        45         3        75        8.74     268      -71.7
   09/01/2016 23:30      65.8      65.6       73     56.9      0.00      0.00      85.7     0.52      1014.0     1        61         3        71        8.75     268      -72.0
   09/01/2016 23:20      66.1      65.7       73     57.0      0.00      0.00      85.7     0.52      1013.0     1        96         1        80        8.75     268      -72.7
   09/01/2016 23:10      66.4      66.0       72     57.0      0.00      0.00      85.5     0.52      1013.0     2        95         3        77        8.75     268      -73.0
   09/01/2016 23:00      66.9      66.6       71     57.0      0.00      0.00      85.7     0.52      1013.0     2        90         3       102        8.75     268      -73.0
   09/01/2016 22:50      67.4      67.0       69     56.8      0.00      0.00      85.6     0.52      1013.0     1        79         2       105        8.75     267      -73.4
   09/01/2016 22:40      67.7      67.4       69     56.9      0.00      0.00      86.0     0.52      1013.0     1        51         2        28        8.75     268      -74.4
   09/01/2016 22:30      67.8      67.5       69     57.1      0.00      0.00      85.8     0.52      1013.0     1        78         2        63        8.75     267      -75.2
   09/01/2016 22:20      68.1      67.8       68     57.1      0.00      0.00      85.7     0.52      1013.0     2       104         3       109        8.75     267      -75.9
   09/01/2016 22:10      68.7      68.3       67     57.1      0.00      0.00      85.6     0.52      1013.0     2        93         3       108        8.75     267      -76.4
   09/01/2016 22:00      69.2      68.9       67     57.5      0.00      0.00      85.9     0.52      1012.0     2        78         3        73        8.76     267      -76.5
   09/01/2016 21:50      69.7      69.3       66     57.8      0.00      0.00      85.9     0.52      1012.0     2       106         3       116        8.76     267      -77.1
   09/01/2016 21:40      70.2      69.7       66     58.0      0.00      0.00      85.5     0.52      1012.0     2        96         4        84        8.76     267      -77.2
   09/01/2016 21:30      70.6      70.3       65     58.2      0.00      0.00      85.8     0.52      1012.0     2        92         3        91        8.76     267      -77.9
   09/01/2016 21:20      71.0      70.7       65     58.4      0.00      0.00      85.9     0.52      1012.0     2        93         3        91        8.76     267      -77.6
   09/01/2016 21:10      71.6      71.2       64     58.4      0.00      0.00      85.7     0.52      1012.0     1        97         3        64        8.77     267      -78.3
   09/01/2016 21:00      72.3      71.8       62     58.5      0.00      0.00      85.6     0.52      1012.0     2        69         3        67        8.77     267      -79.2
   09/01/2016 20:50      73.3      72.6       61     58.5      0.00      0.00      85.7     0.52      1012.0     2        75         3        93        8.77     266      -80.6
   09/01/2016 20:40      74.4      73.5       58     58.3      0.00      0.00      85.9     0.52      1011.0     2        82         4        92        8.77     266      -81.2
   09/01/2016 20:30      75.8      74.7       55     57.9      0.00      0.00      85.7     0.52      1011.0     2        73         4       102        8.77     266      -83.0
   09/01/2016 20:20      77.3      76.0       52     57.6      0.00      0.00      85.6     0.52      1011.0     2        49         2        30        8.77     266      -83.8
   09/01/2016 20:10      77.8      77.4       42     52.5      0.00      0.00      85.5     0.52      1011.0     3       180         5       203        8.78     266      -83.4
   09/01/2016 20:00      78.4      77.8       40     52.0      0.00      0.00      85.4     0.52      1011.0     3       217         4       244        8.78     266      -84.2
   09/01/2016 19:50      79.2      78.5       39     52.0      0.00      0.00      85.6     0.52      1011.0     3       218         4       254        8.78     266      -85.1
   09/01/2016 19:40      80.1      79.4       38     52.0      0.00      0.00      85.3     0.52      1011.0     2       225         4       256        8.79     265      -86.1
   09/01/2016 19:30      80.9      80.3       37     52.2      0.00      0.00      85.5     0.52      1010.0     3       277         6       267        8.79     265      -86.6
   09/01/2016 19:20      82.3      81.0       37     52.4      0.00      0.00      85.5     0.52      1010.0     3       273         6       248        8.79     265      -84.8
   09/01/2016 19:10      83.6      82.4       35     52.1      0.00      0.00      85.6     0.52      1010.0     3       254         5       264        8.80     265      -82.1
   09/01/2016 19:00      84.0      83.6       34     52.4      0.00      0.00      85.2     0.52      1010.0     3       277         6       243        8.80     265      -73.7
   09/01/2016 18:50      84.7      83.8       34     52.8      0.00      0.00      85.3     0.52      1010.0     4       263         6       237        8.81     265      -60.1
   09/01/2016 18:40      86.0      84.9       33     53.2      0.00      0.00      85.4     0.52      1010.0     4       280         6       298        8.81     265      -42.3
   09/01/2016 18:30      86.2      85.6       33     53.7      0.00      0.00      85.4     0.52      1010.0     4       297         9       302        8.81     265      -18.5
   09/01/2016 18:20      88.1      86.5       33     54.3      0.00      0.00      85.2     0.52      1010.0     4       296         6       272        8.81     265        4.6
   09/01/2016 18:10      88.0      87.6       33     54.7      0.00      0.00      85.1     0.52      1010.0     4       262         6       269        8.82     265       28.8
   09/01/2016 18:00      89.0      87.6       32     54.7      0.00      0.00      85.0     0.52      1010.0     6       246         6       252        8.82     265       52.6
   09/01/2016 17:50      89.1      88.5       31     54.0      0.00      0.00      85.0     0.52      1010.0     5       294         9       323        8.82     265       75.3
   09/01/2016 17:40      89.1      88.5       31     54.1      0.00      0.00      85.2     0.52      1010.0     5       281         6       262        8.83     265       99.0
   09/01/2016 17:30      89.4      89.1       32     55.7      0.00      0.00      84.8     0.52      1010.0     6       259         8       262        8.83     265      121.9
   09/01/2016 17:20      90.2      89.6       32     56.0      0.00      0.00      84.9     0.52      1010.0     6       257         7       243        8.84     265      143.7
   09/01/2016 17:10      92.2      90.1       30     55.5      0.00      0.00      84.9     0.52      1010.0     4       200         6       133        8.84     265      165.4
   09/01/2016 17:00      91.9      91.0       30     55.9      0.00      0.00      84.8     0.52      1010.0     3       272         5       252        8.85     265      186.7
   09/01/2016 16:50      91.2      90.6       26     51.5      0.00      0.00      84.5     0.52      1010.0     3       190         5       185        8.85     265      206.1
   09/01/2016 16:40      91.1      90.6       24     49.5      0.00      0.00      84.6     0.52      1010.0     5       221         9       174        8.85     265      230.8
   09/01/2016 16:30      91.8      91.2       21     45.5      0.00      0.00      84.7     0.52      1010.0     6       172        10       210        8.86     265      252.9
   09/01/2016 16:20      92.6      91.5       20     44.6      0.00      0.00      84.4     0.52      1010.0     7       154         9       155        8.87     266      276.0
   09/01/2016 16:10      92.4      91.3       19     44.1      0.00      0.00      84.3     0.52      1010.0     6       181        10       174        8.87     266      300.7
   09/01/2016 16:00      92.3      91.8       18     42.6      0.00      0.00      84.4     0.52      1010.0     7       142        10       142        8.88     266      321.0
   09/01/2016 15:50      92.6      91.2       21     46.0      0.00      0.00      84.3     0.52      1010.0     8       166        10       170        8.89     266      342.3
   09/01/2016 15:40      92.9      92.3       23     49.5      0.00      0.00      84.0     0.52      1010.0     6       177         9       154        8.90     266      357.4
   09/01/2016 15:30      93.6      92.6       25     52.1      0.00      0.00      84.2     0.52      1010.0     7       174        10       165        8.90     266      373.7
   09/01/2016 15:20      94.8      93.4       24     51.4      0.00      0.00      84.0     0.52      1010.0     6       172         8       142        8.90     266      387.2
   09/01/2016 15:10      96.1      95.1       22     50.9      0.00      0.00      83.9     0.52      1010.0     5       310         8       260        8.91     267      394.0
   09/01/2016 15:00      97.4      95.5       22     51.3      0.00      0.00      84.0     0.52      1010.0     2       101         5       111        8.91     267      407.7
   09/01/2016 14:50      95.5      94.5       24     52.2      0.00      0.00      83.8     0.52      1010.0     3        21         4        31        8.92     267      422.2
   09/01/2016 14:40      94.5      93.8       26     53.8      0.00      0.00      83.7     0.52      1010.0     4        51         6        71        8.92     267      434.4
   09/01/2016 14:30      94.9      94.0       26     54.3      0.00      0.00      83.6     0.51      1010.0     4        45         6       106        8.92     267      443.1
   09/01/2016 14:20      94.9      93.8       26     54.5      0.00      0.00      83.8     0.51      1010.0     4        60         6        74        8.92     267      449.7
   09/01/2016 14:10      93.6      93.1       29     56.7      0.00      0.00      83.7     0.51      1011.0     3        21         6       303        8.93     267      462.7
   09/01/2016 14:00      93.7      92.4       30     56.9      0.00      0.00      83.5     0.51      1011.0     4        18         8       350        8.93     267      471.7
   09/01/2016 13:50      93.2      92.4       31     57.5      0.00      0.00      83.4     0.51      1011.0     3        20         5        24        8.93     267      479.2
   09/01/2016 13:40      92.9      92.1       31     57.7      0.00      0.00      83.5     0.51      1011.0     4        20         7        21        8.93     268      487.7
   09/01/2016 13:30      92.3      90.8       33     58.5      0.00      0.00      83.5     0.51      1011.0     3        79         4        30        8.94     268      494.0
   09/01/2016 13:20      91.1      90.1       34     58.4      0.00      0.00      83.4     0.51      1011.0     3        17         6       100        8.94     268      496.7
   09/01/2016 13:10      89.8      88.8       35     57.8      0.00      0.00      83.1     0.51      1011.0     3       275         5       285        8.94     268      502.2
   09/01/2016 13:00      90.3      89.4       35     58.5      0.00      0.00      83.1     0.51      1011.0     2       139         4        13        8.94     268      503.5
   09/01/2016 12:50      90.5      89.5       35     58.9      0.00      0.00      83.3     0.51      1011.0     2         5         4        35        8.94     268      508.9
   09/01/2016 12:40      90.8      89.7       35     59.1      0.00      0.00      83.2     0.51      1012.0     3        18         5        37        8.94     269      503.5
   09/01/2016 12:30      90.1      88.2       36     58.8      0.00      0.00      83.1     0.51      1012.0     3       356         6        25        8.94     269      504.6
   09/01/2016 12:20      88.9      88.3       37     58.9      0.00      0.00      83.2     0.51      1012.0     3         6         5        66        8.94     269      504.9
   09/01/2016 12:10      88.6      87.9       37     58.9      0.00      0.00      83.3     0.51      1012.0     3        52         6        78        8.94     268      505.7
   09/01/2016 12:00      88.5      87.8       38     59.1      0.00      0.00      83.4     0.51      1012.0     3        55         6        58        8.94     269      502.8
   09/01/2016 11:50      88.6      85.7       39     58.8      0.00      0.00      83.2     0.51      1012.0     1        88         3        30        8.94     269      498.8
   09/01/2016 11:40      86.9      85.5       39     58.3      0.00      0.00      83.3     0.51      1012.0     3        96         6       117        8.94     269      496.5
   09/01/2016 11:30      87.1      85.5       38     58.0      0.00      0.00      83.4     0.51      1012.0     3        79         5        83        8.94     269      488.9
   09/01/2016 11:20      85.9      84.6       38     57.2      0.00      0.00      83.2     0.51      1012.0     3        91         6        52        8.94     269      481.8
   09/01/2016 11:10      85.1      83.4       40     57.0      0.00      0.00      83.4     0.51      1012.0     3         5         4       346        8.94     270      472.6
   09/01/2016 11:00      83.9      82.9       41     57.1      0.00      0.00      83.6     0.51      1013.0     3        27         4         1        8.94     269      463.1
   09/01/2016 10:50      83.2      81.8       42     57.0      0.00      0.00      83.5     0.52      1013.0     2        82         4       102        8.94     269      455.3
   09/01/2016 10:40      81.9      81.2       43     57.2      0.00      0.00      83.5     0.52      1013.0     2        98         4        97        8.94     270      440.6
   09/01/2016 10:30      82.4      80.9       44     57.6      0.00      0.00      83.5     0.52      1013.0     2        27         4        93        8.94     270      429.8
   09/01/2016 10:20      80.9      79.3       47     58.1      0.00      0.00      83.5     0.52      1013.0     3         7         4       345        8.95     270      414.0
   09/01/2016 10:10      79.2      78.5       49     58.3      0.00      0.00      83.8     0.52      1013.0     3       349         5       334        8.94     270      399.8
   09/01/2016 10:00      78.4      77.7       51     58.3      0.00      0.00      83.5     0.52      1013.0     2        62         3       134        8.94     270      382.8
   09/01/2016 09:50      79.2      77.5       50     58.4      0.00      0.00      83.9     0.52      1013.0     2       104         4        68        8.94     271      365.3
   09/01/2016 09:40      77.4      76.5       53     58.2      0.00      0.00      84.1     0.52      1013.0     2       340         3       327        8.95     271      345.4
   09/01/2016 09:30      76.6      75.0       54     58.1      0.00      0.00      83.5     0.52      1013.0     2        56         3        25        8.95     271      325.9
   09/01/2016 09:20      75.1      74.2       56     58.0      0.00      0.00      84.0     0.52      1013.0     2       354         4       333        8.94     271      305.7
   09/01/2016 09:10      74.4      73.5       57     58.0      0.00      0.00      83.7     0.52      1013.0     2        25         3        20        8.95     271      283.2
   09/01/2016 09:00      74.3      73.8       57     57.9      0.00      0.00      84.1     0.52      1013.0     2        38         3        93        8.95     271      261.5
   09/01/2016 08:50      73.7      72.5       60     58.0      0.00      0.00      83.8     0.52      1013.0     2        37         4        77        8.95     271      239.0
   09/01/2016 08:40      72.5      71.7       62     58.0      0.00      0.00      84.5     0.52      1013.0     2       352         3       320        8.95     271      214.9
   09/01/2016 08:30      72.2      71.2       62     57.8      0.00      0.00      84.1     0.52      1013.0     2        60         3       353        8.95     271      191.1
   09/01/2016 08:20      71.4      71.0       63     57.8      0.00      0.00      84.1     0.52      1013.0     2        50         4       343        8.95     271      165.7
   09/01/2016 08:10      71.3      69.8       64     58.0      0.00      0.00      84.0     0.52      1013.0     1        71         3        79        8.95     271      141.3
   09/01/2016 08:00      69.8      69.2       67     58.0      0.00      0.00      84.3     0.52      1013.0     2        22         4       345        8.95     271      114.5
   09/01/2016 07:50      69.3      67.1       69     57.5      0.00      0.00      84.5     0.52      1013.0     1        57         2        24        8.95     271       83.8
   09/01/2016 07:40      67.0      65.2       73     57.3      0.00      0.00      84.6     0.52      1013.0     1       116         1       356        8.96     272       54.8
   09/01/2016 07:30      65.0      63.1       79     57.2      0.00      0.00      84.6     0.52      1013.0     0       199         1       189        8.95     272       27.6
   09/01/2016 07:20      63.1      62.2       81     56.7      0.00      0.00      84.5     0.52      1013.0     1       153         1       143        8.95     271      -19.3
   09/01/2016 07:10      62.2      61.6       84     57.0      0.00      0.00      84.6     0.53      1013.0     1       160         1       134        8.96     271      -21.6
   09/01/2016 07:00      61.5      60.9       85     56.8      0.00      0.00      83.9     0.53      1012.0     1       162         2       144        8.96     271      -26.2
   09/01/2016 06:50      61.2      60.8       85     56.3      0.00      0.00      84.3     0.53      1012.0     1       153         2       141        8.96     271      -31.8
   09/01/2016 06:40      61.1      60.8       86     56.6      0.00      0.00      84.5     0.53      1012.0     1       176         1       162        8.96     270      -36.3
   09/01/2016 06:30      61.0      60.4       85     56.1      0.00      0.00      84.4     0.53      1012.0     1       142         2       178        8.96     271      -44.3
   09/01/2016 06:20      61.1      60.6       85     56.2      0.00      0.00      84.3     0.53      1012.0     2       140         3       157        8.96     271      -46.8
   09/01/2016 06:10      61.4      61.1       84     56.4      0.00      0.00      84.7     0.53      1012.0     1       158         1       138        8.96     270      -47.8
   09/01/2016 06:00      61.6      61.3       84     56.6      0.00      0.00      85.2     0.53      1012.0     1       146         1       138        8.96     270      -48.1
   09/01/2016 05:50      61.8      61.6       84     56.9      0.00      0.00      84.7     0.53      1011.0     1       158         1       129        8.96     270      -49.1
   09/01/2016 05:40      62.0      61.6       83     56.6      0.00      0.00      84.7     0.53      1011.0     1       140         2       158        8.96     270      -51.9
   09/01/2016 05:30      62.0      61.7       83     56.5      0.00      0.00      85.0     0.53      1011.0     1       157         2       149        8.96     270      -53.3
   09/01/2016 05:20      62.5      62.0       82     56.7      0.00      0.00      84.4     0.53      1011.0     1       126         2       131        8.96     270      -53.7
   09/01/2016 05:10      62.6      62.2       83     57.0      0.00      0.00      85.1     0.53      1011.0     0       162         1       207        8.96     270      -53.9
   09/01/2016 05:00      62.5      62.3       82     56.8      0.00      0.00      85.1     0.53      1011.0     1       157         1       143        8.96     270      -55.1
   09/01/2016 04:50      63.0      62.5       81     56.8      0.00      0.00      85.1     0.53      1011.0     1       161         2       164        8.96     270      -57.4
   09/01/2016 04:40      62.9      62.3       80     56.5      0.00      0.00      84.8     0.53      1011.0     2       140         3       140        8.96     270      -58.1
   09/01/2016 04:30      63.1      62.8       81     57.0      0.00      0.00      85.2     0.53      1011.0     1       171         2       126        8.97     270      -57.4
   09/01/2016 04:20      63.6      63.0       80     56.9      0.00      0.00      85.3     0.53      1011.0     1       155         1       143        8.97     270      -57.9
   09/01/2016 04:10      63.6      63.3       79     57.0      0.00      0.00      85.5     0.53      1011.0     1       141         1       145        8.97     270      -58.0
   09/01/2016 04:00      63.7      63.6       78     56.9      0.00      0.00      85.2     0.53      1011.0     1       142         1       163        8.97     270      -58.9
   09/01/2016 03:50      63.9      63.8       78     56.8      0.00      0.00      85.4     0.53      1011.0     1       149         1       141        8.97     270      -59.0
   09/01/2016 03:40      64.1      63.8       78     56.9      0.00      0.00      85.1     0.53      1011.0     1       166         1       138        8.97     270      -59.1
   09/01/2016 03:30      63.9      63.6       77     56.3      0.00      0.00      85.5     0.53      1011.0     2       144         2       142        8.97     270      -60.2
   09/01/2016 03:20      64.3      63.9       76     56.3      0.00      0.00      85.1     0.53      1011.0     2       139         3       139        8.97     270      -60.9
   09/01/2016 03:10      64.3      63.9       75     56.0      0.00      0.00      85.7     0.53      1011.0     2       137         3       138        8.97     270      -60.5
   09/01/2016 03:00      64.5      64.2       75     56.1      0.00      0.00      85.6     0.53      1011.0     1       181         2       140        8.97     270      -60.6
   09/01/2016 02:50      64.9      64.4       74     56.1      0.00      0.00      85.9     0.53      1011.0     2       144         3       141        8.98     269      -62.0
   09/01/2016 02:40      65.1      64.7       73     56.0      0.00      0.00      86.2     0.53      1011.0     1       165         3       139        8.98     270      -61.9
   09/01/2016 02:30      64.8      64.5       73     55.9      0.00      0.00      85.6     0.53      1011.0     2       160         2       139        8.98     269      -62.7
   09/01/2016 02:20      65.1      64.9       72     55.8      0.00      0.00      85.8     0.53      1011.0     2       141         3       132        8.98     269      -63.3
   09/01/2016 02:10      65.7      65.3       71     56.0      0.00      0.00      85.8     0.53      1011.0     2       144         2       140        8.98     269      -63.8
   09/01/2016 02:00      66.3      65.8       69     55.7      0.00      0.00      86.2     0.53      1011.0     1       159         3       137        8.98     269      -63.5
   09/01/2016 01:50      66.5      66.0       69     55.9      0.00      0.00      85.6     0.53      1011.0     1       178         2       139        8.98     269      -63.2
   09/01/2016 01:40      66.6      66.3       69     56.0      0.00      0.00      85.7     0.53      1011.0     1       159         1       126        8.98     269      -63.3
   09/01/2016 01:30      66.6      66.3       69     55.9      0.00      0.00      86.2     0.53      1011.0     1       140         1       130        8.98     269      -63.6
   09/01/2016 01:20      66.8      66.5       67     55.5      0.00      0.00      86.0     0.53      1012.0     1       180         2       140        8.99     269      -64.0
   09/01/2016 01:10      67.3      66.7       67     55.5      0.00      0.00      86.2     0.53      1012.0     2       134         2       136        8.99     269      -64.9
   09/01/2016 01:00      67.5      67.4       65     55.3      0.00      0.00      85.9     0.53      1012.0     1       153         1       142        8.99     269      -64.2
   09/01/2016 00:50      67.7      67.4       64     54.9      0.00      0.00      86.3     0.53      1012.0     1       215         2       143        8.99     269      -64.0
   09/01/2016 00:40      68.2      67.7       64     55.2      0.00      0.00      86.3     0.53      1012.0     1       153         2       131        8.99     269      -65.1
   09/01/2016 00:30      68.4      68.0       64     55.5      0.00      0.00      86.2     0.53      1012.0     1       159         2       158        8.99     269      -64.7
   09/01/2016 00:20      68.6      68.3       63     55.3      0.00      0.00      86.4     0.53      1012.0     1       118         1       131        8.99     269      -64.5
   09/01/2016 00:10      69.0      68.6       60     54.3      0.00      0.00      86.0     0.53      1012.0     1       151         1       118        8.99     269      -64.3
   09/01/2016 00:00      69.4      69.1       60     55.0      0.00      0.00      86.4     0.53      1012.0     2       141         2       119        9.00     269      -65.2


<<Back to data home page